<?xml version="1.0" encoding="UTF-8" standalone="no" ?>
<gpx xmlns="http://www.topografix.com/GPX/1/1" xmlns:xsi="http://www.w3.org/2001/XMLSchema-instance" xsi:schemaLocation="http://www.topografix.com/GPX/1/1 http://www.topografix.com/GPX/1/1/gpx.xsd" version="1.1" creator="VisuGPX - https://www.visugpx.com">
  <metadata>
    <name>Thiery - Mont Brune - Villars sur Var</name>
    <desc><![CDATA[Thiery - Mont Brune - Villars sur Var]]></desc>
  </metadata>
  <trk>
    <name><![CDATA[Tracé]]></name>
    <trkseg>
      <trkpt lat="43.97853" lon="7.0317">
        <ele>1032.11</ele>
        <time>2010-04-05T08:08:46Z</time>
      </trkpt>
      <trkpt lat="43.97852" lon="7.03223">
        <ele>1032.59</ele>
        <time>2010-04-05T08:09:03Z</time>
      </trkpt>
      <trkpt lat="43.97853" lon="7.03265">
        <ele>1034.04</ele>
        <time>2010-04-05T08:09:18Z</time>
      </trkpt>
      <trkpt lat="43.97851" lon="7.03288">
        <ele>1035.48</ele>
        <time>2010-04-05T08:09:29Z</time>
      </trkpt>
      <trkpt lat="43.97845" lon="7.03278">
        <ele>1032.59</ele>
        <time>2010-04-05T08:09:40Z</time>
      </trkpt>
      <trkpt lat="43.97844" lon="7.03272">
        <ele>1032.11</ele>
        <time>2010-04-05T08:09:41Z</time>
      </trkpt>
      <trkpt lat="43.97839" lon="7.03262">
        <ele>1028.75</ele>
        <time>2010-04-05T08:09:44Z</time>
      </trkpt>
      <trkpt lat="43.97837" lon="7.03262">
        <ele>1028.75</ele>
        <time>2010-04-05T08:09:45Z</time>
      </trkpt>
      <trkpt lat="43.97835" lon="7.03263">
        <ele>1027.31</ele>
        <time>2010-04-05T08:09:46Z</time>
      </trkpt>
      <trkpt lat="43.97834" lon="7.03264">
        <ele>1026.83</ele>
        <time>2010-04-05T08:09:47Z</time>
      </trkpt>
      <trkpt lat="43.97832" lon="7.03266">
        <ele>1025.86</ele>
        <time>2010-04-05T08:09:48Z</time>
      </trkpt>
      <trkpt lat="43.97831" lon="7.03267">
        <ele>1025.38</ele>
        <time>2010-04-05T08:09:50Z</time>
      </trkpt>
      <trkpt lat="43.9783" lon="7.03266">
        <ele>1024.9</ele>
        <time>2010-04-05T08:09:51Z</time>
      </trkpt>
      <trkpt lat="43.97829" lon="7.03265">
        <ele>1024.42</ele>
        <time>2010-04-05T08:09:52Z</time>
      </trkpt>
      <trkpt lat="43.97827" lon="7.03263">
        <ele>1023.94</ele>
        <time>2010-04-05T08:09:53Z</time>
      </trkpt>
      <trkpt lat="43.97826" lon="7.0326">
        <ele>1022.98</ele>
        <time>2010-04-05T08:09:54Z</time>
      </trkpt>
      <trkpt lat="43.97826" lon="7.03256">
        <ele>1022.02</ele>
        <time>2010-04-05T08:09:55Z</time>
      </trkpt>
      <trkpt lat="43.97825" lon="7.03252">
        <ele>1022.02</ele>
        <time>2010-04-05T08:09:56Z</time>
      </trkpt>
      <trkpt lat="43.97824" lon="7.03248">
        <ele>1020.58</ele>
        <time>2010-04-05T08:09:57Z</time>
      </trkpt>
      <trkpt lat="43.97823" lon="7.03244">
        <ele>1020.58</ele>
        <time>2010-04-05T08:09:58Z</time>
      </trkpt>
      <trkpt lat="43.97822" lon="7.03242">
        <ele>1019.13</ele>
        <time>2010-04-05T08:09:59Z</time>
      </trkpt>
      <trkpt lat="43.9782" lon="7.03238">
        <ele>1018.65</ele>
        <time>2010-04-05T08:10:00Z</time>
      </trkpt>
      <trkpt lat="43.97818" lon="7.03234">
        <ele>1017.69</ele>
        <time>2010-04-05T08:10:01Z</time>
      </trkpt>
      <trkpt lat="43.97817" lon="7.0323">
        <ele>1017.21</ele>
        <time>2010-04-05T08:10:02Z</time>
      </trkpt>
      <trkpt lat="43.97815" lon="7.03226">
        <ele>1016.25</ele>
        <time>2010-04-05T08:10:03Z</time>
      </trkpt>
      <trkpt lat="43.97813" lon="7.03223">
        <ele>1015.77</ele>
        <time>2010-04-05T08:10:04Z</time>
      </trkpt>
      <trkpt lat="43.97811" lon="7.03219">
        <ele>1014.81</ele>
        <time>2010-04-05T08:10:05Z</time>
      </trkpt>
      <trkpt lat="43.9781" lon="7.03213">
        <ele>1013.37</ele>
        <time>2010-04-05T08:10:06Z</time>
      </trkpt>
      <trkpt lat="43.97809" lon="7.03206">
        <ele>1012.89</ele>
        <time>2010-04-05T08:10:07Z</time>
      </trkpt>
      <trkpt lat="43.97808" lon="7.032">
        <ele>1011.93</ele>
        <time>2010-04-05T08:10:08Z</time>
      </trkpt>
      <trkpt lat="43.97803" lon="7.03186">
        <ele>1008.56</ele>
        <time>2010-04-05T08:10:11Z</time>
      </trkpt>
      <trkpt lat="43.97802" lon="7.03182">
        <ele>1007.6</ele>
        <time>2010-04-05T08:10:12Z</time>
      </trkpt>
      <trkpt lat="43.97798" lon="7.03173">
        <ele>1005.2</ele>
        <time>2010-04-05T08:10:17Z</time>
      </trkpt>
      <trkpt lat="43.97798" lon="7.03169">
        <ele>1004.72</ele>
        <time>2010-04-05T08:10:18Z</time>
      </trkpt>
      <trkpt lat="43.97797" lon="7.03166">
        <ele>1004.23</ele>
        <time>2010-04-05T08:10:19Z</time>
      </trkpt>
      <trkpt lat="43.9779" lon="7.03155">
        <ele>1001.35</ele>
        <time>2010-04-05T08:10:23Z</time>
      </trkpt>
      <trkpt lat="43.97783" lon="7.03137">
        <ele>997.51</ele>
        <time>2010-04-05T08:10:30Z</time>
      </trkpt>
      <trkpt lat="43.97776" lon="7.03117">
        <ele>995.1</ele>
        <time>2010-04-05T08:10:34Z</time>
      </trkpt>
      <trkpt lat="43.97773" lon="7.03111">
        <ele>993.18</ele>
        <time>2010-04-05T08:10:35Z</time>
      </trkpt>
      <trkpt lat="43.97767" lon="7.03093">
        <ele>989.33</ele>
        <time>2010-04-05T08:10:38Z</time>
      </trkpt>
      <trkpt lat="43.97767" lon="7.03088">
        <ele>987.89</ele>
        <time>2010-04-05T08:10:39Z</time>
      </trkpt>
      <trkpt lat="43.97768" lon="7.03077">
        <ele>987.89</ele>
        <time>2010-04-05T08:10:51Z</time>
      </trkpt>
      <trkpt lat="43.97768" lon="7.0308">
        <ele>987.89</ele>
        <time>2010-04-05T08:11:03Z</time>
      </trkpt>
      <trkpt lat="43.97769" lon="7.03082">
        <ele>987.41</ele>
        <time>2010-04-05T08:11:04Z</time>
      </trkpt>
      <trkpt lat="43.97769" lon="7.03084">
        <ele>987.41</ele>
        <time>2010-04-05T08:11:05Z</time>
      </trkpt>
      <trkpt lat="43.97769" lon="7.03086">
        <ele>987.41</ele>
        <time>2010-04-05T08:11:06Z</time>
      </trkpt>
      <trkpt lat="43.97769" lon="7.03087">
        <ele>986.93</ele>
        <time>2010-04-05T08:11:07Z</time>
      </trkpt>
      <trkpt lat="43.97769" lon="7.03089">
        <ele>987.41</ele>
        <time>2010-04-05T08:11:08Z</time>
      </trkpt>
      <trkpt lat="43.9777" lon="7.03092">
        <ele>987.89</ele>
        <time>2010-04-05T08:11:48Z</time>
      </trkpt>
      <trkpt lat="43.97767" lon="7.03117">
        <ele>986.45</ele>
        <time>2010-04-05T08:12:11Z</time>
      </trkpt>
      <trkpt lat="43.97766" lon="7.03124">
        <ele>985.97</ele>
        <time>2010-04-05T08:12:12Z</time>
      </trkpt>
      <trkpt lat="43.97761" lon="7.03157">
        <ele>983.57</ele>
        <time>2010-04-05T08:12:16Z</time>
      </trkpt>
      <trkpt lat="43.97761" lon="7.03165">
        <ele>982.6</ele>
        <time>2010-04-05T08:12:17Z</time>
      </trkpt>
      <trkpt lat="43.97742" lon="7.03226">
        <ele>979.72</ele>
        <time>2010-04-05T08:12:28Z</time>
      </trkpt>
      <trkpt lat="43.97739" lon="7.03232">
        <ele>978.76</ele>
        <time>2010-04-05T08:12:29Z</time>
      </trkpt>
      <trkpt lat="43.97733" lon="7.0325">
        <ele>976.84</ele>
        <time>2010-04-05T08:12:31Z</time>
      </trkpt>
      <trkpt lat="43.97729" lon="7.03268">
        <ele>975.88</ele>
        <time>2010-04-05T08:12:33Z</time>
      </trkpt>
      <trkpt lat="43.97723" lon="7.03286">
        <ele>974.43</ele>
        <time>2010-04-05T08:12:35Z</time>
      </trkpt>
      <trkpt lat="43.97721" lon="7.03295">
        <ele>973.95</ele>
        <time>2010-04-05T08:12:36Z</time>
      </trkpt>
      <trkpt lat="43.97716" lon="7.03311">
        <ele>972.51</ele>
        <time>2010-04-05T08:12:38Z</time>
      </trkpt>
      <trkpt lat="43.97712" lon="7.03327">
        <ele>971.55</ele>
        <time>2010-04-05T08:12:40Z</time>
      </trkpt>
      <trkpt lat="43.97706" lon="7.03369">
        <ele>967.7</ele>
        <time>2010-04-05T08:12:45Z</time>
      </trkpt>
      <trkpt lat="43.97703" lon="7.03397">
        <ele>965.78</ele>
        <time>2010-04-05T08:12:48Z</time>
      </trkpt>
      <trkpt lat="43.97702" lon="7.03406">
        <ele>964.82</ele>
        <time>2010-04-05T08:12:49Z</time>
      </trkpt>
      <trkpt lat="43.97703" lon="7.03447">
        <ele>961.46</ele>
        <time>2010-04-05T08:12:53Z</time>
      </trkpt>
      <trkpt lat="43.97705" lon="7.03516">
        <ele>959.53</ele>
        <time>2010-04-05T08:13:04Z</time>
      </trkpt>
      <trkpt lat="43.97704" lon="7.03513">
        <ele>959.53</ele>
        <time>2010-04-05T08:13:05Z</time>
      </trkpt>
      <trkpt lat="43.97699" lon="7.03501">
        <ele>959.53</ele>
        <time>2010-04-05T08:13:08Z</time>
      </trkpt>
      <trkpt lat="43.97702" lon="7.03487">
        <ele>960.49</ele>
        <time>2010-04-05T08:13:31Z</time>
      </trkpt>
      <trkpt lat="43.97703" lon="7.03487">
        <ele>957.61</ele>
        <time>2010-04-05T08:13:34Z</time>
      </trkpt>
      <trkpt lat="43.97703" lon="7.03487">
        <ele>959.53</ele>
        <time>2010-04-05T08:13:35Z</time>
      </trkpt>
      <trkpt lat="43.97703" lon="7.03485">
        <ele>959.53</ele>
        <time>2010-04-05T08:13:38Z</time>
      </trkpt>
      <trkpt lat="43.97698" lon="7.0343">
        <ele>959.53</ele>
        <time>2010-04-05T08:13:51Z</time>
      </trkpt>
      <trkpt lat="43.97696" lon="7.03426">
        <ele>959.53</ele>
        <time>2010-04-05T08:13:52Z</time>
      </trkpt>
      <trkpt lat="43.97693" lon="7.03421">
        <ele>960.01</ele>
        <time>2010-04-05T08:13:53Z</time>
      </trkpt>
      <trkpt lat="43.9769" lon="7.03417">
        <ele>960.01</ele>
        <time>2010-04-05T08:13:54Z</time>
      </trkpt>
      <trkpt lat="43.97666" lon="7.03362">
        <ele>960.98</ele>
        <time>2010-04-05T08:14:07Z</time>
      </trkpt>
      <trkpt lat="43.97656" lon="7.03294">
        <ele>960.49</ele>
        <time>2010-04-05T08:14:21Z</time>
      </trkpt>
      <trkpt lat="43.97619" lon="7.03272">
        <ele>958.57</ele>
        <time>2010-04-05T08:14:32Z</time>
      </trkpt>
      <trkpt lat="43.97605" lon="7.03267">
        <ele>960.01</ele>
        <time>2010-04-05T08:14:37Z</time>
      </trkpt>
      <trkpt lat="43.97604" lon="7.03264">
        <ele>960.49</ele>
        <time>2010-04-05T08:14:38Z</time>
      </trkpt>
      <trkpt lat="43.97596" lon="7.03222">
        <ele>961.94</ele>
        <time>2010-04-05T08:14:52Z</time>
      </trkpt>
      <trkpt lat="43.97582" lon="7.03177">
        <ele>964.82</ele>
        <time>2010-04-05T08:15:07Z</time>
      </trkpt>
      <trkpt lat="43.97573" lon="7.03171">
        <ele>965.3</ele>
        <time>2010-04-05T08:15:12Z</time>
      </trkpt>
      <trkpt lat="43.97572" lon="7.03172">
        <ele>965.3</ele>
        <time>2010-04-05T08:15:13Z</time>
      </trkpt>
      <trkpt lat="43.97551" lon="7.03171">
        <ele>965.3</ele>
        <time>2010-04-05T08:15:29Z</time>
      </trkpt>
      <trkpt lat="43.97549" lon="7.03169">
        <ele>965.78</ele>
        <time>2010-04-05T08:15:30Z</time>
      </trkpt>
      <trkpt lat="43.97548" lon="7.03167">
        <ele>965.3</ele>
        <time>2010-04-05T08:15:31Z</time>
      </trkpt>
      <trkpt lat="43.97541" lon="7.03146">
        <ele>966.26</ele>
        <time>2010-04-05T08:15:38Z</time>
      </trkpt>
      <trkpt lat="43.9754" lon="7.03144">
        <ele>966.74</ele>
        <time>2010-04-05T08:15:39Z</time>
      </trkpt>
      <trkpt lat="43.97538" lon="7.03142">
        <ele>966.74</ele>
        <time>2010-04-05T08:15:40Z</time>
      </trkpt>
      <trkpt lat="43.97536" lon="7.03139">
        <ele>966.26</ele>
        <time>2010-04-05T08:15:41Z</time>
      </trkpt>
      <trkpt lat="43.97534" lon="7.03135">
        <ele>966.26</ele>
        <time>2010-04-05T08:15:42Z</time>
      </trkpt>
      <trkpt lat="43.97532" lon="7.03132">
        <ele>966.26</ele>
        <time>2010-04-05T08:15:43Z</time>
      </trkpt>
      <trkpt lat="43.97525" lon="7.03117">
        <ele>964.34</ele>
        <time>2010-04-05T08:15:47Z</time>
      </trkpt>
      <trkpt lat="43.97524" lon="7.0311">
        <ele>964.34</ele>
        <time>2010-04-05T08:15:48Z</time>
      </trkpt>
      <trkpt lat="43.97522" lon="7.03076">
        <ele>960.98</ele>
        <time>2010-04-05T08:15:54Z</time>
      </trkpt>
      <trkpt lat="43.97518" lon="7.03057">
        <ele>959.53</ele>
        <time>2010-04-05T08:15:57Z</time>
      </trkpt>
      <trkpt lat="43.97517" lon="7.03049">
        <ele>958.57</ele>
        <time>2010-04-05T08:15:58Z</time>
      </trkpt>
      <trkpt lat="43.97516" lon="7.03041">
        <ele>957.61</ele>
        <time>2010-04-05T08:15:59Z</time>
      </trkpt>
      <trkpt lat="43.97515" lon="7.03034">
        <ele>956.65</ele>
        <time>2010-04-05T08:16:00Z</time>
      </trkpt>
      <trkpt lat="43.97512" lon="7.03027">
        <ele>956.17</ele>
        <time>2010-04-05T08:16:01Z</time>
      </trkpt>
      <trkpt lat="43.97509" lon="7.03019">
        <ele>955.69</ele>
        <time>2010-04-05T08:16:02Z</time>
      </trkpt>
      <trkpt lat="43.97506" lon="7.03013">
        <ele>955.21</ele>
        <time>2010-04-05T08:16:03Z</time>
      </trkpt>
      <trkpt lat="43.97502" lon="7.03006">
        <ele>954.25</ele>
        <time>2010-04-05T08:16:04Z</time>
      </trkpt>
      <trkpt lat="43.97495" lon="7.02992">
        <ele>952.8</ele>
        <time>2010-04-05T08:16:06Z</time>
      </trkpt>
      <trkpt lat="43.97478" lon="7.02947">
        <ele>950.4</ele>
        <time>2010-04-05T08:16:16Z</time>
      </trkpt>
      <trkpt lat="43.9748" lon="7.02942">
        <ele>949.92</ele>
        <time>2010-04-05T08:16:17Z</time>
      </trkpt>
      <trkpt lat="43.97486" lon="7.02927">
        <ele>948</ele>
        <time>2010-04-05T08:16:20Z</time>
      </trkpt>
      <trkpt lat="43.97486" lon="7.0292">
        <ele>947.52</ele>
        <time>2010-04-05T08:16:21Z</time>
      </trkpt>
      <trkpt lat="43.97488" lon="7.02913">
        <ele>947.04</ele>
        <time>2010-04-05T08:16:22Z</time>
      </trkpt>
      <trkpt lat="43.97491" lon="7.02906">
        <ele>947.04</ele>
        <time>2010-04-05T08:16:23Z</time>
      </trkpt>
      <trkpt lat="43.97493" lon="7.029">
        <ele>945.59</ele>
        <time>2010-04-05T08:16:24Z</time>
      </trkpt>
      <trkpt lat="43.97496" lon="7.02895">
        <ele>945.59</ele>
        <time>2010-04-05T08:16:25Z</time>
      </trkpt>
      <trkpt lat="43.97498" lon="7.02888">
        <ele>944.63</ele>
        <time>2010-04-05T08:16:26Z</time>
      </trkpt>
      <trkpt lat="43.97499" lon="7.02882">
        <ele>944.15</ele>
        <time>2010-04-05T08:16:27Z</time>
      </trkpt>
      <trkpt lat="43.97498" lon="7.02875">
        <ele>944.15</ele>
        <time>2010-04-05T08:16:28Z</time>
      </trkpt>
      <trkpt lat="43.97496" lon="7.02868">
        <ele>943.19</ele>
        <time>2010-04-05T08:16:29Z</time>
      </trkpt>
      <trkpt lat="43.97494" lon="7.02862">
        <ele>942.71</ele>
        <time>2010-04-05T08:16:30Z</time>
      </trkpt>
      <trkpt lat="43.97491" lon="7.02856">
        <ele>941.75</ele>
        <time>2010-04-05T08:16:31Z</time>
      </trkpt>
      <trkpt lat="43.97488" lon="7.02851">
        <ele>941.75</ele>
        <time>2010-04-05T08:16:32Z</time>
      </trkpt>
      <trkpt lat="43.97485" lon="7.02846">
        <ele>941.75</ele>
        <time>2010-04-05T08:16:33Z</time>
      </trkpt>
      <trkpt lat="43.97482" lon="7.02842">
        <ele>941.27</ele>
        <time>2010-04-05T08:16:34Z</time>
      </trkpt>
      <trkpt lat="43.97478" lon="7.0284">
        <ele>940.79</ele>
        <time>2010-04-05T08:16:35Z</time>
      </trkpt>
      <trkpt lat="43.97472" lon="7.02839">
        <ele>940.31</ele>
        <time>2010-04-05T08:16:36Z</time>
      </trkpt>
      <trkpt lat="43.97438" lon="7.02838">
        <ele>938.38</ele>
        <time>2010-04-05T08:16:40Z</time>
      </trkpt>
      <trkpt lat="43.97431" lon="7.02836">
        <ele>937.42</ele>
        <time>2010-04-05T08:16:41Z</time>
      </trkpt>
      <trkpt lat="43.97425" lon="7.02834">
        <ele>937.42</ele>
        <time>2010-04-05T08:16:42Z</time>
      </trkpt>
      <trkpt lat="43.9739" lon="7.02829">
        <ele>935.98</ele>
        <time>2010-04-05T08:16:48Z</time>
      </trkpt>
      <trkpt lat="43.97385" lon="7.02827">
        <ele>935.98</ele>
        <time>2010-04-05T08:16:49Z</time>
      </trkpt>
      <trkpt lat="43.9738" lon="7.02826">
        <ele>935.5</ele>
        <time>2010-04-05T08:16:50Z</time>
      </trkpt>
      <trkpt lat="43.97369" lon="7.02825">
        <ele>936.94</ele>
        <time>2010-04-05T08:16:53Z</time>
      </trkpt>
      <trkpt lat="43.97354" lon="7.02822">
        <ele>934.54</ele>
        <time>2010-04-05T08:16:57Z</time>
      </trkpt>
      <trkpt lat="43.9735" lon="7.02818">
        <ele>934.54</ele>
        <time>2010-04-05T08:16:58Z</time>
      </trkpt>
      <trkpt lat="43.97348" lon="7.02814">
        <ele>934.06</ele>
        <time>2010-04-05T08:16:59Z</time>
      </trkpt>
      <trkpt lat="43.97347" lon="7.02809">
        <ele>934.06</ele>
        <time>2010-04-05T08:17:00Z</time>
      </trkpt>
      <trkpt lat="43.97345" lon="7.02805">
        <ele>933.58</ele>
        <time>2010-04-05T08:17:01Z</time>
      </trkpt>
      <trkpt lat="43.97342" lon="7.02801">
        <ele>933.1</ele>
        <time>2010-04-05T08:17:02Z</time>
      </trkpt>
      <trkpt lat="43.97311" lon="7.02771">
        <ele>932.14</ele>
        <time>2010-04-05T08:17:14Z</time>
      </trkpt>
      <trkpt lat="43.97298" lon="7.0276">
        <ele>931.65</ele>
        <time>2010-04-05T08:17:18Z</time>
      </trkpt>
      <trkpt lat="43.97295" lon="7.02755">
        <ele>931.17</ele>
        <time>2010-04-05T08:17:19Z</time>
      </trkpt>
      <trkpt lat="43.97293" lon="7.02749">
        <ele>930.69</ele>
        <time>2010-04-05T08:17:20Z</time>
      </trkpt>
      <trkpt lat="43.9729" lon="7.02744">
        <ele>930.21</ele>
        <time>2010-04-05T08:17:21Z</time>
      </trkpt>
      <trkpt lat="43.97286" lon="7.02739">
        <ele>930.21</ele>
        <time>2010-04-05T08:17:22Z</time>
      </trkpt>
      <trkpt lat="43.97284" lon="7.02735">
        <ele>930.69</ele>
        <time>2010-04-05T08:17:23Z</time>
      </trkpt>
      <trkpt lat="43.97281" lon="7.02731">
        <ele>930.21</ele>
        <time>2010-04-05T08:17:24Z</time>
      </trkpt>
      <trkpt lat="43.97279" lon="7.02726">
        <ele>930.21</ele>
        <time>2010-04-05T08:17:25Z</time>
      </trkpt>
      <trkpt lat="43.9727" lon="7.02709">
        <ele>929.73</ele>
        <time>2010-04-05T08:17:29Z</time>
      </trkpt>
      <trkpt lat="43.97268" lon="7.02703">
        <ele>928.77</ele>
        <time>2010-04-05T08:17:30Z</time>
      </trkpt>
      <trkpt lat="43.97267" lon="7.02696">
        <ele>928.29</ele>
        <time>2010-04-05T08:17:31Z</time>
      </trkpt>
      <trkpt lat="43.97266" lon="7.02691">
        <ele>927.81</ele>
        <time>2010-04-05T08:17:32Z</time>
      </trkpt>
      <trkpt lat="43.97264" lon="7.02686">
        <ele>927.33</ele>
        <time>2010-04-05T08:17:33Z</time>
      </trkpt>
      <trkpt lat="43.97262" lon="7.02684">
        <ele>926.85</ele>
        <time>2010-04-05T08:17:34Z</time>
      </trkpt>
      <trkpt lat="43.9726" lon="7.02682">
        <ele>926.85</ele>
        <time>2010-04-05T08:17:35Z</time>
      </trkpt>
      <trkpt lat="43.97258" lon="7.02681">
        <ele>923.96</ele>
        <time>2010-04-05T08:17:43Z</time>
      </trkpt>
      <trkpt lat="43.97258" lon="7.02681">
        <ele>927.81</ele>
        <time>2010-04-05T08:17:45Z</time>
      </trkpt>
      <trkpt lat="43.97258" lon="7.02681">
        <ele>918.2</ele>
        <time>2010-04-05T08:17:52Z</time>
      </trkpt>
      <trkpt lat="43.97258" lon="7.02681">
        <ele>923.48</ele>
        <time>2010-04-05T08:17:53Z</time>
      </trkpt>
      <trkpt lat="43.97258" lon="7.02681">
        <ele>934.06</ele>
        <time>2010-04-05T08:17:56Z</time>
      </trkpt>
      <trkpt lat="43.97258" lon="7.02681">
        <ele>927.33</ele>
        <time>2010-04-05T08:17:57Z</time>
      </trkpt>
      <trkpt lat="43.97258" lon="7.02681">
        <ele>926.85</ele>
        <time>2010-04-05T08:17:59Z</time>
      </trkpt>
      <trkpt lat="43.97258" lon="7.02681">
        <ele>926.85</ele>
        <time>2010-04-05T08:18:15Z</time>
      </trkpt>
      <trkpt lat="43.97254" lon="7.02683">
        <ele>926.37</ele>
        <time>2010-04-05T08:18:30Z</time>
      </trkpt>
      <trkpt lat="43.97257" lon="7.02688">
        <ele>927.33</ele>
        <time>2010-04-05T08:18:48Z</time>
      </trkpt>
      <trkpt lat="43.97258" lon="7.02688">
        <ele>926.85</ele>
        <time>2010-04-05T08:18:49Z</time>
      </trkpt>
      <trkpt lat="43.97259" lon="7.02689">
        <ele>926.85</ele>
        <time>2010-04-05T08:18:50Z</time>
      </trkpt>
      <trkpt lat="43.9726" lon="7.0269">
        <ele>927.33</ele>
        <time>2010-04-05T08:18:51Z</time>
      </trkpt>
      <trkpt lat="43.97261" lon="7.02691">
        <ele>927.33</ele>
        <time>2010-04-05T08:18:52Z</time>
      </trkpt>
      <trkpt lat="43.97261" lon="7.02693">
        <ele>927.33</ele>
        <time>2010-04-05T08:18:53Z</time>
      </trkpt>
      <trkpt lat="43.97261" lon="7.02694">
        <ele>927.81</ele>
        <time>2010-04-05T08:19:31Z</time>
      </trkpt>
      <trkpt lat="43.97264" lon="7.02702">
        <ele>928.77</ele>
        <time>2010-04-05T08:19:54Z</time>
      </trkpt>
      <trkpt lat="43.97264" lon="7.027">
        <ele>928.29</ele>
        <time>2010-04-05T08:19:55Z</time>
      </trkpt>
      <trkpt lat="43.97264" lon="7.02697">
        <ele>927.81</ele>
        <time>2010-04-05T08:19:56Z</time>
      </trkpt>
      <trkpt lat="43.97264" lon="7.02687">
        <ele>927.33</ele>
        <time>2010-04-05T08:19:59Z</time>
      </trkpt>
      <trkpt lat="43.97254" lon="7.02685">
        <ele>926.85</ele>
        <time>2010-04-05T08:20:16Z</time>
      </trkpt>
      <trkpt lat="43.97254" lon="7.02685">
        <ele>928.29</ele>
        <time>2010-04-05T08:24:55Z</time>
      </trkpt>
      <trkpt lat="43.97254" lon="7.02685">
        <ele>928.77</ele>
        <time>2010-04-05T08:25:53Z</time>
      </trkpt>
      <trkpt lat="43.97254" lon="7.02685">
        <ele>924.45</ele>
        <time>2010-04-05T08:25:59Z</time>
      </trkpt>
      <trkpt lat="43.97254" lon="7.02685">
        <ele>928.77</ele>
        <time>2010-04-05T08:26:00Z</time>
      </trkpt>
      <trkpt lat="43.97255" lon="7.02685">
        <ele>928.77</ele>
        <time>2010-04-05T08:26:20Z</time>
      </trkpt>
      <trkpt lat="43.97255" lon="7.02685">
        <ele>932.14</ele>
        <time>2010-04-05T08:26:35Z</time>
      </trkpt>
      <trkpt lat="43.97254" lon="7.02686">
        <ele>929.25</ele>
        <time>2010-04-05T08:26:38Z</time>
      </trkpt>
      <trkpt lat="43.97254" lon="7.02686">
        <ele>927.33</ele>
        <time>2010-04-05T08:26:42Z</time>
      </trkpt>
      <trkpt lat="43.97254" lon="7.02687">
        <ele>933.58</ele>
        <time>2010-04-05T08:26:45Z</time>
      </trkpt>
      <trkpt lat="43.97254" lon="7.02687">
        <ele>930.69</ele>
        <time>2010-04-05T08:26:48Z</time>
      </trkpt>
      <trkpt lat="43.97252" lon="7.02689">
        <ele>929.73</ele>
        <time>2010-04-05T08:28:16Z</time>
      </trkpt>
      <trkpt lat="43.97252" lon="7.02689">
        <ele>929.73</ele>
        <time>2010-04-05T08:28:20Z</time>
      </trkpt>
      <trkpt lat="43.9725" lon="7.0269">
        <ele>929.73</ele>
        <time>2010-04-05T08:28:21Z</time>
      </trkpt>
      <trkpt lat="43.97248" lon="7.02692">
        <ele>929.73</ele>
        <time>2010-04-05T08:28:22Z</time>
      </trkpt>
      <trkpt lat="43.97245" lon="7.02695">
        <ele>928.77</ele>
        <time>2010-04-05T08:28:23Z</time>
      </trkpt>
      <trkpt lat="43.97241" lon="7.02698">
        <ele>928.29</ele>
        <time>2010-04-05T08:28:24Z</time>
      </trkpt>
      <trkpt lat="43.97238" lon="7.02703">
        <ele>928.29</ele>
        <time>2010-04-05T08:28:25Z</time>
      </trkpt>
      <trkpt lat="43.97234" lon="7.02708">
        <ele>926.37</ele>
        <time>2010-04-05T08:28:26Z</time>
      </trkpt>
      <trkpt lat="43.97231" lon="7.02713">
        <ele>925.89</ele>
        <time>2010-04-05T08:28:27Z</time>
      </trkpt>
      <trkpt lat="43.97227" lon="7.02717">
        <ele>924.93</ele>
        <time>2010-04-05T08:28:28Z</time>
      </trkpt>
      <trkpt lat="43.97223" lon="7.02721">
        <ele>923.96</ele>
        <time>2010-04-05T08:28:29Z</time>
      </trkpt>
      <trkpt lat="43.9722" lon="7.02726">
        <ele>922.52</ele>
        <time>2010-04-05T08:28:30Z</time>
      </trkpt>
      <trkpt lat="43.97218" lon="7.02731">
        <ele>922.04</ele>
        <time>2010-04-05T08:28:31Z</time>
      </trkpt>
      <trkpt lat="43.97216" lon="7.02735">
        <ele>921.56</ele>
        <time>2010-04-05T08:28:32Z</time>
      </trkpt>
      <trkpt lat="43.97212" lon="7.02743">
        <ele>920.6</ele>
        <time>2010-04-05T08:28:35Z</time>
      </trkpt>
      <trkpt lat="43.97211" lon="7.02743">
        <ele>920.12</ele>
        <time>2010-04-05T08:28:36Z</time>
      </trkpt>
      <trkpt lat="43.97209" lon="7.02742">
        <ele>919.64</ele>
        <time>2010-04-05T08:28:37Z</time>
      </trkpt>
      <trkpt lat="43.97208" lon="7.02741">
        <ele>919.64</ele>
        <time>2010-04-05T08:28:38Z</time>
      </trkpt>
      <trkpt lat="43.97209" lon="7.02739">
        <ele>919.16</ele>
        <time>2010-04-05T08:28:39Z</time>
      </trkpt>
      <trkpt lat="43.97209" lon="7.02736">
        <ele>918.68</ele>
        <time>2010-04-05T08:28:40Z</time>
      </trkpt>
      <trkpt lat="43.9721" lon="7.02733">
        <ele>917.72</ele>
        <time>2010-04-05T08:28:41Z</time>
      </trkpt>
      <trkpt lat="43.9721" lon="7.0273">
        <ele>917.24</ele>
        <time>2010-04-05T08:28:42Z</time>
      </trkpt>
      <trkpt lat="43.97208" lon="7.02729">
        <ele>916.27</ele>
        <time>2010-04-05T08:28:43Z</time>
      </trkpt>
      <trkpt lat="43.97207" lon="7.02729">
        <ele>915.79</ele>
        <time>2010-04-05T08:28:44Z</time>
      </trkpt>
      <trkpt lat="43.97204" lon="7.02731">
        <ele>915.31</ele>
        <time>2010-04-05T08:28:45Z</time>
      </trkpt>
      <trkpt lat="43.97197" lon="7.0274">
        <ele>912.43</ele>
        <time>2010-04-05T08:28:48Z</time>
      </trkpt>
      <trkpt lat="43.97189" lon="7.02746">
        <ele>909.06</ele>
        <time>2010-04-05T08:28:52Z</time>
      </trkpt>
      <trkpt lat="43.97182" lon="7.02748">
        <ele>905.7</ele>
        <time>2010-04-05T08:28:56Z</time>
      </trkpt>
      <trkpt lat="43.97179" lon="7.02749">
        <ele>904.74</ele>
        <time>2010-04-05T08:28:57Z</time>
      </trkpt>
      <trkpt lat="43.97177" lon="7.02751">
        <ele>903.3</ele>
        <time>2010-04-05T08:28:58Z</time>
      </trkpt>
      <trkpt lat="43.97175" lon="7.02753">
        <ele>902.33</ele>
        <time>2010-04-05T08:28:59Z</time>
      </trkpt>
      <trkpt lat="43.97174" lon="7.02755">
        <ele>901.37</ele>
        <time>2010-04-05T08:29:00Z</time>
      </trkpt>
      <trkpt lat="43.9717" lon="7.0276">
        <ele>900.89</ele>
        <time>2010-04-05T08:29:02Z</time>
      </trkpt>
      <trkpt lat="43.97168" lon="7.02761">
        <ele>898.97</ele>
        <time>2010-04-05T08:29:03Z</time>
      </trkpt>
      <trkpt lat="43.97158" lon="7.02772">
        <ele>897.53</ele>
        <time>2010-04-05T08:29:07Z</time>
      </trkpt>
      <trkpt lat="43.97146" lon="7.02787">
        <ele>894.16</ele>
        <time>2010-04-05T08:29:11Z</time>
      </trkpt>
      <trkpt lat="43.97142" lon="7.02791">
        <ele>894.16</ele>
        <time>2010-04-05T08:29:12Z</time>
      </trkpt>
      <trkpt lat="43.9714" lon="7.02796">
        <ele>893.68</ele>
        <time>2010-04-05T08:29:13Z</time>
      </trkpt>
      <trkpt lat="43.97137" lon="7.028">
        <ele>892.24</ele>
        <time>2010-04-05T08:29:14Z</time>
      </trkpt>
      <trkpt lat="43.97133" lon="7.02804">
        <ele>891.76</ele>
        <time>2010-04-05T08:29:15Z</time>
      </trkpt>
      <trkpt lat="43.97124" lon="7.0281">
        <ele>888.4</ele>
        <time>2010-04-05T08:29:17Z</time>
      </trkpt>
      <trkpt lat="43.97118" lon="7.02813">
        <ele>888.4</ele>
        <time>2010-04-05T08:29:18Z</time>
      </trkpt>
      <trkpt lat="43.97098" lon="7.02829">
        <ele>887.91</ele>
        <time>2010-04-05T08:29:22Z</time>
      </trkpt>
      <trkpt lat="43.97087" lon="7.02832">
        <ele>886.95</ele>
        <time>2010-04-05T08:29:26Z</time>
      </trkpt>
      <trkpt lat="43.9709" lon="7.02827">
        <ele>887.91</ele>
        <time>2010-04-05T08:29:29Z</time>
      </trkpt>
      <trkpt lat="43.97101" lon="7.02815">
        <ele>889.84</ele>
        <time>2010-04-05T08:29:40Z</time>
      </trkpt>
      <trkpt lat="43.97103" lon="7.02793">
        <ele>893.2</ele>
        <time>2010-04-05T08:29:51Z</time>
      </trkpt>
      <trkpt lat="43.97103" lon="7.02787">
        <ele>894.64</ele>
        <time>2010-04-05T08:29:56Z</time>
      </trkpt>
      <trkpt lat="43.97101" lon="7.02778">
        <ele>890.32</ele>
        <time>2010-04-05T08:30:00Z</time>
      </trkpt>
      <trkpt lat="43.97099" lon="7.02758">
        <ele>897.53</ele>
        <time>2010-04-05T08:30:13Z</time>
      </trkpt>
      <trkpt lat="43.97096" lon="7.02741">
        <ele>900.41</ele>
        <time>2010-04-05T08:30:26Z</time>
      </trkpt>
      <trkpt lat="43.97095" lon="7.02733">
        <ele>901.85</ele>
        <time>2010-04-05T08:30:31Z</time>
      </trkpt>
      <trkpt lat="43.97096" lon="7.02723">
        <ele>902.82</ele>
        <time>2010-04-05T08:30:36Z</time>
      </trkpt>
      <trkpt lat="43.97098" lon="7.02719">
        <ele>903.78</ele>
        <time>2010-04-05T08:30:38Z</time>
      </trkpt>
      <trkpt lat="43.97099" lon="7.02718">
        <ele>904.26</ele>
        <time>2010-04-05T08:30:39Z</time>
      </trkpt>
      <trkpt lat="43.97091" lon="7.02692">
        <ele>907.62</ele>
        <time>2010-04-05T08:30:54Z</time>
      </trkpt>
      <trkpt lat="43.97068" lon="7.02673">
        <ele>909.54</ele>
        <time>2010-04-05T08:31:14Z</time>
      </trkpt>
      <trkpt lat="43.97045" lon="7.02651">
        <ele>912.43</ele>
        <time>2010-04-05T08:31:31Z</time>
      </trkpt>
      <trkpt lat="43.97036" lon="7.02628">
        <ele>913.87</ele>
        <time>2010-04-05T08:31:42Z</time>
      </trkpt>
      <trkpt lat="43.97036" lon="7.02593">
        <ele>916.75</ele>
        <time>2010-04-05T08:31:58Z</time>
      </trkpt>
      <trkpt lat="43.97013" lon="7.02559">
        <ele>916.27</ele>
        <time>2010-04-05T08:32:14Z</time>
      </trkpt>
      <trkpt lat="43.96998" lon="7.02529">
        <ele>912.43</ele>
        <time>2010-04-05T08:32:23Z</time>
      </trkpt>
      <trkpt lat="43.96988" lon="7.02513">
        <ele>910.51</ele>
        <time>2010-04-05T08:32:26Z</time>
      </trkpt>
      <trkpt lat="43.96985" lon="7.02507">
        <ele>910.51</ele>
        <time>2010-04-05T08:32:27Z</time>
      </trkpt>
      <trkpt lat="43.96982" lon="7.02501">
        <ele>910.51</ele>
        <time>2010-04-05T08:32:28Z</time>
      </trkpt>
      <trkpt lat="43.96979" lon="7.02496">
        <ele>910.03</ele>
        <time>2010-04-05T08:32:29Z</time>
      </trkpt>
      <trkpt lat="43.96975" lon="7.02491">
        <ele>909.54</ele>
        <time>2010-04-05T08:32:30Z</time>
      </trkpt>
      <trkpt lat="43.9697" lon="7.02489">
        <ele>909.06</ele>
        <time>2010-04-05T08:32:31Z</time>
      </trkpt>
      <trkpt lat="43.96965" lon="7.02488">
        <ele>908.58</ele>
        <time>2010-04-05T08:32:32Z</time>
      </trkpt>
      <trkpt lat="43.9696" lon="7.02486">
        <ele>908.1</ele>
        <time>2010-04-05T08:32:33Z</time>
      </trkpt>
      <trkpt lat="43.96956" lon="7.02484">
        <ele>908.1</ele>
        <time>2010-04-05T08:32:34Z</time>
      </trkpt>
      <trkpt lat="43.96951" lon="7.02481">
        <ele>907.62</ele>
        <time>2010-04-05T08:32:35Z</time>
      </trkpt>
      <trkpt lat="43.96936" lon="7.02454">
        <ele>911.47</ele>
        <time>2010-04-05T08:32:48Z</time>
      </trkpt>
      <trkpt lat="43.96933" lon="7.02424">
        <ele>913.87</ele>
        <time>2010-04-05T08:33:03Z</time>
      </trkpt>
      <trkpt lat="43.96923" lon="7.02389">
        <ele>914.83</ele>
        <time>2010-04-05T08:33:18Z</time>
      </trkpt>
      <trkpt lat="43.96893" lon="7.02351">
        <ele>918.2</ele>
        <time>2010-04-05T08:33:37Z</time>
      </trkpt>
      <trkpt lat="43.96889" lon="7.02335">
        <ele>920.12</ele>
        <time>2010-04-05T08:33:41Z</time>
      </trkpt>
      <trkpt lat="43.96875" lon="7.02301">
        <ele>923</ele>
        <time>2010-04-05T08:33:54Z</time>
      </trkpt>
      <trkpt lat="43.96872" lon="7.02295">
        <ele>922.52</ele>
        <time>2010-04-05T08:33:57Z</time>
      </trkpt>
      <trkpt lat="43.96866" lon="7.02287">
        <ele>920.6</ele>
        <time>2010-04-05T08:33:59Z</time>
      </trkpt>
      <trkpt lat="43.96863" lon="7.02281">
        <ele>920.12</ele>
        <time>2010-04-05T08:34:00Z</time>
      </trkpt>
      <trkpt lat="43.9686" lon="7.02275">
        <ele>920.12</ele>
        <time>2010-04-05T08:34:01Z</time>
      </trkpt>
      <trkpt lat="43.96825" lon="7.02217">
        <ele>920.12</ele>
        <time>2010-04-05T08:34:16Z</time>
      </trkpt>
      <trkpt lat="43.96798" lon="7.02184">
        <ele>921.56</ele>
        <time>2010-04-05T08:34:32Z</time>
      </trkpt>
      <trkpt lat="43.96787" lon="7.02143">
        <ele>922.04</ele>
        <time>2010-04-05T08:34:44Z</time>
      </trkpt>
      <trkpt lat="43.96781" lon="7.02115">
        <ele>923.96</ele>
        <time>2010-04-05T08:34:54Z</time>
      </trkpt>
      <trkpt lat="43.9678" lon="7.02112">
        <ele>923.96</ele>
        <time>2010-04-05T08:34:55Z</time>
      </trkpt>
      <trkpt lat="43.96769" lon="7.02076">
        <ele>926.85</ele>
        <time>2010-04-05T08:35:10Z</time>
      </trkpt>
      <trkpt lat="43.9676" lon="7.0203">
        <ele>926.85</ele>
        <time>2010-04-05T08:35:24Z</time>
      </trkpt>
      <trkpt lat="43.96756" lon="7.01961">
        <ele>925.89</ele>
        <time>2010-04-05T08:35:40Z</time>
      </trkpt>
      <trkpt lat="43.96751" lon="7.01936">
        <ele>926.37</ele>
        <time>2010-04-05T08:35:47Z</time>
      </trkpt>
      <trkpt lat="43.96748" lon="7.01935">
        <ele>926.37</ele>
        <time>2010-04-05T08:35:48Z</time>
      </trkpt>
      <trkpt lat="43.96708" lon="7.01905">
        <ele>923</ele>
        <time>2010-04-05T08:36:02Z</time>
      </trkpt>
      <trkpt lat="43.96706" lon="7.01899">
        <ele>923</ele>
        <time>2010-04-05T08:36:03Z</time>
      </trkpt>
      <trkpt lat="43.96702" lon="7.01892">
        <ele>922.04</ele>
        <time>2010-04-05T08:36:04Z</time>
      </trkpt>
      <trkpt lat="43.96697" lon="7.01886">
        <ele>921.08</ele>
        <time>2010-04-05T08:36:05Z</time>
      </trkpt>
      <trkpt lat="43.96692" lon="7.01881">
        <ele>920.12</ele>
        <time>2010-04-05T08:36:06Z</time>
      </trkpt>
      <trkpt lat="43.96687" lon="7.01878">
        <ele>920.12</ele>
        <time>2010-04-05T08:36:07Z</time>
      </trkpt>
      <trkpt lat="43.96683" lon="7.01875">
        <ele>919.64</ele>
        <time>2010-04-05T08:36:08Z</time>
      </trkpt>
      <trkpt lat="43.96673" lon="7.01865">
        <ele>918.68</ele>
        <time>2010-04-05T08:36:20Z</time>
      </trkpt>
      <trkpt lat="43.96661" lon="7.01849">
        <ele>916.27</ele>
        <time>2010-04-05T08:36:40Z</time>
      </trkpt>
      <trkpt lat="43.96658" lon="7.01848">
        <ele>915.79</ele>
        <time>2010-04-05T08:36:41Z</time>
      </trkpt>
      <trkpt lat="43.96656" lon="7.01845">
        <ele>915.31</ele>
        <time>2010-04-05T08:36:42Z</time>
      </trkpt>
      <trkpt lat="43.96654" lon="7.01842">
        <ele>914.35</ele>
        <time>2010-04-05T08:36:43Z</time>
      </trkpt>
      <trkpt lat="43.96652" lon="7.01839">
        <ele>913.87</ele>
        <time>2010-04-05T08:36:44Z</time>
      </trkpt>
      <trkpt lat="43.96651" lon="7.01836">
        <ele>913.39</ele>
        <time>2010-04-05T08:36:45Z</time>
      </trkpt>
      <trkpt lat="43.9665" lon="7.01834">
        <ele>912.43</ele>
        <time>2010-04-05T08:36:46Z</time>
      </trkpt>
      <trkpt lat="43.9665" lon="7.01832">
        <ele>912.43</ele>
        <time>2010-04-05T08:36:47Z</time>
      </trkpt>
      <trkpt lat="43.96649" lon="7.01831">
        <ele>911.47</ele>
        <time>2010-04-05T08:37:33Z</time>
      </trkpt>
      <trkpt lat="43.96648" lon="7.01835">
        <ele>913.39</ele>
        <time>2010-04-05T08:39:17Z</time>
      </trkpt>
      <trkpt lat="43.96646" lon="7.01836">
        <ele>912.91</ele>
        <time>2010-04-05T08:39:18Z</time>
      </trkpt>
      <trkpt lat="43.96643" lon="7.01839">
        <ele>911.95</ele>
        <time>2010-04-05T08:39:19Z</time>
      </trkpt>
      <trkpt lat="43.96641" lon="7.0184">
        <ele>911.95</ele>
        <time>2010-04-05T08:39:20Z</time>
      </trkpt>
      <trkpt lat="43.96639" lon="7.01838">
        <ele>910.51</ele>
        <time>2010-04-05T08:39:22Z</time>
      </trkpt>
      <trkpt lat="43.96639" lon="7.01837">
        <ele>910.51</ele>
        <time>2010-04-05T08:39:23Z</time>
      </trkpt>
      <trkpt lat="43.96639" lon="7.01834">
        <ele>910.03</ele>
        <time>2010-04-05T08:39:24Z</time>
      </trkpt>
      <trkpt lat="43.9664" lon="7.01829">
        <ele>909.54</ele>
        <time>2010-04-05T08:39:26Z</time>
      </trkpt>
      <trkpt lat="43.96639" lon="7.01829">
        <ele>909.06</ele>
        <time>2010-04-05T08:39:29Z</time>
      </trkpt>
      <trkpt lat="43.96638" lon="7.0183">
        <ele>908.1</ele>
        <time>2010-04-05T08:39:30Z</time>
      </trkpt>
      <trkpt lat="43.96637" lon="7.01832">
        <ele>908.1</ele>
        <time>2010-04-05T08:39:31Z</time>
      </trkpt>
      <trkpt lat="43.96635" lon="7.01834">
        <ele>907.62</ele>
        <time>2010-04-05T08:39:32Z</time>
      </trkpt>
      <trkpt lat="43.96633" lon="7.01835">
        <ele>907.62</ele>
        <time>2010-04-05T08:39:33Z</time>
      </trkpt>
      <trkpt lat="43.96631" lon="7.01836">
        <ele>906.66</ele>
        <time>2010-04-05T08:39:34Z</time>
      </trkpt>
      <trkpt lat="43.96628" lon="7.01837">
        <ele>905.7</ele>
        <time>2010-04-05T08:39:35Z</time>
      </trkpt>
      <trkpt lat="43.96625" lon="7.01837">
        <ele>905.22</ele>
        <time>2010-04-05T08:39:36Z</time>
      </trkpt>
      <trkpt lat="43.96623" lon="7.01839">
        <ele>904.26</ele>
        <time>2010-04-05T08:39:37Z</time>
      </trkpt>
      <trkpt lat="43.96611" lon="7.01847">
        <ele>901.37</ele>
        <time>2010-04-05T08:39:41Z</time>
      </trkpt>
      <trkpt lat="43.96597" lon="7.01857">
        <ele>897.53</ele>
        <time>2010-04-05T08:39:45Z</time>
      </trkpt>
      <trkpt lat="43.96593" lon="7.0186">
        <ele>896.57</ele>
        <time>2010-04-05T08:39:46Z</time>
      </trkpt>
      <trkpt lat="43.96589" lon="7.01862">
        <ele>896.09</ele>
        <time>2010-04-05T08:39:47Z</time>
      </trkpt>
      <trkpt lat="43.96585" lon="7.01864">
        <ele>894.64</ele>
        <time>2010-04-05T08:39:48Z</time>
      </trkpt>
      <trkpt lat="43.9658" lon="7.01868">
        <ele>893.68</ele>
        <time>2010-04-05T08:39:49Z</time>
      </trkpt>
      <trkpt lat="43.96576" lon="7.0187">
        <ele>893.2</ele>
        <time>2010-04-05T08:39:50Z</time>
      </trkpt>
      <trkpt lat="43.96562" lon="7.01879">
        <ele>889.84</ele>
        <time>2010-04-05T08:39:54Z</time>
      </trkpt>
      <trkpt lat="43.9655" lon="7.01887">
        <ele>886.47</ele>
        <time>2010-04-05T08:39:58Z</time>
      </trkpt>
      <trkpt lat="43.96532" lon="7.01901">
        <ele>883.11</ele>
        <time>2010-04-05T08:40:03Z</time>
      </trkpt>
      <trkpt lat="43.96509" lon="7.01923">
        <ele>880.22</ele>
        <time>2010-04-05T08:40:10Z</time>
      </trkpt>
      <trkpt lat="43.96505" lon="7.01926">
        <ele>880.22</ele>
        <time>2010-04-05T08:40:11Z</time>
      </trkpt>
      <trkpt lat="43.96495" lon="7.01937">
        <ele>878.3</ele>
        <time>2010-04-05T08:40:15Z</time>
      </trkpt>
      <trkpt lat="43.96486" lon="7.01944">
        <ele>875.42</ele>
        <time>2010-04-05T08:40:19Z</time>
      </trkpt>
      <trkpt lat="43.96474" lon="7.01949">
        <ele>872.53</ele>
        <time>2010-04-05T08:40:23Z</time>
      </trkpt>
      <trkpt lat="43.96471" lon="7.01951">
        <ele>872.53</ele>
        <time>2010-04-05T08:40:24Z</time>
      </trkpt>
      <trkpt lat="43.96453" lon="7.01964">
        <ele>869.17</ele>
        <time>2010-04-05T08:40:29Z</time>
      </trkpt>
      <trkpt lat="43.96449" lon="7.01968">
        <ele>867.73</ele>
        <time>2010-04-05T08:40:31Z</time>
      </trkpt>
      <trkpt lat="43.96447" lon="7.01975">
        <ele>867.73</ele>
        <time>2010-04-05T08:40:35Z</time>
      </trkpt>
      <trkpt lat="43.96446" lon="7.0198">
        <ele>866.77</ele>
        <time>2010-04-05T08:40:39Z</time>
      </trkpt>
      <trkpt lat="43.96445" lon="7.01982">
        <ele>866.29</ele>
        <time>2010-04-05T08:40:40Z</time>
      </trkpt>
      <trkpt lat="43.96443" lon="7.01985">
        <ele>866.29</ele>
        <time>2010-04-05T08:40:41Z</time>
      </trkpt>
      <trkpt lat="43.96441" lon="7.01988">
        <ele>866.29</ele>
        <time>2010-04-05T08:40:42Z</time>
      </trkpt>
      <trkpt lat="43.96439" lon="7.01991">
        <ele>865.32</ele>
        <time>2010-04-05T08:40:43Z</time>
      </trkpt>
      <trkpt lat="43.96437" lon="7.01995">
        <ele>864.36</ele>
        <time>2010-04-05T08:40:44Z</time>
      </trkpt>
      <trkpt lat="43.96432" lon="7.02003">
        <ele>863.88</ele>
        <time>2010-04-05T08:40:46Z</time>
      </trkpt>
      <trkpt lat="43.96422" lon="7.02017">
        <ele>860.52</ele>
        <time>2010-04-05T08:40:50Z</time>
      </trkpt>
      <trkpt lat="43.9642" lon="7.0202">
        <ele>860.04</ele>
        <time>2010-04-05T08:40:51Z</time>
      </trkpt>
      <trkpt lat="43.96415" lon="7.02022">
        <ele>860.04</ele>
        <time>2010-04-05T08:40:54Z</time>
      </trkpt>
      <trkpt lat="43.964" lon="7.01995">
        <ele>862.44</ele>
        <time>2010-04-05T08:41:04Z</time>
      </trkpt>
      <trkpt lat="43.96397" lon="7.0199">
        <ele>862.92</ele>
        <time>2010-04-05T08:41:06Z</time>
      </trkpt>
      <trkpt lat="43.96383" lon="7.0197">
        <ele>861.48</ele>
        <time>2010-04-05T08:41:14Z</time>
      </trkpt>
      <trkpt lat="43.96383" lon="7.01961">
        <ele>862.44</ele>
        <time>2010-04-05T08:41:24Z</time>
      </trkpt>
      <trkpt lat="43.96376" lon="7.01928">
        <ele>862.44</ele>
        <time>2010-04-05T08:41:38Z</time>
      </trkpt>
      <trkpt lat="43.96373" lon="7.01911">
        <ele>860.52</ele>
        <time>2010-04-05T08:41:43Z</time>
      </trkpt>
      <trkpt lat="43.96374" lon="7.01898">
        <ele>859.08</ele>
        <time>2010-04-05T08:41:47Z</time>
      </trkpt>
      <trkpt lat="43.96375" lon="7.01892">
        <ele>858.11</ele>
        <time>2010-04-05T08:41:48Z</time>
      </trkpt>
      <trkpt lat="43.96375" lon="7.01885">
        <ele>857.15</ele>
        <time>2010-04-05T08:41:49Z</time>
      </trkpt>
      <trkpt lat="43.96375" lon="7.01869">
        <ele>856.67</ele>
        <time>2010-04-05T08:41:51Z</time>
      </trkpt>
      <trkpt lat="43.96373" lon="7.01861">
        <ele>856.19</ele>
        <time>2010-04-05T08:41:52Z</time>
      </trkpt>
      <trkpt lat="43.96363" lon="7.01817">
        <ele>855.23</ele>
        <time>2010-04-05T08:41:58Z</time>
      </trkpt>
      <trkpt lat="43.96348" lon="7.01784">
        <ele>855.23</ele>
        <time>2010-04-05T08:42:10Z</time>
      </trkpt>
      <trkpt lat="43.96346" lon="7.01783">
        <ele>854.75</ele>
        <time>2010-04-05T08:42:11Z</time>
      </trkpt>
      <trkpt lat="43.96343" lon="7.01781">
        <ele>855.23</ele>
        <time>2010-04-05T08:42:12Z</time>
      </trkpt>
      <trkpt lat="43.96322" lon="7.01768">
        <ele>854.27</ele>
        <time>2010-04-05T08:42:28Z</time>
      </trkpt>
      <trkpt lat="43.96318" lon="7.01764">
        <ele>853.79</ele>
        <time>2010-04-05T08:42:37Z</time>
      </trkpt>
      <trkpt lat="43.96317" lon="7.01763">
        <ele>854.27</ele>
        <time>2010-04-05T08:42:38Z</time>
      </trkpt>
      <trkpt lat="43.96314" lon="7.01762">
        <ele>853.79</ele>
        <time>2010-04-05T08:42:39Z</time>
      </trkpt>
      <trkpt lat="43.96304" lon="7.01762">
        <ele>853.31</ele>
        <time>2010-04-05T08:42:49Z</time>
      </trkpt>
      <trkpt lat="43.96303" lon="7.01761">
        <ele>853.31</ele>
        <time>2010-04-05T08:42:50Z</time>
      </trkpt>
      <trkpt lat="43.96301" lon="7.01761">
        <ele>852.83</ele>
        <time>2010-04-05T08:42:51Z</time>
      </trkpt>
      <trkpt lat="43.96299" lon="7.01759">
        <ele>852.35</ele>
        <time>2010-04-05T08:42:52Z</time>
      </trkpt>
      <trkpt lat="43.96296" lon="7.01756">
        <ele>851.87</ele>
        <time>2010-04-05T08:42:53Z</time>
      </trkpt>
      <trkpt lat="43.96294" lon="7.01753">
        <ele>851.87</ele>
        <time>2010-04-05T08:42:54Z</time>
      </trkpt>
      <trkpt lat="43.96293" lon="7.01748">
        <ele>850.9</ele>
        <time>2010-04-05T08:42:55Z</time>
      </trkpt>
      <trkpt lat="43.96292" lon="7.01742">
        <ele>850.42</ele>
        <time>2010-04-05T08:42:56Z</time>
      </trkpt>
      <trkpt lat="43.9629" lon="7.01736">
        <ele>849.94</ele>
        <time>2010-04-05T08:42:57Z</time>
      </trkpt>
      <trkpt lat="43.96289" lon="7.01729">
        <ele>849.94</ele>
        <time>2010-04-05T08:42:58Z</time>
      </trkpt>
      <trkpt lat="43.96287" lon="7.01718">
        <ele>849.46</ele>
        <time>2010-04-05T08:43:00Z</time>
      </trkpt>
      <trkpt lat="43.96286" lon="7.01714">
        <ele>849.46</ele>
        <time>2010-04-05T08:43:12Z</time>
      </trkpt>
      <trkpt lat="43.96287" lon="7.01701">
        <ele>849.46</ele>
        <time>2010-04-05T08:44:11Z</time>
      </trkpt>
      <trkpt lat="43.96278" lon="7.01656">
        <ele>848.02</ele>
        <time>2010-04-05T08:44:26Z</time>
      </trkpt>
      <trkpt lat="43.96276" lon="7.01652">
        <ele>848.02</ele>
        <time>2010-04-05T08:44:27Z</time>
      </trkpt>
      <trkpt lat="43.96225" lon="7.01624">
        <ele>846.58</ele>
        <time>2010-04-05T08:44:42Z</time>
      </trkpt>
      <trkpt lat="43.96185" lon="7.01617">
        <ele>849.94</ele>
        <time>2010-04-05T08:44:58Z</time>
      </trkpt>
      <trkpt lat="43.9615" lon="7.01619">
        <ele>851.38</ele>
        <time>2010-04-05T08:45:14Z</time>
      </trkpt>
      <trkpt lat="43.96122" lon="7.01623">
        <ele>851.87</ele>
        <time>2010-04-05T08:45:30Z</time>
      </trkpt>
      <trkpt lat="43.96113" lon="7.01621">
        <ele>853.31</ele>
        <time>2010-04-05T08:45:44Z</time>
      </trkpt>
      <trkpt lat="43.9611" lon="7.01619">
        <ele>853.79</ele>
        <time>2010-04-05T08:45:48Z</time>
      </trkpt>
      <trkpt lat="43.96109" lon="7.01617">
        <ele>853.79</ele>
        <time>2010-04-05T08:45:49Z</time>
      </trkpt>
      <trkpt lat="43.96108" lon="7.01615">
        <ele>853.79</ele>
        <time>2010-04-05T08:45:50Z</time>
      </trkpt>
      <trkpt lat="43.96106" lon="7.01613">
        <ele>854.27</ele>
        <time>2010-04-05T08:45:51Z</time>
      </trkpt>
      <trkpt lat="43.96106" lon="7.01612">
        <ele>854.27</ele>
        <time>2010-04-05T08:45:52Z</time>
      </trkpt>
      <trkpt lat="43.961" lon="7.01597">
        <ele>856.19</ele>
        <time>2010-04-05T08:46:12Z</time>
      </trkpt>
      <trkpt lat="43.96095" lon="7.01583">
        <ele>857.63</ele>
        <time>2010-04-05T08:46:28Z</time>
      </trkpt>
      <trkpt lat="43.96094" lon="7.01579">
        <ele>857.63</ele>
        <time>2010-04-05T08:46:29Z</time>
      </trkpt>
      <trkpt lat="43.96095" lon="7.01575">
        <ele>857.63</ele>
        <time>2010-04-05T08:46:30Z</time>
      </trkpt>
      <trkpt lat="43.96094" lon="7.01571">
        <ele>857.63</ele>
        <time>2010-04-05T08:46:31Z</time>
      </trkpt>
      <trkpt lat="43.96093" lon="7.01568">
        <ele>858.11</ele>
        <time>2010-04-05T08:46:32Z</time>
      </trkpt>
      <trkpt lat="43.96086" lon="7.01532">
        <ele>861.48</ele>
        <time>2010-04-05T08:46:45Z</time>
      </trkpt>
      <trkpt lat="43.9608" lon="7.01499">
        <ele>864.36</ele>
        <time>2010-04-05T08:46:59Z</time>
      </trkpt>
      <trkpt lat="43.96075" lon="7.01466">
        <ele>867.73</ele>
        <time>2010-04-05T08:47:15Z</time>
      </trkpt>
      <trkpt lat="43.96078" lon="7.01412">
        <ele>867.73</ele>
        <time>2010-04-05T08:47:33Z</time>
      </trkpt>
      <trkpt lat="43.96078" lon="7.01398">
        <ele>866.29</ele>
        <time>2010-04-05T08:47:37Z</time>
      </trkpt>
      <trkpt lat="43.96076" lon="7.01396">
        <ele>865.32</ele>
        <time>2010-04-05T08:47:55Z</time>
      </trkpt>
      <trkpt lat="43.96076" lon="7.01393">
        <ele>864.84</ele>
        <time>2010-04-05T08:48:49Z</time>
      </trkpt>
      <trkpt lat="43.96076" lon="7.01378">
        <ele>863.88</ele>
        <time>2010-04-05T08:49:05Z</time>
      </trkpt>
      <trkpt lat="43.96076" lon="7.01375">
        <ele>863.4</ele>
        <time>2010-04-05T08:49:06Z</time>
      </trkpt>
      <trkpt lat="43.96076" lon="7.01374">
        <ele>862.92</ele>
        <time>2010-04-05T08:49:33Z</time>
      </trkpt>
      <trkpt lat="43.96076" lon="7.01369">
        <ele>862.92</ele>
        <time>2010-04-05T08:52:16Z</time>
      </trkpt>
      <trkpt lat="43.96074" lon="7.01366">
        <ele>862.44</ele>
        <time>2010-04-05T08:52:17Z</time>
      </trkpt>
      <trkpt lat="43.96066" lon="7.01363">
        <ele>859.56</ele>
        <time>2010-04-05T08:52:22Z</time>
      </trkpt>
      <trkpt lat="43.96053" lon="7.01378">
        <ele>856.19</ele>
        <time>2010-04-05T08:52:28Z</time>
      </trkpt>
      <trkpt lat="43.96044" lon="7.01385">
        <ele>854.27</ele>
        <time>2010-04-05T08:52:31Z</time>
      </trkpt>
      <trkpt lat="43.9604" lon="7.01377">
        <ele>850.9</ele>
        <time>2010-04-05T08:52:35Z</time>
      </trkpt>
      <trkpt lat="43.9604" lon="7.01373">
        <ele>849.46</ele>
        <time>2010-04-05T08:52:36Z</time>
      </trkpt>
      <trkpt lat="43.96039" lon="7.0135">
        <ele>845.14</ele>
        <time>2010-04-05T08:52:40Z</time>
      </trkpt>
      <trkpt lat="43.96039" lon="7.01343">
        <ele>843.69</ele>
        <time>2010-04-05T08:52:41Z</time>
      </trkpt>
      <trkpt lat="43.96036" lon="7.01326">
        <ele>840.81</ele>
        <time>2010-04-05T08:52:43Z</time>
      </trkpt>
      <trkpt lat="43.96031" lon="7.01301">
        <ele>837.93</ele>
        <time>2010-04-05T08:52:46Z</time>
      </trkpt>
      <trkpt lat="43.96027" lon="7.01277">
        <ele>834.56</ele>
        <time>2010-04-05T08:52:49Z</time>
      </trkpt>
      <trkpt lat="43.96025" lon="7.01271">
        <ele>833.12</ele>
        <time>2010-04-05T08:52:50Z</time>
      </trkpt>
      <trkpt lat="43.96024" lon="7.01267">
        <ele>831.68</ele>
        <time>2010-04-05T08:52:51Z</time>
      </trkpt>
      <trkpt lat="43.96021" lon="7.01263">
        <ele>830.72</ele>
        <time>2010-04-05T08:52:53Z</time>
      </trkpt>
      <trkpt lat="43.96021" lon="7.01265">
        <ele>830.24</ele>
        <time>2010-04-05T08:52:54Z</time>
      </trkpt>
      <trkpt lat="43.96019" lon="7.01266">
        <ele>829.27</ele>
        <time>2010-04-05T08:52:57Z</time>
      </trkpt>
      <trkpt lat="43.96013" lon="7.01256">
        <ele>826.87</ele>
        <time>2010-04-05T08:53:00Z</time>
      </trkpt>
      <trkpt lat="43.96012" lon="7.0125">
        <ele>825.43</ele>
        <time>2010-04-05T08:53:01Z</time>
      </trkpt>
      <trkpt lat="43.96012" lon="7.01246">
        <ele>825.43</ele>
        <time>2010-04-05T08:53:02Z</time>
      </trkpt>
      <trkpt lat="43.9601" lon="7.01243">
        <ele>824.95</ele>
        <time>2010-04-05T08:53:03Z</time>
      </trkpt>
      <trkpt lat="43.96008" lon="7.0124">
        <ele>823.51</ele>
        <time>2010-04-05T08:53:04Z</time>
      </trkpt>
      <trkpt lat="43.96005" lon="7.01236">
        <ele>823.03</ele>
        <time>2010-04-05T08:53:05Z</time>
      </trkpt>
      <trkpt lat="43.96002" lon="7.01232">
        <ele>822.06</ele>
        <time>2010-04-05T08:53:06Z</time>
      </trkpt>
      <trkpt lat="43.95995" lon="7.01225">
        <ele>819.66</ele>
        <time>2010-04-05T08:53:08Z</time>
      </trkpt>
      <trkpt lat="43.95988" lon="7.01217">
        <ele>816.3</ele>
        <time>2010-04-05T08:53:10Z</time>
      </trkpt>
      <trkpt lat="43.95977" lon="7.01205">
        <ele>813.41</ele>
        <time>2010-04-05T08:53:13Z</time>
      </trkpt>
      <trkpt lat="43.95973" lon="7.01199">
        <ele>812.45</ele>
        <time>2010-04-05T08:53:14Z</time>
      </trkpt>
      <trkpt lat="43.95963" lon="7.01181">
        <ele>810.53</ele>
        <time>2010-04-05T08:53:17Z</time>
      </trkpt>
      <trkpt lat="43.95958" lon="7.01178">
        <ele>809.09</ele>
        <time>2010-04-05T08:53:18Z</time>
      </trkpt>
      <trkpt lat="43.95944" lon="7.01169">
        <ele>805.24</ele>
        <time>2010-04-05T08:53:21Z</time>
      </trkpt>
      <trkpt lat="43.95939" lon="7.01166">
        <ele>804.28</ele>
        <time>2010-04-05T08:53:22Z</time>
      </trkpt>
      <trkpt lat="43.95934" lon="7.01164">
        <ele>803.32</ele>
        <time>2010-04-05T08:53:23Z</time>
      </trkpt>
      <trkpt lat="43.95923" lon="7.0116">
        <ele>800.44</ele>
        <time>2010-04-05T08:53:25Z</time>
      </trkpt>
      <trkpt lat="43.95911" lon="7.01156">
        <ele>796.59</ele>
        <time>2010-04-05T08:53:28Z</time>
      </trkpt>
      <trkpt lat="43.95904" lon="7.01152">
        <ele>794.67</ele>
        <time>2010-04-05T08:53:30Z</time>
      </trkpt>
      <trkpt lat="43.95901" lon="7.01149">
        <ele>793.71</ele>
        <time>2010-04-05T08:53:31Z</time>
      </trkpt>
      <trkpt lat="43.95899" lon="7.01148">
        <ele>793.22</ele>
        <time>2010-04-05T08:53:32Z</time>
      </trkpt>
      <trkpt lat="43.95898" lon="7.01153">
        <ele>792.74</ele>
        <time>2010-04-05T08:53:34Z</time>
      </trkpt>
      <trkpt lat="43.95896" lon="7.01154">
        <ele>789.38</ele>
        <time>2010-04-05T08:53:42Z</time>
      </trkpt>
      <trkpt lat="43.95897" lon="7.01152">
        <ele>790.34</ele>
        <time>2010-04-05T08:53:53Z</time>
      </trkpt>
      <trkpt lat="43.95894" lon="7.01153">
        <ele>788.9</ele>
        <time>2010-04-05T08:53:56Z</time>
      </trkpt>
      <trkpt lat="43.95886" lon="7.01142">
        <ele>786.5</ele>
        <time>2010-04-05T08:54:01Z</time>
      </trkpt>
      <trkpt lat="43.95881" lon="7.01135">
        <ele>784.57</ele>
        <time>2010-04-05T08:54:04Z</time>
      </trkpt>
      <trkpt lat="43.95879" lon="7.01135">
        <ele>783.61</ele>
        <time>2010-04-05T08:54:06Z</time>
      </trkpt>
      <trkpt lat="43.95875" lon="7.01126">
        <ele>781.21</ele>
        <time>2010-04-05T08:54:10Z</time>
      </trkpt>
      <trkpt lat="43.95866" lon="7.01116">
        <ele>776.88</ele>
        <time>2010-04-05T08:54:16Z</time>
      </trkpt>
      <trkpt lat="43.95863" lon="7.01123">
        <ele>775.44</ele>
        <time>2010-04-05T08:54:18Z</time>
      </trkpt>
      <trkpt lat="43.95861" lon="7.01126">
        <ele>774.48</ele>
        <time>2010-04-05T08:54:19Z</time>
      </trkpt>
      <trkpt lat="43.95857" lon="7.0112">
        <ele>772.08</ele>
        <time>2010-04-05T08:54:22Z</time>
      </trkpt>
      <trkpt lat="43.95857" lon="7.01096">
        <ele>768.23</ele>
        <time>2010-04-05T08:54:26Z</time>
      </trkpt>
      <trkpt lat="43.95858" lon="7.0109">
        <ele>767.27</ele>
        <time>2010-04-05T08:54:27Z</time>
      </trkpt>
      <trkpt lat="43.95859" lon="7.01084">
        <ele>766.79</ele>
        <time>2010-04-05T08:54:28Z</time>
      </trkpt>
      <trkpt lat="43.95859" lon="7.0108">
        <ele>765.35</ele>
        <time>2010-04-05T08:54:29Z</time>
      </trkpt>
      <trkpt lat="43.95858" lon="7.01076">
        <ele>764.87</ele>
        <time>2010-04-05T08:54:30Z</time>
      </trkpt>
      <trkpt lat="43.95856" lon="7.01074">
        <ele>763.9</ele>
        <time>2010-04-05T08:54:31Z</time>
      </trkpt>
      <trkpt lat="43.95852" lon="7.01072">
        <ele>762.94</ele>
        <time>2010-04-05T08:54:32Z</time>
      </trkpt>
      <trkpt lat="43.95849" lon="7.01072">
        <ele>761.5</ele>
        <time>2010-04-05T08:54:33Z</time>
      </trkpt>
      <trkpt lat="43.95847" lon="7.01073">
        <ele>761.02</ele>
        <time>2010-04-05T08:54:34Z</time>
      </trkpt>
      <trkpt lat="43.95844" lon="7.01076">
        <ele>760.54</ele>
        <time>2010-04-05T08:54:35Z</time>
      </trkpt>
      <trkpt lat="43.95843" lon="7.01079">
        <ele>759.58</ele>
        <time>2010-04-05T08:54:36Z</time>
      </trkpt>
      <trkpt lat="43.95842" lon="7.01077">
        <ele>759.58</ele>
        <time>2010-04-05T08:54:37Z</time>
      </trkpt>
      <trkpt lat="43.95843" lon="7.01073">
        <ele>758.14</ele>
        <time>2010-04-05T08:54:38Z</time>
      </trkpt>
      <trkpt lat="43.95843" lon="7.01068">
        <ele>757.66</ele>
        <time>2010-04-05T08:54:39Z</time>
      </trkpt>
      <trkpt lat="43.95845" lon="7.01063">
        <ele>757.66</ele>
        <time>2010-04-05T08:54:40Z</time>
      </trkpt>
      <trkpt lat="43.95846" lon="7.01059">
        <ele>756.21</ele>
        <time>2010-04-05T08:54:41Z</time>
      </trkpt>
      <trkpt lat="43.95846" lon="7.01056">
        <ele>756.21</ele>
        <time>2010-04-05T08:54:42Z</time>
      </trkpt>
      <trkpt lat="43.95846" lon="7.01053">
        <ele>755.25</ele>
        <time>2010-04-05T08:54:43Z</time>
      </trkpt>
      <trkpt lat="43.95846" lon="7.01051">
        <ele>754.29</ele>
        <time>2010-04-05T08:54:44Z</time>
      </trkpt>
      <trkpt lat="43.9584" lon="7.0105">
        <ele>752.37</ele>
        <time>2010-04-05T08:54:48Z</time>
      </trkpt>
      <trkpt lat="43.95839" lon="7.0105">
        <ele>750.93</ele>
        <time>2010-04-05T08:54:50Z</time>
      </trkpt>
      <trkpt lat="43.95823" lon="7.01071">
        <ele>745.64</ele>
        <time>2010-04-05T08:54:55Z</time>
      </trkpt>
      <trkpt lat="43.95814" lon="7.01077">
        <ele>744.2</ele>
        <time>2010-04-05T08:54:57Z</time>
      </trkpt>
      <trkpt lat="43.95805" lon="7.0108">
        <ele>740.83</ele>
        <time>2010-04-05T08:54:59Z</time>
      </trkpt>
      <trkpt lat="43.95802" lon="7.01084">
        <ele>740.83</ele>
        <time>2010-04-05T08:55:00Z</time>
      </trkpt>
      <trkpt lat="43.95799" lon="7.0109">
        <ele>739.87</ele>
        <time>2010-04-05T08:55:01Z</time>
      </trkpt>
      <trkpt lat="43.95789" lon="7.01107">
        <ele>736.03</ele>
        <time>2010-04-05T08:55:05Z</time>
      </trkpt>
      <trkpt lat="43.95787" lon="7.01114">
        <ele>734.1</ele>
        <time>2010-04-05T08:55:06Z</time>
      </trkpt>
      <trkpt lat="43.95785" lon="7.01122">
        <ele>732.66</ele>
        <time>2010-04-05T08:55:07Z</time>
      </trkpt>
      <trkpt lat="43.95783" lon="7.01132">
        <ele>731.22</ele>
        <time>2010-04-05T08:55:09Z</time>
      </trkpt>
      <trkpt lat="43.95772" lon="7.01126">
        <ele>726.89</ele>
        <time>2010-04-05T08:55:13Z</time>
      </trkpt>
      <trkpt lat="43.9577" lon="7.01122">
        <ele>726.41</ele>
        <time>2010-04-05T08:55:14Z</time>
      </trkpt>
      <trkpt lat="43.95767" lon="7.01117">
        <ele>725.45</ele>
        <time>2010-04-05T08:55:15Z</time>
      </trkpt>
      <trkpt lat="43.95763" lon="7.01113">
        <ele>724.01</ele>
        <time>2010-04-05T08:55:16Z</time>
      </trkpt>
      <trkpt lat="43.95759" lon="7.01109">
        <ele>722.09</ele>
        <time>2010-04-05T08:55:17Z</time>
      </trkpt>
      <trkpt lat="43.95755" lon="7.01104">
        <ele>720.65</ele>
        <time>2010-04-05T08:55:18Z</time>
      </trkpt>
      <trkpt lat="43.95752" lon="7.01099">
        <ele>719.2</ele>
        <time>2010-04-05T08:55:19Z</time>
      </trkpt>
      <trkpt lat="43.9575" lon="7.01094">
        <ele>718.72</ele>
        <time>2010-04-05T08:55:20Z</time>
      </trkpt>
      <trkpt lat="43.95749" lon="7.01088">
        <ele>717.76</ele>
        <time>2010-04-05T08:55:21Z</time>
      </trkpt>
      <trkpt lat="43.95748" lon="7.01083">
        <ele>716.32</ele>
        <time>2010-04-05T08:55:22Z</time>
      </trkpt>
      <trkpt lat="43.95746" lon="7.01071">
        <ele>712.95</ele>
        <time>2010-04-05T08:55:25Z</time>
      </trkpt>
      <trkpt lat="43.95745" lon="7.01055">
        <ele>709.59</ele>
        <time>2010-04-05T08:55:30Z</time>
      </trkpt>
      <trkpt lat="43.95748" lon="7.01044">
        <ele>706.71</ele>
        <time>2010-04-05T08:55:34Z</time>
      </trkpt>
      <trkpt lat="43.95751" lon="7.01033">
        <ele>704.78</ele>
        <time>2010-04-05T08:55:37Z</time>
      </trkpt>
      <trkpt lat="43.95746" lon="7.01016">
        <ele>702.38</ele>
        <time>2010-04-05T08:55:43Z</time>
      </trkpt>
      <trkpt lat="43.95734" lon="7.01011">
        <ele>699.02</ele>
        <time>2010-04-05T08:55:47Z</time>
      </trkpt>
      <trkpt lat="43.95733" lon="7.01015">
        <ele>698.05</ele>
        <time>2010-04-05T08:55:50Z</time>
      </trkpt>
      <trkpt lat="43.95734" lon="7.01017">
        <ele>697.09</ele>
        <time>2010-04-05T08:55:52Z</time>
      </trkpt>
      <trkpt lat="43.95733" lon="7.01018">
        <ele>696.13</ele>
        <time>2010-04-05T08:55:54Z</time>
      </trkpt>
      <trkpt lat="43.95729" lon="7.01016">
        <ele>695.17</ele>
        <time>2010-04-05T08:56:14Z</time>
      </trkpt>
      <trkpt lat="43.95731" lon="7.01016">
        <ele>696.61</ele>
        <time>2010-04-05T08:57:45Z</time>
      </trkpt>
      <trkpt lat="43.9573" lon="7.01019">
        <ele>696.13</ele>
        <time>2010-04-05T08:57:48Z</time>
      </trkpt>
      <trkpt lat="43.95725" lon="7.01019">
        <ele>693.25</ele>
        <time>2010-04-05T08:57:51Z</time>
      </trkpt>
      <trkpt lat="43.95722" lon="7.01018">
        <ele>693.25</ele>
        <time>2010-04-05T08:57:52Z</time>
      </trkpt>
      <trkpt lat="43.95718" lon="7.01016">
        <ele>691.81</ele>
        <time>2010-04-05T08:57:53Z</time>
      </trkpt>
      <trkpt lat="43.95713" lon="7.01015">
        <ele>689.88</ele>
        <time>2010-04-05T08:57:54Z</time>
      </trkpt>
      <trkpt lat="43.95709" lon="7.01013">
        <ele>688.92</ele>
        <time>2010-04-05T08:57:55Z</time>
      </trkpt>
      <trkpt lat="43.95704" lon="7.0101">
        <ele>688.44</ele>
        <time>2010-04-05T08:57:56Z</time>
      </trkpt>
      <trkpt lat="43.95703" lon="7.01009">
        <ele>687.48</ele>
        <time>2010-04-05T08:57:57Z</time>
      </trkpt>
      <trkpt lat="43.95702" lon="7.01007">
        <ele>687.48</ele>
        <time>2010-04-05T08:57:58Z</time>
      </trkpt>
      <trkpt lat="43.95691" lon="7.00989">
        <ele>685.08</ele>
        <time>2010-04-05T08:58:24Z</time>
      </trkpt>
      <trkpt lat="43.9569" lon="7.00991">
        <ele>684.12</ele>
        <time>2010-04-05T08:58:26Z</time>
      </trkpt>
      <trkpt lat="43.95685" lon="7.00993">
        <ele>682.19</ele>
        <time>2010-04-05T08:58:30Z</time>
      </trkpt>
      <trkpt lat="43.95681" lon="7.00993">
        <ele>681.23</ele>
        <time>2010-04-05T08:59:05Z</time>
      </trkpt>
      <trkpt lat="43.95681" lon="7.00991">
        <ele>682.19</ele>
        <time>2010-04-05T09:00:24Z</time>
      </trkpt>
      <trkpt lat="43.95674" lon="7.0098">
        <ele>679.79</ele>
        <time>2010-04-05T09:00:28Z</time>
      </trkpt>
      <trkpt lat="43.95668" lon="7.00978">
        <ele>677.39</ele>
        <time>2010-04-05T09:00:32Z</time>
      </trkpt>
      <trkpt lat="43.95656" lon="7.00975">
        <ele>673.54</ele>
        <time>2010-04-05T09:00:38Z</time>
      </trkpt>
      <trkpt lat="43.95646" lon="7.00976">
        <ele>670.18</ele>
        <time>2010-04-05T09:00:43Z</time>
      </trkpt>
      <trkpt lat="43.9564" lon="7.00974">
        <ele>668.73</ele>
        <time>2010-04-05T09:00:54Z</time>
      </trkpt>
      <trkpt lat="43.95629" lon="7.00969">
        <ele>666.81</ele>
        <time>2010-04-05T09:00:59Z</time>
      </trkpt>
      <trkpt lat="43.95616" lon="7.00962">
        <ele>663.45</ele>
        <time>2010-04-05T09:01:05Z</time>
      </trkpt>
      <trkpt lat="43.95606" lon="7.00953">
        <ele>660.08</ele>
        <time>2010-04-05T09:01:10Z</time>
      </trkpt>
      <trkpt lat="43.95595" lon="7.00931">
        <ele>656.24</ele>
        <time>2010-04-05T09:01:16Z</time>
      </trkpt>
      <trkpt lat="43.95583" lon="7.00917">
        <ele>652.87</ele>
        <time>2010-04-05T09:01:21Z</time>
      </trkpt>
      <trkpt lat="43.95573" lon="7.00907">
        <ele>649.51</ele>
        <time>2010-04-05T09:01:25Z</time>
      </trkpt>
      <trkpt lat="43.95571" lon="7.00906">
        <ele>647.59</ele>
        <time>2010-04-05T09:01:26Z</time>
      </trkpt>
      <trkpt lat="43.95563" lon="7.00894">
        <ele>645.66</ele>
        <time>2010-04-05T09:01:31Z</time>
      </trkpt>
      <trkpt lat="43.95561" lon="7.00892">
        <ele>645.66</ele>
        <time>2010-04-05T09:01:32Z</time>
      </trkpt>
      <trkpt lat="43.95556" lon="7.0089">
        <ele>643.26</ele>
        <time>2010-04-05T09:01:57Z</time>
      </trkpt>
      <trkpt lat="43.95556" lon="7.0089">
        <ele>644.7</ele>
        <time>2010-04-05T09:02:26Z</time>
      </trkpt>
      <trkpt lat="43.95552" lon="7.00883">
        <ele>642.78</ele>
        <time>2010-04-05T09:02:30Z</time>
      </trkpt>
      <trkpt lat="43.95546" lon="7.00868">
        <ele>640.38</ele>
        <time>2010-04-05T09:02:37Z</time>
      </trkpt>
      <trkpt lat="43.95544" lon="7.00865">
        <ele>639.89</ele>
        <time>2010-04-05T09:02:39Z</time>
      </trkpt>
      <trkpt lat="43.95544" lon="7.00886">
        <ele>636.53</ele>
        <time>2010-04-05T09:02:46Z</time>
      </trkpt>
      <trkpt lat="43.95541" lon="7.0089">
        <ele>635.57</ele>
        <time>2010-04-05T09:02:48Z</time>
      </trkpt>
      <trkpt lat="43.95533" lon="7.00877">
        <ele>632.68</ele>
        <time>2010-04-05T09:02:52Z</time>
      </trkpt>
      <trkpt lat="43.95528" lon="7.00863">
        <ele>628.84</ele>
        <time>2010-04-05T09:02:58Z</time>
      </trkpt>
      <trkpt lat="43.9553" lon="7.00872">
        <ele>626.44</ele>
        <time>2010-04-05T09:03:02Z</time>
      </trkpt>
      <trkpt lat="43.95524" lon="7.00873">
        <ele>623.55</ele>
        <time>2010-04-05T09:03:07Z</time>
      </trkpt>
      <trkpt lat="43.95518" lon="7.00869">
        <ele>621.63</ele>
        <time>2010-04-05T09:03:10Z</time>
      </trkpt>
      <trkpt lat="43.95504" lon="7.00862">
        <ele>618.75</ele>
        <time>2010-04-05T09:03:16Z</time>
      </trkpt>
      <trkpt lat="43.95494" lon="7.00859">
        <ele>617.3</ele>
        <time>2010-04-05T09:03:19Z</time>
      </trkpt>
      <trkpt lat="43.9547" lon="7.0085">
        <ele>613.94</ele>
        <time>2010-04-05T09:03:26Z</time>
      </trkpt>
      <trkpt lat="43.95461" lon="7.00838">
        <ele>612.02</ele>
        <time>2010-04-05T09:03:32Z</time>
      </trkpt>
      <trkpt lat="43.95457" lon="7.00836">
        <ele>611.54</ele>
        <time>2010-04-05T09:03:33Z</time>
      </trkpt>
      <trkpt lat="43.95455" lon="7.00835">
        <ele>611.06</ele>
        <time>2010-04-05T09:03:34Z</time>
      </trkpt>
      <trkpt lat="43.95432" lon="7.00833">
        <ele>608.65</ele>
        <time>2010-04-05T09:03:41Z</time>
      </trkpt>
      <trkpt lat="43.95427" lon="7.00834">
        <ele>608.17</ele>
        <time>2010-04-05T09:03:42Z</time>
      </trkpt>
      <trkpt lat="43.95422" lon="7.00836">
        <ele>607.21</ele>
        <time>2010-04-05T09:03:43Z</time>
      </trkpt>
      <trkpt lat="43.95419" lon="7.00837">
        <ele>607.21</ele>
        <time>2010-04-05T09:03:44Z</time>
      </trkpt>
      <trkpt lat="43.95417" lon="7.00838">
        <ele>606.73</ele>
        <time>2010-04-05T09:03:45Z</time>
      </trkpt>
      <trkpt lat="43.95411" lon="7.00838">
        <ele>605.77</ele>
        <time>2010-04-05T09:03:51Z</time>
      </trkpt>
      <trkpt lat="43.95393" lon="7.00844">
        <ele>603.85</ele>
        <time>2010-04-05T09:03:58Z</time>
      </trkpt>
      <trkpt lat="43.95389" lon="7.00846">
        <ele>603.85</ele>
        <time>2010-04-05T09:03:59Z</time>
      </trkpt>
      <trkpt lat="43.95368" lon="7.00851">
        <ele>601.44</ele>
        <time>2010-04-05T09:04:04Z</time>
      </trkpt>
      <trkpt lat="43.95363" lon="7.00851">
        <ele>601.44</ele>
        <time>2010-04-05T09:04:05Z</time>
      </trkpt>
      <trkpt lat="43.95357" lon="7.00851">
        <ele>600.96</ele>
        <time>2010-04-05T09:04:06Z</time>
      </trkpt>
      <trkpt lat="43.95345" lon="7.00852">
        <ele>600.48</ele>
        <time>2010-04-05T09:04:08Z</time>
      </trkpt>
      <trkpt lat="43.95341" lon="7.00852">
        <ele>599.52</ele>
        <time>2010-04-05T09:04:09Z</time>
      </trkpt>
      <trkpt lat="43.95335" lon="7.00853">
        <ele>599.04</ele>
        <time>2010-04-05T09:04:10Z</time>
      </trkpt>
      <trkpt lat="43.9533" lon="7.00853">
        <ele>598.56</ele>
        <time>2010-04-05T09:04:11Z</time>
      </trkpt>
      <trkpt lat="43.95324" lon="7.00854">
        <ele>598.56</ele>
        <time>2010-04-05T09:04:12Z</time>
      </trkpt>
      <trkpt lat="43.95318" lon="7.00854">
        <ele>598.08</ele>
        <time>2010-04-05T09:04:13Z</time>
      </trkpt>
      <trkpt lat="43.95304" lon="7.0085">
        <ele>598.08</ele>
        <time>2010-04-05T09:04:15Z</time>
      </trkpt>
      <trkpt lat="43.9528" lon="7.00843">
        <ele>599.04</ele>
        <time>2010-04-05T09:04:27Z</time>
      </trkpt>
      <trkpt lat="43.95269" lon="7.00842">
        <ele>597.12</ele>
        <time>2010-04-05T09:04:42Z</time>
      </trkpt>
      <trkpt lat="43.95265" lon="7.00845">
        <ele>593.75</ele>
        <time>2010-04-05T09:05:01Z</time>
      </trkpt>
      <trkpt lat="43.95263" lon="7.00847">
        <ele>592.79</ele>
        <time>2010-04-05T09:05:05Z</time>
      </trkpt>
      <trkpt lat="43.95261" lon="7.00847">
        <ele>591.83</ele>
        <time>2010-04-05T09:05:06Z</time>
      </trkpt>
      <trkpt lat="43.95259" lon="7.00847">
        <ele>590.87</ele>
        <time>2010-04-05T09:05:07Z</time>
      </trkpt>
      <trkpt lat="43.95258" lon="7.00847">
        <ele>590.87</ele>
        <time>2010-04-05T09:05:08Z</time>
      </trkpt>
      <trkpt lat="43.95257" lon="7.00845">
        <ele>590.39</ele>
        <time>2010-04-05T09:05:09Z</time>
      </trkpt>
      <trkpt lat="43.95256" lon="7.00844">
        <ele>589.91</ele>
        <time>2010-04-05T09:05:10Z</time>
      </trkpt>
      <trkpt lat="43.95253" lon="7.00839">
        <ele>589.43</ele>
        <time>2010-04-05T09:05:30Z</time>
      </trkpt>
      <trkpt lat="43.95252" lon="7.00836">
        <ele>588.95</ele>
        <time>2010-04-05T09:05:31Z</time>
      </trkpt>
      <trkpt lat="43.95252" lon="7.00832">
        <ele>588.46</ele>
        <time>2010-04-05T09:05:32Z</time>
      </trkpt>
      <trkpt lat="43.95251" lon="7.00821">
        <ele>587.5</ele>
        <time>2010-04-05T09:05:34Z</time>
      </trkpt>
      <trkpt lat="43.95251" lon="7.00811">
        <ele>586.06</ele>
        <time>2010-04-05T09:05:36Z</time>
      </trkpt>
      <trkpt lat="43.95249" lon="7.00806">
        <ele>585.1</ele>
        <time>2010-04-05T09:05:37Z</time>
      </trkpt>
      <trkpt lat="43.9524" lon="7.00788">
        <ele>581.25</ele>
        <time>2010-04-05T09:05:42Z</time>
      </trkpt>
      <trkpt lat="43.95227" lon="7.00769">
        <ele>577.41</ele>
        <time>2010-04-05T09:05:47Z</time>
      </trkpt>
      <trkpt lat="43.95224" lon="7.00765">
        <ele>576.45</ele>
        <time>2010-04-05T09:05:48Z</time>
      </trkpt>
      <trkpt lat="43.9521" lon="7.00756">
        <ele>572.6</ele>
        <time>2010-04-05T09:05:51Z</time>
      </trkpt>
      <trkpt lat="43.952" lon="7.00751">
        <ele>569.72</ele>
        <time>2010-04-05T09:05:53Z</time>
      </trkpt>
      <trkpt lat="43.95195" lon="7.00749">
        <ele>568.76</ele>
        <time>2010-04-05T09:05:54Z</time>
      </trkpt>
      <trkpt lat="43.9518" lon="7.00741">
        <ele>564.91</ele>
        <time>2010-04-05T09:05:58Z</time>
      </trkpt>
      <trkpt lat="43.95163" lon="7.00722">
        <ele>562.03</ele>
        <time>2010-04-05T09:06:04Z</time>
      </trkpt>
      <trkpt lat="43.95151" lon="7.00713">
        <ele>559.14</ele>
        <time>2010-04-05T09:06:07Z</time>
      </trkpt>
      <trkpt lat="43.95139" lon="7.00705">
        <ele>555.78</ele>
        <time>2010-04-05T09:06:11Z</time>
      </trkpt>
      <trkpt lat="43.95137" lon="7.007">
        <ele>554.34</ele>
        <time>2010-04-05T09:06:14Z</time>
      </trkpt>
      <trkpt lat="43.95135" lon="7.00699">
        <ele>553.38</ele>
        <time>2010-04-05T09:06:15Z</time>
      </trkpt>
      <trkpt lat="43.95132" lon="7.00699">
        <ele>552.41</ele>
        <time>2010-04-05T09:06:17Z</time>
      </trkpt>
      <trkpt lat="43.9513" lon="7.007">
        <ele>551.45</ele>
        <time>2010-04-05T09:06:19Z</time>
      </trkpt>
      <trkpt lat="43.95118" lon="7.00702">
        <ele>550.97</ele>
        <time>2010-04-05T09:06:24Z</time>
      </trkpt>
      <trkpt lat="43.95114" lon="7.00701">
        <ele>551.45</ele>
        <time>2010-04-05T09:06:26Z</time>
      </trkpt>
      <trkpt lat="43.95104" lon="7.00702">
        <ele>551.45</ele>
        <time>2010-04-05T09:06:46Z</time>
      </trkpt>
      <trkpt lat="43.95096" lon="7.00704">
        <ele>550.49</ele>
        <time>2010-04-05T09:06:52Z</time>
      </trkpt>
      <trkpt lat="43.95086" lon="7.00702">
        <ele>547.61</ele>
        <time>2010-04-05T09:06:58Z</time>
      </trkpt>
      <trkpt lat="43.95074" lon="7.00707">
        <ele>544.72</ele>
        <time>2010-04-05T09:07:05Z</time>
      </trkpt>
      <trkpt lat="43.95073" lon="7.00716">
        <ele>544.24</ele>
        <time>2010-04-05T09:07:15Z</time>
      </trkpt>
      <trkpt lat="43.95073" lon="7.00721">
        <ele>543.28</ele>
        <time>2010-04-05T09:07:19Z</time>
      </trkpt>
      <trkpt lat="43.95065" lon="7.00713">
        <ele>539.92</ele>
        <time>2010-04-05T09:07:28Z</time>
      </trkpt>
      <trkpt lat="43.95066" lon="7.00717">
        <ele>538.48</ele>
        <time>2010-04-05T09:07:31Z</time>
      </trkpt>
      <trkpt lat="43.95063" lon="7.00721">
        <ele>536.55</ele>
        <time>2010-04-05T09:07:33Z</time>
      </trkpt>
      <trkpt lat="43.95057" lon="7.00719">
        <ele>535.11</ele>
        <time>2010-04-05T09:07:36Z</time>
      </trkpt>
      <trkpt lat="43.95059" lon="7.00704">
        <ele>533.19</ele>
        <time>2010-04-05T09:07:48Z</time>
      </trkpt>
      <trkpt lat="43.95059" lon="7.00706">
        <ele>533.19</ele>
        <time>2010-04-05T09:08:06Z</time>
      </trkpt>
      <trkpt lat="43.95059" lon="7.00698">
        <ele>532.71</ele>
        <time>2010-04-05T09:08:10Z</time>
      </trkpt>
      <trkpt lat="43.95045" lon="7.00678">
        <ele>530.3</ele>
        <time>2010-04-05T09:08:20Z</time>
      </trkpt>
      <trkpt lat="43.95035" lon="7.00669">
        <ele>531.27</ele>
        <time>2010-04-05T09:08:35Z</time>
      </trkpt>
      <trkpt lat="43.95034" lon="7.00667">
        <ele>531.27</ele>
        <time>2010-04-05T09:09:55Z</time>
      </trkpt>
      <trkpt lat="43.95025" lon="7.00659">
        <ele>532.71</ele>
        <time>2010-04-05T09:10:01Z</time>
      </trkpt>
      <trkpt lat="43.95019" lon="7.00651">
        <ele>532.71</ele>
        <time>2010-04-05T09:10:06Z</time>
      </trkpt>
      <trkpt lat="43.95015" lon="7.00647">
        <ele>532.71</ele>
        <time>2010-04-05T09:10:08Z</time>
      </trkpt>
      <trkpt lat="43.95006" lon="7.00641">
        <ele>532.71</ele>
        <time>2010-04-05T09:10:14Z</time>
      </trkpt>
      <trkpt lat="43.95" lon="7.00641">
        <ele>532.71</ele>
        <time>2010-04-05T09:10:20Z</time>
      </trkpt>
      <trkpt lat="43.94997" lon="7.00638">
        <ele>531.75</ele>
        <time>2010-04-05T09:10:23Z</time>
      </trkpt>
      <trkpt lat="43.94995" lon="7.00633">
        <ele>530.79</ele>
        <time>2010-04-05T09:10:25Z</time>
      </trkpt>
      <trkpt lat="43.94996" lon="7.00603">
        <ele>527.42</ele>
        <time>2010-04-05T09:10:32Z</time>
      </trkpt>
      <trkpt lat="43.94993" lon="7.00592">
        <ele>523.58</ele>
        <time>2010-04-05T09:10:36Z</time>
      </trkpt>
      <trkpt lat="43.94981" lon="7.00599">
        <ele>520.21</ele>
        <time>2010-04-05T09:10:44Z</time>
      </trkpt>
      <trkpt lat="43.9498" lon="7.006">
        <ele>519.73</ele>
        <time>2010-04-05T09:10:47Z</time>
      </trkpt>
      <trkpt lat="43.94981" lon="7.00594">
        <ele>520.21</ele>
        <time>2010-04-05T09:11:24Z</time>
      </trkpt>
      <trkpt lat="43.9498" lon="7.00595">
        <ele>519.73</ele>
        <time>2010-04-05T09:11:42Z</time>
      </trkpt>
      <trkpt lat="43.94979" lon="7.00597">
        <ele>518.77</ele>
        <time>2010-04-05T09:11:46Z</time>
      </trkpt>
      <trkpt lat="43.94984" lon="7.00611">
        <ele>513.96</ele>
        <time>2010-04-05T09:11:52Z</time>
      </trkpt>
      <trkpt lat="43.9498" lon="7.00626">
        <ele>510.12</ele>
        <time>2010-04-05T09:11:56Z</time>
      </trkpt>
      <trkpt lat="43.94978" lon="7.00634">
        <ele>506.75</ele>
        <time>2010-04-05T09:11:58Z</time>
      </trkpt>
      <trkpt lat="43.94976" lon="7.00643">
        <ele>505.31</ele>
        <time>2010-04-05T09:12:00Z</time>
      </trkpt>
      <trkpt lat="43.94971" lon="7.00648">
        <ele>503.87</ele>
        <time>2010-04-05T09:12:03Z</time>
      </trkpt>
      <trkpt lat="43.94969" lon="7.00643">
        <ele>502.43</ele>
        <time>2010-04-05T09:12:05Z</time>
      </trkpt>
      <trkpt lat="43.94965" lon="7.00624">
        <ele>498.58</ele>
        <time>2010-04-05T09:12:09Z</time>
      </trkpt>
      <trkpt lat="43.94959" lon="7.00607">
        <ele>494.74</ele>
        <time>2010-04-05T09:12:13Z</time>
      </trkpt>
      <trkpt lat="43.94956" lon="7.00593">
        <ele>491.37</ele>
        <time>2010-04-05T09:12:17Z</time>
      </trkpt>
      <trkpt lat="43.94954" lon="7.00585">
        <ele>488.49</ele>
        <time>2010-04-05T09:12:19Z</time>
      </trkpt>
      <trkpt lat="43.94948" lon="7.00566">
        <ele>485.12</ele>
        <time>2010-04-05T09:12:24Z</time>
      </trkpt>
      <trkpt lat="43.94946" lon="7.00561">
        <ele>482.72</ele>
        <time>2010-04-05T09:12:26Z</time>
      </trkpt>
      <trkpt lat="43.94943" lon="7.00557">
        <ele>482.24</ele>
        <time>2010-04-05T09:12:28Z</time>
      </trkpt>
      <trkpt lat="43.94939" lon="7.00557">
        <ele>480.8</ele>
        <time>2010-04-05T09:12:30Z</time>
      </trkpt>
      <trkpt lat="43.94933" lon="7.00566">
        <ele>477.91</ele>
        <time>2010-04-05T09:12:34Z</time>
      </trkpt>
      <trkpt lat="43.94935" lon="7.0057">
        <ele>475.99</ele>
        <time>2010-04-05T09:12:39Z</time>
      </trkpt>
      <trkpt lat="43.94939" lon="7.00572">
        <ele>474.55</ele>
        <time>2010-04-05T09:12:41Z</time>
      </trkpt>
      <trkpt lat="43.94944" lon="7.00585">
        <ele>473.59</ele>
        <time>2010-04-05T09:13:05Z</time>
      </trkpt>
      <trkpt lat="43.94945" lon="7.00591">
        <ele>472.14</ele>
        <time>2010-04-05T09:13:07Z</time>
      </trkpt>
      <trkpt lat="43.94945" lon="7.00605">
        <ele>469.26</ele>
        <time>2010-04-05T09:13:11Z</time>
      </trkpt>
      <trkpt lat="43.94944" lon="7.0061">
        <ele>468.3</ele>
        <time>2010-04-05T09:13:12Z</time>
      </trkpt>
      <trkpt lat="43.94942" lon="7.00615">
        <ele>466.86</ele>
        <time>2010-04-05T09:13:13Z</time>
      </trkpt>
      <trkpt lat="43.9494" lon="7.00617">
        <ele>466.38</ele>
        <time>2010-04-05T09:13:14Z</time>
      </trkpt>
      <trkpt lat="43.94938" lon="7.00615">
        <ele>466.38</ele>
        <time>2010-04-05T09:13:15Z</time>
      </trkpt>
      <trkpt lat="43.94936" lon="7.00613">
        <ele>465.42</ele>
        <time>2010-04-05T09:13:16Z</time>
      </trkpt>
      <trkpt lat="43.94934" lon="7.0061">
        <ele>464.45</ele>
        <time>2010-04-05T09:13:17Z</time>
      </trkpt>
      <trkpt lat="43.94932" lon="7.00608">
        <ele>463.01</ele>
        <time>2010-04-05T09:13:18Z</time>
      </trkpt>
      <trkpt lat="43.94926" lon="7.00596">
        <ele>460.13</ele>
        <time>2010-04-05T09:13:22Z</time>
      </trkpt>
      <trkpt lat="43.94923" lon="7.00596">
        <ele>459.17</ele>
        <time>2010-04-05T09:13:23Z</time>
      </trkpt>
      <trkpt lat="43.94921" lon="7.00596">
        <ele>457.72</ele>
        <time>2010-04-05T09:13:24Z</time>
      </trkpt>
      <trkpt lat="43.94918" lon="7.00598">
        <ele>456.76</ele>
        <time>2010-04-05T09:13:25Z</time>
      </trkpt>
      <trkpt lat="43.94915" lon="7.006">
        <ele>456.28</ele>
        <time>2010-04-05T09:13:26Z</time>
      </trkpt>
      <trkpt lat="43.94912" lon="7.00601">
        <ele>455.32</ele>
        <time>2010-04-05T09:13:27Z</time>
      </trkpt>
      <trkpt lat="43.94905" lon="7.00606">
        <ele>452.44</ele>
        <time>2010-04-05T09:13:31Z</time>
      </trkpt>
      <trkpt lat="43.94906" lon="7.00608">
        <ele>451.96</ele>
        <time>2010-04-05T09:13:32Z</time>
      </trkpt>
      <trkpt lat="43.94908" lon="7.00608">
        <ele>451</ele>
        <time>2010-04-05T09:13:33Z</time>
      </trkpt>
      <trkpt lat="43.94911" lon="7.00608">
        <ele>450.03</ele>
        <time>2010-04-05T09:13:34Z</time>
      </trkpt>
      <trkpt lat="43.94914" lon="7.00608">
        <ele>449.07</ele>
        <time>2010-04-05T09:13:35Z</time>
      </trkpt>
      <trkpt lat="43.94918" lon="7.00612">
        <ele>445.71</ele>
        <time>2010-04-05T09:13:38Z</time>
      </trkpt>
      <trkpt lat="43.94916" lon="7.00613">
        <ele>444.75</ele>
        <time>2010-04-05T09:13:40Z</time>
      </trkpt>
      <trkpt lat="43.94913" lon="7.00613">
        <ele>443.79</ele>
        <time>2010-04-05T09:13:41Z</time>
      </trkpt>
      <trkpt lat="43.9491" lon="7.00612">
        <ele>442.34</ele>
        <time>2010-04-05T09:13:42Z</time>
      </trkpt>
      <trkpt lat="43.94907" lon="7.00613">
        <ele>441.86</ele>
        <time>2010-04-05T09:13:43Z</time>
      </trkpt>
      <trkpt lat="43.94905" lon="7.00613">
        <ele>440.9</ele>
        <time>2010-04-05T09:13:44Z</time>
      </trkpt>
      <trkpt lat="43.94904" lon="7.00616">
        <ele>438.5</ele>
        <time>2010-04-05T09:13:47Z</time>
      </trkpt>
      <trkpt lat="43.94906" lon="7.00625">
        <ele>435.61</ele>
        <time>2010-04-05T09:13:50Z</time>
      </trkpt>
      <trkpt lat="43.94906" lon="7.00628">
        <ele>434.65</ele>
        <time>2010-04-05T09:13:51Z</time>
      </trkpt>
      <trkpt lat="43.94904" lon="7.0063">
        <ele>434.17</ele>
        <time>2010-04-05T09:13:52Z</time>
      </trkpt>
      <trkpt lat="43.94903" lon="7.00631">
        <ele>433.21</ele>
        <time>2010-04-05T09:13:53Z</time>
      </trkpt>
      <trkpt lat="43.94902" lon="7.00633">
        <ele>432.25</ele>
        <time>2010-04-05T09:13:54Z</time>
      </trkpt>
      <trkpt lat="43.94901" lon="7.00636">
        <ele>431.77</ele>
        <time>2010-04-05T09:13:55Z</time>
      </trkpt>
      <trkpt lat="43.94907" lon="7.00656">
        <ele>427.92</ele>
        <time>2010-04-05T09:14:01Z</time>
      </trkpt>
      <trkpt lat="43.94906" lon="7.00665">
        <ele>426.48</ele>
        <time>2010-04-05T09:14:04Z</time>
      </trkpt>
      <trkpt lat="43.94903" lon="7.00662">
        <ele>424.08</ele>
        <time>2010-04-05T09:14:09Z</time>
      </trkpt>
      <trkpt lat="43.94905" lon="7.00675">
        <ele>421.68</ele>
        <time>2010-04-05T09:14:15Z</time>
      </trkpt>
      <trkpt lat="43.94907" lon="7.00678">
        <ele>421.68</ele>
        <time>2010-04-05T09:14:30Z</time>
      </trkpt>
      <trkpt lat="43.94908" lon="7.00677">
        <ele>424.56</ele>
        <time>2010-04-05T09:17:25Z</time>
      </trkpt>
      <trkpt lat="43.94909" lon="7.00674">
        <ele>426.48</ele>
        <time>2010-04-05T09:19:35Z</time>
      </trkpt>
      <trkpt lat="43.9491" lon="7.00673">
        <ele>426.48</ele>
        <time>2010-04-05T09:20:19Z</time>
      </trkpt>
      <trkpt lat="43.94911" lon="7.00669">
        <ele>426.96</ele>
        <time>2010-04-05T09:21:05Z</time>
      </trkpt>
      <trkpt lat="43.9491" lon="7.00662">
        <ele>427.92</ele>
        <time>2010-04-05T09:21:10Z</time>
      </trkpt>
      <trkpt lat="43.94912" lon="7.00664">
        <ele>427.92</ele>
        <time>2010-04-05T09:21:13Z</time>
      </trkpt>
      <trkpt lat="43.94913" lon="7.00665">
        <ele>427.44</ele>
        <time>2010-04-05T09:21:40Z</time>
      </trkpt>
      <trkpt lat="43.9492" lon="7.00702">
        <ele>424.56</ele>
        <time>2010-04-05T09:21:53Z</time>
      </trkpt>
      <trkpt lat="43.949" lon="7.00733">
        <ele>421.19</ele>
        <time>2010-04-05T09:22:04Z</time>
      </trkpt>
      <trkpt lat="43.94894" lon="7.00738">
        <ele>420.23</ele>
        <time>2010-04-05T09:22:19Z</time>
      </trkpt>
      <trkpt lat="43.94894" lon="7.00739">
        <ele>419.75</ele>
        <time>2010-04-05T09:22:20Z</time>
      </trkpt>
      <trkpt lat="43.9489" lon="7.0074">
        <ele>418.79</ele>
        <time>2010-04-05T09:22:22Z</time>
      </trkpt>
      <trkpt lat="43.94881" lon="7.00745">
        <ele>416.87</ele>
        <time>2010-04-05T09:22:26Z</time>
      </trkpt>
      <trkpt lat="43.94872" lon="7.00751">
        <ele>413.98</ele>
        <time>2010-04-05T09:22:32Z</time>
      </trkpt>
      <trkpt lat="43.94867" lon="7.00789">
        <ele>412.06</ele>
        <time>2010-04-05T09:22:44Z</time>
      </trkpt>
      <trkpt lat="43.94868" lon="7.008">
        <ele>408.7</ele>
        <time>2010-04-05T09:22:49Z</time>
      </trkpt>
      <trkpt lat="43.94869" lon="7.0081">
        <ele>405.81</ele>
        <time>2010-04-05T09:22:54Z</time>
      </trkpt>
      <trkpt lat="43.94869" lon="7.00819">
        <ele>402.93</ele>
        <time>2010-04-05T09:22:58Z</time>
      </trkpt>
      <trkpt lat="43.9487" lon="7.00824">
        <ele>401.49</ele>
        <time>2010-04-05T09:23:00Z</time>
      </trkpt>
      <trkpt lat="43.9487" lon="7.00826">
        <ele>401.49</ele>
        <time>2010-04-05T09:23:01Z</time>
      </trkpt>
      <trkpt lat="43.94876" lon="7.00825">
        <ele>398.6</ele>
        <time>2010-04-05T09:23:11Z</time>
      </trkpt>
      <trkpt lat="43.9487" lon="7.00826">
        <ele>397.16</ele>
        <time>2010-04-05T09:23:15Z</time>
      </trkpt>
      <trkpt lat="43.94868" lon="7.00825">
        <ele>396.2</ele>
        <time>2010-04-05T09:23:16Z</time>
      </trkpt>
      <trkpt lat="43.94864" lon="7.00823">
        <ele>395.24</ele>
        <time>2010-04-05T09:23:18Z</time>
      </trkpt>
      <trkpt lat="43.94859" lon="7.00818">
        <ele>392.36</ele>
        <time>2010-04-05T09:23:22Z</time>
      </trkpt>
      <trkpt lat="43.94854" lon="7.00802">
        <ele>389.95</ele>
        <time>2010-04-05T09:23:27Z</time>
      </trkpt>
      <trkpt lat="43.94853" lon="7.00801">
        <ele>388.99</ele>
        <time>2010-04-05T09:23:29Z</time>
      </trkpt>
      <trkpt lat="43.94847" lon="7.00789">
        <ele>385.15</ele>
        <time>2010-04-05T09:23:33Z</time>
      </trkpt>
      <trkpt lat="43.94843" lon="7.00777">
        <ele>383.22</ele>
        <time>2010-04-05T09:23:35Z</time>
      </trkpt>
      <trkpt lat="43.94839" lon="7.0076">
        <ele>380.34</ele>
        <time>2010-04-05T09:23:38Z</time>
      </trkpt>
      <trkpt lat="43.94834" lon="7.00745">
        <ele>376.49</ele>
        <time>2010-04-05T09:23:42Z</time>
      </trkpt>
      <trkpt lat="43.9483" lon="7.00736">
        <ele>373.13</ele>
        <time>2010-04-05T09:23:45Z</time>
      </trkpt>
      <trkpt lat="43.94828" lon="7.00736">
        <ele>372.17</ele>
        <time>2010-04-05T09:23:46Z</time>
      </trkpt>
      <trkpt lat="43.94827" lon="7.00737">
        <ele>371.69</ele>
        <time>2010-04-05T09:23:47Z</time>
      </trkpt>
      <trkpt lat="43.94826" lon="7.00736">
        <ele>371.21</ele>
        <time>2010-04-05T09:23:48Z</time>
      </trkpt>
      <trkpt lat="43.94822" lon="7.00733">
        <ele>368.8</ele>
        <time>2010-04-05T09:23:51Z</time>
      </trkpt>
      <trkpt lat="43.94818" lon="7.00732">
        <ele>366.88</ele>
        <time>2010-04-05T09:23:55Z</time>
      </trkpt>
      <trkpt lat="43.94815" lon="7.00734">
        <ele>365.44</ele>
        <time>2010-04-05T09:23:57Z</time>
      </trkpt>
      <trkpt lat="43.94814" lon="7.00736">
        <ele>365.92</ele>
        <time>2010-04-05T09:23:58Z</time>
      </trkpt>
      <trkpt lat="43.94812" lon="7.00742">
        <ele>364.96</ele>
        <time>2010-04-05T09:24:01Z</time>
      </trkpt>
      <trkpt lat="43.94807" lon="7.00743">
        <ele>363.04</ele>
        <time>2010-04-05T09:24:04Z</time>
      </trkpt>
      <trkpt lat="43.94802" lon="7.00745">
        <ele>360.63</ele>
        <time>2010-04-05T09:24:29Z</time>
      </trkpt>
      <trkpt lat="43.94796" lon="7.00743">
        <ele>359.19</ele>
        <time>2010-04-05T09:24:33Z</time>
      </trkpt>
      <trkpt lat="43.94794" lon="7.00743">
        <ele>358.71</ele>
        <time>2010-04-05T09:24:34Z</time>
      </trkpt>
      <trkpt lat="43.94792" lon="7.00739">
        <ele>358.71</ele>
        <time>2010-04-05T09:24:35Z</time>
      </trkpt>
      <trkpt lat="43.9479" lon="7.00738">
        <ele>357.75</ele>
        <time>2010-04-05T09:24:36Z</time>
      </trkpt>
      <trkpt lat="43.94789" lon="7.00738">
        <ele>357.75</ele>
        <time>2010-04-05T09:24:37Z</time>
      </trkpt>
      <trkpt lat="43.94788" lon="7.00739">
        <ele>357.27</ele>
        <time>2010-04-05T09:24:38Z</time>
      </trkpt>
      <trkpt lat="43.94787" lon="7.00741">
        <ele>356.79</ele>
        <time>2010-04-05T09:24:40Z</time>
      </trkpt>
      <trkpt lat="43.94784" lon="7.0074">
        <ele>356.79</ele>
        <time>2010-04-05T09:24:41Z</time>
      </trkpt>
      <trkpt lat="43.94783" lon="7.00741">
        <ele>355.83</ele>
        <time>2010-04-05T09:24:42Z</time>
      </trkpt>
      <trkpt lat="43.9478" lon="7.0074">
        <ele>355.34</ele>
        <time>2010-04-05T09:24:44Z</time>
      </trkpt>
      <trkpt lat="43.94779" lon="7.0073">
        <ele>353.9</ele>
        <time>2010-04-05T09:25:01Z</time>
      </trkpt>
      <trkpt lat="43.94778" lon="7.00731">
        <ele>354.38</ele>
        <time>2010-04-05T09:25:21Z</time>
      </trkpt>
      <trkpt lat="43.94777" lon="7.00731">
        <ele>354.38</ele>
        <time>2010-04-05T09:25:23Z</time>
      </trkpt>
      <trkpt lat="43.94776" lon="7.00733">
        <ele>354.38</ele>
        <time>2010-04-05T09:25:25Z</time>
      </trkpt>
      <trkpt lat="43.94779" lon="7.00783">
        <ele>349.58</ele>
        <time>2010-04-05T09:25:44Z</time>
      </trkpt>
      <trkpt lat="43.94779" lon="7.00785">
        <ele>353.42</ele>
        <time>2010-04-05T09:25:45Z</time>
      </trkpt>
      <trkpt lat="43.94781" lon="7.00801">
        <ele>354.38</ele>
        <time>2010-04-05T09:26:06Z</time>
      </trkpt>
      <trkpt lat="43.94784" lon="7.00827">
        <ele>352.94</ele>
        <time>2010-04-05T09:26:22Z</time>
      </trkpt>
      <trkpt lat="43.94782" lon="7.0083">
        <ele>352.46</ele>
        <time>2010-04-05T09:26:25Z</time>
      </trkpt>
      <trkpt lat="43.94781" lon="7.00831">
        <ele>352.46</ele>
        <time>2010-04-05T09:26:26Z</time>
      </trkpt>
      <trkpt lat="43.94781" lon="7.00833">
        <ele>352.46</ele>
        <time>2010-04-05T09:26:27Z</time>
      </trkpt>
      <trkpt lat="43.94781" lon="7.00835">
        <ele>351.98</ele>
        <time>2010-04-05T09:26:28Z</time>
      </trkpt>
      <trkpt lat="43.94781" lon="7.00837">
        <ele>351.98</ele>
        <time>2010-04-05T09:26:29Z</time>
      </trkpt>
      <trkpt lat="43.94781" lon="7.00839">
        <ele>351.98</ele>
        <time>2010-04-05T09:26:30Z</time>
      </trkpt>
      <trkpt lat="43.94781" lon="7.00845">
        <ele>351.98</ele>
        <time>2010-04-05T09:26:53Z</time>
      </trkpt>
      <trkpt lat="43.94782" lon="7.00852">
        <ele>351.5</ele>
        <time>2010-04-05T09:26:57Z</time>
      </trkpt>
      <trkpt lat="43.94783" lon="7.00853">
        <ele>351.5</ele>
        <time>2010-04-05T09:26:58Z</time>
      </trkpt>
      <trkpt lat="43.94785" lon="7.00857">
        <ele>351.5</ele>
        <time>2010-04-05T09:27:10Z</time>
      </trkpt>
      <trkpt lat="43.94784" lon="7.00855">
        <ele>351.5</ele>
        <time>2010-04-05T09:27:11Z</time>
      </trkpt>
      <trkpt lat="43.94784" lon="7.00853">
        <ele>351.5</ele>
        <time>2010-04-05T09:27:12Z</time>
      </trkpt>
      <trkpt lat="43.94783" lon="7.0085">
        <ele>351.02</ele>
        <time>2010-04-05T09:27:13Z</time>
      </trkpt>
      <trkpt lat="43.94782" lon="7.00848">
        <ele>351.5</ele>
        <time>2010-04-05T09:27:14Z</time>
      </trkpt>
      <trkpt lat="43.94782" lon="7.00844">
        <ele>351.5</ele>
        <time>2010-04-05T09:27:15Z</time>
      </trkpt>
      <trkpt lat="43.94782" lon="7.00841">
        <ele>351.5</ele>
        <time>2010-04-05T09:27:16Z</time>
      </trkpt>
      <trkpt lat="43.94782" lon="7.00838">
        <ele>351.5</ele>
        <time>2010-04-05T09:27:17Z</time>
      </trkpt>
      <trkpt lat="43.94782" lon="7.00834">
        <ele>351.98</ele>
        <time>2010-04-05T09:27:18Z</time>
      </trkpt>
      <trkpt lat="43.94782" lon="7.00828">
        <ele>352.46</ele>
        <time>2010-04-05T09:27:20Z</time>
      </trkpt>
      <trkpt lat="43.94784" lon="7.00826">
        <ele>352.46</ele>
        <time>2010-04-05T09:27:21Z</time>
      </trkpt>
      <trkpt lat="43.94786" lon="7.00825">
        <ele>352.46</ele>
        <time>2010-04-05T09:27:22Z</time>
      </trkpt>
      <trkpt lat="43.94787" lon="7.00827">
        <ele>352.46</ele>
        <time>2010-04-05T09:27:23Z</time>
      </trkpt>
      <trkpt lat="43.94788" lon="7.0083">
        <ele>352.94</ele>
        <time>2010-04-05T09:27:24Z</time>
      </trkpt>
      <trkpt lat="43.94788" lon="7.00834">
        <ele>352.94</ele>
        <time>2010-04-05T09:27:25Z</time>
      </trkpt>
      <trkpt lat="43.94789" lon="7.00838">
        <ele>352.46</ele>
        <time>2010-04-05T09:27:26Z</time>
      </trkpt>
      <trkpt lat="43.9479" lon="7.00843">
        <ele>352.46</ele>
        <time>2010-04-05T09:27:27Z</time>
      </trkpt>
      <trkpt lat="43.9479" lon="7.00848">
        <ele>352.46</ele>
        <time>2010-04-05T09:27:28Z</time>
      </trkpt>
      <trkpt lat="43.94791" lon="7.00853">
        <ele>352.46</ele>
        <time>2010-04-05T09:27:29Z</time>
      </trkpt>
      <trkpt lat="43.94793" lon="7.00858">
        <ele>352.46</ele>
        <time>2010-04-05T09:27:30Z</time>
      </trkpt>
      <trkpt lat="43.94794" lon="7.00864">
        <ele>351.98</ele>
        <time>2010-04-05T09:27:31Z</time>
      </trkpt>
      <trkpt lat="43.94801" lon="7.00903">
        <ele>351.5</ele>
        <time>2010-04-05T09:27:37Z</time>
      </trkpt>
      <trkpt lat="43.94802" lon="7.0091">
        <ele>351.02</ele>
        <time>2010-04-05T09:27:38Z</time>
      </trkpt>
      <trkpt lat="43.94801" lon="7.00917">
        <ele>351.02</ele>
        <time>2010-04-05T09:27:39Z</time>
      </trkpt>
      <trkpt lat="43.948" lon="7.00924">
        <ele>351.02</ele>
        <time>2010-04-05T09:27:40Z</time>
      </trkpt>
      <trkpt lat="43.94799" lon="7.00931">
        <ele>350.54</ele>
        <time>2010-04-05T09:27:41Z</time>
      </trkpt>
      <trkpt lat="43.94797" lon="7.00938">
        <ele>350.06</ele>
        <time>2010-04-05T09:27:42Z</time>
      </trkpt>
      <trkpt lat="43.94774" lon="7.0102">
        <ele>348.62</ele>
        <time>2010-04-05T09:27:55Z</time>
      </trkpt>
      <trkpt lat="43.94764" lon="7.01087">
        <ele>347.65</ele>
        <time>2010-04-05T09:28:10Z</time>
      </trkpt>
      <trkpt lat="43.94764" lon="7.01091">
        <ele>347.65</ele>
        <time>2010-04-05T09:28:16Z</time>
      </trkpt>
      <trkpt lat="43.94758" lon="7.01105">
        <ele>344.29</ele>
        <time>2010-04-05T09:28:28Z</time>
      </trkpt>
      <trkpt lat="43.94757" lon="7.01109">
        <ele>343.33</ele>
        <time>2010-04-05T09:28:29Z</time>
      </trkpt>
      <trkpt lat="43.94756" lon="7.01111">
        <ele>342.37</ele>
        <time>2010-04-05T09:28:30Z</time>
      </trkpt>
      <trkpt lat="43.94754" lon="7.01115">
        <ele>341.41</ele>
        <time>2010-04-05T09:28:31Z</time>
      </trkpt>
      <trkpt lat="43.94752" lon="7.01118">
        <ele>340.44</ele>
        <time>2010-04-05T09:28:32Z</time>
      </trkpt>
      <trkpt lat="43.9475" lon="7.01124">
        <ele>339.48</ele>
        <time>2010-04-05T09:28:33Z</time>
      </trkpt>
      <trkpt lat="43.94748" lon="7.0113">
        <ele>339.48</ele>
        <time>2010-04-05T09:28:34Z</time>
      </trkpt>
      <trkpt lat="43.94739" lon="7.01165">
        <ele>336.12</ele>
        <time>2010-04-05T09:28:41Z</time>
      </trkpt>
      <trkpt lat="43.94735" lon="7.01177">
        <ele>335.16</ele>
        <time>2010-04-05T09:28:43Z</time>
      </trkpt>
      <trkpt lat="43.94731" lon="7.01191">
        <ele>335.16</ele>
        <time>2010-04-05T09:28:45Z</time>
      </trkpt>
      <trkpt lat="43.94718" lon="7.01228">
        <ele>334.68</ele>
        <time>2010-04-05T09:28:55Z</time>
      </trkpt>
      <trkpt lat="43.94714" lon="7.0123">
        <ele>334.68</ele>
        <time>2010-04-05T09:28:56Z</time>
      </trkpt>
      <trkpt lat="43.9471" lon="7.01231">
        <ele>334.2</ele>
        <time>2010-04-05T09:28:57Z</time>
      </trkpt>
      <trkpt lat="43.94705" lon="7.01232">
        <ele>333.71</ele>
        <time>2010-04-05T09:28:58Z</time>
      </trkpt>
      <trkpt lat="43.947" lon="7.01232">
        <ele>333.23</ele>
        <time>2010-04-05T09:28:59Z</time>
      </trkpt>
      <trkpt lat="43.94694" lon="7.01231">
        <ele>333.23</ele>
        <time>2010-04-05T09:29:00Z</time>
      </trkpt>
      <trkpt lat="43.94663" lon="7.0123">
        <ele>330.35</ele>
        <time>2010-04-05T09:29:06Z</time>
      </trkpt>
      <trkpt lat="43.94658" lon="7.01228">
        <ele>329.87</ele>
        <time>2010-04-05T09:29:07Z</time>
      </trkpt>
      <trkpt lat="43.94653" lon="7.01225">
        <ele>329.39</ele>
        <time>2010-04-05T09:29:08Z</time>
      </trkpt>
      <trkpt lat="43.94649" lon="7.01222">
        <ele>328.91</ele>
        <time>2010-04-05T09:29:09Z</time>
      </trkpt>
      <trkpt lat="43.94639" lon="7.01214">
        <ele>327.95</ele>
        <time>2010-04-05T09:29:11Z</time>
      </trkpt>
      <trkpt lat="43.94634" lon="7.01212">
        <ele>327.47</ele>
        <time>2010-04-05T09:29:12Z</time>
      </trkpt>
      <trkpt lat="43.94629" lon="7.0121">
        <ele>327.47</ele>
        <time>2010-04-05T09:29:13Z</time>
      </trkpt>
      <trkpt lat="43.94624" lon="7.01209">
        <ele>327.47</ele>
        <time>2010-04-05T09:29:14Z</time>
      </trkpt>
      <trkpt lat="43.94619" lon="7.01209">
        <ele>327.47</ele>
        <time>2010-04-05T09:29:15Z</time>
      </trkpt>
      <trkpt lat="43.94539" lon="7.01213">
        <ele>327.47</ele>
        <time>2010-04-05T09:29:36Z</time>
      </trkpt>
      <trkpt lat="43.94493" lon="7.01207">
        <ele>326.5</ele>
        <time>2010-04-05T09:29:53Z</time>
      </trkpt>
      <trkpt lat="43.94492" lon="7.01208">
        <ele>326.99</ele>
        <time>2010-04-05T09:29:54Z</time>
      </trkpt>
      <trkpt lat="43.9449" lon="7.01208">
        <ele>326.99</ele>
        <time>2010-04-05T09:29:55Z</time>
      </trkpt>
      <trkpt lat="43.94489" lon="7.01209">
        <ele>327.47</ele>
        <time>2010-04-05T09:29:56Z</time>
      </trkpt>
      <trkpt lat="43.94487" lon="7.01211">
        <ele>327.47</ele>
        <time>2010-04-05T09:29:57Z</time>
      </trkpt>
      <trkpt lat="43.94486" lon="7.01213">
        <ele>327.47</ele>
        <time>2010-04-05T09:29:58Z</time>
      </trkpt>
      <trkpt lat="43.94484" lon="7.01214">
        <ele>327.95</ele>
        <time>2010-04-05T09:29:59Z</time>
      </trkpt>
      <trkpt lat="43.94456" lon="7.01259">
        <ele>327.95</ele>
        <time>2010-04-05T09:30:18Z</time>
      </trkpt>
      <trkpt lat="43.94449" lon="7.01267">
        <ele>328.43</ele>
        <time>2010-04-05T09:30:23Z</time>
      </trkpt>
      <trkpt lat="43.94447" lon="7.01269">
        <ele>328.43</ele>
        <time>2010-04-05T09:30:24Z</time>
      </trkpt>
      <trkpt lat="43.94445" lon="7.01272">
        <ele>328.43</ele>
        <time>2010-04-05T09:30:25Z</time>
      </trkpt>
      <trkpt lat="43.94443" lon="7.01275">
        <ele>328.91</ele>
        <time>2010-04-05T09:30:26Z</time>
      </trkpt>
      <trkpt lat="43.94441" lon="7.01277">
        <ele>328.91</ele>
        <time>2010-04-05T09:30:27Z</time>
      </trkpt>
      <trkpt lat="43.9444" lon="7.0128">
        <ele>328.91</ele>
        <time>2010-04-05T09:30:28Z</time>
      </trkpt>
      <trkpt lat="43.94438" lon="7.01282">
        <ele>328.91</ele>
        <time>2010-04-05T09:30:29Z</time>
      </trkpt>
      <trkpt lat="43.94437" lon="7.01284">
        <ele>329.39</ele>
        <time>2010-04-05T09:30:30Z</time>
      </trkpt>
      <trkpt lat="43.94425" lon="7.01307">
        <ele>330.83</ele>
        <time>2010-04-05T09:30:41Z</time>
      </trkpt>
      <trkpt lat="43.94425" lon="7.01308">
        <ele>330.83</ele>
        <time>2010-04-05T09:30:42Z</time>
      </trkpt>
      <trkpt lat="43.94424" lon="7.0131">
        <ele>331.31</ele>
        <time>2010-04-05T09:30:43Z</time>
      </trkpt>
      <trkpt lat="43.94421" lon="7.01312">
        <ele>330.83</ele>
        <time>2010-04-05T09:31:07Z</time>
      </trkpt>
      <trkpt lat="43.94421" lon="7.01314">
        <ele>330.83</ele>
        <time>2010-04-05T09:31:31Z</time>
      </trkpt>
      <trkpt lat="43.94421" lon="7.01316">
        <ele>331.31</ele>
        <time>2010-04-05T09:31:32Z</time>
      </trkpt>
      <trkpt lat="43.94421" lon="7.01317">
        <ele>331.31</ele>
        <time>2010-04-05T09:31:33Z</time>
      </trkpt>
      <trkpt lat="43.94421" lon="7.01319">
        <ele>331.31</ele>
        <time>2010-04-05T09:31:34Z</time>
      </trkpt>
      <trkpt lat="43.9442" lon="7.01321">
        <ele>331.31</ele>
        <time>2010-04-05T09:31:35Z</time>
      </trkpt>
      <trkpt lat="43.944" lon="7.01366">
        <ele>334.2</ele>
        <time>2010-04-05T09:31:52Z</time>
      </trkpt>
      <trkpt lat="43.94389" lon="7.01387">
        <ele>336.12</ele>
        <time>2010-04-05T09:32:00Z</time>
      </trkpt>
      <trkpt lat="43.94388" lon="7.01389">
        <ele>336.6</ele>
        <time>2010-04-05T09:32:01Z</time>
      </trkpt>
      <trkpt lat="43.94387" lon="7.01391">
        <ele>336.6</ele>
        <time>2010-04-05T09:32:02Z</time>
      </trkpt>
      <trkpt lat="43.94373" lon="7.01426">
        <ele>339.48</ele>
        <time>2010-04-05T09:32:15Z</time>
      </trkpt>
      <trkpt lat="43.94363" lon="7.01457">
        <ele>342.85</ele>
        <time>2010-04-05T09:32:29Z</time>
      </trkpt>
      <trkpt lat="43.94362" lon="7.01465">
        <ele>343.81</ele>
        <time>2010-04-05T09:32:33Z</time>
      </trkpt>
      <trkpt lat="43.94359" lon="7.01476">
        <ele>345.25</ele>
        <time>2010-04-05T09:32:37Z</time>
      </trkpt>
      <trkpt lat="43.94352" lon="7.01498">
        <ele>348.13</ele>
        <time>2010-04-05T09:32:48Z</time>
      </trkpt>
      <trkpt lat="43.94351" lon="7.01508">
        <ele>349.1</ele>
        <time>2010-04-05T09:32:54Z</time>
      </trkpt>
      <trkpt lat="43.94349" lon="7.01529">
        <ele>352.46</ele>
        <time>2010-04-05T09:33:07Z</time>
      </trkpt>
      <trkpt lat="43.94347" lon="7.01536">
        <ele>352.94</ele>
        <time>2010-04-05T09:33:12Z</time>
      </trkpt>
      <trkpt lat="43.94347" lon="7.01538">
        <ele>353.42</ele>
        <time>2010-04-05T09:33:13Z</time>
      </trkpt>
      <trkpt lat="43.94347" lon="7.01543">
        <ele>353.9</ele>
        <time>2010-04-05T09:33:17Z</time>
      </trkpt>
      <trkpt lat="43.94347" lon="7.01572">
        <ele>356.79</ele>
        <time>2010-04-05T09:33:35Z</time>
      </trkpt>
      <trkpt lat="43.94344" lon="7.01578">
        <ele>357.27</ele>
        <time>2010-04-05T09:33:39Z</time>
      </trkpt>
      <trkpt lat="43.94343" lon="7.01578">
        <ele>357.75</ele>
        <time>2010-04-05T09:33:40Z</time>
      </trkpt>
      <trkpt lat="43.94342" lon="7.01578">
        <ele>358.23</ele>
        <time>2010-04-05T09:33:41Z</time>
      </trkpt>
      <trkpt lat="43.94341" lon="7.01578">
        <ele>358.71</ele>
        <time>2010-04-05T09:33:42Z</time>
      </trkpt>
      <trkpt lat="43.9434" lon="7.01577">
        <ele>358.23</ele>
        <time>2010-04-05T09:33:43Z</time>
      </trkpt>
      <trkpt lat="43.94339" lon="7.01575">
        <ele>358.23</ele>
        <time>2010-04-05T09:33:44Z</time>
      </trkpt>
      <trkpt lat="43.94338" lon="7.01572">
        <ele>358.71</ele>
        <time>2010-04-05T09:33:46Z</time>
      </trkpt>
      <trkpt lat="43.94338" lon="7.01571">
        <ele>359.19</ele>
        <time>2010-04-05T09:33:47Z</time>
      </trkpt>
      <trkpt lat="43.94336" lon="7.01555">
        <ele>360.15</ele>
        <time>2010-04-05T09:33:56Z</time>
      </trkpt>
      <trkpt lat="43.94336" lon="7.01553">
        <ele>360.63</ele>
        <time>2010-04-05T09:33:57Z</time>
      </trkpt>
      <trkpt lat="43.94334" lon="7.01541">
        <ele>361.59</ele>
        <time>2010-04-05T09:34:06Z</time>
      </trkpt>
      <trkpt lat="43.94333" lon="7.0154">
        <ele>361.59</ele>
        <time>2010-04-05T09:34:07Z</time>
      </trkpt>
      <trkpt lat="43.94325" lon="7.01529">
        <ele>363.04</ele>
        <time>2010-04-05T09:34:19Z</time>
      </trkpt>
      <trkpt lat="43.94325" lon="7.01527">
        <ele>363.04</ele>
        <time>2010-04-05T09:34:20Z</time>
      </trkpt>
      <trkpt lat="43.94324" lon="7.01525">
        <ele>363.04</ele>
        <time>2010-04-05T09:34:21Z</time>
      </trkpt>
      <trkpt lat="43.94324" lon="7.01523">
        <ele>363.04</ele>
        <time>2010-04-05T09:34:22Z</time>
      </trkpt>
      <trkpt lat="43.94324" lon="7.01521">
        <ele>363.52</ele>
        <time>2010-04-05T09:34:23Z</time>
      </trkpt>
      <trkpt lat="43.94324" lon="7.0152">
        <ele>363.52</ele>
        <time>2010-04-05T09:34:24Z</time>
      </trkpt>
      <trkpt lat="43.94324" lon="7.01519">
        <ele>363.52</ele>
        <time>2010-04-05T09:34:25Z</time>
      </trkpt>
      <trkpt lat="43.94324" lon="7.01517">
        <ele>363.52</ele>
        <time>2010-04-05T09:34:26Z</time>
      </trkpt>
      <trkpt lat="43.94324" lon="7.01514">
        <ele>364</ele>
        <time>2010-04-05T09:34:29Z</time>
      </trkpt>
      <trkpt lat="43.94326" lon="7.01464">
        <ele>366.88</ele>
        <time>2010-04-05T09:34:51Z</time>
      </trkpt>
      <trkpt lat="43.94327" lon="7.01441">
        <ele>368.8</ele>
        <time>2010-04-05T09:35:03Z</time>
      </trkpt>
      <trkpt lat="43.94327" lon="7.01439">
        <ele>369.28</ele>
        <time>2010-04-05T09:35:04Z</time>
      </trkpt>
      <trkpt lat="43.94327" lon="7.01437">
        <ele>369.28</ele>
        <time>2010-04-05T09:35:05Z</time>
      </trkpt>
      <trkpt lat="43.94327" lon="7.01418">
        <ele>370.73</ele>
        <time>2010-04-05T09:35:14Z</time>
      </trkpt>
      <trkpt lat="43.94326" lon="7.01417">
        <ele>370.73</ele>
        <time>2010-04-05T09:35:15Z</time>
      </trkpt>
      <trkpt lat="43.94324" lon="7.01375">
        <ele>373.61</ele>
        <time>2010-04-05T09:35:34Z</time>
      </trkpt>
      <trkpt lat="43.9432" lon="7.01341">
        <ele>376.97</ele>
        <time>2010-04-05T09:35:52Z</time>
      </trkpt>
      <trkpt lat="43.94324" lon="7.01293">
        <ele>379.86</ele>
        <time>2010-04-05T09:36:13Z</time>
      </trkpt>
      <trkpt lat="43.9433" lon="7.01246">
        <ele>382.26</ele>
        <time>2010-04-05T09:36:35Z</time>
      </trkpt>
      <trkpt lat="43.94325" lon="7.01206">
        <ele>385.15</ele>
        <time>2010-04-05T09:36:53Z</time>
      </trkpt>
      <trkpt lat="43.94325" lon="7.01204">
        <ele>385.15</ele>
        <time>2010-04-05T09:36:54Z</time>
      </trkpt>
      <trkpt lat="43.94326" lon="7.01202">
        <ele>385.63</ele>
        <time>2010-04-05T09:36:55Z</time>
      </trkpt>
      <trkpt lat="43.94326" lon="7.012">
        <ele>385.63</ele>
        <time>2010-04-05T09:36:56Z</time>
      </trkpt>
      <trkpt lat="43.94326" lon="7.01199">
        <ele>386.11</ele>
        <time>2010-04-05T09:36:57Z</time>
      </trkpt>
      <trkpt lat="43.94326" lon="7.01197">
        <ele>386.11</ele>
        <time>2010-04-05T09:36:58Z</time>
      </trkpt>
      <trkpt lat="43.94326" lon="7.01195">
        <ele>386.59</ele>
        <time>2010-04-05T09:36:59Z</time>
      </trkpt>
      <trkpt lat="43.94326" lon="7.01193">
        <ele>386.59</ele>
        <time>2010-04-05T09:37:00Z</time>
      </trkpt>
      <trkpt lat="43.94327" lon="7.01179">
        <ele>387.07</ele>
        <time>2010-04-05T09:37:06Z</time>
      </trkpt>
      <trkpt lat="43.94327" lon="7.01177">
        <ele>387.55</ele>
        <time>2010-04-05T09:37:07Z</time>
      </trkpt>
      <trkpt lat="43.94327" lon="7.01175">
        <ele>387.55</ele>
        <time>2010-04-05T09:37:08Z</time>
      </trkpt>
      <trkpt lat="43.94327" lon="7.01173">
        <ele>388.03</ele>
        <time>2010-04-05T09:37:09Z</time>
      </trkpt>
      <trkpt lat="43.94327" lon="7.01171">
        <ele>388.03</ele>
        <time>2010-04-05T09:37:10Z</time>
      </trkpt>
      <trkpt lat="43.94327" lon="7.01169">
        <ele>388.51</ele>
        <time>2010-04-05T09:37:11Z</time>
      </trkpt>
      <trkpt lat="43.94327" lon="7.01167">
        <ele>388.03</ele>
        <time>2010-04-05T09:37:12Z</time>
      </trkpt>
      <trkpt lat="43.94328" lon="7.01148">
        <ele>390.43</ele>
        <time>2010-04-05T09:37:21Z</time>
      </trkpt>
      <trkpt lat="43.94328" lon="7.01146">
        <ele>390.43</ele>
        <time>2010-04-05T09:37:22Z</time>
      </trkpt>
      <trkpt lat="43.94328" lon="7.01144">
        <ele>390.43</ele>
        <time>2010-04-05T09:37:23Z</time>
      </trkpt>
      <trkpt lat="43.94328" lon="7.01142">
        <ele>390.91</ele>
        <time>2010-04-05T09:37:24Z</time>
      </trkpt>
      <trkpt lat="43.94328" lon="7.01139">
        <ele>391.39</ele>
        <time>2010-04-05T09:37:25Z</time>
      </trkpt>
      <trkpt lat="43.94329" lon="7.01095">
        <ele>392.84</ele>
        <time>2010-04-05T09:37:46Z</time>
      </trkpt>
      <trkpt lat="43.94318" lon="7.01057">
        <ele>395.24</ele>
        <time>2010-04-05T09:38:04Z</time>
      </trkpt>
      <trkpt lat="43.94309" lon="7.01019">
        <ele>398.12</ele>
        <time>2010-04-05T09:38:23Z</time>
      </trkpt>
      <trkpt lat="43.94297" lon="7.00965">
        <ele>400.53</ele>
        <time>2010-04-05T09:38:47Z</time>
      </trkpt>
      <trkpt lat="43.94293" lon="7.00913">
        <ele>402.45</ele>
        <time>2010-04-05T09:39:07Z</time>
      </trkpt>
      <trkpt lat="43.94271" lon="7.00868">
        <ele>403.41</ele>
        <time>2010-04-05T09:39:27Z</time>
      </trkpt>
      <trkpt lat="43.94231" lon="7.00844">
        <ele>404.37</ele>
        <time>2010-04-05T09:39:47Z</time>
      </trkpt>
      <trkpt lat="43.942" lon="7.00824">
        <ele>404.85</ele>
        <time>2010-04-05T09:40:01Z</time>
      </trkpt>
      <trkpt lat="43.94199" lon="7.00821">
        <ele>404.37</ele>
        <time>2010-04-05T09:40:02Z</time>
      </trkpt>
      <trkpt lat="43.94198" lon="7.00818">
        <ele>404.85</ele>
        <time>2010-04-05T09:40:03Z</time>
      </trkpt>
      <trkpt lat="43.94197" lon="7.00815">
        <ele>404.37</ele>
        <time>2010-04-05T09:40:04Z</time>
      </trkpt>
      <trkpt lat="43.94197" lon="7.00811">
        <ele>403.89</ele>
        <time>2010-04-05T09:40:05Z</time>
      </trkpt>
      <trkpt lat="43.94197" lon="7.00807">
        <ele>403.89</ele>
        <time>2010-04-05T09:40:06Z</time>
      </trkpt>
      <trkpt lat="43.94198" lon="7.00804">
        <ele>404.37</ele>
        <time>2010-04-05T09:40:07Z</time>
      </trkpt>
      <trkpt lat="43.94199" lon="7.00801">
        <ele>404.37</ele>
        <time>2010-04-05T09:40:08Z</time>
      </trkpt>
      <trkpt lat="43.942" lon="7.008">
        <ele>403.89</ele>
        <time>2010-04-05T09:40:09Z</time>
      </trkpt>
      <trkpt lat="43.94202" lon="7.00798">
        <ele>404.37</ele>
        <time>2010-04-05T09:40:10Z</time>
      </trkpt>
      <trkpt lat="43.94204" lon="7.00797">
        <ele>404.37</ele>
        <time>2010-04-05T09:40:11Z</time>
      </trkpt>
      <trkpt lat="43.94206" lon="7.00796">
        <ele>404.37</ele>
        <time>2010-04-05T09:40:12Z</time>
      </trkpt>
      <trkpt lat="43.94207" lon="7.00795">
        <ele>404.37</ele>
        <time>2010-04-05T09:40:13Z</time>
      </trkpt>
      <trkpt lat="43.94209" lon="7.00793">
        <ele>404.37</ele>
        <time>2010-04-05T09:40:14Z</time>
      </trkpt>
      <trkpt lat="43.94211" lon="7.00792">
        <ele>404.85</ele>
        <time>2010-04-05T09:40:15Z</time>
      </trkpt>
      <trkpt lat="43.94212" lon="7.00792">
        <ele>404.85</ele>
        <time>2010-04-05T09:40:16Z</time>
      </trkpt>
      <trkpt lat="43.94217" lon="7.00792">
        <ele>404.85</ele>
        <time>2010-04-05T09:40:19Z</time>
      </trkpt>
      <trkpt lat="43.94218" lon="7.00791">
        <ele>405.33</ele>
        <time>2010-04-05T09:40:20Z</time>
      </trkpt>
      <trkpt lat="43.94246" lon="7.00773">
        <ele>408.22</ele>
        <time>2010-04-05T09:40:39Z</time>
      </trkpt>
      <trkpt lat="43.94276" lon="7.00744">
        <ele>410.14</ele>
        <time>2010-04-05T09:40:59Z</time>
      </trkpt>
      <trkpt lat="43.9428" lon="7.00697">
        <ele>411.58</ele>
        <time>2010-04-05T09:41:17Z</time>
      </trkpt>
      <trkpt lat="43.94291" lon="7.00651">
        <ele>414.95</ele>
        <time>2010-04-05T09:41:36Z</time>
      </trkpt>
      <trkpt lat="43.94292" lon="7.00602">
        <ele>417.83</ele>
        <time>2010-04-05T09:41:57Z</time>
      </trkpt>
      <trkpt lat="43.94291" lon="7.00555">
        <ele>420.23</ele>
        <time>2010-04-05T09:42:17Z</time>
      </trkpt>
      <trkpt lat="43.94292" lon="7.00506">
        <ele>422.16</ele>
        <time>2010-04-05T09:42:38Z</time>
      </trkpt>
      <trkpt lat="43.94293" lon="7.00461">
        <ele>423.12</ele>
        <time>2010-04-05T09:42:54Z</time>
      </trkpt>
      <trkpt lat="43.94292" lon="7.00407">
        <ele>423.12</ele>
        <time>2010-04-05T09:43:11Z</time>
      </trkpt>
      <trkpt lat="43.94275" lon="7.00375">
        <ele>422.16</ele>
        <time>2010-04-05T09:43:21Z</time>
      </trkpt>
      <trkpt lat="43.94272" lon="7.0037">
        <ele>421.68</ele>
        <time>2010-04-05T09:43:22Z</time>
      </trkpt>
      <trkpt lat="43.9427" lon="7.00366">
        <ele>421.68</ele>
        <time>2010-04-05T09:43:23Z</time>
      </trkpt>
      <trkpt lat="43.94268" lon="7.00362">
        <ele>421.68</ele>
        <time>2010-04-05T09:43:24Z</time>
      </trkpt>
      <trkpt lat="43.94264" lon="7.00358">
        <ele>421.68</ele>
        <time>2010-04-05T09:43:25Z</time>
      </trkpt>
      <trkpt lat="43.94261" lon="7.00354">
        <ele>421.19</ele>
        <time>2010-04-05T09:43:26Z</time>
      </trkpt>
      <trkpt lat="43.94258" lon="7.00351">
        <ele>420.71</ele>
        <time>2010-04-05T09:43:27Z</time>
      </trkpt>
      <trkpt lat="43.94238" lon="7.0034">
        <ele>418.79</ele>
        <time>2010-04-05T09:43:32Z</time>
      </trkpt>
      <trkpt lat="43.94234" lon="7.00338">
        <ele>418.79</ele>
        <time>2010-04-05T09:43:33Z</time>
      </trkpt>
      <trkpt lat="43.94225" lon="7.00337">
        <ele>417.83</ele>
        <time>2010-04-05T09:43:35Z</time>
      </trkpt>
      <trkpt lat="43.9422" lon="7.00335">
        <ele>417.35</ele>
        <time>2010-04-05T09:43:36Z</time>
      </trkpt>
      <trkpt lat="43.94215" lon="7.00332">
        <ele>416.87</ele>
        <time>2010-04-05T09:43:37Z</time>
      </trkpt>
      <trkpt lat="43.94212" lon="7.00328">
        <ele>416.87</ele>
        <time>2010-04-05T09:43:38Z</time>
      </trkpt>
      <trkpt lat="43.94208" lon="7.00324">
        <ele>416.39</ele>
        <time>2010-04-05T09:43:39Z</time>
      </trkpt>
      <trkpt lat="43.94201" lon="7.00315">
        <ele>415.91</ele>
        <time>2010-04-05T09:43:41Z</time>
      </trkpt>
      <trkpt lat="43.94196" lon="7.00311">
        <ele>415.43</ele>
        <time>2010-04-05T09:43:42Z</time>
      </trkpt>
      <trkpt lat="43.94191" lon="7.00309">
        <ele>415.43</ele>
        <time>2010-04-05T09:43:43Z</time>
      </trkpt>
      <trkpt lat="43.94186" lon="7.00307">
        <ele>415.43</ele>
        <time>2010-04-05T09:43:44Z</time>
      </trkpt>
      <trkpt lat="43.94181" lon="7.00306">
        <ele>415.43</ele>
        <time>2010-04-05T09:43:45Z</time>
      </trkpt>
      <trkpt lat="43.94177" lon="7.00305">
        <ele>414.95</ele>
        <time>2010-04-05T09:43:46Z</time>
      </trkpt>
      <trkpt lat="43.94173" lon="7.00304">
        <ele>414.95</ele>
        <time>2010-04-05T09:43:47Z</time>
      </trkpt>
      <trkpt lat="43.94169" lon="7.00302">
        <ele>414.47</ele>
        <time>2010-04-05T09:43:48Z</time>
      </trkpt>
      <trkpt lat="43.9416" lon="7.00294">
        <ele>413.5</ele>
        <time>2010-04-05T09:43:50Z</time>
      </trkpt>
      <trkpt lat="43.94157" lon="7.0029">
        <ele>412.54</ele>
        <time>2010-04-05T09:43:51Z</time>
      </trkpt>
      <trkpt lat="43.94155" lon="7.00284">
        <ele>412.06</ele>
        <time>2010-04-05T09:43:52Z</time>
      </trkpt>
      <trkpt lat="43.94153" lon="7.00278">
        <ele>412.06</ele>
        <time>2010-04-05T09:43:53Z</time>
      </trkpt>
      <trkpt lat="43.94154" lon="7.00271">
        <ele>411.58</ele>
        <time>2010-04-05T09:43:54Z</time>
      </trkpt>
      <trkpt lat="43.94156" lon="7.00266">
        <ele>412.06</ele>
        <time>2010-04-05T09:43:55Z</time>
      </trkpt>
      <trkpt lat="43.94158" lon="7.00262">
        <ele>412.54</ele>
        <time>2010-04-05T09:43:56Z</time>
      </trkpt>
      <trkpt lat="43.94161" lon="7.0026">
        <ele>412.54</ele>
        <time>2010-04-05T09:43:57Z</time>
      </trkpt>
      <trkpt lat="43.94164" lon="7.00258">
        <ele>412.06</ele>
        <time>2010-04-05T09:43:58Z</time>
      </trkpt>
      <trkpt lat="43.94166" lon="7.00256">
        <ele>412.54</ele>
        <time>2010-04-05T09:43:59Z</time>
      </trkpt>
      <trkpt lat="43.94169" lon="7.00254">
        <ele>412.54</ele>
        <time>2010-04-05T09:44:00Z</time>
      </trkpt>
      <trkpt lat="43.94188" lon="7.00231">
        <ele>415.43</ele>
        <time>2010-04-05T09:44:14Z</time>
      </trkpt>
      <trkpt lat="43.94205" lon="7.00206">
        <ele>418.79</ele>
        <time>2010-04-05T09:44:31Z</time>
      </trkpt>
      <trkpt lat="43.94227" lon="7.00178">
        <ele>421.19</ele>
        <time>2010-04-05T09:44:49Z</time>
      </trkpt>
      <trkpt lat="43.94254" lon="7.00168">
        <ele>423.12</ele>
        <time>2010-04-05T09:45:03Z</time>
      </trkpt>
      <trkpt lat="43.94256" lon="7.00167">
        <ele>423.12</ele>
        <time>2010-04-05T09:45:04Z</time>
      </trkpt>
      <trkpt lat="43.94262" lon="7.00162">
        <ele>424.08</ele>
        <time>2010-04-05T09:45:08Z</time>
      </trkpt>
      <trkpt lat="43.94263" lon="7.00161">
        <ele>424.08</ele>
        <time>2010-04-05T09:45:09Z</time>
      </trkpt>
      <trkpt lat="43.94264" lon="7.00159">
        <ele>424.56</ele>
        <time>2010-04-05T09:45:10Z</time>
      </trkpt>
      <trkpt lat="43.94265" lon="7.00157">
        <ele>424.56</ele>
        <time>2010-04-05T09:45:11Z</time>
      </trkpt>
      <trkpt lat="43.94266" lon="7.00155">
        <ele>425.04</ele>
        <time>2010-04-05T09:45:12Z</time>
      </trkpt>
      <trkpt lat="43.94266" lon="7.00153">
        <ele>425.04</ele>
        <time>2010-04-05T09:45:13Z</time>
      </trkpt>
      <trkpt lat="43.94248" lon="7.0012">
        <ele>426.96</ele>
        <time>2010-04-05T09:45:33Z</time>
      </trkpt>
      <trkpt lat="43.94247" lon="7.00119">
        <ele>427.44</ele>
        <time>2010-04-05T09:45:34Z</time>
      </trkpt>
      <trkpt lat="43.94246" lon="7.00118">
        <ele>427.44</ele>
        <time>2010-04-05T09:45:35Z</time>
      </trkpt>
      <trkpt lat="43.94232" lon="7.00103">
        <ele>429.85</ele>
        <time>2010-04-05T09:45:48Z</time>
      </trkpt>
      <trkpt lat="43.94231" lon="7.00102">
        <ele>430.33</ele>
        <time>2010-04-05T09:45:49Z</time>
      </trkpt>
      <trkpt lat="43.9423" lon="7.00101">
        <ele>430.81</ele>
        <time>2010-04-05T09:45:50Z</time>
      </trkpt>
      <trkpt lat="43.94229" lon="7.001">
        <ele>430.33</ele>
        <time>2010-04-05T09:45:51Z</time>
      </trkpt>
      <trkpt lat="43.94228" lon="7.00098">
        <ele>431.29</ele>
        <time>2010-04-05T09:45:52Z</time>
      </trkpt>
      <trkpt lat="43.94222" lon="7.00088">
        <ele>432.25</ele>
        <time>2010-04-05T09:46:00Z</time>
      </trkpt>
      <trkpt lat="43.94221" lon="7.00086">
        <ele>432.73</ele>
        <time>2010-04-05T09:46:01Z</time>
      </trkpt>
      <trkpt lat="43.94221" lon="7.00085">
        <ele>432.73</ele>
        <time>2010-04-05T09:46:02Z</time>
      </trkpt>
      <trkpt lat="43.9422" lon="7.00083">
        <ele>432.73</ele>
        <time>2010-04-05T09:46:03Z</time>
      </trkpt>
      <trkpt lat="43.9422" lon="7.00081">
        <ele>433.21</ele>
        <time>2010-04-05T09:46:04Z</time>
      </trkpt>
      <trkpt lat="43.94219" lon="7.0008">
        <ele>433.69</ele>
        <time>2010-04-05T09:46:05Z</time>
      </trkpt>
      <trkpt lat="43.94218" lon="7.00078">
        <ele>433.69</ele>
        <time>2010-04-05T09:46:06Z</time>
      </trkpt>
      <trkpt lat="43.94218" lon="7.00077">
        <ele>434.17</ele>
        <time>2010-04-05T09:46:07Z</time>
      </trkpt>
      <trkpt lat="43.94217" lon="7.00075">
        <ele>434.17</ele>
        <time>2010-04-05T09:46:08Z</time>
      </trkpt>
      <trkpt lat="43.94217" lon="7.00073">
        <ele>434.65</ele>
        <time>2010-04-05T09:46:09Z</time>
      </trkpt>
      <trkpt lat="43.94212" lon="7.00051">
        <ele>436.58</ele>
        <time>2010-04-05T09:46:23Z</time>
      </trkpt>
      <trkpt lat="43.94211" lon="7.00049">
        <ele>437.06</ele>
        <time>2010-04-05T09:46:24Z</time>
      </trkpt>
      <trkpt lat="43.94193" lon="7.00023">
        <ele>439.94</ele>
        <time>2010-04-05T09:46:42Z</time>
      </trkpt>
      <trkpt lat="43.94187" lon="7.00019">
        <ele>441.38</ele>
        <time>2010-04-05T09:46:47Z</time>
      </trkpt>
      <trkpt lat="43.94187" lon="7.00017">
        <ele>441.38</ele>
        <time>2010-04-05T09:46:48Z</time>
      </trkpt>
      <trkpt lat="43.94186" lon="7.00016">
        <ele>441.86</ele>
        <time>2010-04-05T09:46:49Z</time>
      </trkpt>
      <trkpt lat="43.94186" lon="7.00014">
        <ele>441.86</ele>
        <time>2010-04-05T09:46:50Z</time>
      </trkpt>
      <trkpt lat="43.94185" lon="7.00013">
        <ele>441.86</ele>
        <time>2010-04-05T09:46:51Z</time>
      </trkpt>
      <trkpt lat="43.94178" lon="6.99983">
        <ele>444.75</ele>
        <time>2010-04-05T09:47:09Z</time>
      </trkpt>
      <trkpt lat="43.94175" lon="6.9997">
        <ele>446.67</ele>
        <time>2010-04-05T09:47:16Z</time>
      </trkpt>
      <trkpt lat="43.94167" lon="6.99942">
        <ele>449.55</ele>
        <time>2010-04-05T09:47:33Z</time>
      </trkpt>
      <trkpt lat="43.94168" lon="6.99933">
        <ele>449.55</ele>
        <time>2010-04-05T09:47:37Z</time>
      </trkpt>
      <trkpt lat="43.94164" lon="6.99911">
        <ele>452.44</ele>
        <time>2010-04-05T09:47:51Z</time>
      </trkpt>
      <trkpt lat="43.94163" lon="6.99907">
        <ele>452.92</ele>
        <time>2010-04-05T09:47:53Z</time>
      </trkpt>
      <trkpt lat="43.94151" lon="6.99896">
        <ele>455.8</ele>
        <time>2010-04-05T09:48:09Z</time>
      </trkpt>
      <trkpt lat="43.9415" lon="6.99901">
        <ele>456.76</ele>
        <time>2010-04-05T09:48:13Z</time>
      </trkpt>
      <trkpt lat="43.94152" lon="6.99909">
        <ele>458.21</ele>
        <time>2010-04-05T09:48:18Z</time>
      </trkpt>
      <trkpt lat="43.94149" lon="6.99934">
        <ele>460.13</ele>
        <time>2010-04-05T09:48:35Z</time>
      </trkpt>
      <trkpt lat="43.94145" lon="6.99961">
        <ele>462.05</ele>
        <time>2010-04-05T09:48:51Z</time>
      </trkpt>
      <trkpt lat="43.94149" lon="6.99973">
        <ele>463.01</ele>
        <time>2010-04-05T09:48:58Z</time>
      </trkpt>
      <trkpt lat="43.94153" lon="6.99989">
        <ele>463.97</ele>
        <time>2010-04-05T09:49:07Z</time>
      </trkpt>
      <trkpt lat="43.94152" lon="7">
        <ele>464.93</ele>
        <time>2010-04-05T09:49:12Z</time>
      </trkpt>
      <trkpt lat="43.94151" lon="7.00007">
        <ele>465.42</ele>
        <time>2010-04-05T09:49:16Z</time>
      </trkpt>
      <trkpt lat="43.94149" lon="7.00038">
        <ele>468.3</ele>
        <time>2010-04-05T09:49:32Z</time>
      </trkpt>
      <trkpt lat="43.94153" lon="7.00052">
        <ele>468.3</ele>
        <time>2010-04-05T09:49:38Z</time>
      </trkpt>
      <trkpt lat="43.94159" lon="7.0007">
        <ele>469.74</ele>
        <time>2010-04-05T09:49:46Z</time>
      </trkpt>
      <trkpt lat="43.94146" lon="7.00065">
        <ele>471.66</ele>
        <time>2010-04-05T09:49:57Z</time>
      </trkpt>
      <trkpt lat="43.9414" lon="7.00047">
        <ele>473.59</ele>
        <time>2010-04-05T09:50:08Z</time>
      </trkpt>
      <trkpt lat="43.94129" lon="7.00015">
        <ele>476.95</ele>
        <time>2010-04-05T09:50:26Z</time>
      </trkpt>
      <trkpt lat="43.94127" lon="7.00001">
        <ele>477.91</ele>
        <time>2010-04-05T09:50:33Z</time>
      </trkpt>
      <trkpt lat="43.94121" lon="6.99985">
        <ele>479.35</ele>
        <time>2010-04-05T09:50:43Z</time>
      </trkpt>
      <trkpt lat="43.94117" lon="6.99975">
        <ele>479.84</ele>
        <time>2010-04-05T09:50:49Z</time>
      </trkpt>
      <trkpt lat="43.94116" lon="6.99939">
        <ele>483.2</ele>
        <time>2010-04-05T09:51:07Z</time>
      </trkpt>
      <trkpt lat="43.94113" lon="6.99896">
        <ele>486.08</ele>
        <time>2010-04-05T09:51:28Z</time>
      </trkpt>
      <trkpt lat="43.94107" lon="6.99859">
        <ele>488.49</ele>
        <time>2010-04-05T09:51:47Z</time>
      </trkpt>
      <trkpt lat="43.94086" lon="6.99833">
        <ele>490.41</ele>
        <time>2010-04-05T09:52:05Z</time>
      </trkpt>
      <trkpt lat="43.94051" lon="6.99791">
        <ele>490.89</ele>
        <time>2010-04-05T09:52:30Z</time>
      </trkpt>
      <trkpt lat="43.94044" lon="6.99788">
        <ele>490.41</ele>
        <time>2010-04-05T09:52:32Z</time>
      </trkpt>
      <trkpt lat="43.9404" lon="6.99785">
        <ele>488.97</ele>
        <time>2010-04-05T09:52:33Z</time>
      </trkpt>
      <trkpt lat="43.94036" lon="6.99781">
        <ele>488.97</ele>
        <time>2010-04-05T09:52:34Z</time>
      </trkpt>
      <trkpt lat="43.94034" lon="6.99776">
        <ele>489.45</ele>
        <time>2010-04-05T09:52:35Z</time>
      </trkpt>
      <trkpt lat="43.94034" lon="6.99772">
        <ele>489.93</ele>
        <time>2010-04-05T09:52:36Z</time>
      </trkpt>
      <trkpt lat="43.94034" lon="6.99769">
        <ele>490.41</ele>
        <time>2010-04-05T09:52:37Z</time>
      </trkpt>
      <trkpt lat="43.94038" lon="6.99758">
        <ele>491.37</ele>
        <time>2010-04-05T09:52:43Z</time>
      </trkpt>
      <trkpt lat="43.9404" lon="6.99757">
        <ele>491.37</ele>
        <time>2010-04-05T09:52:44Z</time>
      </trkpt>
      <trkpt lat="43.94041" lon="6.99756">
        <ele>492.33</ele>
        <time>2010-04-05T09:52:45Z</time>
      </trkpt>
      <trkpt lat="43.94043" lon="6.99754">
        <ele>491.85</ele>
        <time>2010-04-05T09:52:46Z</time>
      </trkpt>
      <trkpt lat="43.94044" lon="6.99752">
        <ele>491.85</ele>
        <time>2010-04-05T09:52:47Z</time>
      </trkpt>
      <trkpt lat="43.94046" lon="6.99751">
        <ele>491.85</ele>
        <time>2010-04-05T09:52:48Z</time>
      </trkpt>
      <trkpt lat="43.94047" lon="6.99749">
        <ele>491.85</ele>
        <time>2010-04-05T09:52:49Z</time>
      </trkpt>
      <trkpt lat="43.94049" lon="6.99748">
        <ele>491.85</ele>
        <time>2010-04-05T09:52:50Z</time>
      </trkpt>
      <trkpt lat="43.94083" lon="6.99731">
        <ele>491.85</ele>
        <time>2010-04-05T09:53:06Z</time>
      </trkpt>
      <trkpt lat="43.94094" lon="6.9973">
        <ele>491.85</ele>
        <time>2010-04-05T09:53:12Z</time>
      </trkpt>
      <trkpt lat="43.94096" lon="6.99729">
        <ele>492.33</ele>
        <time>2010-04-05T09:53:13Z</time>
      </trkpt>
      <trkpt lat="43.94097" lon="6.99728">
        <ele>492.33</ele>
        <time>2010-04-05T09:53:14Z</time>
      </trkpt>
      <trkpt lat="43.94107" lon="6.99684">
        <ele>493.29</ele>
        <time>2010-04-05T09:53:31Z</time>
      </trkpt>
      <trkpt lat="43.94107" lon="6.99671">
        <ele>493.29</ele>
        <time>2010-04-05T09:53:52Z</time>
      </trkpt>
      <trkpt lat="43.94107" lon="6.99671">
        <ele>491.85</ele>
        <time>2010-04-05T09:56:23Z</time>
      </trkpt>
      <trkpt lat="43.94104" lon="6.99634">
        <ele>492.33</ele>
        <time>2010-04-05T10:00:01Z</time>
      </trkpt>
      <trkpt lat="43.94116" lon="6.99574">
        <ele>493.29</ele>
        <time>2010-04-05T10:00:21Z</time>
      </trkpt>
      <trkpt lat="43.94133" lon="6.99504">
        <ele>493.29</ele>
        <time>2010-04-05T10:00:46Z</time>
      </trkpt>
      <trkpt lat="43.94125" lon="6.99469">
        <ele>493.77</ele>
        <time>2010-04-05T10:00:56Z</time>
      </trkpt>
      <trkpt lat="43.94125" lon="6.99465">
        <ele>493.77</ele>
        <time>2010-04-05T10:00:57Z</time>
      </trkpt>
      <trkpt lat="43.94125" lon="6.99462">
        <ele>493.77</ele>
        <time>2010-04-05T10:00:58Z</time>
      </trkpt>
      <trkpt lat="43.94124" lon="6.99458">
        <ele>493.77</ele>
        <time>2010-04-05T10:00:59Z</time>
      </trkpt>
      <trkpt lat="43.94124" lon="6.99453">
        <ele>493.77</ele>
        <time>2010-04-05T10:01:00Z</time>
      </trkpt>
      <trkpt lat="43.94101" lon="6.99398">
        <ele>495.22</ele>
        <time>2010-04-05T10:01:17Z</time>
      </trkpt>
      <trkpt lat="43.94105" lon="6.99365">
        <ele>495.7</ele>
        <time>2010-04-05T10:01:27Z</time>
      </trkpt>
      <trkpt lat="43.94107" lon="6.99364">
        <ele>495.7</ele>
        <time>2010-04-05T10:01:28Z</time>
      </trkpt>
      <trkpt lat="43.94109" lon="6.99361">
        <ele>495.7</ele>
        <time>2010-04-05T10:01:29Z</time>
      </trkpt>
      <trkpt lat="43.94111" lon="6.99359">
        <ele>495.7</ele>
        <time>2010-04-05T10:01:30Z</time>
      </trkpt>
      <trkpt lat="43.94114" lon="6.99356">
        <ele>496.18</ele>
        <time>2010-04-05T10:01:31Z</time>
      </trkpt>
      <trkpt lat="43.94116" lon="6.99354">
        <ele>496.18</ele>
        <time>2010-04-05T10:01:32Z</time>
      </trkpt>
      <trkpt lat="43.94118" lon="6.99351">
        <ele>496.18</ele>
        <time>2010-04-05T10:01:33Z</time>
      </trkpt>
      <trkpt lat="43.94126" lon="6.99312">
        <ele>496.66</ele>
        <time>2010-04-05T10:01:44Z</time>
      </trkpt>
      <trkpt lat="43.94135" lon="6.99244">
        <ele>498.1</ele>
        <time>2010-04-05T10:02:03Z</time>
      </trkpt>
      <trkpt lat="43.94137" lon="6.99241">
        <ele>492.33</ele>
        <time>2010-04-05T10:02:04Z</time>
      </trkpt>
      <trkpt lat="43.94139" lon="6.99238">
        <ele>497.62</ele>
        <time>2010-04-05T10:02:05Z</time>
      </trkpt>
      <trkpt lat="43.94159" lon="6.99177">
        <ele>499.06</ele>
        <time>2010-04-05T10:02:23Z</time>
      </trkpt>
      <trkpt lat="43.94154" lon="6.99103">
        <ele>499.54</ele>
        <time>2010-04-05T10:02:42Z</time>
      </trkpt>
      <trkpt lat="43.94152" lon="6.9904">
        <ele>501.46</ele>
        <time>2010-04-05T10:02:59Z</time>
      </trkpt>
      <trkpt lat="43.94143" lon="6.98982">
        <ele>501.95</ele>
        <time>2010-04-05T10:03:15Z</time>
      </trkpt>
      <trkpt lat="43.94124" lon="6.98909">
        <ele>500.98</ele>
        <time>2010-04-05T10:03:33Z</time>
      </trkpt>
      <trkpt lat="43.94107" lon="6.9888">
        <ele>498.58</ele>
        <time>2010-04-05T10:03:38Z</time>
      </trkpt>
      <trkpt lat="43.941" lon="6.98866">
        <ele>497.62</ele>
        <time>2010-04-05T10:03:40Z</time>
      </trkpt>
      <trkpt lat="43.94099" lon="6.98858">
        <ele>496.66</ele>
        <time>2010-04-05T10:03:41Z</time>
      </trkpt>
      <trkpt lat="43.94099" lon="6.98851">
        <ele>496.18</ele>
        <time>2010-04-05T10:03:42Z</time>
      </trkpt>
      <trkpt lat="43.94101" lon="6.98845">
        <ele>496.18</ele>
        <time>2010-04-05T10:03:43Z</time>
      </trkpt>
      <trkpt lat="43.94104" lon="6.98841">
        <ele>496.66</ele>
        <time>2010-04-05T10:03:44Z</time>
      </trkpt>
      <trkpt lat="43.94107" lon="6.98839">
        <ele>497.62</ele>
        <time>2010-04-05T10:03:45Z</time>
      </trkpt>
      <trkpt lat="43.94109" lon="6.98837">
        <ele>498.1</ele>
        <time>2010-04-05T10:03:46Z</time>
      </trkpt>
      <trkpt lat="43.94124" lon="6.98826">
        <ele>499.54</ele>
        <time>2010-04-05T10:03:56Z</time>
      </trkpt>
      <trkpt lat="43.94149" lon="6.98813">
        <ele>502.43</ele>
        <time>2010-04-05T10:04:11Z</time>
      </trkpt>
      <trkpt lat="43.9417" lon="6.98782">
        <ele>504.83</ele>
        <time>2010-04-05T10:04:29Z</time>
      </trkpt>
      <trkpt lat="43.94184" lon="6.98748">
        <ele>507.71</ele>
        <time>2010-04-05T10:04:46Z</time>
      </trkpt>
      <trkpt lat="43.94194" lon="6.98716">
        <ele>511.08</ele>
        <time>2010-04-05T10:05:02Z</time>
      </trkpt>
      <trkpt lat="43.94198" lon="6.98695">
        <ele>512.04</ele>
        <time>2010-04-05T10:05:11Z</time>
      </trkpt>
      <trkpt lat="43.94198" lon="6.98693">
        <ele>511.56</ele>
        <time>2010-04-05T10:05:12Z</time>
      </trkpt>
      <trkpt lat="43.942" lon="6.98691">
        <ele>512.04</ele>
        <time>2010-04-05T10:05:13Z</time>
      </trkpt>
      <trkpt lat="43.94201" lon="6.9869">
        <ele>513</ele>
        <time>2010-04-05T10:05:14Z</time>
      </trkpt>
      <trkpt lat="43.94201" lon="6.98688">
        <ele>512.52</ele>
        <time>2010-04-05T10:05:15Z</time>
      </trkpt>
      <trkpt lat="43.94202" lon="6.98687">
        <ele>512.52</ele>
        <time>2010-04-05T10:05:16Z</time>
      </trkpt>
      <trkpt lat="43.94204" lon="6.98686">
        <ele>513</ele>
        <time>2010-04-05T10:05:17Z</time>
      </trkpt>
      <trkpt lat="43.94205" lon="6.98685">
        <ele>513.48</ele>
        <time>2010-04-05T10:05:18Z</time>
      </trkpt>
      <trkpt lat="43.94206" lon="6.98683">
        <ele>513.48</ele>
        <time>2010-04-05T10:05:19Z</time>
      </trkpt>
      <trkpt lat="43.94207" lon="6.98682">
        <ele>513.48</ele>
        <time>2010-04-05T10:05:20Z</time>
      </trkpt>
      <trkpt lat="43.94209" lon="6.98681">
        <ele>513.96</ele>
        <time>2010-04-05T10:05:21Z</time>
      </trkpt>
      <trkpt lat="43.94209" lon="6.98679">
        <ele>513.96</ele>
        <time>2010-04-05T10:05:22Z</time>
      </trkpt>
      <trkpt lat="43.9422" lon="6.98656">
        <ele>516.85</ele>
        <time>2010-04-05T10:05:35Z</time>
      </trkpt>
      <trkpt lat="43.94221" lon="6.98655">
        <ele>516.85</ele>
        <time>2010-04-05T10:05:36Z</time>
      </trkpt>
      <trkpt lat="43.94221" lon="6.98653">
        <ele>516.85</ele>
        <time>2010-04-05T10:05:37Z</time>
      </trkpt>
      <trkpt lat="43.94222" lon="6.98651">
        <ele>517.33</ele>
        <time>2010-04-05T10:05:38Z</time>
      </trkpt>
      <trkpt lat="43.94222" lon="6.98649">
        <ele>517.33</ele>
        <time>2010-04-05T10:05:39Z</time>
      </trkpt>
      <trkpt lat="43.94222" lon="6.98647">
        <ele>517.33</ele>
        <time>2010-04-05T10:05:40Z</time>
      </trkpt>
      <trkpt lat="43.9423" lon="6.98609">
        <ele>520.69</ele>
        <time>2010-04-05T10:05:58Z</time>
      </trkpt>
      <trkpt lat="43.94239" lon="6.98572">
        <ele>523.58</ele>
        <time>2010-04-05T10:06:16Z</time>
      </trkpt>
      <trkpt lat="43.94251" lon="6.98532">
        <ele>526.46</ele>
        <time>2010-04-05T10:06:37Z</time>
      </trkpt>
      <trkpt lat="43.94261" lon="6.9849">
        <ele>529.34</ele>
        <time>2010-04-05T10:06:57Z</time>
      </trkpt>
      <trkpt lat="43.94274" lon="6.98461">
        <ele>532.71</ele>
        <time>2010-04-05T10:07:13Z</time>
      </trkpt>
      <trkpt lat="43.94282" lon="6.98426">
        <ele>535.59</ele>
        <time>2010-04-05T10:07:30Z</time>
      </trkpt>
      <trkpt lat="43.94287" lon="6.9839">
        <ele>538.48</ele>
        <time>2010-04-05T10:07:47Z</time>
      </trkpt>
      <trkpt lat="43.94293" lon="6.98346">
        <ele>541.84</ele>
        <time>2010-04-05T10:08:07Z</time>
      </trkpt>
      <trkpt lat="43.94306" lon="6.98319">
        <ele>544.72</ele>
        <time>2010-04-05T10:08:20Z</time>
      </trkpt>
      <trkpt lat="43.94307" lon="6.98317">
        <ele>544.72</ele>
        <time>2010-04-05T10:08:21Z</time>
      </trkpt>
      <trkpt lat="43.94308" lon="6.98314">
        <ele>544.24</ele>
        <time>2010-04-05T10:08:22Z</time>
      </trkpt>
      <trkpt lat="43.9431" lon="6.98312">
        <ele>544.72</ele>
        <time>2010-04-05T10:08:23Z</time>
      </trkpt>
      <trkpt lat="43.94311" lon="6.9831">
        <ele>544.72</ele>
        <time>2010-04-05T10:08:24Z</time>
      </trkpt>
      <trkpt lat="43.94312" lon="6.98307">
        <ele>545.2</ele>
        <time>2010-04-05T10:08:25Z</time>
      </trkpt>
      <trkpt lat="43.94313" lon="6.98305">
        <ele>545.2</ele>
        <time>2010-04-05T10:08:26Z</time>
      </trkpt>
      <trkpt lat="43.94313" lon="6.98303">
        <ele>545.69</ele>
        <time>2010-04-05T10:08:27Z</time>
      </trkpt>
      <trkpt lat="43.9433" lon="6.98271">
        <ele>548.57</ele>
        <time>2010-04-05T10:08:43Z</time>
      </trkpt>
      <trkpt lat="43.94347" lon="6.98247">
        <ele>551.45</ele>
        <time>2010-04-05T10:08:57Z</time>
      </trkpt>
      <trkpt lat="43.9435" lon="6.98241">
        <ele>552.41</ele>
        <time>2010-04-05T10:09:00Z</time>
      </trkpt>
      <trkpt lat="43.9435" lon="6.98239">
        <ele>552.41</ele>
        <time>2010-04-05T10:09:01Z</time>
      </trkpt>
      <trkpt lat="43.94351" lon="6.98237">
        <ele>552.41</ele>
        <time>2010-04-05T10:09:02Z</time>
      </trkpt>
      <trkpt lat="43.94352" lon="6.98236">
        <ele>552.41</ele>
        <time>2010-04-05T10:09:03Z</time>
      </trkpt>
      <trkpt lat="43.94353" lon="6.98234">
        <ele>552.9</ele>
        <time>2010-04-05T10:09:04Z</time>
      </trkpt>
      <trkpt lat="43.94355" lon="6.98232">
        <ele>552.9</ele>
        <time>2010-04-05T10:09:05Z</time>
      </trkpt>
      <trkpt lat="43.94356" lon="6.9823">
        <ele>552.9</ele>
        <time>2010-04-05T10:09:06Z</time>
      </trkpt>
      <trkpt lat="43.94373" lon="6.98203">
        <ele>555.78</ele>
        <time>2010-04-05T10:09:24Z</time>
      </trkpt>
      <trkpt lat="43.94374" lon="6.98203">
        <ele>556.26</ele>
        <time>2010-04-05T10:09:25Z</time>
      </trkpt>
      <trkpt lat="43.94376" lon="6.98202">
        <ele>556.26</ele>
        <time>2010-04-05T10:09:26Z</time>
      </trkpt>
      <trkpt lat="43.94377" lon="6.98201">
        <ele>556.26</ele>
        <time>2010-04-05T10:09:27Z</time>
      </trkpt>
      <trkpt lat="43.94378" lon="6.98199">
        <ele>556.26</ele>
        <time>2010-04-05T10:09:28Z</time>
      </trkpt>
      <trkpt lat="43.9441" lon="6.98189">
        <ele>559.62</ele>
        <time>2010-04-05T10:09:47Z</time>
      </trkpt>
      <trkpt lat="43.94443" lon="6.98191">
        <ele>561.55</ele>
        <time>2010-04-05T10:10:05Z</time>
      </trkpt>
      <trkpt lat="43.94446" lon="6.98184">
        <ele>561.55</ele>
        <time>2010-04-05T10:10:08Z</time>
      </trkpt>
      <trkpt lat="43.94455" lon="6.98129">
        <ele>564.43</ele>
        <time>2010-04-05T10:10:28Z</time>
      </trkpt>
      <trkpt lat="43.94449" lon="6.98055">
        <ele>567.32</ele>
        <time>2010-04-05T10:10:50Z</time>
      </trkpt>
      <trkpt lat="43.94418" lon="6.98003">
        <ele>569.72</ele>
        <time>2010-04-05T10:11:10Z</time>
      </trkpt>
      <trkpt lat="43.94395" lon="6.97946">
        <ele>571.16</ele>
        <time>2010-04-05T10:11:27Z</time>
      </trkpt>
      <trkpt lat="43.94372" lon="6.97887">
        <ele>574.04</ele>
        <time>2010-04-05T10:11:44Z</time>
      </trkpt>
      <trkpt lat="43.94371" lon="6.97823">
        <ele>576.93</ele>
        <time>2010-04-05T10:12:00Z</time>
      </trkpt>
      <trkpt lat="43.94368" lon="6.97761">
        <ele>578.85</ele>
        <time>2010-04-05T10:12:16Z</time>
      </trkpt>
      <trkpt lat="43.94342" lon="6.97711">
        <ele>579.81</ele>
        <time>2010-04-05T10:12:32Z</time>
      </trkpt>
      <trkpt lat="43.94323" lon="6.97637">
        <ele>582.7</ele>
        <time>2010-04-05T10:12:53Z</time>
      </trkpt>
      <trkpt lat="43.94321" lon="6.9757">
        <ele>585.58</ele>
        <time>2010-04-05T10:13:12Z</time>
      </trkpt>
      <trkpt lat="43.94304" lon="6.97531">
        <ele>587.5</ele>
        <time>2010-04-05T10:13:28Z</time>
      </trkpt>
      <trkpt lat="43.94261" lon="6.97514">
        <ele>590.39</ele>
        <time>2010-04-05T10:13:47Z</time>
      </trkpt>
      <trkpt lat="43.94219" lon="6.97495">
        <ele>592.79</ele>
        <time>2010-04-05T10:14:06Z</time>
      </trkpt>
      <trkpt lat="43.94188" lon="6.9747">
        <ele>596.15</ele>
        <time>2010-04-05T10:14:23Z</time>
      </trkpt>
      <trkpt lat="43.9417" lon="6.97446">
        <ele>597.6</ele>
        <time>2010-04-05T10:14:34Z</time>
      </trkpt>
      <trkpt lat="43.94166" lon="6.97382">
        <ele>599.52</ele>
        <time>2010-04-05T10:14:52Z</time>
      </trkpt>
      <trkpt lat="43.94169" lon="6.97343">
        <ele>602.4</ele>
        <time>2010-04-05T10:15:05Z</time>
      </trkpt>
      <trkpt lat="43.94171" lon="6.97339">
        <ele>602.88</ele>
        <time>2010-04-05T10:15:06Z</time>
      </trkpt>
      <trkpt lat="43.94173" lon="6.97336">
        <ele>603.36</ele>
        <time>2010-04-05T10:15:07Z</time>
      </trkpt>
      <trkpt lat="43.9419" lon="6.97309">
        <ele>604.81</ele>
        <time>2010-04-05T10:15:18Z</time>
      </trkpt>
      <trkpt lat="43.9419" lon="6.97306">
        <ele>604.33</ele>
        <time>2010-04-05T10:15:19Z</time>
      </trkpt>
      <trkpt lat="43.94189" lon="6.97303">
        <ele>604.33</ele>
        <time>2010-04-05T10:15:20Z</time>
      </trkpt>
      <trkpt lat="43.94187" lon="6.97302">
        <ele>604.81</ele>
        <time>2010-04-05T10:15:21Z</time>
      </trkpt>
      <trkpt lat="43.94185" lon="6.97303">
        <ele>604.81</ele>
        <time>2010-04-05T10:15:22Z</time>
      </trkpt>
      <trkpt lat="43.94184" lon="6.97304">
        <ele>604.81</ele>
        <time>2010-04-05T10:15:23Z</time>
      </trkpt>
      <trkpt lat="43.94182" lon="6.97306">
        <ele>605.29</ele>
        <time>2010-04-05T10:15:24Z</time>
      </trkpt>
      <trkpt lat="43.94158" lon="6.97334">
        <ele>609.13</ele>
        <time>2010-04-05T10:15:41Z</time>
      </trkpt>
      <trkpt lat="43.94139" lon="6.97383">
        <ele>610.09</ele>
        <time>2010-04-05T10:15:58Z</time>
      </trkpt>
      <trkpt lat="43.94134" lon="6.97441">
        <ele>612.98</ele>
        <time>2010-04-05T10:16:18Z</time>
      </trkpt>
      <trkpt lat="43.94151" lon="6.97487">
        <ele>616.34</ele>
        <time>2010-04-05T10:16:35Z</time>
      </trkpt>
      <trkpt lat="43.94179" lon="6.97516">
        <ele>619.23</ele>
        <time>2010-04-05T10:16:52Z</time>
      </trkpt>
      <trkpt lat="43.942" lon="6.97549">
        <ele>622.11</ele>
        <time>2010-04-05T10:17:10Z</time>
      </trkpt>
      <trkpt lat="43.94201" lon="6.9755">
        <ele>622.11</ele>
        <time>2010-04-05T10:17:11Z</time>
      </trkpt>
      <trkpt lat="43.94202" lon="6.97551">
        <ele>622.59</ele>
        <time>2010-04-05T10:17:12Z</time>
      </trkpt>
      <trkpt lat="43.94228" lon="6.97579">
        <ele>625.96</ele>
        <time>2010-04-05T10:17:29Z</time>
      </trkpt>
      <trkpt lat="43.94241" lon="6.97619">
        <ele>629.32</ele>
        <time>2010-04-05T10:17:47Z</time>
      </trkpt>
      <trkpt lat="43.94237" lon="6.97645">
        <ele>631.24</ele>
        <time>2010-04-05T10:17:57Z</time>
      </trkpt>
      <trkpt lat="43.94237" lon="6.97647">
        <ele>631.24</ele>
        <time>2010-04-05T10:17:58Z</time>
      </trkpt>
      <trkpt lat="43.94237" lon="6.9765">
        <ele>631.24</ele>
        <time>2010-04-05T10:17:59Z</time>
      </trkpt>
      <trkpt lat="43.94237" lon="6.97653">
        <ele>631.24</ele>
        <time>2010-04-05T10:18:00Z</time>
      </trkpt>
      <trkpt lat="43.94237" lon="6.97655">
        <ele>631.24</ele>
        <time>2010-04-05T10:18:01Z</time>
      </trkpt>
      <trkpt lat="43.94237" lon="6.97658">
        <ele>631.72</ele>
        <time>2010-04-05T10:18:02Z</time>
      </trkpt>
      <trkpt lat="43.94237" lon="6.9766">
        <ele>631.24</ele>
        <time>2010-04-05T10:18:03Z</time>
      </trkpt>
      <trkpt lat="43.94237" lon="6.97663">
        <ele>631.72</ele>
        <time>2010-04-05T10:18:04Z</time>
      </trkpt>
      <trkpt lat="43.94236" lon="6.97697">
        <ele>635.09</ele>
        <time>2010-04-05T10:18:18Z</time>
      </trkpt>
      <trkpt lat="43.94233" lon="6.97715">
        <ele>636.05</ele>
        <time>2010-04-05T10:18:26Z</time>
      </trkpt>
      <trkpt lat="43.94234" lon="6.97718">
        <ele>637.01</ele>
        <time>2010-04-05T10:18:28Z</time>
      </trkpt>
      <trkpt lat="43.94234" lon="6.9772">
        <ele>637.01</ele>
        <time>2010-04-05T10:18:29Z</time>
      </trkpt>
      <trkpt lat="43.94234" lon="6.97723">
        <ele>637.01</ele>
        <time>2010-04-05T10:18:30Z</time>
      </trkpt>
      <trkpt lat="43.94234" lon="6.97726">
        <ele>637.01</ele>
        <time>2010-04-05T10:18:31Z</time>
      </trkpt>
      <trkpt lat="43.94234" lon="6.97728">
        <ele>637.49</ele>
        <time>2010-04-05T10:18:32Z</time>
      </trkpt>
      <trkpt lat="43.94238" lon="6.97774">
        <ele>640.38</ele>
        <time>2010-04-05T10:18:50Z</time>
      </trkpt>
      <trkpt lat="43.94251" lon="6.97815">
        <ele>643.74</ele>
        <time>2010-04-05T10:19:09Z</time>
      </trkpt>
      <trkpt lat="43.94251" lon="6.97825">
        <ele>640.38</ele>
        <time>2010-04-05T10:19:13Z</time>
      </trkpt>
      <trkpt lat="43.94251" lon="6.97827">
        <ele>644.22</ele>
        <time>2010-04-05T10:19:14Z</time>
      </trkpt>
      <trkpt lat="43.94252" lon="6.9785">
        <ele>646.14</ele>
        <time>2010-04-05T10:19:26Z</time>
      </trkpt>
      <trkpt lat="43.94252" lon="6.97853">
        <ele>646.62</ele>
        <time>2010-04-05T10:19:27Z</time>
      </trkpt>
      <trkpt lat="43.94252" lon="6.97855">
        <ele>646.14</ele>
        <time>2010-04-05T10:19:28Z</time>
      </trkpt>
      <trkpt lat="43.94252" lon="6.97857">
        <ele>646.62</ele>
        <time>2010-04-05T10:19:29Z</time>
      </trkpt>
      <trkpt lat="43.94252" lon="6.9786">
        <ele>647.1</ele>
        <time>2010-04-05T10:19:30Z</time>
      </trkpt>
      <trkpt lat="43.94252" lon="6.97862">
        <ele>647.1</ele>
        <time>2010-04-05T10:19:31Z</time>
      </trkpt>
      <trkpt lat="43.94251" lon="6.97864">
        <ele>647.1</ele>
        <time>2010-04-05T10:19:32Z</time>
      </trkpt>
      <trkpt lat="43.94252" lon="6.97866">
        <ele>647.1</ele>
        <time>2010-04-05T10:19:33Z</time>
      </trkpt>
      <trkpt lat="43.94251" lon="6.97874">
        <ele>647.1</ele>
        <time>2010-04-05T10:19:36Z</time>
      </trkpt>
      <trkpt lat="43.94251" lon="6.97876">
        <ele>647.59</ele>
        <time>2010-04-05T10:19:37Z</time>
      </trkpt>
      <trkpt lat="43.94251" lon="6.97878">
        <ele>648.07</ele>
        <time>2010-04-05T10:19:38Z</time>
      </trkpt>
      <trkpt lat="43.94251" lon="6.9788">
        <ele>648.07</ele>
        <time>2010-04-05T10:19:39Z</time>
      </trkpt>
      <trkpt lat="43.9425" lon="6.97882">
        <ele>648.55</ele>
        <time>2010-04-05T10:19:40Z</time>
      </trkpt>
      <trkpt lat="43.94247" lon="6.97891">
        <ele>649.51</ele>
        <time>2010-04-05T10:19:45Z</time>
      </trkpt>
      <trkpt lat="43.94246" lon="6.97893">
        <ele>649.51</ele>
        <time>2010-04-05T10:19:46Z</time>
      </trkpt>
      <trkpt lat="43.94245" lon="6.97896">
        <ele>649.99</ele>
        <time>2010-04-05T10:19:47Z</time>
      </trkpt>
      <trkpt lat="43.9422" lon="6.9793">
        <ele>653.35</ele>
        <time>2010-04-05T10:20:07Z</time>
      </trkpt>
      <trkpt lat="43.94201" lon="6.97956">
        <ele>656.24</ele>
        <time>2010-04-05T10:20:23Z</time>
      </trkpt>
      <trkpt lat="43.94176" lon="6.97976">
        <ele>658.16</ele>
        <time>2010-04-05T10:20:39Z</time>
      </trkpt>
      <trkpt lat="43.94175" lon="6.97977">
        <ele>658.64</ele>
        <time>2010-04-05T10:20:40Z</time>
      </trkpt>
      <trkpt lat="43.94174" lon="6.97978">
        <ele>658.64</ele>
        <time>2010-04-05T10:20:41Z</time>
      </trkpt>
      <trkpt lat="43.94156" lon="6.98013">
        <ele>662.01</ele>
        <time>2010-04-05T10:20:59Z</time>
      </trkpt>
      <trkpt lat="43.94155" lon="6.9802">
        <ele>662.49</ele>
        <time>2010-04-05T10:21:02Z</time>
      </trkpt>
      <trkpt lat="43.94154" lon="6.98022">
        <ele>662.49</ele>
        <time>2010-04-05T10:21:03Z</time>
      </trkpt>
      <trkpt lat="43.94154" lon="6.98025">
        <ele>662.97</ele>
        <time>2010-04-05T10:21:04Z</time>
      </trkpt>
      <trkpt lat="43.94141" lon="6.98066">
        <ele>666.33</ele>
        <time>2010-04-05T10:21:21Z</time>
      </trkpt>
      <trkpt lat="43.94135" lon="6.98093">
        <ele>668.25</ele>
        <time>2010-04-05T10:21:33Z</time>
      </trkpt>
      <trkpt lat="43.94136" lon="6.98095">
        <ele>668.73</ele>
        <time>2010-04-05T10:21:34Z</time>
      </trkpt>
      <trkpt lat="43.94136" lon="6.98096">
        <ele>668.73</ele>
        <time>2010-04-05T10:21:35Z</time>
      </trkpt>
      <trkpt lat="43.94135" lon="6.98101">
        <ele>669.22</ele>
        <time>2010-04-05T10:21:39Z</time>
      </trkpt>
      <trkpt lat="43.94135" lon="6.98103">
        <ele>669.22</ele>
        <time>2010-04-05T10:22:02Z</time>
      </trkpt>
      <trkpt lat="43.94135" lon="6.98102">
        <ele>673.06</ele>
        <time>2010-04-05T10:22:28Z</time>
      </trkpt>
      <trkpt lat="43.94135" lon="6.98102">
        <ele>669.7</ele>
        <time>2010-04-05T10:22:30Z</time>
      </trkpt>
      <trkpt lat="43.94135" lon="6.98102">
        <ele>665.37</ele>
        <time>2010-04-05T10:22:34Z</time>
      </trkpt>
      <trkpt lat="43.94135" lon="6.98102">
        <ele>668.25</ele>
        <time>2010-04-05T10:22:35Z</time>
      </trkpt>
      <trkpt lat="43.94135" lon="6.98102">
        <ele>669.7</ele>
        <time>2010-04-05T10:22:37Z</time>
      </trkpt>
      <trkpt lat="43.94135" lon="6.98102">
        <ele>667.77</ele>
        <time>2010-04-05T10:23:05Z</time>
      </trkpt>
      <trkpt lat="43.94135" lon="6.98102">
        <ele>669.7</ele>
        <time>2010-04-05T10:23:07Z</time>
      </trkpt>
      <trkpt lat="43.94134" lon="6.98109">
        <ele>669.7</ele>
        <time>2010-04-05T10:24:37Z</time>
      </trkpt>
      <trkpt lat="43.94134" lon="6.98109">
        <ele>671.14</ele>
        <time>2010-04-05T10:24:46Z</time>
      </trkpt>
      <trkpt lat="43.94134" lon="6.9811">
        <ele>670.66</ele>
        <time>2010-04-05T10:27:00Z</time>
      </trkpt>
      <trkpt lat="43.94133" lon="6.98113">
        <ele>670.66</ele>
        <time>2010-04-05T10:28:58Z</time>
      </trkpt>
      <trkpt lat="43.94124" lon="6.98155">
        <ele>673.54</ele>
        <time>2010-04-05T10:29:18Z</time>
      </trkpt>
      <trkpt lat="43.94119" lon="6.98163">
        <ele>674.5</ele>
        <time>2010-04-05T10:29:23Z</time>
      </trkpt>
      <trkpt lat="43.94094" lon="6.98188">
        <ele>677.87</ele>
        <time>2010-04-05T10:29:42Z</time>
      </trkpt>
      <trkpt lat="43.94087" lon="6.98204">
        <ele>679.79</ele>
        <time>2010-04-05T10:29:55Z</time>
      </trkpt>
      <trkpt lat="43.94085" lon="6.98207">
        <ele>680.27</ele>
        <time>2010-04-05T10:29:56Z</time>
      </trkpt>
      <trkpt lat="43.94084" lon="6.98211">
        <ele>680.27</ele>
        <time>2010-04-05T10:29:57Z</time>
      </trkpt>
      <trkpt lat="43.94083" lon="6.98213">
        <ele>680.75</ele>
        <time>2010-04-05T10:29:58Z</time>
      </trkpt>
      <trkpt lat="43.94083" lon="6.98216">
        <ele>680.75</ele>
        <time>2010-04-05T10:29:59Z</time>
      </trkpt>
      <trkpt lat="43.94082" lon="6.98219">
        <ele>680.75</ele>
        <time>2010-04-05T10:30:00Z</time>
      </trkpt>
      <trkpt lat="43.94081" lon="6.98221">
        <ele>680.75</ele>
        <time>2010-04-05T10:30:01Z</time>
      </trkpt>
      <trkpt lat="43.94081" lon="6.98224">
        <ele>681.23</ele>
        <time>2010-04-05T10:30:02Z</time>
      </trkpt>
      <trkpt lat="43.94081" lon="6.98226">
        <ele>681.23</ele>
        <time>2010-04-05T10:30:03Z</time>
      </trkpt>
      <trkpt lat="43.94081" lon="6.98229">
        <ele>681.71</ele>
        <time>2010-04-05T10:30:04Z</time>
      </trkpt>
      <trkpt lat="43.94081" lon="6.98231">
        <ele>682.19</ele>
        <time>2010-04-05T10:30:05Z</time>
      </trkpt>
      <trkpt lat="43.9408" lon="6.98235">
        <ele>682.67</ele>
        <time>2010-04-05T10:30:06Z</time>
      </trkpt>
      <trkpt lat="43.94079" lon="6.98238">
        <ele>683.15</ele>
        <time>2010-04-05T10:30:07Z</time>
      </trkpt>
      <trkpt lat="43.94077" lon="6.98241">
        <ele>683.15</ele>
        <time>2010-04-05T10:30:08Z</time>
      </trkpt>
      <trkpt lat="43.94076" lon="6.98244">
        <ele>683.15</ele>
        <time>2010-04-05T10:30:09Z</time>
      </trkpt>
      <trkpt lat="43.94075" lon="6.98247">
        <ele>683.15</ele>
        <time>2010-04-05T10:30:10Z</time>
      </trkpt>
      <trkpt lat="43.94061" lon="6.98279">
        <ele>686.04</ele>
        <time>2010-04-05T10:30:27Z</time>
      </trkpt>
      <trkpt lat="43.9406" lon="6.98281">
        <ele>686.04</ele>
        <time>2010-04-05T10:30:28Z</time>
      </trkpt>
      <trkpt lat="43.94059" lon="6.98284">
        <ele>686.04</ele>
        <time>2010-04-05T10:30:29Z</time>
      </trkpt>
      <trkpt lat="43.94059" lon="6.98287">
        <ele>686.52</ele>
        <time>2010-04-05T10:30:30Z</time>
      </trkpt>
      <trkpt lat="43.94058" lon="6.98289">
        <ele>686.52</ele>
        <time>2010-04-05T10:30:31Z</time>
      </trkpt>
      <trkpt lat="43.94057" lon="6.98291">
        <ele>687</ele>
        <time>2010-04-05T10:30:32Z</time>
      </trkpt>
      <trkpt lat="43.94056" lon="6.98293">
        <ele>686.52</ele>
        <time>2010-04-05T10:30:33Z</time>
      </trkpt>
      <trkpt lat="43.94055" lon="6.98298">
        <ele>687</ele>
        <time>2010-04-05T10:30:35Z</time>
      </trkpt>
      <trkpt lat="43.94054" lon="6.98302">
        <ele>687.48</ele>
        <time>2010-04-05T10:30:37Z</time>
      </trkpt>
      <trkpt lat="43.94048" lon="6.98333">
        <ele>689.88</ele>
        <time>2010-04-05T10:30:51Z</time>
      </trkpt>
      <trkpt lat="43.94047" lon="6.98335">
        <ele>689.88</ele>
        <time>2010-04-05T10:30:52Z</time>
      </trkpt>
      <trkpt lat="43.94047" lon="6.98336">
        <ele>690.36</ele>
        <time>2010-04-05T10:30:53Z</time>
      </trkpt>
      <trkpt lat="43.94046" lon="6.98338">
        <ele>690.36</ele>
        <time>2010-04-05T10:30:54Z</time>
      </trkpt>
      <trkpt lat="43.94046" lon="6.98341">
        <ele>690.36</ele>
        <time>2010-04-05T10:30:55Z</time>
      </trkpt>
      <trkpt lat="43.94046" lon="6.98343">
        <ele>690.84</ele>
        <time>2010-04-05T10:30:56Z</time>
      </trkpt>
      <trkpt lat="43.94045" lon="6.98345">
        <ele>690.84</ele>
        <time>2010-04-05T10:30:57Z</time>
      </trkpt>
      <trkpt lat="43.94037" lon="6.98376">
        <ele>694.21</ele>
        <time>2010-04-05T10:31:14Z</time>
      </trkpt>
      <trkpt lat="43.94034" lon="6.98383">
        <ele>694.21</ele>
        <time>2010-04-05T10:31:17Z</time>
      </trkpt>
      <trkpt lat="43.94033" lon="6.98385">
        <ele>694.21</ele>
        <time>2010-04-05T10:31:18Z</time>
      </trkpt>
      <trkpt lat="43.94023" lon="6.98411">
        <ele>696.61</ele>
        <time>2010-04-05T10:31:31Z</time>
      </trkpt>
      <trkpt lat="43.94022" lon="6.98413">
        <ele>697.57</ele>
        <time>2010-04-05T10:31:32Z</time>
      </trkpt>
      <trkpt lat="43.94021" lon="6.98416">
        <ele>697.57</ele>
        <time>2010-04-05T10:31:33Z</time>
      </trkpt>
      <trkpt lat="43.9402" lon="6.98418">
        <ele>697.57</ele>
        <time>2010-04-05T10:31:34Z</time>
      </trkpt>
      <trkpt lat="43.9402" lon="6.9842">
        <ele>697.57</ele>
        <time>2010-04-05T10:31:35Z</time>
      </trkpt>
      <trkpt lat="43.94019" lon="6.98422">
        <ele>698.05</ele>
        <time>2010-04-05T10:31:36Z</time>
      </trkpt>
      <trkpt lat="43.94018" lon="6.98424">
        <ele>698.05</ele>
        <time>2010-04-05T10:31:37Z</time>
      </trkpt>
      <trkpt lat="43.94018" lon="6.98426">
        <ele>698.05</ele>
        <time>2010-04-05T10:31:38Z</time>
      </trkpt>
      <trkpt lat="43.94017" lon="6.98427">
        <ele>698.53</ele>
        <time>2010-04-05T10:31:39Z</time>
      </trkpt>
      <trkpt lat="43.94016" lon="6.98429">
        <ele>698.53</ele>
        <time>2010-04-05T10:31:40Z</time>
      </trkpt>
      <trkpt lat="43.94015" lon="6.98432">
        <ele>699.02</ele>
        <time>2010-04-05T10:31:41Z</time>
      </trkpt>
      <trkpt lat="43.94014" lon="6.98433">
        <ele>699.02</ele>
        <time>2010-04-05T10:31:42Z</time>
      </trkpt>
      <trkpt lat="43.94013" lon="6.98436">
        <ele>699.5</ele>
        <time>2010-04-05T10:31:43Z</time>
      </trkpt>
      <trkpt lat="43.94012" lon="6.98438">
        <ele>699.98</ele>
        <time>2010-04-05T10:31:44Z</time>
      </trkpt>
      <trkpt lat="43.94008" lon="6.98444">
        <ele>700.46</ele>
        <time>2010-04-05T10:31:48Z</time>
      </trkpt>
      <trkpt lat="43.93997" lon="6.98457">
        <ele>701.9</ele>
        <time>2010-04-05T10:31:55Z</time>
      </trkpt>
      <trkpt lat="43.93983" lon="6.98468">
        <ele>703.34</ele>
        <time>2010-04-05T10:32:05Z</time>
      </trkpt>
      <trkpt lat="43.93981" lon="6.9847">
        <ele>703.82</ele>
        <time>2010-04-05T10:32:07Z</time>
      </trkpt>
      <trkpt lat="43.93963" lon="6.98491">
        <ele>706.71</ele>
        <time>2010-04-05T10:32:23Z</time>
      </trkpt>
      <trkpt lat="43.93947" lon="6.98516">
        <ele>708.15</ele>
        <time>2010-04-05T10:32:35Z</time>
      </trkpt>
      <trkpt lat="43.93946" lon="6.98518">
        <ele>707.67</ele>
        <time>2010-04-05T10:32:36Z</time>
      </trkpt>
      <trkpt lat="43.93944" lon="6.98521">
        <ele>708.63</ele>
        <time>2010-04-05T10:32:37Z</time>
      </trkpt>
      <trkpt lat="43.9392" lon="6.98556">
        <ele>710.55</ele>
        <time>2010-04-05T10:32:53Z</time>
      </trkpt>
      <trkpt lat="43.93918" lon="6.98555">
        <ele>710.55</ele>
        <time>2010-04-05T10:32:54Z</time>
      </trkpt>
      <trkpt lat="43.93916" lon="6.98554">
        <ele>710.55</ele>
        <time>2010-04-05T10:32:55Z</time>
      </trkpt>
      <trkpt lat="43.93914" lon="6.98552">
        <ele>710.55</ele>
        <time>2010-04-05T10:32:56Z</time>
      </trkpt>
      <trkpt lat="43.93914" lon="6.98549">
        <ele>711.03</ele>
        <time>2010-04-05T10:32:57Z</time>
      </trkpt>
      <trkpt lat="43.93915" lon="6.98546">
        <ele>711.03</ele>
        <time>2010-04-05T10:32:58Z</time>
      </trkpt>
      <trkpt lat="43.93916" lon="6.98544">
        <ele>711.03</ele>
        <time>2010-04-05T10:32:59Z</time>
      </trkpt>
      <trkpt lat="43.93916" lon="6.98541">
        <ele>711.51</ele>
        <time>2010-04-05T10:33:00Z</time>
      </trkpt>
      <trkpt lat="43.93917" lon="6.98538">
        <ele>711.51</ele>
        <time>2010-04-05T10:33:01Z</time>
      </trkpt>
      <trkpt lat="43.93918" lon="6.98536">
        <ele>711.51</ele>
        <time>2010-04-05T10:33:02Z</time>
      </trkpt>
      <trkpt lat="43.9392" lon="6.98535">
        <ele>711.03</ele>
        <time>2010-04-05T10:33:03Z</time>
      </trkpt>
      <trkpt lat="43.93921" lon="6.98533">
        <ele>711.99</ele>
        <time>2010-04-05T10:33:04Z</time>
      </trkpt>
      <trkpt lat="43.93923" lon="6.98531">
        <ele>711.99</ele>
        <time>2010-04-05T10:33:05Z</time>
      </trkpt>
      <trkpt lat="43.93924" lon="6.9853">
        <ele>712.47</ele>
        <time>2010-04-05T10:33:06Z</time>
      </trkpt>
      <trkpt lat="43.93926" lon="6.98527">
        <ele>712.47</ele>
        <time>2010-04-05T10:33:07Z</time>
      </trkpt>
      <trkpt lat="43.93933" lon="6.985">
        <ele>714.88</ele>
        <time>2010-04-05T10:33:20Z</time>
      </trkpt>
      <trkpt lat="43.93934" lon="6.98498">
        <ele>714.88</ele>
        <time>2010-04-05T10:33:21Z</time>
      </trkpt>
      <trkpt lat="43.93936" lon="6.98496">
        <ele>715.36</ele>
        <time>2010-04-05T10:33:22Z</time>
      </trkpt>
      <trkpt lat="43.93937" lon="6.98493">
        <ele>715.36</ele>
        <time>2010-04-05T10:33:23Z</time>
      </trkpt>
      <trkpt lat="43.93938" lon="6.98492">
        <ele>715.36</ele>
        <time>2010-04-05T10:33:24Z</time>
      </trkpt>
      <trkpt lat="43.93957" lon="6.98461">
        <ele>718.24</ele>
        <time>2010-04-05T10:33:42Z</time>
      </trkpt>
      <trkpt lat="43.93961" lon="6.98453">
        <ele>719.2</ele>
        <time>2010-04-05T10:33:46Z</time>
      </trkpt>
      <trkpt lat="43.93962" lon="6.98451">
        <ele>719.2</ele>
        <time>2010-04-05T10:33:47Z</time>
      </trkpt>
      <trkpt lat="43.93963" lon="6.98449">
        <ele>719.2</ele>
        <time>2010-04-05T10:33:48Z</time>
      </trkpt>
      <trkpt lat="43.93964" lon="6.98447">
        <ele>719.2</ele>
        <time>2010-04-05T10:33:49Z</time>
      </trkpt>
      <trkpt lat="43.93965" lon="6.98445">
        <ele>719.2</ele>
        <time>2010-04-05T10:33:50Z</time>
      </trkpt>
      <trkpt lat="43.93978" lon="6.98408">
        <ele>722.57</ele>
        <time>2010-04-05T10:34:08Z</time>
      </trkpt>
      <trkpt lat="43.9399" lon="6.98367">
        <ele>725.45</ele>
        <time>2010-04-05T10:34:26Z</time>
      </trkpt>
      <trkpt lat="43.9399" lon="6.98349">
        <ele>726.41</ele>
        <time>2010-04-05T10:34:34Z</time>
      </trkpt>
      <trkpt lat="43.93991" lon="6.98347">
        <ele>726.89</ele>
        <time>2010-04-05T10:34:35Z</time>
      </trkpt>
      <trkpt lat="43.93992" lon="6.98298">
        <ele>729.78</ele>
        <time>2010-04-05T10:34:54Z</time>
      </trkpt>
      <trkpt lat="43.9399" lon="6.98255">
        <ele>733.14</ele>
        <time>2010-04-05T10:35:11Z</time>
      </trkpt>
      <trkpt lat="43.93982" lon="6.98217">
        <ele>736.03</ele>
        <time>2010-04-05T10:35:28Z</time>
      </trkpt>
      <trkpt lat="43.9397" lon="6.98174">
        <ele>738.91</ele>
        <time>2010-04-05T10:35:47Z</time>
      </trkpt>
      <trkpt lat="43.93967" lon="6.98126">
        <ele>741.31</ele>
        <time>2010-04-05T10:36:07Z</time>
      </trkpt>
      <trkpt lat="43.93962" lon="6.9809">
        <ele>744.68</ele>
        <time>2010-04-05T10:36:23Z</time>
      </trkpt>
      <trkpt lat="43.93953" lon="6.9805">
        <ele>747.56</ele>
        <time>2010-04-05T10:36:41Z</time>
      </trkpt>
      <trkpt lat="43.93947" lon="6.98005">
        <ele>750.93</ele>
        <time>2010-04-05T10:37:00Z</time>
      </trkpt>
      <trkpt lat="43.93938" lon="6.97963">
        <ele>754.29</ele>
        <time>2010-04-05T10:37:17Z</time>
      </trkpt>
      <trkpt lat="43.93927" lon="6.97919">
        <ele>756.69</ele>
        <time>2010-04-05T10:37:36Z</time>
      </trkpt>
      <trkpt lat="43.93925" lon="6.97879">
        <ele>759.58</ele>
        <time>2010-04-05T10:37:53Z</time>
      </trkpt>
      <trkpt lat="43.93924" lon="6.97864">
        <ele>760.06</ele>
        <time>2010-04-05T10:37:59Z</time>
      </trkpt>
      <trkpt lat="43.93924" lon="6.97862">
        <ele>760.54</ele>
        <time>2010-04-05T10:38:00Z</time>
      </trkpt>
      <trkpt lat="43.9393" lon="6.97829">
        <ele>763.42</ele>
        <time>2010-04-05T10:38:13Z</time>
      </trkpt>
      <trkpt lat="43.93931" lon="6.97827">
        <ele>763.9</ele>
        <time>2010-04-05T10:38:14Z</time>
      </trkpt>
      <trkpt lat="43.93931" lon="6.97825">
        <ele>763.9</ele>
        <time>2010-04-05T10:38:15Z</time>
      </trkpt>
      <trkpt lat="43.93931" lon="6.97822">
        <ele>763.42</ele>
        <time>2010-04-05T10:38:16Z</time>
      </trkpt>
      <trkpt lat="43.93931" lon="6.9782">
        <ele>764.39</ele>
        <time>2010-04-05T10:38:17Z</time>
      </trkpt>
      <trkpt lat="43.93918" lon="6.97777">
        <ele>766.79</ele>
        <time>2010-04-05T10:38:36Z</time>
      </trkpt>
      <trkpt lat="43.93889" lon="6.97758">
        <ele>769.67</ele>
        <time>2010-04-05T10:38:54Z</time>
      </trkpt>
      <trkpt lat="43.93862" lon="6.97727">
        <ele>772.56</ele>
        <time>2010-04-05T10:39:12Z</time>
      </trkpt>
      <trkpt lat="43.93837" lon="6.9769">
        <ele>775.44</ele>
        <time>2010-04-05T10:39:31Z</time>
      </trkpt>
      <trkpt lat="43.93827" lon="6.97656">
        <ele>778.32</ele>
        <time>2010-04-05T10:39:47Z</time>
      </trkpt>
      <trkpt lat="43.93817" lon="6.97613">
        <ele>781.69</ele>
        <time>2010-04-05T10:40:06Z</time>
      </trkpt>
      <trkpt lat="43.938" lon="6.9757">
        <ele>785.05</ele>
        <time>2010-04-05T10:40:26Z</time>
      </trkpt>
      <trkpt lat="43.93783" lon="6.97522">
        <ele>788.42</ele>
        <time>2010-04-05T10:40:46Z</time>
      </trkpt>
      <trkpt lat="43.93772" lon="6.97473">
        <ele>791.78</ele>
        <time>2010-04-05T10:41:04Z</time>
      </trkpt>
      <trkpt lat="43.93768" lon="6.9746">
        <ele>793.22</ele>
        <time>2010-04-05T10:41:09Z</time>
      </trkpt>
      <trkpt lat="43.93767" lon="6.97458">
        <ele>793.22</ele>
        <time>2010-04-05T10:41:10Z</time>
      </trkpt>
      <trkpt lat="43.93754" lon="6.97417">
        <ele>796.11</ele>
        <time>2010-04-05T10:41:27Z</time>
      </trkpt>
      <trkpt lat="43.93751" lon="6.97409">
        <ele>796.59</ele>
        <time>2010-04-05T10:41:32Z</time>
      </trkpt>
      <trkpt lat="43.9375" lon="6.97404">
        <ele>797.55</ele>
        <time>2010-04-05T10:41:53Z</time>
      </trkpt>
      <trkpt lat="43.9375" lon="6.97402">
        <ele>797.55</ele>
        <time>2010-04-05T10:48:16Z</time>
      </trkpt>
      <trkpt lat="43.9375" lon="6.97402">
        <ele>797.07</ele>
        <time>2010-04-05T10:49:04Z</time>
      </trkpt>
      <trkpt lat="43.9375" lon="6.97402">
        <ele>797.55</ele>
        <time>2010-04-05T10:49:25Z</time>
      </trkpt>
      <trkpt lat="43.93749" lon="6.97408">
        <ele>799.95</ele>
        <time>2010-04-05T10:49:42Z</time>
      </trkpt>
      <trkpt lat="43.9375" lon="6.97414">
        <ele>801.4</ele>
        <time>2010-04-05T10:49:51Z</time>
      </trkpt>
      <trkpt lat="43.93749" lon="6.97418">
        <ele>802.36</ele>
        <time>2010-04-05T10:50:11Z</time>
      </trkpt>
      <trkpt lat="43.93749" lon="6.97422">
        <ele>802.36</ele>
        <time>2010-04-05T10:50:34Z</time>
      </trkpt>
      <trkpt lat="43.9375" lon="6.97427">
        <ele>801.88</ele>
        <time>2010-04-05T10:50:38Z</time>
      </trkpt>
      <trkpt lat="43.93751" lon="6.97431">
        <ele>802.36</ele>
        <time>2010-04-05T10:50:58Z</time>
      </trkpt>
      <trkpt lat="43.93751" lon="6.97447">
        <ele>802.84</ele>
        <time>2010-04-05T10:51:49Z</time>
      </trkpt>
      <trkpt lat="43.93754" lon="6.97466">
        <ele>802.84</ele>
        <time>2010-04-05T10:52:16Z</time>
      </trkpt>
      <trkpt lat="43.93754" lon="6.97482">
        <ele>803.8</ele>
        <time>2010-04-05T10:52:21Z</time>
      </trkpt>
      <trkpt lat="43.93754" lon="6.97488">
        <ele>803.32</ele>
        <time>2010-04-05T10:52:23Z</time>
      </trkpt>
      <trkpt lat="43.93752" lon="6.97509">
        <ele>806.68</ele>
        <time>2010-04-05T10:52:33Z</time>
      </trkpt>
      <trkpt lat="43.93754" lon="6.97539">
        <ele>808.61</ele>
        <time>2010-04-05T10:52:51Z</time>
      </trkpt>
      <trkpt lat="43.93755" lon="6.9754">
        <ele>808.61</ele>
        <time>2010-04-05T10:52:53Z</time>
      </trkpt>
      <trkpt lat="43.93756" lon="6.97541">
        <ele>809.09</ele>
        <time>2010-04-05T10:52:54Z</time>
      </trkpt>
      <trkpt lat="43.93758" lon="6.97549">
        <ele>810.05</ele>
        <time>2010-04-05T10:53:09Z</time>
      </trkpt>
      <trkpt lat="43.93757" lon="6.97556">
        <ele>812.93</ele>
        <time>2010-04-05T10:53:26Z</time>
      </trkpt>
      <trkpt lat="43.93755" lon="6.97564">
        <ele>814.85</ele>
        <time>2010-04-05T10:53:35Z</time>
      </trkpt>
      <trkpt lat="43.93755" lon="6.97566">
        <ele>815.34</ele>
        <time>2010-04-05T10:53:36Z</time>
      </trkpt>
      <trkpt lat="43.93754" lon="6.97568">
        <ele>815.34</ele>
        <time>2010-04-05T10:53:37Z</time>
      </trkpt>
      <trkpt lat="43.93752" lon="6.97577">
        <ele>818.22</ele>
        <time>2010-04-05T10:53:50Z</time>
      </trkpt>
      <trkpt lat="43.93752" lon="6.97582">
        <ele>818.22</ele>
        <time>2010-04-05T10:53:59Z</time>
      </trkpt>
      <trkpt lat="43.93752" lon="6.97599">
        <ele>818.7</ele>
        <time>2010-04-05T10:54:15Z</time>
      </trkpt>
      <trkpt lat="43.9375" lon="6.97614">
        <ele>820.14</ele>
        <time>2010-04-05T10:54:22Z</time>
      </trkpt>
      <trkpt lat="43.93749" lon="6.97624">
        <ele>821.58</ele>
        <time>2010-04-05T10:54:37Z</time>
      </trkpt>
      <trkpt lat="43.93749" lon="6.97629">
        <ele>822.06</ele>
        <time>2010-04-05T10:54:44Z</time>
      </trkpt>
      <trkpt lat="43.93751" lon="6.97644">
        <ele>824.95</ele>
        <time>2010-04-05T10:55:11Z</time>
      </trkpt>
      <trkpt lat="43.93751" lon="6.97648">
        <ele>825.43</ele>
        <time>2010-04-05T10:55:17Z</time>
      </trkpt>
      <trkpt lat="43.93752" lon="6.9765">
        <ele>825.43</ele>
        <time>2010-04-05T10:55:18Z</time>
      </trkpt>
      <trkpt lat="43.93756" lon="6.97668">
        <ele>825.43</ele>
        <time>2010-04-05T10:55:35Z</time>
      </trkpt>
      <trkpt lat="43.93756" lon="6.97671">
        <ele>825.91</ele>
        <time>2010-04-05T10:55:36Z</time>
      </trkpt>
      <trkpt lat="43.93756" lon="6.97674">
        <ele>825.43</ele>
        <time>2010-04-05T10:55:37Z</time>
      </trkpt>
      <trkpt lat="43.93757" lon="6.97676">
        <ele>825.91</ele>
        <time>2010-04-05T10:55:38Z</time>
      </trkpt>
      <trkpt lat="43.93757" lon="6.97679">
        <ele>825.91</ele>
        <time>2010-04-05T10:55:39Z</time>
      </trkpt>
      <trkpt lat="43.93757" lon="6.97681">
        <ele>826.39</ele>
        <time>2010-04-05T10:55:40Z</time>
      </trkpt>
      <trkpt lat="43.93757" lon="6.97684">
        <ele>826.39</ele>
        <time>2010-04-05T10:55:41Z</time>
      </trkpt>
      <trkpt lat="43.93758" lon="6.97686">
        <ele>826.87</ele>
        <time>2010-04-05T10:55:42Z</time>
      </trkpt>
      <trkpt lat="43.9376" lon="6.977">
        <ele>827.35</ele>
        <time>2010-04-05T10:55:47Z</time>
      </trkpt>
      <trkpt lat="43.9376" lon="6.97702">
        <ele>827.35</ele>
        <time>2010-04-05T10:55:48Z</time>
      </trkpt>
      <trkpt lat="43.93761" lon="6.97704">
        <ele>827.83</ele>
        <time>2010-04-05T10:55:49Z</time>
      </trkpt>
      <trkpt lat="43.93761" lon="6.97706">
        <ele>828.31</ele>
        <time>2010-04-05T10:55:50Z</time>
      </trkpt>
      <trkpt lat="43.93763" lon="6.97735">
        <ele>831.68</ele>
        <time>2010-04-05T10:56:06Z</time>
      </trkpt>
      <trkpt lat="43.93762" lon="6.97737">
        <ele>831.2</ele>
        <time>2010-04-05T10:56:14Z</time>
      </trkpt>
      <trkpt lat="43.93763" lon="6.97742">
        <ele>833.6</ele>
        <time>2010-04-05T10:56:37Z</time>
      </trkpt>
      <trkpt lat="43.93762" lon="6.97754">
        <ele>834.08</ele>
        <time>2010-04-05T10:56:58Z</time>
      </trkpt>
      <trkpt lat="43.93761" lon="6.97759">
        <ele>834.56</ele>
        <time>2010-04-05T10:57:03Z</time>
      </trkpt>
      <trkpt lat="43.93761" lon="6.97761">
        <ele>834.56</ele>
        <time>2010-04-05T10:57:04Z</time>
      </trkpt>
      <trkpt lat="43.9376" lon="6.97763">
        <ele>834.56</ele>
        <time>2010-04-05T10:57:05Z</time>
      </trkpt>
      <trkpt lat="43.9376" lon="6.97766">
        <ele>835.04</ele>
        <time>2010-04-05T10:57:06Z</time>
      </trkpt>
      <trkpt lat="43.9376" lon="6.97768">
        <ele>835.52</ele>
        <time>2010-04-05T10:57:07Z</time>
      </trkpt>
      <trkpt lat="43.9376" lon="6.97773">
        <ele>836</ele>
        <time>2010-04-05T10:57:19Z</time>
      </trkpt>
      <trkpt lat="43.93759" lon="6.97774">
        <ele>836.96</ele>
        <time>2010-04-05T10:57:20Z</time>
      </trkpt>
      <trkpt lat="43.93756" lon="6.97789">
        <ele>839.37</ele>
        <time>2010-04-05T10:57:35Z</time>
      </trkpt>
      <trkpt lat="43.93755" lon="6.97794">
        <ele>840.81</ele>
        <time>2010-04-05T10:57:39Z</time>
      </trkpt>
      <trkpt lat="43.93753" lon="6.97812">
        <ele>844.66</ele>
        <time>2010-04-05T10:57:53Z</time>
      </trkpt>
      <trkpt lat="43.93751" lon="6.97822">
        <ele>845.14</ele>
        <time>2010-04-05T10:57:58Z</time>
      </trkpt>
      <trkpt lat="43.93751" lon="6.97823">
        <ele>845.14</ele>
        <time>2010-04-05T10:57:59Z</time>
      </trkpt>
      <trkpt lat="43.93751" lon="6.97826">
        <ele>845.62</ele>
        <time>2010-04-05T10:58:00Z</time>
      </trkpt>
      <trkpt lat="43.93751" lon="6.97828">
        <ele>845.62</ele>
        <time>2010-04-05T10:58:01Z</time>
      </trkpt>
      <trkpt lat="43.93747" lon="6.97847">
        <ele>848.98</ele>
        <time>2010-04-05T10:58:22Z</time>
      </trkpt>
      <trkpt lat="43.93741" lon="6.97864">
        <ele>852.35</ele>
        <time>2010-04-05T10:58:33Z</time>
      </trkpt>
      <trkpt lat="43.9374" lon="6.97865">
        <ele>852.83</ele>
        <time>2010-04-05T10:58:34Z</time>
      </trkpt>
      <trkpt lat="43.93736" lon="6.97867">
        <ele>855.71</ele>
        <time>2010-04-05T10:58:47Z</time>
      </trkpt>
      <trkpt lat="43.93732" lon="6.97869">
        <ele>859.08</ele>
        <time>2010-04-05T10:59:02Z</time>
      </trkpt>
      <trkpt lat="43.93726" lon="6.97877">
        <ele>861.96</ele>
        <time>2010-04-05T10:59:16Z</time>
      </trkpt>
      <trkpt lat="43.93724" lon="6.97886">
        <ele>863.4</ele>
        <time>2010-04-05T10:59:35Z</time>
      </trkpt>
      <trkpt lat="43.93721" lon="6.97892">
        <ele>864.84</ele>
        <time>2010-04-05T10:59:58Z</time>
      </trkpt>
      <trkpt lat="43.93721" lon="6.97893">
        <ele>864.84</ele>
        <time>2010-04-05T11:00:09Z</time>
      </trkpt>
      <trkpt lat="43.93721" lon="6.97899">
        <ele>864.84</ele>
        <time>2010-04-05T11:00:19Z</time>
      </trkpt>
      <trkpt lat="43.93719" lon="6.97905">
        <ele>866.29</ele>
        <time>2010-04-05T11:00:26Z</time>
      </trkpt>
      <trkpt lat="43.93716" lon="6.97912">
        <ele>867.25</ele>
        <time>2010-04-05T11:00:30Z</time>
      </trkpt>
      <trkpt lat="43.93714" lon="6.9793">
        <ele>869.17</ele>
        <time>2010-04-05T11:00:45Z</time>
      </trkpt>
      <trkpt lat="43.93714" lon="6.97933">
        <ele>869.65</ele>
        <time>2010-04-05T11:00:47Z</time>
      </trkpt>
      <trkpt lat="43.93713" lon="6.97942">
        <ele>871.09</ele>
        <time>2010-04-05T11:00:57Z</time>
      </trkpt>
      <trkpt lat="43.93711" lon="6.97947">
        <ele>871.57</ele>
        <time>2010-04-05T11:01:00Z</time>
      </trkpt>
      <trkpt lat="43.93711" lon="6.9795">
        <ele>871.09</ele>
        <time>2010-04-05T11:01:01Z</time>
      </trkpt>
      <trkpt lat="43.9371" lon="6.97953">
        <ele>872.05</ele>
        <time>2010-04-05T11:01:03Z</time>
      </trkpt>
      <trkpt lat="43.9371" lon="6.97968">
        <ele>875.42</ele>
        <time>2010-04-05T11:01:17Z</time>
      </trkpt>
      <trkpt lat="43.93707" lon="6.97981">
        <ele>878.3</ele>
        <time>2010-04-05T11:01:27Z</time>
      </trkpt>
      <trkpt lat="43.93704" lon="6.97995">
        <ele>881.19</ele>
        <time>2010-04-05T11:01:43Z</time>
      </trkpt>
      <trkpt lat="43.93702" lon="6.9801">
        <ele>883.11</ele>
        <time>2010-04-05T11:02:07Z</time>
      </trkpt>
      <trkpt lat="43.93701" lon="6.98011">
        <ele>884.07</ele>
        <time>2010-04-05T11:02:10Z</time>
      </trkpt>
      <trkpt lat="43.93699" lon="6.98027">
        <ele>885.51</ele>
        <time>2010-04-05T11:02:23Z</time>
      </trkpt>
      <trkpt lat="43.93693" lon="6.98044">
        <ele>888.88</ele>
        <time>2010-04-05T11:02:41Z</time>
      </trkpt>
      <trkpt lat="43.93693" lon="6.98047">
        <ele>890.32</ele>
        <time>2010-04-05T11:02:50Z</time>
      </trkpt>
      <trkpt lat="43.93691" lon="6.9806">
        <ele>891.28</ele>
        <time>2010-04-05T11:03:00Z</time>
      </trkpt>
      <trkpt lat="43.93687" lon="6.98082">
        <ele>894.16</ele>
        <time>2010-04-05T11:03:12Z</time>
      </trkpt>
      <trkpt lat="43.93686" lon="6.98089">
        <ele>894.16</ele>
        <time>2010-04-05T11:03:16Z</time>
      </trkpt>
      <trkpt lat="43.93684" lon="6.98107">
        <ele>896.57</ele>
        <time>2010-04-05T11:03:26Z</time>
      </trkpt>
      <trkpt lat="43.93677" lon="6.98128">
        <ele>900.41</ele>
        <time>2010-04-05T11:03:40Z</time>
      </trkpt>
      <trkpt lat="43.93675" lon="6.98147">
        <ele>903.3</ele>
        <time>2010-04-05T11:03:57Z</time>
      </trkpt>
      <trkpt lat="43.93675" lon="6.98156">
        <ele>904.26</ele>
        <time>2010-04-05T11:04:15Z</time>
      </trkpt>
      <trkpt lat="43.93675" lon="6.98162">
        <ele>905.22</ele>
        <time>2010-04-05T11:04:19Z</time>
      </trkpt>
      <trkpt lat="43.93671" lon="6.98183">
        <ele>908.58</ele>
        <time>2010-04-05T11:04:31Z</time>
      </trkpt>
      <trkpt lat="43.93671" lon="6.98193">
        <ele>910.51</ele>
        <time>2010-04-05T11:04:37Z</time>
      </trkpt>
      <trkpt lat="43.9367" lon="6.98205">
        <ele>912.91</ele>
        <time>2010-04-05T11:04:55Z</time>
      </trkpt>
      <trkpt lat="43.9367" lon="6.98206">
        <ele>913.87</ele>
        <time>2010-04-05T11:05:06Z</time>
      </trkpt>
      <trkpt lat="43.93666" lon="6.98214">
        <ele>915.31</ele>
        <time>2010-04-05T11:05:11Z</time>
      </trkpt>
      <trkpt lat="43.93664" lon="6.98233">
        <ele>918.68</ele>
        <time>2010-04-05T11:05:22Z</time>
      </trkpt>
      <trkpt lat="43.93664" lon="6.98235">
        <ele>918.68</ele>
        <time>2010-04-05T11:05:23Z</time>
      </trkpt>
      <trkpt lat="43.93663" lon="6.98251">
        <ele>922.04</ele>
        <time>2010-04-05T11:05:33Z</time>
      </trkpt>
      <trkpt lat="43.93663" lon="6.9827">
        <ele>925.89</ele>
        <time>2010-04-05T11:05:46Z</time>
      </trkpt>
      <trkpt lat="43.93666" lon="6.98286">
        <ele>929.25</ele>
        <time>2010-04-05T11:05:57Z</time>
      </trkpt>
      <trkpt lat="43.93665" lon="6.98297">
        <ele>931.17</ele>
        <time>2010-04-05T11:06:04Z</time>
      </trkpt>
      <trkpt lat="43.93664" lon="6.98305">
        <ele>932.62</ele>
        <time>2010-04-05T11:06:09Z</time>
      </trkpt>
      <trkpt lat="43.93663" lon="6.98316">
        <ele>934.06</ele>
        <time>2010-04-05T11:06:16Z</time>
      </trkpt>
      <trkpt lat="43.9366" lon="6.98329">
        <ele>935.5</ele>
        <time>2010-04-05T11:06:42Z</time>
      </trkpt>
      <trkpt lat="43.93657" lon="6.98339">
        <ele>937.42</ele>
        <time>2010-04-05T11:10:14Z</time>
      </trkpt>
      <trkpt lat="43.93655" lon="6.98346">
        <ele>938.86</ele>
        <time>2010-04-05T11:10:19Z</time>
      </trkpt>
      <trkpt lat="43.93651" lon="6.98363">
        <ele>942.23</ele>
        <time>2010-04-05T11:10:29Z</time>
      </trkpt>
      <trkpt lat="43.93651" lon="6.98364">
        <ele>942.71</ele>
        <time>2010-04-05T11:10:30Z</time>
      </trkpt>
      <trkpt lat="43.93651" lon="6.98371">
        <ele>945.11</ele>
        <time>2010-04-05T11:10:51Z</time>
      </trkpt>
      <trkpt lat="43.93645" lon="6.98381">
        <ele>947.52</ele>
        <time>2010-04-05T11:11:08Z</time>
      </trkpt>
      <trkpt lat="43.9364" lon="6.9839">
        <ele>950.88</ele>
        <time>2010-04-05T11:11:26Z</time>
      </trkpt>
      <trkpt lat="43.93639" lon="6.98391">
        <ele>952.8</ele>
        <time>2010-04-05T11:11:38Z</time>
      </trkpt>
      <trkpt lat="43.93632" lon="6.98394">
        <ele>954.73</ele>
        <time>2010-04-05T11:11:56Z</time>
      </trkpt>
      <trkpt lat="43.93629" lon="6.98393">
        <ele>954.73</ele>
        <time>2010-04-05T11:12:20Z</time>
      </trkpt>
      <trkpt lat="43.93618" lon="6.984">
        <ele>957.61</ele>
        <time>2010-04-05T11:12:41Z</time>
      </trkpt>
      <trkpt lat="43.93617" lon="6.98401">
        <ele>957.13</ele>
        <time>2010-04-05T11:13:01Z</time>
      </trkpt>
      <trkpt lat="43.93616" lon="6.98401">
        <ele>957.13</ele>
        <time>2010-04-05T11:13:35Z</time>
      </trkpt>
      <trkpt lat="43.93615" lon="6.98402">
        <ele>957.61</ele>
        <time>2010-04-05T11:13:57Z</time>
      </trkpt>
      <trkpt lat="43.93608" lon="6.98399">
        <ele>957.13</ele>
        <time>2010-04-05T11:14:02Z</time>
      </trkpt>
      <trkpt lat="43.93603" lon="6.98398">
        <ele>958.09</ele>
        <time>2010-04-05T11:14:06Z</time>
      </trkpt>
      <trkpt lat="43.93581" lon="6.98395">
        <ele>960.01</ele>
        <time>2010-04-05T11:14:24Z</time>
      </trkpt>
      <trkpt lat="43.9357" lon="6.98396">
        <ele>957.61</ele>
        <time>2010-04-05T11:14:29Z</time>
      </trkpt>
      <trkpt lat="43.93543" lon="6.98399">
        <ele>960.01</ele>
        <time>2010-04-05T11:14:44Z</time>
      </trkpt>
      <trkpt lat="43.9354" lon="6.98398">
        <ele>960.49</ele>
        <time>2010-04-05T11:14:47Z</time>
      </trkpt>
      <trkpt lat="43.93538" lon="6.98398">
        <ele>960.98</ele>
        <time>2010-04-05T11:15:29Z</time>
      </trkpt>
      <trkpt lat="43.93538" lon="6.98398">
        <ele>960.98</ele>
        <time>2010-04-05T11:15:39Z</time>
      </trkpt>
      <trkpt lat="43.93529" lon="6.98407">
        <ele>960.01</ele>
        <time>2010-04-05T11:15:49Z</time>
      </trkpt>
      <trkpt lat="43.93526" lon="6.98412">
        <ele>958.57</ele>
        <time>2010-04-05T11:15:53Z</time>
      </trkpt>
      <trkpt lat="43.93523" lon="6.98412">
        <ele>958.57</ele>
        <time>2010-04-05T11:16:09Z</time>
      </trkpt>
      <trkpt lat="43.93516" lon="6.98417">
        <ele>958.09</ele>
        <time>2010-04-05T11:16:29Z</time>
      </trkpt>
      <trkpt lat="43.93497" lon="6.98434">
        <ele>958.09</ele>
        <time>2010-04-05T11:16:40Z</time>
      </trkpt>
      <trkpt lat="43.9348" lon="6.98466">
        <ele>959.05</ele>
        <time>2010-04-05T11:16:53Z</time>
      </trkpt>
      <trkpt lat="43.93472" lon="6.98485">
        <ele>958.57</ele>
        <time>2010-04-05T11:16:59Z</time>
      </trkpt>
      <trkpt lat="43.93467" lon="6.98501">
        <ele>959.53</ele>
        <time>2010-04-05T11:17:08Z</time>
      </trkpt>
      <trkpt lat="43.93466" lon="6.98507">
        <ele>960.49</ele>
        <time>2010-04-05T11:17:10Z</time>
      </trkpt>
      <trkpt lat="43.93462" lon="6.98519">
        <ele>961.46</ele>
        <time>2010-04-05T11:17:15Z</time>
      </trkpt>
      <trkpt lat="43.93459" lon="6.98535">
        <ele>964.82</ele>
        <time>2010-04-05T11:17:24Z</time>
      </trkpt>
      <trkpt lat="43.93456" lon="6.98543">
        <ele>966.74</ele>
        <time>2010-04-05T11:17:29Z</time>
      </trkpt>
      <trkpt lat="43.93451" lon="6.98557">
        <ele>969.63</ele>
        <time>2010-04-05T11:17:40Z</time>
      </trkpt>
      <trkpt lat="43.9344" lon="6.98559">
        <ele>972.51</ele>
        <time>2010-04-05T11:18:01Z</time>
      </trkpt>
      <trkpt lat="43.93435" lon="6.98557">
        <ele>973.47</ele>
        <time>2010-04-05T11:18:07Z</time>
      </trkpt>
      <trkpt lat="43.93429" lon="6.98567">
        <ele>973.95</ele>
        <time>2010-04-05T11:18:19Z</time>
      </trkpt>
      <trkpt lat="43.93432" lon="6.9857">
        <ele>974.43</ele>
        <time>2010-04-05T11:18:21Z</time>
      </trkpt>
      <trkpt lat="43.9343" lon="6.98571">
        <ele>974.91</ele>
        <time>2010-04-05T11:18:57Z</time>
      </trkpt>
      <trkpt lat="43.93431" lon="6.9857">
        <ele>974.91</ele>
        <time>2010-04-05T11:21:44Z</time>
      </trkpt>
      <trkpt lat="43.93432" lon="6.98582">
        <ele>974.91</ele>
        <time>2010-04-05T11:21:55Z</time>
      </trkpt>
      <trkpt lat="43.93428" lon="6.9859">
        <ele>976.36</ele>
        <time>2010-04-05T11:21:59Z</time>
      </trkpt>
      <trkpt lat="43.93428" lon="6.98594">
        <ele>975.88</ele>
        <time>2010-04-05T11:22:01Z</time>
      </trkpt>
      <trkpt lat="43.93431" lon="6.98601">
        <ele>976.36</ele>
        <time>2010-04-05T11:22:06Z</time>
      </trkpt>
      <trkpt lat="43.93438" lon="6.9861">
        <ele>974.91</ele>
        <time>2010-04-05T11:22:11Z</time>
      </trkpt>
      <trkpt lat="43.93433" lon="6.98623">
        <ele>977.8</ele>
        <time>2010-04-05T11:22:25Z</time>
      </trkpt>
      <trkpt lat="43.93428" lon="6.98629">
        <ele>980.2</ele>
        <time>2010-04-05T11:22:46Z</time>
      </trkpt>
      <trkpt lat="43.93428" lon="6.98629">
        <ele>980.2</ele>
        <time>2010-04-05T11:22:47Z</time>
      </trkpt>
      <trkpt lat="43.93432" lon="6.98635">
        <ele>980.68</ele>
        <time>2010-04-05T11:22:52Z</time>
      </trkpt>
      <trkpt lat="43.93436" lon="6.98645">
        <ele>982.12</ele>
        <time>2010-04-05T11:22:57Z</time>
      </trkpt>
      <trkpt lat="43.93446" lon="6.98683">
        <ele>984.53</ele>
        <time>2010-04-05T11:23:13Z</time>
      </trkpt>
      <trkpt lat="43.93452" lon="6.98692">
        <ele>985.49</ele>
        <time>2010-04-05T11:23:19Z</time>
      </trkpt>
      <trkpt lat="43.93456" lon="6.98715">
        <ele>985.49</ele>
        <time>2010-04-05T11:23:29Z</time>
      </trkpt>
      <trkpt lat="43.93456" lon="6.98721">
        <ele>985.97</ele>
        <time>2010-04-05T11:23:31Z</time>
      </trkpt>
      <trkpt lat="43.93458" lon="6.9873">
        <ele>985.97</ele>
        <time>2010-04-05T11:23:35Z</time>
      </trkpt>
      <trkpt lat="43.93453" lon="6.98757">
        <ele>989.81</ele>
        <time>2010-04-05T11:23:48Z</time>
      </trkpt>
      <trkpt lat="43.93449" lon="6.98775">
        <ele>992.22</ele>
        <time>2010-04-05T11:23:59Z</time>
      </trkpt>
      <trkpt lat="43.9345" lon="6.98777">
        <ele>992.22</ele>
        <time>2010-04-05T11:24:01Z</time>
      </trkpt>
      <trkpt lat="43.93454" lon="6.98786">
        <ele>991.74</ele>
        <time>2010-04-05T11:24:05Z</time>
      </trkpt>
      <trkpt lat="43.93454" lon="6.9879">
        <ele>991.74</ele>
        <time>2010-04-05T11:24:07Z</time>
      </trkpt>
      <trkpt lat="43.93451" lon="6.98803">
        <ele>993.18</ele>
        <time>2010-04-05T11:24:12Z</time>
      </trkpt>
      <trkpt lat="43.93451" lon="6.98829">
        <ele>995.58</ele>
        <time>2010-04-05T11:24:23Z</time>
      </trkpt>
      <trkpt lat="43.93451" lon="6.98831">
        <ele>995.58</ele>
        <time>2010-04-05T11:24:24Z</time>
      </trkpt>
      <trkpt lat="43.93449" lon="6.9884">
        <ele>997.02</ele>
        <time>2010-04-05T11:24:28Z</time>
      </trkpt>
      <trkpt lat="43.93452" lon="6.98852">
        <ele>997.02</ele>
        <time>2010-04-05T11:24:34Z</time>
      </trkpt>
      <trkpt lat="43.93447" lon="6.98878">
        <ele>999.91</ele>
        <time>2010-04-05T11:24:46Z</time>
      </trkpt>
      <trkpt lat="43.93445" lon="6.98891">
        <ele>1001.83</ele>
        <time>2010-04-05T11:24:53Z</time>
      </trkpt>
      <trkpt lat="43.93443" lon="6.98909">
        <ele>1002.79</ele>
        <time>2010-04-05T11:25:01Z</time>
      </trkpt>
      <trkpt lat="43.93436" lon="6.9893">
        <ele>1004.23</ele>
        <time>2010-04-05T11:25:19Z</time>
      </trkpt>
      <trkpt lat="43.93436" lon="6.98932">
        <ele>1005.2</ele>
        <time>2010-04-05T11:25:20Z</time>
      </trkpt>
      <trkpt lat="43.93432" lon="6.98954">
        <ele>1007.6</ele>
        <time>2010-04-05T11:25:31Z</time>
      </trkpt>
      <trkpt lat="43.93432" lon="6.98963">
        <ele>1008.56</ele>
        <time>2010-04-05T11:25:36Z</time>
      </trkpt>
      <trkpt lat="43.93428" lon="6.98972">
        <ele>1010</ele>
        <time>2010-04-05T11:25:41Z</time>
      </trkpt>
      <trkpt lat="43.93426" lon="6.98979">
        <ele>1009.52</ele>
        <time>2010-04-05T11:26:06Z</time>
      </trkpt>
      <trkpt lat="43.93424" lon="6.98984">
        <ele>1009.52</ele>
        <time>2010-04-05T11:30:47Z</time>
      </trkpt>
      <trkpt lat="43.93411" lon="6.98992">
        <ele>1009.52</ele>
        <time>2010-04-05T11:30:55Z</time>
      </trkpt>
      <trkpt lat="43.93401" lon="6.98998">
        <ele>1008.56</ele>
        <time>2010-04-05T11:30:59Z</time>
      </trkpt>
      <trkpt lat="43.93364" lon="6.98991">
        <ele>1009.04</ele>
        <time>2010-04-05T11:31:12Z</time>
      </trkpt>
      <trkpt lat="43.93342" lon="6.98992">
        <ele>1010.48</ele>
        <time>2010-04-05T11:31:21Z</time>
      </trkpt>
      <trkpt lat="43.9333" lon="6.99015">
        <ele>1011.44</ele>
        <time>2010-04-05T11:31:30Z</time>
      </trkpt>
      <trkpt lat="43.93323" lon="6.99026">
        <ele>1011.93</ele>
        <time>2010-04-05T11:31:34Z</time>
      </trkpt>
      <trkpt lat="43.93315" lon="6.99048">
        <ele>1012.89</ele>
        <time>2010-04-05T11:31:42Z</time>
      </trkpt>
      <trkpt lat="43.93286" lon="6.99111">
        <ele>1010.96</ele>
        <time>2010-04-05T11:32:00Z</time>
      </trkpt>
      <trkpt lat="43.9326" lon="6.99138">
        <ele>1013.85</ele>
        <time>2010-04-05T11:32:16Z</time>
      </trkpt>
      <trkpt lat="43.93245" lon="6.99145">
        <ele>1016.25</ele>
        <time>2010-04-05T11:32:27Z</time>
      </trkpt>
      <trkpt lat="43.93233" lon="6.99149">
        <ele>1018.65</ele>
        <time>2010-04-05T11:32:39Z</time>
      </trkpt>
      <trkpt lat="43.93223" lon="6.99156">
        <ele>1019.13</ele>
        <time>2010-04-05T11:32:48Z</time>
      </trkpt>
      <trkpt lat="43.93226" lon="6.99171">
        <ele>1019.62</ele>
        <time>2010-04-05T11:32:56Z</time>
      </trkpt>
      <trkpt lat="43.93225" lon="6.99187">
        <ele>1021.54</ele>
        <time>2010-04-05T11:33:05Z</time>
      </trkpt>
      <trkpt lat="43.93223" lon="6.99194">
        <ele>1022.98</ele>
        <time>2010-04-05T11:33:10Z</time>
      </trkpt>
      <trkpt lat="43.93219" lon="6.99218">
        <ele>1025.86</ele>
        <time>2010-04-05T11:33:24Z</time>
      </trkpt>
      <trkpt lat="43.93214" lon="6.99247">
        <ele>1026.83</ele>
        <time>2010-04-05T11:33:39Z</time>
      </trkpt>
      <trkpt lat="43.93215" lon="6.99259">
        <ele>1026.83</ele>
        <time>2010-04-05T11:33:43Z</time>
      </trkpt>
      <trkpt lat="43.93217" lon="6.99294">
        <ele>1027.79</ele>
        <time>2010-04-05T11:33:55Z</time>
      </trkpt>
      <trkpt lat="43.93219" lon="6.99308">
        <ele>1029.23</ele>
        <time>2010-04-05T11:34:01Z</time>
      </trkpt>
      <trkpt lat="43.93213" lon="6.99342">
        <ele>1030.67</ele>
        <time>2010-04-05T11:34:18Z</time>
      </trkpt>
      <trkpt lat="43.93208" lon="6.99354">
        <ele>1033.07</ele>
        <time>2010-04-05T11:34:24Z</time>
      </trkpt>
      <trkpt lat="43.93206" lon="6.99366">
        <ele>1034.52</ele>
        <time>2010-04-05T11:34:30Z</time>
      </trkpt>
      <trkpt lat="43.93208" lon="6.99374">
        <ele>1035</ele>
        <time>2010-04-05T11:34:34Z</time>
      </trkpt>
      <trkpt lat="43.93209" lon="6.99384">
        <ele>1037.4</ele>
        <time>2010-04-05T11:34:40Z</time>
      </trkpt>
      <trkpt lat="43.93201" lon="6.9941">
        <ele>1038.36</ele>
        <time>2010-04-05T11:35:00Z</time>
      </trkpt>
      <trkpt lat="43.93201" lon="6.99412">
        <ele>1038.36</ele>
        <time>2010-04-05T11:35:20Z</time>
      </trkpt>
      <trkpt lat="43.93195" lon="6.99421">
        <ele>1037.88</ele>
        <time>2010-04-05T11:35:24Z</time>
      </trkpt>
      <trkpt lat="43.9319" lon="6.99431">
        <ele>1036.92</ele>
        <time>2010-04-05T11:35:27Z</time>
      </trkpt>
      <trkpt lat="43.93181" lon="6.99446">
        <ele>1037.88</ele>
        <time>2010-04-05T11:35:34Z</time>
      </trkpt>
      <trkpt lat="43.93164" lon="6.99472">
        <ele>1040.28</ele>
        <time>2010-04-05T11:35:51Z</time>
      </trkpt>
      <trkpt lat="43.93158" lon="6.99479">
        <ele>1041.73</ele>
        <time>2010-04-05T11:35:56Z</time>
      </trkpt>
      <trkpt lat="43.93149" lon="6.99485">
        <ele>1041.25</ele>
        <time>2010-04-05T11:36:02Z</time>
      </trkpt>
      <trkpt lat="43.93137" lon="6.99501">
        <ele>1038.36</ele>
        <time>2010-04-05T11:36:08Z</time>
      </trkpt>
      <trkpt lat="43.93134" lon="6.99504">
        <ele>1037.88</ele>
        <time>2010-04-05T11:36:09Z</time>
      </trkpt>
      <trkpt lat="43.93118" lon="6.99512">
        <ele>1036.92</ele>
        <time>2010-04-05T11:36:13Z</time>
      </trkpt>
      <trkpt lat="43.93107" lon="6.99523">
        <ele>1035</ele>
        <time>2010-04-05T11:36:17Z</time>
      </trkpt>
      <trkpt lat="43.93101" lon="6.99528">
        <ele>1033.55</ele>
        <time>2010-04-05T11:36:19Z</time>
      </trkpt>
      <trkpt lat="43.93087" lon="6.99532">
        <ele>1035</ele>
        <time>2010-04-05T11:36:25Z</time>
      </trkpt>
      <trkpt lat="43.93078" lon="6.99535">
        <ele>1035.48</ele>
        <time>2010-04-05T11:36:31Z</time>
      </trkpt>
      <trkpt lat="43.93046" lon="6.99553">
        <ele>1035</ele>
        <time>2010-04-05T11:36:46Z</time>
      </trkpt>
      <trkpt lat="43.93044" lon="6.99552">
        <ele>1034.52</ele>
        <time>2010-04-05T11:37:03Z</time>
      </trkpt>
      <trkpt lat="43.93037" lon="6.99553">
        <ele>1034.52</ele>
        <time>2010-04-05T11:37:55Z</time>
      </trkpt>
      <trkpt lat="43.93032" lon="6.99557">
        <ele>1032.11</ele>
        <time>2010-04-05T11:37:58Z</time>
      </trkpt>
      <trkpt lat="43.93026" lon="6.99567">
        <ele>1033.55</ele>
        <time>2010-04-05T11:38:06Z</time>
      </trkpt>
      <trkpt lat="43.93018" lon="6.99573">
        <ele>1033.07</ele>
        <time>2010-04-05T11:38:11Z</time>
      </trkpt>
      <trkpt lat="43.92996" lon="6.99602">
        <ele>1034.04</ele>
        <time>2010-04-05T11:38:29Z</time>
      </trkpt>
      <trkpt lat="43.92979" lon="6.99637">
        <ele>1035</ele>
        <time>2010-04-05T11:38:42Z</time>
      </trkpt>
      <trkpt lat="43.92968" lon="6.99668">
        <ele>1035.96</ele>
        <time>2010-04-05T11:38:53Z</time>
      </trkpt>
      <trkpt lat="43.92963" lon="6.99676">
        <ele>1035.96</ele>
        <time>2010-04-05T11:39:07Z</time>
      </trkpt>
      <trkpt lat="43.92961" lon="6.99684">
        <ele>1035.96</ele>
        <time>2010-04-05T11:39:23Z</time>
      </trkpt>
      <trkpt lat="43.92961" lon="6.99685">
        <ele>1036.44</ele>
        <time>2010-04-05T11:39:29Z</time>
      </trkpt>
      <trkpt lat="43.92959" lon="6.99698">
        <ele>1035.96</ele>
        <time>2010-04-05T11:39:33Z</time>
      </trkpt>
      <trkpt lat="43.9294" lon="6.9974">
        <ele>1036.92</ele>
        <time>2010-04-05T11:39:46Z</time>
      </trkpt>
      <trkpt lat="43.92934" lon="6.99746">
        <ele>1037.88</ele>
        <time>2010-04-05T11:39:51Z</time>
      </trkpt>
      <trkpt lat="43.92915" lon="6.99762">
        <ele>1040.76</ele>
        <time>2010-04-05T11:40:04Z</time>
      </trkpt>
      <trkpt lat="43.9289" lon="6.99789">
        <ele>1039.32</ele>
        <time>2010-04-05T11:40:20Z</time>
      </trkpt>
      <trkpt lat="43.92886" lon="6.99791">
        <ele>1037.88</ele>
        <time>2010-04-05T11:40:23Z</time>
      </trkpt>
      <trkpt lat="43.92876" lon="6.99805">
        <ele>1034.04</ele>
        <time>2010-04-05T11:40:28Z</time>
      </trkpt>
      <trkpt lat="43.92867" lon="6.99811">
        <ele>1033.07</ele>
        <time>2010-04-05T11:40:31Z</time>
      </trkpt>
      <trkpt lat="43.92864" lon="6.99814">
        <ele>1031.63</ele>
        <time>2010-04-05T11:40:32Z</time>
      </trkpt>
      <trkpt lat="43.9286" lon="6.99817">
        <ele>1031.15</ele>
        <time>2010-04-05T11:40:33Z</time>
      </trkpt>
      <trkpt lat="43.92836" lon="6.99834">
        <ele>1027.79</ele>
        <time>2010-04-05T11:40:38Z</time>
      </trkpt>
      <trkpt lat="43.92832" lon="6.99837">
        <ele>1026.83</ele>
        <time>2010-04-05T11:40:39Z</time>
      </trkpt>
      <trkpt lat="43.92828" lon="6.99842">
        <ele>1025.86</ele>
        <time>2010-04-05T11:40:40Z</time>
      </trkpt>
      <trkpt lat="43.92823" lon="6.99851">
        <ele>1024.9</ele>
        <time>2010-04-05T11:40:42Z</time>
      </trkpt>
      <trkpt lat="43.92821" lon="6.99853">
        <ele>1024.9</ele>
        <time>2010-04-05T11:40:43Z</time>
      </trkpt>
      <trkpt lat="43.9282" lon="6.99855">
        <ele>1025.38</ele>
        <time>2010-04-05T11:40:44Z</time>
      </trkpt>
      <trkpt lat="43.92819" lon="6.99858">
        <ele>1024.9</ele>
        <time>2010-04-05T11:40:45Z</time>
      </trkpt>
      <trkpt lat="43.92818" lon="6.99861">
        <ele>1024.42</ele>
        <time>2010-04-05T11:40:46Z</time>
      </trkpt>
      <trkpt lat="43.92818" lon="6.99865">
        <ele>1023.94</ele>
        <time>2010-04-05T11:40:47Z</time>
      </trkpt>
      <trkpt lat="43.92816" lon="6.99888">
        <ele>1022.02</ele>
        <time>2010-04-05T11:40:52Z</time>
      </trkpt>
      <trkpt lat="43.92816" lon="6.99895">
        <ele>1021.06</ele>
        <time>2010-04-05T11:41:12Z</time>
      </trkpt>
      <trkpt lat="43.92815" lon="6.99895">
        <ele>1017.69</ele>
        <time>2010-04-05T11:42:05Z</time>
      </trkpt>
      <trkpt lat="43.92815" lon="6.99895">
        <ele>1022.98</ele>
        <time>2010-04-05T11:42:06Z</time>
      </trkpt>
      <trkpt lat="43.92815" lon="6.99895">
        <ele>1019.62</ele>
        <time>2010-04-05T11:42:14Z</time>
      </trkpt>
      <trkpt lat="43.92816" lon="6.99895">
        <ele>1023.46</ele>
        <time>2010-04-05T11:42:57Z</time>
      </trkpt>
      <trkpt lat="43.92815" lon="6.99896">
        <ele>1022.98</ele>
        <time>2010-04-05T11:43:46Z</time>
      </trkpt>
      <trkpt lat="43.92816" lon="6.99896">
        <ele>1022.98</ele>
        <time>2010-04-05T11:44:33Z</time>
      </trkpt>
      <trkpt lat="43.92814" lon="6.99897">
        <ele>1022.98</ele>
        <time>2010-04-05T11:44:38Z</time>
      </trkpt>
      <trkpt lat="43.92813" lon="6.99898">
        <ele>1022.5</ele>
        <time>2010-04-05T11:44:39Z</time>
      </trkpt>
      <trkpt lat="43.92812" lon="6.999">
        <ele>1022.98</ele>
        <time>2010-04-05T11:44:40Z</time>
      </trkpt>
      <trkpt lat="43.9281" lon="6.99901">
        <ele>1022.98</ele>
        <time>2010-04-05T11:44:41Z</time>
      </trkpt>
      <trkpt lat="43.92809" lon="6.99903">
        <ele>1022.98</ele>
        <time>2010-04-05T11:44:42Z</time>
      </trkpt>
      <trkpt lat="43.92808" lon="6.99905">
        <ele>1022.5</ele>
        <time>2010-04-05T11:44:43Z</time>
      </trkpt>
      <trkpt lat="43.92807" lon="6.99907">
        <ele>1022.98</ele>
        <time>2010-04-05T11:44:44Z</time>
      </trkpt>
      <trkpt lat="43.92807" lon="6.99909">
        <ele>1023.46</ele>
        <time>2010-04-05T11:44:45Z</time>
      </trkpt>
      <trkpt lat="43.92808" lon="6.99926">
        <ele>1026.34</ele>
        <time>2010-04-05T11:44:55Z</time>
      </trkpt>
      <trkpt lat="43.92808" lon="6.99928">
        <ele>1026.83</ele>
        <time>2010-04-05T11:44:56Z</time>
      </trkpt>
      <trkpt lat="43.92807" lon="6.99947">
        <ele>1029.71</ele>
        <time>2010-04-05T11:45:08Z</time>
      </trkpt>
      <trkpt lat="43.92806" lon="6.99956">
        <ele>1030.67</ele>
        <time>2010-04-05T11:45:14Z</time>
      </trkpt>
      <trkpt lat="43.92805" lon="6.99959">
        <ele>1031.63</ele>
        <time>2010-04-05T11:45:16Z</time>
      </trkpt>
      <trkpt lat="43.92805" lon="6.99961">
        <ele>1031.63</ele>
        <time>2010-04-05T11:45:17Z</time>
      </trkpt>
      <trkpt lat="43.92805" lon="6.99962">
        <ele>1031.63</ele>
        <time>2010-04-05T11:45:18Z</time>
      </trkpt>
      <trkpt lat="43.92803" lon="6.99982">
        <ele>1034.52</ele>
        <time>2010-04-05T11:45:31Z</time>
      </trkpt>
      <trkpt lat="43.92804" lon="7.00003">
        <ele>1036.92</ele>
        <time>2010-04-05T11:45:45Z</time>
      </trkpt>
      <trkpt lat="43.92804" lon="7.00009">
        <ele>1038.36</ele>
        <time>2010-04-05T11:45:49Z</time>
      </trkpt>
      <trkpt lat="43.92798" lon="7.00025">
        <ele>1041.25</ele>
        <time>2010-04-05T11:46:07Z</time>
      </trkpt>
      <trkpt lat="43.92797" lon="7.00026">
        <ele>1042.21</ele>
        <time>2010-04-05T11:46:18Z</time>
      </trkpt>
      <trkpt lat="43.92796" lon="7.00036">
        <ele>1044.13</ele>
        <time>2010-04-05T11:46:39Z</time>
      </trkpt>
      <trkpt lat="43.92795" lon="7.00048">
        <ele>1047.49</ele>
        <time>2010-04-05T11:46:50Z</time>
      </trkpt>
      <trkpt lat="43.92794" lon="7.00048">
        <ele>1047.01</ele>
        <time>2010-04-05T11:46:51Z</time>
      </trkpt>
      <trkpt lat="43.92798" lon="7.00058">
        <ele>1049.9</ele>
        <time>2010-04-05T11:47:04Z</time>
      </trkpt>
      <trkpt lat="43.92807" lon="7.0007">
        <ele>1053.26</ele>
        <time>2010-04-05T11:47:20Z</time>
      </trkpt>
      <trkpt lat="43.92808" lon="7.00074">
        <ele>1053.74</ele>
        <time>2010-04-05T11:47:26Z</time>
      </trkpt>
      <trkpt lat="43.92813" lon="7.00087">
        <ele>1057.59</ele>
        <time>2010-04-05T11:47:40Z</time>
      </trkpt>
      <trkpt lat="43.92814" lon="7.00091">
        <ele>1058.55</ele>
        <time>2010-04-05T11:47:47Z</time>
      </trkpt>
      <trkpt lat="43.92806" lon="7.00101">
        <ele>1062.39</ele>
        <time>2010-04-05T11:48:02Z</time>
      </trkpt>
      <trkpt lat="43.92804" lon="7.00112">
        <ele>1065.28</ele>
        <time>2010-04-05T11:48:16Z</time>
      </trkpt>
      <trkpt lat="43.92801" lon="7.00123">
        <ele>1068.16</ele>
        <time>2010-04-05T11:48:32Z</time>
      </trkpt>
      <trkpt lat="43.92797" lon="7.00135">
        <ele>1071.05</ele>
        <time>2010-04-05T11:48:51Z</time>
      </trkpt>
      <trkpt lat="43.92794" lon="7.00149">
        <ele>1074.41</ele>
        <time>2010-04-05T11:49:06Z</time>
      </trkpt>
      <trkpt lat="43.9279" lon="7.00158">
        <ele>1076.81</ele>
        <time>2010-04-05T11:49:25Z</time>
      </trkpt>
      <trkpt lat="43.92784" lon="7.00171">
        <ele>1079.7</ele>
        <time>2010-04-05T11:49:40Z</time>
      </trkpt>
      <trkpt lat="43.92784" lon="7.00172">
        <ele>1079.7</ele>
        <time>2010-04-05T11:49:41Z</time>
      </trkpt>
      <trkpt lat="43.92783" lon="7.0019">
        <ele>1083.06</ele>
        <time>2010-04-05T11:49:56Z</time>
      </trkpt>
      <trkpt lat="43.92782" lon="7.00191">
        <ele>1083.06</ele>
        <time>2010-04-05T11:49:57Z</time>
      </trkpt>
      <trkpt lat="43.92776" lon="7.00215">
        <ele>1084.5</ele>
        <time>2010-04-05T11:50:18Z</time>
      </trkpt>
      <trkpt lat="43.92776" lon="7.00215">
        <ele>1084.99</ele>
        <time>2010-04-05T11:50:21Z</time>
      </trkpt>
      <trkpt lat="43.92769" lon="7.00235">
        <ele>1084.02</ele>
        <time>2010-04-05T11:50:32Z</time>
      </trkpt>
      <trkpt lat="43.92767" lon="7.00243">
        <ele>1084.5</ele>
        <time>2010-04-05T11:50:51Z</time>
      </trkpt>
      <trkpt lat="43.92767" lon="7.00245">
        <ele>1083.54</ele>
        <time>2010-04-05T11:52:02Z</time>
      </trkpt>
      <trkpt lat="43.92767" lon="7.00245">
        <ele>1082.58</ele>
        <time>2010-04-05T12:12:13Z</time>
      </trkpt>
      <trkpt lat="43.92767" lon="7.00245">
        <ele>1082.58</ele>
        <time>2010-04-05T12:13:42Z</time>
      </trkpt>
      <trkpt lat="43.92767" lon="7.00244">
        <ele>1082.58</ele>
        <time>2010-04-05T12:16:38Z</time>
      </trkpt>
      <trkpt lat="43.92767" lon="7.00244">
        <ele>1082.1</ele>
        <time>2010-04-05T12:23:42Z</time>
      </trkpt>
      <trkpt lat="43.92767" lon="7.00244">
        <ele>1084.5</ele>
        <time>2010-04-05T12:23:43Z</time>
      </trkpt>
      <trkpt lat="43.92767" lon="7.00244">
        <ele>1084.5</ele>
        <time>2010-04-05T12:23:44Z</time>
      </trkpt>
      <trkpt lat="43.92767" lon="7.00244">
        <ele>1085.47</ele>
        <time>2010-04-05T12:23:46Z</time>
      </trkpt>
      <trkpt lat="43.92768" lon="7.00247">
        <ele>1085.47</ele>
        <time>2010-04-05T12:23:47Z</time>
      </trkpt>
      <trkpt lat="43.92768" lon="7.00247">
        <ele>1082.1</ele>
        <time>2010-04-05T12:24:00Z</time>
      </trkpt>
      <trkpt lat="43.92768" lon="7.00247">
        <ele>1077.78</ele>
        <time>2010-04-05T12:24:09Z</time>
      </trkpt>
      <trkpt lat="43.92768" lon="7.00247">
        <ele>1081.14</ele>
        <time>2010-04-05T12:24:11Z</time>
      </trkpt>
      <trkpt lat="43.92768" lon="7.00248">
        <ele>1079.7</ele>
        <time>2010-04-05T12:24:22Z</time>
      </trkpt>
      <trkpt lat="43.9276" lon="7.00288">
        <ele>1078.74</ele>
        <time>2010-04-05T12:24:37Z</time>
      </trkpt>
      <trkpt lat="43.9276" lon="7.00294">
        <ele>1078.74</ele>
        <time>2010-04-05T12:24:39Z</time>
      </trkpt>
      <trkpt lat="43.92761" lon="7.00309">
        <ele>1080.18</ele>
        <time>2010-04-05T12:24:45Z</time>
      </trkpt>
      <trkpt lat="43.92761" lon="7.00352">
        <ele>1081.62</ele>
        <time>2010-04-05T12:25:05Z</time>
      </trkpt>
      <trkpt lat="43.92761" lon="7.00354">
        <ele>1081.62</ele>
        <time>2010-04-05T12:25:06Z</time>
      </trkpt>
      <trkpt lat="43.92764" lon="7.00379">
        <ele>1081.62</ele>
        <time>2010-04-05T12:25:16Z</time>
      </trkpt>
      <trkpt lat="43.92763" lon="7.00424">
        <ele>1083.54</ele>
        <time>2010-04-05T12:25:35Z</time>
      </trkpt>
      <trkpt lat="43.92757" lon="7.00438">
        <ele>1084.5</ele>
        <time>2010-04-05T12:25:42Z</time>
      </trkpt>
      <trkpt lat="43.92732" lon="7.00466">
        <ele>1085.47</ele>
        <time>2010-04-05T12:26:00Z</time>
      </trkpt>
      <trkpt lat="43.92723" lon="7.00471">
        <ele>1085.95</ele>
        <time>2010-04-05T12:26:06Z</time>
      </trkpt>
      <trkpt lat="43.92692" lon="7.00493">
        <ele>1086.91</ele>
        <time>2010-04-05T12:26:27Z</time>
      </trkpt>
      <trkpt lat="43.92684" lon="7.00547">
        <ele>1088.35</ele>
        <time>2010-04-05T12:26:50Z</time>
      </trkpt>
      <trkpt lat="43.92676" lon="7.00601">
        <ele>1089.79</ele>
        <time>2010-04-05T12:27:09Z</time>
      </trkpt>
      <trkpt lat="43.92666" lon="7.00655">
        <ele>1092.2</ele>
        <time>2010-04-05T12:27:29Z</time>
      </trkpt>
      <trkpt lat="43.92648" lon="7.00703">
        <ele>1094.12</ele>
        <time>2010-04-05T12:27:49Z</time>
      </trkpt>
      <trkpt lat="43.92626" lon="7.00752">
        <ele>1095.08</ele>
        <time>2010-04-05T12:28:09Z</time>
      </trkpt>
      <trkpt lat="43.92605" lon="7.00799">
        <ele>1097.96</ele>
        <time>2010-04-05T12:28:30Z</time>
      </trkpt>
      <trkpt lat="43.92591" lon="7.00848">
        <ele>1098.92</ele>
        <time>2010-04-05T12:28:50Z</time>
      </trkpt>
      <trkpt lat="43.92581" lon="7.00892">
        <ele>1102.77</ele>
        <time>2010-04-05T12:29:07Z</time>
      </trkpt>
      <trkpt lat="43.92566" lon="7.00949">
        <ele>1103.73</ele>
        <time>2010-04-05T12:29:28Z</time>
      </trkpt>
      <trkpt lat="43.92558" lon="7.00976">
        <ele>1103.73</ele>
        <time>2010-04-05T12:29:38Z</time>
      </trkpt>
      <trkpt lat="43.92545" lon="7.01009">
        <ele>1105.17</ele>
        <time>2010-04-05T12:29:54Z</time>
      </trkpt>
      <trkpt lat="43.92545" lon="7.01014">
        <ele>1105.65</ele>
        <time>2010-04-05T12:30:02Z</time>
      </trkpt>
      <trkpt lat="43.92538" lon="7.01026">
        <ele>1105.65</ele>
        <time>2010-04-05T12:30:09Z</time>
      </trkpt>
      <trkpt lat="43.92533" lon="7.01043">
        <ele>1107.58</ele>
        <time>2010-04-05T12:30:17Z</time>
      </trkpt>
      <trkpt lat="43.92529" lon="7.01049">
        <ele>1108.06</ele>
        <time>2010-04-05T12:30:22Z</time>
      </trkpt>
      <trkpt lat="43.92527" lon="7.01058">
        <ele>1108.06</ele>
        <time>2010-04-05T12:30:27Z</time>
      </trkpt>
      <trkpt lat="43.92518" lon="7.01073">
        <ele>1109.98</ele>
        <time>2010-04-05T12:30:45Z</time>
      </trkpt>
      <trkpt lat="43.92515" lon="7.01084">
        <ele>1111.9</ele>
        <time>2010-04-05T12:30:59Z</time>
      </trkpt>
      <trkpt lat="43.92512" lon="7.01092">
        <ele>1113.34</ele>
        <time>2010-04-05T12:31:05Z</time>
      </trkpt>
      <trkpt lat="43.92504" lon="7.01105">
        <ele>1115.27</ele>
        <time>2010-04-05T12:31:17Z</time>
      </trkpt>
      <trkpt lat="43.92503" lon="7.01106">
        <ele>1115.27</ele>
        <time>2010-04-05T12:31:19Z</time>
      </trkpt>
      <trkpt lat="43.92503" lon="7.01108">
        <ele>1115.75</ele>
        <time>2010-04-05T12:31:22Z</time>
      </trkpt>
      <trkpt lat="43.92496" lon="7.01122">
        <ele>1117.67</ele>
        <time>2010-04-05T12:31:30Z</time>
      </trkpt>
      <trkpt lat="43.92493" lon="7.01127">
        <ele>1119.11</ele>
        <time>2010-04-05T12:31:34Z</time>
      </trkpt>
      <trkpt lat="43.92478" lon="7.01147">
        <ele>1122.48</ele>
        <time>2010-04-05T12:31:52Z</time>
      </trkpt>
      <trkpt lat="43.92475" lon="7.01146">
        <ele>1122.48</ele>
        <time>2010-04-05T12:32:08Z</time>
      </trkpt>
      <trkpt lat="43.92472" lon="7.01142">
        <ele>1122.48</ele>
        <time>2010-04-05T12:32:11Z</time>
      </trkpt>
      <trkpt lat="43.92453" lon="7.01122">
        <ele>1122.96</ele>
        <time>2010-04-05T12:32:27Z</time>
      </trkpt>
      <trkpt lat="43.9242" lon="7.0113">
        <ele>1125.36</ele>
        <time>2010-04-05T12:32:45Z</time>
      </trkpt>
      <trkpt lat="43.92406" lon="7.01137">
        <ele>1127.28</ele>
        <time>2010-04-05T12:32:55Z</time>
      </trkpt>
      <trkpt lat="43.92391" lon="7.01145">
        <ele>1128.73</ele>
        <time>2010-04-05T12:33:05Z</time>
      </trkpt>
      <trkpt lat="43.92385" lon="7.01148">
        <ele>1129.21</ele>
        <time>2010-04-05T12:33:10Z</time>
      </trkpt>
      <trkpt lat="43.92359" lon="7.01146">
        <ele>1133.05</ele>
        <time>2010-04-05T12:33:28Z</time>
      </trkpt>
      <trkpt lat="43.9235" lon="7.01145">
        <ele>1133.53</ele>
        <time>2010-04-05T12:33:34Z</time>
      </trkpt>
      <trkpt lat="43.9234" lon="7.01139">
        <ele>1134.97</ele>
        <time>2010-04-05T12:33:42Z</time>
      </trkpt>
      <trkpt lat="43.9232" lon="7.01145">
        <ele>1137.86</ele>
        <time>2010-04-05T12:34:02Z</time>
      </trkpt>
      <trkpt lat="43.92309" lon="7.01163">
        <ele>1140.26</ele>
        <time>2010-04-05T12:34:14Z</time>
      </trkpt>
      <trkpt lat="43.92288" lon="7.01196">
        <ele>1142.66</ele>
        <time>2010-04-05T12:34:35Z</time>
      </trkpt>
      <trkpt lat="43.92278" lon="7.01214">
        <ele>1145.55</ele>
        <time>2010-04-05T12:34:46Z</time>
      </trkpt>
      <trkpt lat="43.92277" lon="7.01215">
        <ele>1146.03</ele>
        <time>2010-04-05T12:34:47Z</time>
      </trkpt>
      <trkpt lat="43.92263" lon="7.01225">
        <ele>1149.39</ele>
        <time>2010-04-05T12:35:00Z</time>
      </trkpt>
      <trkpt lat="43.92246" lon="7.01244">
        <ele>1151.8</ele>
        <time>2010-04-05T12:35:17Z</time>
      </trkpt>
      <trkpt lat="43.92232" lon="7.01261">
        <ele>1155.64</ele>
        <time>2010-04-05T12:35:33Z</time>
      </trkpt>
      <trkpt lat="43.92221" lon="7.01266">
        <ele>1158.53</ele>
        <time>2010-04-05T12:35:43Z</time>
      </trkpt>
      <trkpt lat="43.92216" lon="7.01266">
        <ele>1159.97</ele>
        <time>2010-04-05T12:35:48Z</time>
      </trkpt>
      <trkpt lat="43.9221" lon="7.01267">
        <ele>1161.41</ele>
        <time>2010-04-05T12:36:03Z</time>
      </trkpt>
      <trkpt lat="43.922" lon="7.0127">
        <ele>1164.29</ele>
        <time>2010-04-05T12:36:21Z</time>
      </trkpt>
      <trkpt lat="43.92193" lon="7.01271">
        <ele>1166.7</ele>
        <time>2010-04-05T12:36:44Z</time>
      </trkpt>
      <trkpt lat="43.9219" lon="7.01275">
        <ele>1167.66</ele>
        <time>2010-04-05T12:37:01Z</time>
      </trkpt>
      <trkpt lat="43.92189" lon="7.01274">
        <ele>1167.66</ele>
        <time>2010-04-05T12:37:36Z</time>
      </trkpt>
      <trkpt lat="43.92188" lon="7.01272">
        <ele>1167.66</ele>
        <time>2010-04-05T12:40:41Z</time>
      </trkpt>
      <trkpt lat="43.92177" lon="7.01266">
        <ele>1167.18</ele>
        <time>2010-04-05T12:40:48Z</time>
      </trkpt>
      <trkpt lat="43.92164" lon="7.01277">
        <ele>1166.22</ele>
        <time>2010-04-05T12:40:53Z</time>
      </trkpt>
      <trkpt lat="43.9216" lon="7.01282">
        <ele>1165.26</ele>
        <time>2010-04-05T12:40:54Z</time>
      </trkpt>
      <trkpt lat="43.92158" lon="7.01287">
        <ele>1164.29</ele>
        <time>2010-04-05T12:40:55Z</time>
      </trkpt>
      <trkpt lat="43.92155" lon="7.01293">
        <ele>1163.81</ele>
        <time>2010-04-05T12:40:56Z</time>
      </trkpt>
      <trkpt lat="43.92153" lon="7.01299">
        <ele>1163.33</ele>
        <time>2010-04-05T12:40:57Z</time>
      </trkpt>
      <trkpt lat="43.9215" lon="7.01304">
        <ele>1162.85</ele>
        <time>2010-04-05T12:40:58Z</time>
      </trkpt>
      <trkpt lat="43.92144" lon="7.01323">
        <ele>1161.89</ele>
        <time>2010-04-05T12:41:01Z</time>
      </trkpt>
      <trkpt lat="43.92138" lon="7.01333">
        <ele>1160.93</ele>
        <time>2010-04-05T12:41:03Z</time>
      </trkpt>
      <trkpt lat="43.92129" lon="7.01349">
        <ele>1159.97</ele>
        <time>2010-04-05T12:41:06Z</time>
      </trkpt>
      <trkpt lat="43.92123" lon="7.01362">
        <ele>1158.53</ele>
        <time>2010-04-05T12:41:08Z</time>
      </trkpt>
      <trkpt lat="43.9212" lon="7.01368">
        <ele>1159.01</ele>
        <time>2010-04-05T12:41:09Z</time>
      </trkpt>
      <trkpt lat="43.92118" lon="7.01375">
        <ele>1158.53</ele>
        <time>2010-04-05T12:41:10Z</time>
      </trkpt>
      <trkpt lat="43.92117" lon="7.01382">
        <ele>1158.05</ele>
        <time>2010-04-05T12:41:11Z</time>
      </trkpt>
      <trkpt lat="43.92117" lon="7.01388">
        <ele>1158.05</ele>
        <time>2010-04-05T12:41:12Z</time>
      </trkpt>
      <trkpt lat="43.92117" lon="7.01394">
        <ele>1157.08</ele>
        <time>2010-04-05T12:41:13Z</time>
      </trkpt>
      <trkpt lat="43.92119" lon="7.01405">
        <ele>1156.12</ele>
        <time>2010-04-05T12:41:15Z</time>
      </trkpt>
      <trkpt lat="43.92118" lon="7.01409">
        <ele>1155.64</ele>
        <time>2010-04-05T12:41:16Z</time>
      </trkpt>
      <trkpt lat="43.92117" lon="7.01411">
        <ele>1155.16</ele>
        <time>2010-04-05T12:41:17Z</time>
      </trkpt>
      <trkpt lat="43.92118" lon="7.01411">
        <ele>1155.16</ele>
        <time>2010-04-05T12:41:49Z</time>
      </trkpt>
      <trkpt lat="43.92118" lon="7.01411">
        <ele>1154.68</ele>
        <time>2010-04-05T12:41:59Z</time>
      </trkpt>
      <trkpt lat="43.92118" lon="7.01411">
        <ele>1158.05</ele>
        <time>2010-04-05T12:42:02Z</time>
      </trkpt>
      <trkpt lat="43.92118" lon="7.01411">
        <ele>1153.24</ele>
        <time>2010-04-05T12:42:03Z</time>
      </trkpt>
      <trkpt lat="43.92118" lon="7.01411">
        <ele>1155.16</ele>
        <time>2010-04-05T12:42:04Z</time>
      </trkpt>
      <trkpt lat="43.92118" lon="7.01411">
        <ele>1151.8</ele>
        <time>2010-04-05T12:42:07Z</time>
      </trkpt>
      <trkpt lat="43.92118" lon="7.01411">
        <ele>1156.6</ele>
        <time>2010-04-05T12:42:08Z</time>
      </trkpt>
      <trkpt lat="43.92118" lon="7.0141">
        <ele>1155.16</ele>
        <time>2010-04-05T12:42:12Z</time>
      </trkpt>
      <trkpt lat="43.92116" lon="7.0141">
        <ele>1155.16</ele>
        <time>2010-04-05T12:42:13Z</time>
      </trkpt>
      <trkpt lat="43.92113" lon="7.01411">
        <ele>1154.68</ele>
        <time>2010-04-05T12:42:14Z</time>
      </trkpt>
      <trkpt lat="43.9211" lon="7.01413">
        <ele>1153.72</ele>
        <time>2010-04-05T12:42:15Z</time>
      </trkpt>
      <trkpt lat="43.92106" lon="7.01417">
        <ele>1153.24</ele>
        <time>2010-04-05T12:42:16Z</time>
      </trkpt>
      <trkpt lat="43.92103" lon="7.01422">
        <ele>1152.28</ele>
        <time>2010-04-05T12:42:17Z</time>
      </trkpt>
      <trkpt lat="43.92099" lon="7.01428">
        <ele>1151.32</ele>
        <time>2010-04-05T12:42:18Z</time>
      </trkpt>
      <trkpt lat="43.92095" lon="7.01435">
        <ele>1150.84</ele>
        <time>2010-04-05T12:42:19Z</time>
      </trkpt>
      <trkpt lat="43.92092" lon="7.01438">
        <ele>1150.35</ele>
        <time>2010-04-05T12:42:20Z</time>
      </trkpt>
      <trkpt lat="43.9209" lon="7.0144">
        <ele>1149.39</ele>
        <time>2010-04-05T12:42:21Z</time>
      </trkpt>
      <trkpt lat="43.92088" lon="7.0144">
        <ele>1149.39</ele>
        <time>2010-04-05T12:42:22Z</time>
      </trkpt>
      <trkpt lat="43.92083" lon="7.01439">
        <ele>1148.91</ele>
        <time>2010-04-05T12:42:44Z</time>
      </trkpt>
      <trkpt lat="43.92084" lon="7.01439">
        <ele>1148.91</ele>
        <time>2010-04-05T12:44:01Z</time>
      </trkpt>
      <trkpt lat="43.92084" lon="7.01439">
        <ele>1148.91</ele>
        <time>2010-04-05T12:47:58Z</time>
      </trkpt>
      <trkpt lat="43.92084" lon="7.01441">
        <ele>1149.39</ele>
        <time>2010-04-05T12:47:59Z</time>
      </trkpt>
      <trkpt lat="43.92082" lon="7.01443">
        <ele>1148.91</ele>
        <time>2010-04-05T12:48:00Z</time>
      </trkpt>
      <trkpt lat="43.92082" lon="7.01446">
        <ele>1149.39</ele>
        <time>2010-04-05T12:48:01Z</time>
      </trkpt>
      <trkpt lat="43.92083" lon="7.01448">
        <ele>1148.91</ele>
        <time>2010-04-05T12:48:02Z</time>
      </trkpt>
      <trkpt lat="43.92085" lon="7.01449">
        <ele>1148.91</ele>
        <time>2010-04-05T12:48:03Z</time>
      </trkpt>
      <trkpt lat="43.92087" lon="7.01448">
        <ele>1148.43</ele>
        <time>2010-04-05T12:48:04Z</time>
      </trkpt>
      <trkpt lat="43.92089" lon="7.01445">
        <ele>1148.91</ele>
        <time>2010-04-05T12:48:05Z</time>
      </trkpt>
      <trkpt lat="43.92091" lon="7.01443">
        <ele>1148.43</ele>
        <time>2010-04-05T12:48:06Z</time>
      </trkpt>
      <trkpt lat="43.92093" lon="7.01441">
        <ele>1148.43</ele>
        <time>2010-04-05T12:48:07Z</time>
      </trkpt>
      <trkpt lat="43.92096" lon="7.0144">
        <ele>1148.43</ele>
        <time>2010-04-05T12:48:08Z</time>
      </trkpt>
      <trkpt lat="43.92099" lon="7.01439">
        <ele>1148.43</ele>
        <time>2010-04-05T12:48:09Z</time>
      </trkpt>
      <trkpt lat="43.92102" lon="7.01438">
        <ele>1148.91</ele>
        <time>2010-04-05T12:48:10Z</time>
      </trkpt>
      <trkpt lat="43.92106" lon="7.01438">
        <ele>1148.43</ele>
        <time>2010-04-05T12:48:11Z</time>
      </trkpt>
      <trkpt lat="43.92109" lon="7.01439">
        <ele>1148.43</ele>
        <time>2010-04-05T12:48:12Z</time>
      </trkpt>
      <trkpt lat="43.92113" lon="7.01441">
        <ele>1148.43</ele>
        <time>2010-04-05T12:48:13Z</time>
      </trkpt>
      <trkpt lat="43.92117" lon="7.01442">
        <ele>1148.43</ele>
        <time>2010-04-05T12:48:14Z</time>
      </trkpt>
      <trkpt lat="43.92121" lon="7.01444">
        <ele>1148.43</ele>
        <time>2010-04-05T12:48:15Z</time>
      </trkpt>
      <trkpt lat="43.92149" lon="7.01479">
        <ele>1147.95</ele>
        <time>2010-04-05T12:48:25Z</time>
      </trkpt>
      <trkpt lat="43.9216" lon="7.01513">
        <ele>1147.47</ele>
        <time>2010-04-05T12:48:31Z</time>
      </trkpt>
      <trkpt lat="43.92161" lon="7.01519">
        <ele>1147.95</ele>
        <time>2010-04-05T12:48:32Z</time>
      </trkpt>
      <trkpt lat="43.92161" lon="7.01525">
        <ele>1147.47</ele>
        <time>2010-04-05T12:48:33Z</time>
      </trkpt>
      <trkpt lat="43.9216" lon="7.01537">
        <ele>1146.99</ele>
        <time>2010-04-05T12:48:35Z</time>
      </trkpt>
      <trkpt lat="43.92159" lon="7.01543">
        <ele>1146.99</ele>
        <time>2010-04-05T12:48:36Z</time>
      </trkpt>
      <trkpt lat="43.92146" lon="7.01629">
        <ele>1146.03</ele>
        <time>2010-04-05T12:48:53Z</time>
      </trkpt>
      <trkpt lat="43.9215" lon="7.01679">
        <ele>1142.66</ele>
        <time>2010-04-05T12:49:05Z</time>
      </trkpt>
      <trkpt lat="43.9214" lon="7.01749">
        <ele>1144.11</ele>
        <time>2010-04-05T12:49:25Z</time>
      </trkpt>
      <trkpt lat="43.92139" lon="7.01752">
        <ele>1143.63</ele>
        <time>2010-04-05T12:49:59Z</time>
      </trkpt>
      <trkpt lat="43.92139" lon="7.01755">
        <ele>1143.63</ele>
        <time>2010-04-05T12:50:00Z</time>
      </trkpt>
      <trkpt lat="43.92138" lon="7.01758">
        <ele>1143.63</ele>
        <time>2010-04-05T12:50:01Z</time>
      </trkpt>
      <trkpt lat="43.92122" lon="7.01835">
        <ele>1142.66</ele>
        <time>2010-04-05T12:50:23Z</time>
      </trkpt>
      <trkpt lat="43.92112" lon="7.01913">
        <ele>1142.18</ele>
        <time>2010-04-05T12:50:43Z</time>
      </trkpt>
      <trkpt lat="43.9214" lon="7.01984">
        <ele>1141.7</ele>
        <time>2010-04-05T12:51:02Z</time>
      </trkpt>
      <trkpt lat="43.92139" lon="7.02028">
        <ele>1143.14</ele>
        <time>2010-04-05T12:51:18Z</time>
      </trkpt>
      <trkpt lat="43.92119" lon="7.02074">
        <ele>1146.03</ele>
        <time>2010-04-05T12:51:39Z</time>
      </trkpt>
      <trkpt lat="43.92099" lon="7.02104">
        <ele>1147.95</ele>
        <time>2010-04-05T12:51:58Z</time>
      </trkpt>
      <trkpt lat="43.9209" lon="7.0212">
        <ele>1150.35</ele>
        <time>2010-04-05T12:52:09Z</time>
      </trkpt>
      <trkpt lat="43.9209" lon="7.02122">
        <ele>1150.35</ele>
        <time>2010-04-05T12:52:10Z</time>
      </trkpt>
      <trkpt lat="43.9209" lon="7.02124">
        <ele>1150.35</ele>
        <time>2010-04-05T12:52:11Z</time>
      </trkpt>
      <trkpt lat="43.92091" lon="7.02125">
        <ele>1150.35</ele>
        <time>2010-04-05T12:52:12Z</time>
      </trkpt>
      <trkpt lat="43.92092" lon="7.02127">
        <ele>1150.84</ele>
        <time>2010-04-05T12:52:13Z</time>
      </trkpt>
      <trkpt lat="43.92093" lon="7.02128">
        <ele>1150.35</ele>
        <time>2010-04-05T12:52:14Z</time>
      </trkpt>
      <trkpt lat="43.92095" lon="7.02129">
        <ele>1150.84</ele>
        <time>2010-04-05T12:52:15Z</time>
      </trkpt>
      <trkpt lat="43.92126" lon="7.02151">
        <ele>1154.2</ele>
        <time>2010-04-05T12:52:38Z</time>
      </trkpt>
      <trkpt lat="43.92155" lon="7.02179">
        <ele>1155.64</ele>
        <time>2010-04-05T12:52:59Z</time>
      </trkpt>
      <trkpt lat="43.92173" lon="7.02223">
        <ele>1159.01</ele>
        <time>2010-04-05T12:53:19Z</time>
      </trkpt>
      <trkpt lat="43.92168" lon="7.02271">
        <ele>1161.41</ele>
        <time>2010-04-05T12:53:39Z</time>
      </trkpt>
      <trkpt lat="43.92169" lon="7.02314">
        <ele>1163.81</ele>
        <time>2010-04-05T12:53:58Z</time>
      </trkpt>
      <trkpt lat="43.92197" lon="7.02359">
        <ele>1166.7</ele>
        <time>2010-04-05T12:54:22Z</time>
      </trkpt>
      <trkpt lat="43.92222" lon="7.02378">
        <ele>1169.58</ele>
        <time>2010-04-05T12:54:39Z</time>
      </trkpt>
      <trkpt lat="43.92244" lon="7.02416">
        <ele>1171.98</ele>
        <time>2010-04-05T12:54:59Z</time>
      </trkpt>
      <trkpt lat="43.92251" lon="7.02461">
        <ele>1173.43</ele>
        <time>2010-04-05T12:55:17Z</time>
      </trkpt>
      <trkpt lat="43.92251" lon="7.02472">
        <ele>1173.91</ele>
        <time>2010-04-05T12:55:21Z</time>
      </trkpt>
      <trkpt lat="43.92253" lon="7.02474">
        <ele>1174.39</ele>
        <time>2010-04-05T12:55:22Z</time>
      </trkpt>
      <trkpt lat="43.92254" lon="7.02474">
        <ele>1174.39</ele>
        <time>2010-04-05T12:55:23Z</time>
      </trkpt>
      <trkpt lat="43.92255" lon="7.02472">
        <ele>1174.39</ele>
        <time>2010-04-05T12:55:24Z</time>
      </trkpt>
      <trkpt lat="43.92256" lon="7.0247">
        <ele>1174.87</ele>
        <time>2010-04-05T12:55:25Z</time>
      </trkpt>
      <trkpt lat="43.92257" lon="7.02467">
        <ele>1175.35</ele>
        <time>2010-04-05T12:55:26Z</time>
      </trkpt>
      <trkpt lat="43.92257" lon="7.02465">
        <ele>1174.87</ele>
        <time>2010-04-05T12:55:27Z</time>
      </trkpt>
      <trkpt lat="43.92258" lon="7.02462">
        <ele>1175.35</ele>
        <time>2010-04-05T12:55:28Z</time>
      </trkpt>
      <trkpt lat="43.92258" lon="7.0246">
        <ele>1175.83</ele>
        <time>2010-04-05T12:55:29Z</time>
      </trkpt>
      <trkpt lat="43.92259" lon="7.02457">
        <ele>1175.35</ele>
        <time>2010-04-05T12:55:30Z</time>
      </trkpt>
      <trkpt lat="43.92259" lon="7.02455">
        <ele>1175.35</ele>
        <time>2010-04-05T12:55:31Z</time>
      </trkpt>
      <trkpt lat="43.92264" lon="7.02439">
        <ele>1176.79</ele>
        <time>2010-04-05T12:55:37Z</time>
      </trkpt>
      <trkpt lat="43.92257" lon="7.02399">
        <ele>1179.67</ele>
        <time>2010-04-05T12:55:54Z</time>
      </trkpt>
      <trkpt lat="43.92241" lon="7.0236">
        <ele>1182.56</ele>
        <time>2010-04-05T12:56:12Z</time>
      </trkpt>
      <trkpt lat="43.92232" lon="7.02302">
        <ele>1185.44</ele>
        <time>2010-04-05T12:56:33Z</time>
      </trkpt>
      <trkpt lat="43.92233" lon="7.0225">
        <ele>1187.85</ele>
        <time>2010-04-05T12:56:53Z</time>
      </trkpt>
      <trkpt lat="43.92231" lon="7.022">
        <ele>1190.25</ele>
        <time>2010-04-05T12:57:11Z</time>
      </trkpt>
      <trkpt lat="43.92232" lon="7.02199">
        <ele>1190.25</ele>
        <time>2010-04-05T12:57:12Z</time>
      </trkpt>
      <trkpt lat="43.92234" lon="7.02198">
        <ele>1190.73</ele>
        <time>2010-04-05T12:57:13Z</time>
      </trkpt>
      <trkpt lat="43.92235" lon="7.02199">
        <ele>1190.73</ele>
        <time>2010-04-05T12:57:14Z</time>
      </trkpt>
      <trkpt lat="43.92237" lon="7.02201">
        <ele>1190.73</ele>
        <time>2010-04-05T12:57:15Z</time>
      </trkpt>
      <trkpt lat="43.92237" lon="7.02204">
        <ele>1190.73</ele>
        <time>2010-04-05T12:57:16Z</time>
      </trkpt>
      <trkpt lat="43.92238" lon="7.02207">
        <ele>1190.73</ele>
        <time>2010-04-05T12:57:17Z</time>
      </trkpt>
      <trkpt lat="43.92238" lon="7.0221">
        <ele>1190.73</ele>
        <time>2010-04-05T12:57:18Z</time>
      </trkpt>
      <trkpt lat="43.92238" lon="7.02213">
        <ele>1190.73</ele>
        <time>2010-04-05T12:57:19Z</time>
      </trkpt>
      <trkpt lat="43.92238" lon="7.02216">
        <ele>1190.73</ele>
        <time>2010-04-05T12:57:20Z</time>
      </trkpt>
      <trkpt lat="43.92238" lon="7.02219">
        <ele>1190.73</ele>
        <time>2010-04-05T12:57:21Z</time>
      </trkpt>
      <trkpt lat="43.92245" lon="7.02297">
        <ele>1192.17</ele>
        <time>2010-04-05T12:57:45Z</time>
      </trkpt>
      <trkpt lat="43.92272" lon="7.02358">
        <ele>1193.61</ele>
        <time>2010-04-05T12:58:06Z</time>
      </trkpt>
      <trkpt lat="43.92311" lon="7.02413">
        <ele>1194.58</ele>
        <time>2010-04-05T12:58:28Z</time>
      </trkpt>
      <trkpt lat="43.92325" lon="7.02486">
        <ele>1194.58</ele>
        <time>2010-04-05T12:58:50Z</time>
      </trkpt>
      <trkpt lat="43.92313" lon="7.02549">
        <ele>1195.54</ele>
        <time>2010-04-05T12:59:09Z</time>
      </trkpt>
      <trkpt lat="43.92298" lon="7.02582">
        <ele>1196.98</ele>
        <time>2010-04-05T12:59:28Z</time>
      </trkpt>
      <trkpt lat="43.92298" lon="7.02581">
        <ele>1196.98</ele>
        <time>2010-04-05T13:00:21Z</time>
      </trkpt>
      <trkpt lat="43.92292" lon="7.02596">
        <ele>1198.9</ele>
        <time>2010-04-05T13:01:47Z</time>
      </trkpt>
      <trkpt lat="43.92286" lon="7.02619">
        <ele>1200.34</ele>
        <time>2010-04-05T13:02:07Z</time>
      </trkpt>
      <trkpt lat="43.92284" lon="7.02625">
        <ele>1201.3</ele>
        <time>2010-04-05T13:02:48Z</time>
      </trkpt>
      <trkpt lat="43.92284" lon="7.02627">
        <ele>1201.3</ele>
        <time>2010-04-05T13:02:49Z</time>
      </trkpt>
      <trkpt lat="43.92284" lon="7.02629">
        <ele>1200.82</ele>
        <time>2010-04-05T13:02:50Z</time>
      </trkpt>
      <trkpt lat="43.92277" lon="7.02665">
        <ele>1204.19</ele>
        <time>2010-04-05T13:03:08Z</time>
      </trkpt>
      <trkpt lat="43.92276" lon="7.02667">
        <ele>1204.19</ele>
        <time>2010-04-05T13:03:09Z</time>
      </trkpt>
      <trkpt lat="43.92275" lon="7.02687">
        <ele>1206.11</ele>
        <time>2010-04-05T13:03:19Z</time>
      </trkpt>
      <trkpt lat="43.92275" lon="7.02688">
        <ele>1206.59</ele>
        <time>2010-04-05T13:03:20Z</time>
      </trkpt>
      <trkpt lat="43.92275" lon="7.02691">
        <ele>1206.11</ele>
        <time>2010-04-05T13:03:22Z</time>
      </trkpt>
      <trkpt lat="43.92271" lon="7.02711">
        <ele>1208.03</ele>
        <time>2010-04-05T13:03:34Z</time>
      </trkpt>
      <trkpt lat="43.92271" lon="7.02713">
        <ele>1208.03</ele>
        <time>2010-04-05T13:03:35Z</time>
      </trkpt>
      <trkpt lat="43.9227" lon="7.02714">
        <ele>1208.51</ele>
        <time>2010-04-05T13:03:36Z</time>
      </trkpt>
      <trkpt lat="43.92269" lon="7.02717">
        <ele>1209</ele>
        <time>2010-04-05T13:03:38Z</time>
      </trkpt>
      <trkpt lat="43.92269" lon="7.02718">
        <ele>1209</ele>
        <time>2010-04-05T13:03:39Z</time>
      </trkpt>
      <trkpt lat="43.92268" lon="7.0272">
        <ele>1209</ele>
        <time>2010-04-05T13:03:40Z</time>
      </trkpt>
      <trkpt lat="43.92267" lon="7.02729">
        <ele>1209.96</ele>
        <time>2010-04-05T13:03:46Z</time>
      </trkpt>
      <trkpt lat="43.92266" lon="7.0273">
        <ele>1209.96</ele>
        <time>2010-04-05T13:03:47Z</time>
      </trkpt>
      <trkpt lat="43.92265" lon="7.02751">
        <ele>1211.4</ele>
        <time>2010-04-05T13:03:57Z</time>
      </trkpt>
      <trkpt lat="43.92265" lon="7.02753">
        <ele>1211.4</ele>
        <time>2010-04-05T13:03:58Z</time>
      </trkpt>
      <trkpt lat="43.92267" lon="7.02768">
        <ele>1212.84</ele>
        <time>2010-04-05T13:04:06Z</time>
      </trkpt>
      <trkpt lat="43.92268" lon="7.0277">
        <ele>1213.32</ele>
        <time>2010-04-05T13:04:07Z</time>
      </trkpt>
      <trkpt lat="43.9227" lon="7.02779">
        <ele>1213.8</ele>
        <time>2010-04-05T13:04:13Z</time>
      </trkpt>
      <trkpt lat="43.92271" lon="7.02781">
        <ele>1213.32</ele>
        <time>2010-04-05T13:04:14Z</time>
      </trkpt>
      <trkpt lat="43.92272" lon="7.02783">
        <ele>1213.8</ele>
        <time>2010-04-05T13:04:15Z</time>
      </trkpt>
      <trkpt lat="43.92273" lon="7.02784">
        <ele>1213.8</ele>
        <time>2010-04-05T13:04:16Z</time>
      </trkpt>
      <trkpt lat="43.92273" lon="7.02786">
        <ele>1213.8</ele>
        <time>2010-04-05T13:04:17Z</time>
      </trkpt>
      <trkpt lat="43.92274" lon="7.02787">
        <ele>1213.8</ele>
        <time>2010-04-05T13:04:18Z</time>
      </trkpt>
      <trkpt lat="43.9228" lon="7.02807">
        <ele>1215.72</ele>
        <time>2010-04-05T13:04:30Z</time>
      </trkpt>
      <trkpt lat="43.92279" lon="7.02808">
        <ele>1215.24</ele>
        <time>2010-04-05T13:04:31Z</time>
      </trkpt>
      <trkpt lat="43.92277" lon="7.02808">
        <ele>1216.21</ele>
        <time>2010-04-05T13:04:33Z</time>
      </trkpt>
      <trkpt lat="43.92276" lon="7.02807">
        <ele>1216.69</ele>
        <time>2010-04-05T13:04:34Z</time>
      </trkpt>
      <trkpt lat="43.92268" lon="7.02796">
        <ele>1216.69</ele>
        <time>2010-04-05T13:04:43Z</time>
      </trkpt>
      <trkpt lat="43.92267" lon="7.02796">
        <ele>1217.17</ele>
        <time>2010-04-05T13:04:44Z</time>
      </trkpt>
      <trkpt lat="43.92267" lon="7.02795">
        <ele>1217.65</ele>
        <time>2010-04-05T13:04:45Z</time>
      </trkpt>
      <trkpt lat="43.92262" lon="7.02789">
        <ele>1218.13</ele>
        <time>2010-04-05T13:04:50Z</time>
      </trkpt>
      <trkpt lat="43.92261" lon="7.02788">
        <ele>1218.61</ele>
        <time>2010-04-05T13:04:51Z</time>
      </trkpt>
      <trkpt lat="43.92245" lon="7.02771">
        <ele>1221.49</ele>
        <time>2010-04-05T13:05:09Z</time>
      </trkpt>
      <trkpt lat="43.92236" lon="7.02762">
        <ele>1222.93</ele>
        <time>2010-04-05T13:05:18Z</time>
      </trkpt>
      <trkpt lat="43.92235" lon="7.0276">
        <ele>1222.45</ele>
        <time>2010-04-05T13:05:19Z</time>
      </trkpt>
      <trkpt lat="43.92225" lon="7.0275">
        <ele>1223.9</ele>
        <time>2010-04-05T13:05:28Z</time>
      </trkpt>
      <trkpt lat="43.92222" lon="7.02752">
        <ele>1224.38</ele>
        <time>2010-04-05T13:05:34Z</time>
      </trkpt>
      <trkpt lat="43.92222" lon="7.02753">
        <ele>1224.38</ele>
        <time>2010-04-05T13:05:35Z</time>
      </trkpt>
      <trkpt lat="43.92223" lon="7.02754">
        <ele>1224.38</ele>
        <time>2010-04-05T13:05:36Z</time>
      </trkpt>
      <trkpt lat="43.92224" lon="7.02755">
        <ele>1224.86</ele>
        <time>2010-04-05T13:05:37Z</time>
      </trkpt>
      <trkpt lat="43.92224" lon="7.02756">
        <ele>1224.38</ele>
        <time>2010-04-05T13:05:38Z</time>
      </trkpt>
      <trkpt lat="43.92225" lon="7.02758">
        <ele>1224.86</ele>
        <time>2010-04-05T13:05:39Z</time>
      </trkpt>
      <trkpt lat="43.92225" lon="7.02759">
        <ele>1225.34</ele>
        <time>2010-04-05T13:05:40Z</time>
      </trkpt>
      <trkpt lat="43.92226" lon="7.0276">
        <ele>1225.34</ele>
        <time>2010-04-05T13:05:41Z</time>
      </trkpt>
      <trkpt lat="43.92226" lon="7.02761">
        <ele>1225.34</ele>
        <time>2010-04-05T13:05:42Z</time>
      </trkpt>
      <trkpt lat="43.92227" lon="7.02763">
        <ele>1225.34</ele>
        <time>2010-04-05T13:05:43Z</time>
      </trkpt>
      <trkpt lat="43.92228" lon="7.02764">
        <ele>1225.34</ele>
        <time>2010-04-05T13:05:44Z</time>
      </trkpt>
      <trkpt lat="43.92228" lon="7.02766">
        <ele>1225.34</ele>
        <time>2010-04-05T13:05:45Z</time>
      </trkpt>
      <trkpt lat="43.92229" lon="7.02767">
        <ele>1225.82</ele>
        <time>2010-04-05T13:05:46Z</time>
      </trkpt>
      <trkpt lat="43.92229" lon="7.02769">
        <ele>1226.3</ele>
        <time>2010-04-05T13:05:47Z</time>
      </trkpt>
      <trkpt lat="43.92229" lon="7.02771">
        <ele>1226.3</ele>
        <time>2010-04-05T13:05:48Z</time>
      </trkpt>
      <trkpt lat="43.92236" lon="7.02808">
        <ele>1229.18</ele>
        <time>2010-04-05T13:06:08Z</time>
      </trkpt>
      <trkpt lat="43.92236" lon="7.02809">
        <ele>1229.18</ele>
        <time>2010-04-05T13:06:09Z</time>
      </trkpt>
      <trkpt lat="43.92236" lon="7.02811">
        <ele>1229.66</ele>
        <time>2010-04-05T13:06:10Z</time>
      </trkpt>
      <trkpt lat="43.92241" lon="7.02831">
        <ele>1231.59</ele>
        <time>2010-04-05T13:06:23Z</time>
      </trkpt>
      <trkpt lat="43.92242" lon="7.02832">
        <ele>1231.59</ele>
        <time>2010-04-05T13:06:24Z</time>
      </trkpt>
      <trkpt lat="43.9225" lon="7.02845">
        <ele>1234.47</ele>
        <time>2010-04-05T13:06:35Z</time>
      </trkpt>
      <trkpt lat="43.92259" lon="7.02866">
        <ele>1235.91</ele>
        <time>2010-04-05T13:06:49Z</time>
      </trkpt>
      <trkpt lat="43.9226" lon="7.02867">
        <ele>1236.39</ele>
        <time>2010-04-05T13:06:50Z</time>
      </trkpt>
      <trkpt lat="43.9226" lon="7.02868">
        <ele>1236.87</ele>
        <time>2010-04-05T13:06:51Z</time>
      </trkpt>
      <trkpt lat="43.92261" lon="7.0287">
        <ele>1236.87</ele>
        <time>2010-04-05T13:06:52Z</time>
      </trkpt>
      <trkpt lat="43.92261" lon="7.02872">
        <ele>1236.87</ele>
        <time>2010-04-05T13:06:53Z</time>
      </trkpt>
      <trkpt lat="43.92262" lon="7.02877">
        <ele>1237.35</ele>
        <time>2010-04-05T13:06:57Z</time>
      </trkpt>
      <trkpt lat="43.92263" lon="7.02879">
        <ele>1237.35</ele>
        <time>2010-04-05T13:06:58Z</time>
      </trkpt>
      <trkpt lat="43.92267" lon="7.02897">
        <ele>1239.28</ele>
        <time>2010-04-05T13:07:08Z</time>
      </trkpt>
      <trkpt lat="43.92268" lon="7.029">
        <ele>1239.28</ele>
        <time>2010-04-05T13:07:10Z</time>
      </trkpt>
      <trkpt lat="43.92276" lon="7.02931">
        <ele>1242.64</ele>
        <time>2010-04-05T13:07:30Z</time>
      </trkpt>
      <trkpt lat="43.92285" lon="7.02955">
        <ele>1246.01</ele>
        <time>2010-04-05T13:07:47Z</time>
      </trkpt>
      <trkpt lat="43.92301" lon="7.02978">
        <ele>1248.41</ele>
        <time>2010-04-05T13:08:05Z</time>
      </trkpt>
      <trkpt lat="43.92316" lon="7.02996">
        <ele>1251.29</ele>
        <time>2010-04-05T13:08:20Z</time>
      </trkpt>
      <trkpt lat="43.9233" lon="7.03018">
        <ele>1254.66</ele>
        <time>2010-04-05T13:08:38Z</time>
      </trkpt>
      <trkpt lat="43.92335" lon="7.03027">
        <ele>1255.62</ele>
        <time>2010-04-05T13:08:45Z</time>
      </trkpt>
      <trkpt lat="43.92336" lon="7.03028">
        <ele>1255.62</ele>
        <time>2010-04-05T13:08:46Z</time>
      </trkpt>
      <trkpt lat="43.92345" lon="7.0304">
        <ele>1258.02</ele>
        <time>2010-04-05T13:08:59Z</time>
      </trkpt>
      <trkpt lat="43.92351" lon="7.03047">
        <ele>1258.98</ele>
        <time>2010-04-05T13:09:05Z</time>
      </trkpt>
      <trkpt lat="43.92352" lon="7.03048">
        <ele>1258.98</ele>
        <time>2010-04-05T13:09:06Z</time>
      </trkpt>
      <trkpt lat="43.92352" lon="7.03049">
        <ele>1258.98</ele>
        <time>2010-04-05T13:09:07Z</time>
      </trkpt>
      <trkpt lat="43.92353" lon="7.0305">
        <ele>1259.46</ele>
        <time>2010-04-05T13:09:08Z</time>
      </trkpt>
      <trkpt lat="43.92356" lon="7.03055">
        <ele>1259.94</ele>
        <time>2010-04-05T13:09:12Z</time>
      </trkpt>
      <trkpt lat="43.92366" lon="7.03069">
        <ele>1261.87</ele>
        <time>2010-04-05T13:09:24Z</time>
      </trkpt>
      <trkpt lat="43.92367" lon="7.0307">
        <ele>1261.87</ele>
        <time>2010-04-05T13:09:25Z</time>
      </trkpt>
      <trkpt lat="43.92368" lon="7.03071">
        <ele>1261.87</ele>
        <time>2010-04-05T13:09:26Z</time>
      </trkpt>
      <trkpt lat="43.92369" lon="7.03073">
        <ele>1261.87</ele>
        <time>2010-04-05T13:09:27Z</time>
      </trkpt>
      <trkpt lat="43.9237" lon="7.03074">
        <ele>1261.39</ele>
        <time>2010-04-05T13:09:28Z</time>
      </trkpt>
      <trkpt lat="43.92378" lon="7.03089">
        <ele>1263.31</ele>
        <time>2010-04-05T13:09:38Z</time>
      </trkpt>
      <trkpt lat="43.92385" lon="7.03098">
        <ele>1264.75</ele>
        <time>2010-04-05T13:09:45Z</time>
      </trkpt>
      <trkpt lat="43.92386" lon="7.03099">
        <ele>1264.75</ele>
        <time>2010-04-05T13:09:46Z</time>
      </trkpt>
      <trkpt lat="43.92391" lon="7.0311">
        <ele>1266.19</ele>
        <time>2010-04-05T13:09:54Z</time>
      </trkpt>
      <trkpt lat="43.92392" lon="7.03111">
        <ele>1266.19</ele>
        <time>2010-04-05T13:09:55Z</time>
      </trkpt>
      <trkpt lat="43.92393" lon="7.03113">
        <ele>1266.67</ele>
        <time>2010-04-05T13:09:56Z</time>
      </trkpt>
      <trkpt lat="43.92404" lon="7.03133">
        <ele>1270.04</ele>
        <time>2010-04-05T13:10:10Z</time>
      </trkpt>
      <trkpt lat="43.92407" lon="7.03144">
        <ele>1271.48</ele>
        <time>2010-04-05T13:10:19Z</time>
      </trkpt>
      <trkpt lat="43.92409" lon="7.03162">
        <ele>1271.96</ele>
        <time>2010-04-05T13:10:30Z</time>
      </trkpt>
      <trkpt lat="43.92409" lon="7.03164">
        <ele>1272.44</ele>
        <time>2010-04-05T13:10:31Z</time>
      </trkpt>
      <trkpt lat="43.92409" lon="7.03178">
        <ele>1273.4</ele>
        <time>2010-04-05T13:10:39Z</time>
      </trkpt>
      <trkpt lat="43.92409" lon="7.0318">
        <ele>1273.4</ele>
        <time>2010-04-05T13:10:40Z</time>
      </trkpt>
      <trkpt lat="43.92408" lon="7.03191">
        <ele>1274.36</ele>
        <time>2010-04-05T13:10:48Z</time>
      </trkpt>
      <trkpt lat="43.92409" lon="7.03193">
        <ele>1274.36</ele>
        <time>2010-04-05T13:10:49Z</time>
      </trkpt>
      <trkpt lat="43.9241" lon="7.03195">
        <ele>1274.36</ele>
        <time>2010-04-05T13:10:50Z</time>
      </trkpt>
      <trkpt lat="43.9241" lon="7.03197">
        <ele>1274.85</ele>
        <time>2010-04-05T13:10:51Z</time>
      </trkpt>
      <trkpt lat="43.92414" lon="7.03214">
        <ele>1276.77</ele>
        <time>2010-04-05T13:11:01Z</time>
      </trkpt>
      <trkpt lat="43.92414" lon="7.03215">
        <ele>1276.77</ele>
        <time>2010-04-05T13:11:02Z</time>
      </trkpt>
      <trkpt lat="43.92415" lon="7.0322">
        <ele>1277.25</ele>
        <time>2010-04-05T13:11:05Z</time>
      </trkpt>
      <trkpt lat="43.92415" lon="7.03221">
        <ele>1277.73</ele>
        <time>2010-04-05T13:11:06Z</time>
      </trkpt>
      <trkpt lat="43.9242" lon="7.03232">
        <ele>1279.17</ele>
        <time>2010-04-05T13:11:13Z</time>
      </trkpt>
      <trkpt lat="43.92422" lon="7.03233">
        <ele>1279.65</ele>
        <time>2010-04-05T13:11:14Z</time>
      </trkpt>
      <trkpt lat="43.92434" lon="7.03255">
        <ele>1282.06</ele>
        <time>2010-04-05T13:11:30Z</time>
      </trkpt>
      <trkpt lat="43.92434" lon="7.03257">
        <ele>1282.54</ele>
        <time>2010-04-05T13:11:31Z</time>
      </trkpt>
      <trkpt lat="43.92439" lon="7.03276">
        <ele>1283.5</ele>
        <time>2010-04-05T13:11:42Z</time>
      </trkpt>
      <trkpt lat="43.92439" lon="7.03278">
        <ele>1283.98</ele>
        <time>2010-04-05T13:11:43Z</time>
      </trkpt>
      <trkpt lat="43.92439" lon="7.0328">
        <ele>1283.98</ele>
        <time>2010-04-05T13:11:44Z</time>
      </trkpt>
      <trkpt lat="43.92439" lon="7.03282">
        <ele>1283.98</ele>
        <time>2010-04-05T13:11:45Z</time>
      </trkpt>
      <trkpt lat="43.92439" lon="7.03284">
        <ele>1283.5</ele>
        <time>2010-04-05T13:11:46Z</time>
      </trkpt>
      <trkpt lat="43.9243" lon="7.03339">
        <ele>1282.06</ele>
        <time>2010-04-05T13:12:04Z</time>
      </trkpt>
      <trkpt lat="43.92437" lon="7.03394">
        <ele>1283.02</ele>
        <time>2010-04-05T13:12:22Z</time>
      </trkpt>
      <trkpt lat="43.92457" lon="7.03441">
        <ele>1283.98</ele>
        <time>2010-04-05T13:12:43Z</time>
      </trkpt>
      <trkpt lat="43.92457" lon="7.03477">
        <ele>1286.86</ele>
        <time>2010-04-05T13:13:00Z</time>
      </trkpt>
      <trkpt lat="43.92446" lon="7.03513">
        <ele>1289.27</ele>
        <time>2010-04-05T13:13:19Z</time>
      </trkpt>
      <trkpt lat="43.92441" lon="7.03521">
        <ele>1290.23</ele>
        <time>2010-04-05T13:13:25Z</time>
      </trkpt>
      <trkpt lat="43.9244" lon="7.03522">
        <ele>1290.71</ele>
        <time>2010-04-05T13:13:26Z</time>
      </trkpt>
      <trkpt lat="43.92435" lon="7.03528">
        <ele>1291.19</ele>
        <time>2010-04-05T13:13:31Z</time>
      </trkpt>
      <trkpt lat="43.92434" lon="7.03529">
        <ele>1291.19</ele>
        <time>2010-04-05T13:13:32Z</time>
      </trkpt>
      <trkpt lat="43.92422" lon="7.03556">
        <ele>1293.59</ele>
        <time>2010-04-05T13:13:49Z</time>
      </trkpt>
      <trkpt lat="43.92421" lon="7.03558">
        <ele>1294.07</ele>
        <time>2010-04-05T13:13:50Z</time>
      </trkpt>
      <trkpt lat="43.9242" lon="7.03559">
        <ele>1294.07</ele>
        <time>2010-04-05T13:13:51Z</time>
      </trkpt>
      <trkpt lat="43.92419" lon="7.03561">
        <ele>1294.07</ele>
        <time>2010-04-05T13:13:52Z</time>
      </trkpt>
      <trkpt lat="43.92418" lon="7.03563">
        <ele>1294.55</ele>
        <time>2010-04-05T13:13:53Z</time>
      </trkpt>
      <trkpt lat="43.92417" lon="7.03564">
        <ele>1294.55</ele>
        <time>2010-04-05T13:13:54Z</time>
      </trkpt>
      <trkpt lat="43.92416" lon="7.03566">
        <ele>1294.55</ele>
        <time>2010-04-05T13:13:55Z</time>
      </trkpt>
      <trkpt lat="43.92416" lon="7.03567">
        <ele>1294.55</ele>
        <time>2010-04-05T13:13:56Z</time>
      </trkpt>
      <trkpt lat="43.92398" lon="7.03591">
        <ele>1297.92</ele>
        <time>2010-04-05T13:14:14Z</time>
      </trkpt>
      <trkpt lat="43.92388" lon="7.03602">
        <ele>1298.4</ele>
        <time>2010-04-05T13:14:22Z</time>
      </trkpt>
      <trkpt lat="43.92366" lon="7.03627">
        <ele>1301.28</ele>
        <time>2010-04-05T13:14:41Z</time>
      </trkpt>
      <trkpt lat="43.92356" lon="7.0364">
        <ele>1303.2</ele>
        <time>2010-04-05T13:14:51Z</time>
      </trkpt>
      <trkpt lat="43.92339" lon="7.03673">
        <ele>1304.65</ele>
        <time>2010-04-05T13:15:10Z</time>
      </trkpt>
      <trkpt lat="43.92328" lon="7.03722">
        <ele>1304.17</ele>
        <time>2010-04-05T13:15:29Z</time>
      </trkpt>
      <trkpt lat="43.9232" lon="7.03754">
        <ele>1307.53</ele>
        <time>2010-04-05T13:15:43Z</time>
      </trkpt>
      <trkpt lat="43.92317" lon="7.03771">
        <ele>1308.01</ele>
        <time>2010-04-05T13:15:50Z</time>
      </trkpt>
      <trkpt lat="43.92317" lon="7.03774">
        <ele>1308.01</ele>
        <time>2010-04-05T13:15:51Z</time>
      </trkpt>
      <trkpt lat="43.92317" lon="7.03779">
        <ele>1308.49</ele>
        <time>2010-04-05T13:15:53Z</time>
      </trkpt>
      <trkpt lat="43.92317" lon="7.03782">
        <ele>1308.49</ele>
        <time>2010-04-05T13:15:54Z</time>
      </trkpt>
      <trkpt lat="43.92316" lon="7.03785">
        <ele>1308.49</ele>
        <time>2010-04-05T13:15:55Z</time>
      </trkpt>
      <trkpt lat="43.92315" lon="7.03789">
        <ele>1308.97</ele>
        <time>2010-04-05T13:15:57Z</time>
      </trkpt>
      <trkpt lat="43.92315" lon="7.03791">
        <ele>1309.45</ele>
        <time>2010-04-05T13:15:58Z</time>
      </trkpt>
      <trkpt lat="43.92314" lon="7.03799">
        <ele>1309.93</ele>
        <time>2010-04-05T13:16:02Z</time>
      </trkpt>
      <trkpt lat="43.92314" lon="7.03802">
        <ele>1309.93</ele>
        <time>2010-04-05T13:16:03Z</time>
      </trkpt>
      <trkpt lat="43.92314" lon="7.03804">
        <ele>1309.93</ele>
        <time>2010-04-05T13:16:04Z</time>
      </trkpt>
      <trkpt lat="43.92315" lon="7.03824">
        <ele>1310.9</ele>
        <time>2010-04-05T13:16:11Z</time>
      </trkpt>
      <trkpt lat="43.92315" lon="7.03826">
        <ele>1310.9</ele>
        <time>2010-04-05T13:16:12Z</time>
      </trkpt>
      <trkpt lat="43.92316" lon="7.03829">
        <ele>1310.9</ele>
        <time>2010-04-05T13:16:13Z</time>
      </trkpt>
      <trkpt lat="43.92315" lon="7.03875">
        <ele>1311.38</ele>
        <time>2010-04-05T13:16:29Z</time>
      </trkpt>
      <trkpt lat="43.92311" lon="7.03909">
        <ele>1314.26</ele>
        <time>2010-04-05T13:16:45Z</time>
      </trkpt>
      <trkpt lat="43.92311" lon="7.03911">
        <ele>1314.26</ele>
        <time>2010-04-05T13:16:46Z</time>
      </trkpt>
      <trkpt lat="43.92311" lon="7.03913">
        <ele>1314.26</ele>
        <time>2010-04-05T13:16:47Z</time>
      </trkpt>
      <trkpt lat="43.9231" lon="7.03925">
        <ele>1313.78</ele>
        <time>2010-04-05T13:16:51Z</time>
      </trkpt>
      <trkpt lat="43.92309" lon="7.03927">
        <ele>1314.26</ele>
        <time>2010-04-05T13:16:52Z</time>
      </trkpt>
      <trkpt lat="43.92309" lon="7.03929">
        <ele>1314.26</ele>
        <time>2010-04-05T13:16:53Z</time>
      </trkpt>
      <trkpt lat="43.92308" lon="7.03932">
        <ele>1314.26</ele>
        <time>2010-04-05T13:16:54Z</time>
      </trkpt>
      <trkpt lat="43.92308" lon="7.03935">
        <ele>1313.78</ele>
        <time>2010-04-05T13:16:55Z</time>
      </trkpt>
      <trkpt lat="43.92307" lon="7.03937">
        <ele>1313.78</ele>
        <time>2010-04-05T13:16:56Z</time>
      </trkpt>
      <trkpt lat="43.92284" lon="7.0396">
        <ele>1309.93</ele>
        <time>2010-04-05T13:17:05Z</time>
      </trkpt>
      <trkpt lat="43.9228" lon="7.03961">
        <ele>1308.97</ele>
        <time>2010-04-05T13:17:06Z</time>
      </trkpt>
      <trkpt lat="43.92258" lon="7.03976">
        <ele>1305.61</ele>
        <time>2010-04-05T13:17:11Z</time>
      </trkpt>
      <trkpt lat="43.92255" lon="7.0398">
        <ele>1305.13</ele>
        <time>2010-04-05T13:17:12Z</time>
      </trkpt>
      <trkpt lat="43.92251" lon="7.03983">
        <ele>1304.17</ele>
        <time>2010-04-05T13:17:13Z</time>
      </trkpt>
      <trkpt lat="43.92248" lon="7.03986">
        <ele>1303.69</ele>
        <time>2010-04-05T13:17:14Z</time>
      </trkpt>
      <trkpt lat="43.92245" lon="7.03989">
        <ele>1304.17</ele>
        <time>2010-04-05T13:17:15Z</time>
      </trkpt>
      <trkpt lat="43.92241" lon="7.03995">
        <ele>1303.2</ele>
        <time>2010-04-05T13:17:16Z</time>
      </trkpt>
      <trkpt lat="43.92238" lon="7.04001">
        <ele>1302.24</ele>
        <time>2010-04-05T13:17:17Z</time>
      </trkpt>
      <trkpt lat="43.92235" lon="7.04007">
        <ele>1301.76</ele>
        <time>2010-04-05T13:17:18Z</time>
      </trkpt>
      <trkpt lat="43.92219" lon="7.04031">
        <ele>1299.84</ele>
        <time>2010-04-05T13:17:22Z</time>
      </trkpt>
      <trkpt lat="43.92206" lon="7.04052">
        <ele>1297.92</ele>
        <time>2010-04-05T13:17:26Z</time>
      </trkpt>
      <trkpt lat="43.92185" lon="7.04103">
        <ele>1295.99</ele>
        <time>2010-04-05T13:17:36Z</time>
      </trkpt>
      <trkpt lat="43.92184" lon="7.04108">
        <ele>1295.99</ele>
        <time>2010-04-05T13:17:37Z</time>
      </trkpt>
      <trkpt lat="43.92182" lon="7.04114">
        <ele>1295.51</ele>
        <time>2010-04-05T13:17:38Z</time>
      </trkpt>
      <trkpt lat="43.92152" lon="7.04185">
        <ele>1292.63</ele>
        <time>2010-04-05T13:17:53Z</time>
      </trkpt>
      <trkpt lat="43.92137" lon="7.04201">
        <ele>1291.19</ele>
        <time>2010-04-05T13:17:57Z</time>
      </trkpt>
      <trkpt lat="43.92117" lon="7.0422">
        <ele>1288.3</ele>
        <time>2010-04-05T13:18:02Z</time>
      </trkpt>
      <trkpt lat="43.92109" lon="7.04232">
        <ele>1286.38</ele>
        <time>2010-04-05T13:18:04Z</time>
      </trkpt>
      <trkpt lat="43.92106" lon="7.04239">
        <ele>1285.42</ele>
        <time>2010-04-05T13:18:05Z</time>
      </trkpt>
      <trkpt lat="43.92104" lon="7.04247">
        <ele>1285.9</ele>
        <time>2010-04-05T13:18:06Z</time>
      </trkpt>
      <trkpt lat="43.92102" lon="7.04255">
        <ele>1285.42</ele>
        <time>2010-04-05T13:18:07Z</time>
      </trkpt>
      <trkpt lat="43.92102" lon="7.04264">
        <ele>1284.46</ele>
        <time>2010-04-05T13:18:08Z</time>
      </trkpt>
      <trkpt lat="43.92101" lon="7.04272">
        <ele>1284.94</ele>
        <time>2010-04-05T13:18:09Z</time>
      </trkpt>
      <trkpt lat="43.92101" lon="7.04279">
        <ele>1284.46</ele>
        <time>2010-04-05T13:18:10Z</time>
      </trkpt>
      <trkpt lat="43.92101" lon="7.04286">
        <ele>1284.46</ele>
        <time>2010-04-05T13:18:11Z</time>
      </trkpt>
      <trkpt lat="43.921" lon="7.04292">
        <ele>1284.46</ele>
        <time>2010-04-05T13:18:12Z</time>
      </trkpt>
      <trkpt lat="43.92098" lon="7.04311">
        <ele>1285.9</ele>
        <time>2010-04-05T13:18:17Z</time>
      </trkpt>
      <trkpt lat="43.9209" lon="7.04339">
        <ele>1289.27</ele>
        <time>2010-04-05T13:18:33Z</time>
      </trkpt>
      <trkpt lat="43.9209" lon="7.04343">
        <ele>1289.75</ele>
        <time>2010-04-05T13:18:35Z</time>
      </trkpt>
      <trkpt lat="43.92089" lon="7.04345">
        <ele>1289.75</ele>
        <time>2010-04-05T13:18:36Z</time>
      </trkpt>
      <trkpt lat="43.92089" lon="7.04346">
        <ele>1290.23</ele>
        <time>2010-04-05T13:18:37Z</time>
      </trkpt>
      <trkpt lat="43.92088" lon="7.04347">
        <ele>1290.23</ele>
        <time>2010-04-05T13:18:38Z</time>
      </trkpt>
      <trkpt lat="43.92087" lon="7.04349">
        <ele>1290.71</ele>
        <time>2010-04-05T13:18:39Z</time>
      </trkpt>
      <trkpt lat="43.92077" lon="7.04381">
        <ele>1292.63</ele>
        <time>2010-04-05T13:18:57Z</time>
      </trkpt>
      <trkpt lat="43.92072" lon="7.04406">
        <ele>1295.99</ele>
        <time>2010-04-05T13:19:12Z</time>
      </trkpt>
      <trkpt lat="43.92069" lon="7.04418">
        <ele>1296.96</ele>
        <time>2010-04-05T13:19:20Z</time>
      </trkpt>
      <trkpt lat="43.92068" lon="7.0442">
        <ele>1296.96</ele>
        <time>2010-04-05T13:19:21Z</time>
      </trkpt>
      <trkpt lat="43.92068" lon="7.04422">
        <ele>1296.96</ele>
        <time>2010-04-05T13:19:22Z</time>
      </trkpt>
      <trkpt lat="43.92048" lon="7.04462">
        <ele>1297.92</ele>
        <time>2010-04-05T13:19:40Z</time>
      </trkpt>
      <trkpt lat="43.92035" lon="7.04502">
        <ele>1297.92</ele>
        <time>2010-04-05T13:19:59Z</time>
      </trkpt>
      <trkpt lat="43.92035" lon="7.04515">
        <ele>1298.88</ele>
        <time>2010-04-05T13:20:08Z</time>
      </trkpt>
      <trkpt lat="43.92035" lon="7.04515">
        <ele>1297.92</ele>
        <time>2010-04-05T13:20:51Z</time>
      </trkpt>
      <trkpt lat="43.92035" lon="7.04515">
        <ele>1301.28</ele>
        <time>2010-04-05T13:27:36Z</time>
      </trkpt>
      <trkpt lat="43.92034" lon="7.04517">
        <ele>1301.28</ele>
        <time>2010-04-05T13:31:17Z</time>
      </trkpt>
      <trkpt lat="43.92034" lon="7.04521">
        <ele>1302.24</ele>
        <time>2010-04-05T13:31:49Z</time>
      </trkpt>
      <trkpt lat="43.92034" lon="7.04526">
        <ele>1301.76</ele>
        <time>2010-04-05T13:31:52Z</time>
      </trkpt>
      <trkpt lat="43.92035" lon="7.04527">
        <ele>1301.76</ele>
        <time>2010-04-05T13:31:53Z</time>
      </trkpt>
      <trkpt lat="43.92035" lon="7.04529">
        <ele>1302.24</ele>
        <time>2010-04-05T13:31:54Z</time>
      </trkpt>
      <trkpt lat="43.92036" lon="7.04531">
        <ele>1302.24</ele>
        <time>2010-04-05T13:31:55Z</time>
      </trkpt>
      <trkpt lat="43.92036" lon="7.04533">
        <ele>1301.76</ele>
        <time>2010-04-05T13:31:56Z</time>
      </trkpt>
      <trkpt lat="43.92036" lon="7.04539">
        <ele>1302.72</ele>
        <time>2010-04-05T13:31:59Z</time>
      </trkpt>
      <trkpt lat="43.92029" lon="7.04561">
        <ele>1306.09</ele>
        <time>2010-04-05T13:32:13Z</time>
      </trkpt>
      <trkpt lat="43.92029" lon="7.04565">
        <ele>1306.57</ele>
        <time>2010-04-05T13:32:15Z</time>
      </trkpt>
      <trkpt lat="43.92026" lon="7.04578">
        <ele>1309.93</ele>
        <time>2010-04-05T13:32:26Z</time>
      </trkpt>
      <trkpt lat="43.92022" lon="7.04591">
        <ele>1312.82</ele>
        <time>2010-04-05T13:32:41Z</time>
      </trkpt>
      <trkpt lat="43.92018" lon="7.04604">
        <ele>1316.18</ele>
        <time>2010-04-05T13:32:57Z</time>
      </trkpt>
      <trkpt lat="43.92015" lon="7.04624">
        <ele>1319.07</ele>
        <time>2010-04-05T13:33:15Z</time>
      </trkpt>
      <trkpt lat="43.92009" lon="7.04638">
        <ele>1322.43</ele>
        <time>2010-04-05T13:33:30Z</time>
      </trkpt>
      <trkpt lat="43.92004" lon="7.0465">
        <ele>1325.8</ele>
        <time>2010-04-05T13:33:45Z</time>
      </trkpt>
      <trkpt lat="43.91995" lon="7.04658">
        <ele>1328.68</ele>
        <time>2010-04-05T13:34:01Z</time>
      </trkpt>
      <trkpt lat="43.91992" lon="7.04666">
        <ele>1330.6</ele>
        <time>2010-04-05T13:34:08Z</time>
      </trkpt>
      <trkpt lat="43.91986" lon="7.04673">
        <ele>1332.04</ele>
        <time>2010-04-05T13:34:22Z</time>
      </trkpt>
      <trkpt lat="43.91984" lon="7.04689">
        <ele>1332.52</ele>
        <time>2010-04-05T13:34:39Z</time>
      </trkpt>
      <trkpt lat="43.9198" lon="7.04698">
        <ele>1332.52</ele>
        <time>2010-04-05T13:34:58Z</time>
      </trkpt>
      <trkpt lat="43.9198" lon="7.04699">
        <ele>1332.04</ele>
        <time>2010-04-05T13:36:18Z</time>
      </trkpt>
      <trkpt lat="43.91978" lon="7.04702">
        <ele>1332.52</ele>
        <time>2010-04-05T13:36:35Z</time>
      </trkpt>
      <trkpt lat="43.91978" lon="7.04703">
        <ele>1332.04</ele>
        <time>2010-04-05T13:37:44Z</time>
      </trkpt>
      <trkpt lat="43.91978" lon="7.04703">
        <ele>1331.56</ele>
        <time>2010-04-05T13:38:06Z</time>
      </trkpt>
      <trkpt lat="43.91978" lon="7.04703">
        <ele>1331.56</ele>
        <time>2010-04-05T13:38:50Z</time>
      </trkpt>
      <trkpt lat="43.91978" lon="7.04703">
        <ele>1332.52</ele>
        <time>2010-04-05T13:38:51Z</time>
      </trkpt>
      <trkpt lat="43.91978" lon="7.04703">
        <ele>1332.52</ele>
        <time>2010-04-05T13:38:52Z</time>
      </trkpt>
      <trkpt lat="43.91978" lon="7.04703">
        <ele>1330.12</ele>
        <time>2010-04-05T13:38:54Z</time>
      </trkpt>
      <trkpt lat="43.91978" lon="7.04703">
        <ele>1333.49</ele>
        <time>2010-04-05T13:38:55Z</time>
      </trkpt>
      <trkpt lat="43.91977" lon="7.04704">
        <ele>1333.97</ele>
        <time>2010-04-05T13:38:56Z</time>
      </trkpt>
      <trkpt lat="43.91977" lon="7.04705">
        <ele>1333.49</ele>
        <time>2010-04-05T13:39:52Z</time>
      </trkpt>
      <trkpt lat="43.91977" lon="7.04706">
        <ele>1333.49</ele>
        <time>2010-04-05T13:39:59Z</time>
      </trkpt>
      <trkpt lat="43.91978" lon="7.04714">
        <ele>1333.97</ele>
        <time>2010-04-05T13:40:21Z</time>
      </trkpt>
      <trkpt lat="43.91978" lon="7.04734">
        <ele>1336.85</ele>
        <time>2010-04-05T13:40:43Z</time>
      </trkpt>
      <trkpt lat="43.91978" lon="7.04736">
        <ele>1336.85</ele>
        <time>2010-04-05T13:40:44Z</time>
      </trkpt>
      <trkpt lat="43.91976" lon="7.04753">
        <ele>1338.29</ele>
        <time>2010-04-05T13:40:54Z</time>
      </trkpt>
      <trkpt lat="43.9197" lon="7.0477">
        <ele>1341.66</ele>
        <time>2010-04-05T13:41:07Z</time>
      </trkpt>
      <trkpt lat="43.91968" lon="7.04776">
        <ele>1343.1</ele>
        <time>2010-04-05T13:41:12Z</time>
      </trkpt>
      <trkpt lat="43.91967" lon="7.04781">
        <ele>1343.58</ele>
        <time>2010-04-05T13:41:16Z</time>
      </trkpt>
      <trkpt lat="43.91962" lon="7.04793">
        <ele>1345.5</ele>
        <time>2010-04-05T13:41:26Z</time>
      </trkpt>
      <trkpt lat="43.91964" lon="7.04818">
        <ele>1348.87</ele>
        <time>2010-04-05T13:41:44Z</time>
      </trkpt>
      <trkpt lat="43.91961" lon="7.04834">
        <ele>1351.75</ele>
        <time>2010-04-05T13:42:00Z</time>
      </trkpt>
      <trkpt lat="43.91962" lon="7.04848">
        <ele>1353.19</ele>
        <time>2010-04-05T13:42:21Z</time>
      </trkpt>
      <trkpt lat="43.9196" lon="7.04862">
        <ele>1355.6</ele>
        <time>2010-04-05T13:42:39Z</time>
      </trkpt>
      <trkpt lat="43.91962" lon="7.0487">
        <ele>1356.56</ele>
        <time>2010-04-05T13:42:53Z</time>
      </trkpt>
      <trkpt lat="43.91964" lon="7.0489">
        <ele>1359.92</ele>
        <time>2010-04-05T13:43:10Z</time>
      </trkpt>
      <trkpt lat="43.91963" lon="7.04891">
        <ele>1359.92</ele>
        <time>2010-04-05T13:43:24Z</time>
      </trkpt>
      <trkpt lat="43.91962" lon="7.04893">
        <ele>1359.92</ele>
        <time>2010-04-05T13:43:26Z</time>
      </trkpt>
      <trkpt lat="43.91958" lon="7.04892">
        <ele>1360.4</ele>
        <time>2010-04-05T13:43:29Z</time>
      </trkpt>
      <trkpt lat="43.91955" lon="7.04893">
        <ele>1361.36</ele>
        <time>2010-04-05T13:43:45Z</time>
      </trkpt>
      <trkpt lat="43.9195" lon="7.04909">
        <ele>1362.33</ele>
        <time>2010-04-05T13:44:02Z</time>
      </trkpt>
      <trkpt lat="43.91949" lon="7.04913">
        <ele>1363.29</ele>
        <time>2010-04-05T13:44:04Z</time>
      </trkpt>
      <trkpt lat="43.9195" lon="7.04916">
        <ele>1362.81</ele>
        <time>2010-04-05T13:44:06Z</time>
      </trkpt>
      <trkpt lat="43.9195" lon="7.04927">
        <ele>1363.77</ele>
        <time>2010-04-05T13:44:13Z</time>
      </trkpt>
      <trkpt lat="43.91947" lon="7.04934">
        <ele>1363.77</ele>
        <time>2010-04-05T13:44:17Z</time>
      </trkpt>
      <trkpt lat="43.91944" lon="7.04953">
        <ele>1365.21</ele>
        <time>2010-04-05T13:44:26Z</time>
      </trkpt>
      <trkpt lat="43.91943" lon="7.04958">
        <ele>1365.21</ele>
        <time>2010-04-05T13:44:28Z</time>
      </trkpt>
      <trkpt lat="43.9194" lon="7.04962">
        <ele>1366.17</ele>
        <time>2010-04-05T13:44:33Z</time>
      </trkpt>
      <trkpt lat="43.91933" lon="7.04983">
        <ele>1367.13</ele>
        <time>2010-04-05T13:44:44Z</time>
      </trkpt>
      <trkpt lat="43.91929" lon="7.04995">
        <ele>1367.61</ele>
        <time>2010-04-05T13:44:51Z</time>
      </trkpt>
      <trkpt lat="43.91924" lon="7.05004">
        <ele>1368.09</ele>
        <time>2010-04-05T13:44:57Z</time>
      </trkpt>
      <trkpt lat="43.91923" lon="7.05007">
        <ele>1368.09</ele>
        <time>2010-04-05T13:44:59Z</time>
      </trkpt>
      <trkpt lat="43.91911" lon="7.0503">
        <ele>1367.61</ele>
        <time>2010-04-05T13:45:12Z</time>
      </trkpt>
      <trkpt lat="43.91902" lon="7.05049">
        <ele>1368.57</ele>
        <time>2010-04-05T13:45:27Z</time>
      </trkpt>
      <trkpt lat="43.91901" lon="7.05069">
        <ele>1370.98</ele>
        <time>2010-04-05T13:45:45Z</time>
      </trkpt>
      <trkpt lat="43.91897" lon="7.05101">
        <ele>1371.46</ele>
        <time>2010-04-05T13:46:00Z</time>
      </trkpt>
      <trkpt lat="43.91899" lon="7.05115">
        <ele>1371.94</ele>
        <time>2010-04-05T13:46:26Z</time>
      </trkpt>
      <trkpt lat="43.91899" lon="7.05115">
        <ele>1371.46</ele>
        <time>2010-04-05T13:46:53Z</time>
      </trkpt>
      <trkpt lat="43.9189" lon="7.05157">
        <ele>1372.42</ele>
        <time>2010-04-05T13:47:10Z</time>
      </trkpt>
      <trkpt lat="43.91882" lon="7.05207">
        <ele>1375.3</ele>
        <time>2010-04-05T13:47:28Z</time>
      </trkpt>
      <trkpt lat="43.91881" lon="7.05216">
        <ele>1376.75</ele>
        <time>2010-04-05T13:47:53Z</time>
      </trkpt>
      <trkpt lat="43.91881" lon="7.05216">
        <ele>1376.26</ele>
        <time>2010-04-05T13:49:49Z</time>
      </trkpt>
      <trkpt lat="43.91881" lon="7.05217">
        <ele>1376.26</ele>
        <time>2010-04-05T13:50:01Z</time>
      </trkpt>
      <trkpt lat="43.91883" lon="7.05227">
        <ele>1377.23</ele>
        <time>2010-04-05T13:50:07Z</time>
      </trkpt>
      <trkpt lat="43.91882" lon="7.05238">
        <ele>1377.23</ele>
        <time>2010-04-05T13:50:12Z</time>
      </trkpt>
      <trkpt lat="43.91885" lon="7.05259">
        <ele>1378.19</ele>
        <time>2010-04-05T13:50:26Z</time>
      </trkpt>
      <trkpt lat="43.91884" lon="7.05269">
        <ele>1378.67</ele>
        <time>2010-04-05T13:50:40Z</time>
      </trkpt>
      <trkpt lat="43.91876" lon="7.05275">
        <ele>1381.07</ele>
        <time>2010-04-05T13:50:55Z</time>
      </trkpt>
      <trkpt lat="43.91876" lon="7.05275">
        <ele>1381.07</ele>
        <time>2010-04-05T13:50:56Z</time>
      </trkpt>
      <trkpt lat="43.91874" lon="7.0528">
        <ele>1381.07</ele>
        <time>2010-04-05T13:50:59Z</time>
      </trkpt>
      <trkpt lat="43.91872" lon="7.05294">
        <ele>1382.51</ele>
        <time>2010-04-05T13:51:07Z</time>
      </trkpt>
      <trkpt lat="43.9187" lon="7.05299">
        <ele>1382.99</ele>
        <time>2010-04-05T13:51:11Z</time>
      </trkpt>
      <trkpt lat="43.91861" lon="7.05307">
        <ele>1384.92</ele>
        <time>2010-04-05T13:51:29Z</time>
      </trkpt>
      <trkpt lat="43.91862" lon="7.05307">
        <ele>1388.76</ele>
        <time>2010-04-05T13:51:37Z</time>
      </trkpt>
      <trkpt lat="43.91862" lon="7.05307">
        <ele>1385.88</ele>
        <time>2010-04-05T13:51:38Z</time>
      </trkpt>
      <trkpt lat="43.91859" lon="7.05308">
        <ele>1385.4</ele>
        <time>2010-04-05T13:51:47Z</time>
      </trkpt>
      <trkpt lat="43.91851" lon="7.0532">
        <ele>1386.84</ele>
        <time>2010-04-05T13:51:58Z</time>
      </trkpt>
      <trkpt lat="43.9185" lon="7.05326">
        <ele>1387.8</ele>
        <time>2010-04-05T13:52:02Z</time>
      </trkpt>
      <trkpt lat="43.91847" lon="7.05329">
        <ele>1388.28</ele>
        <time>2010-04-05T13:52:05Z</time>
      </trkpt>
      <trkpt lat="43.91842" lon="7.05338">
        <ele>1389.72</ele>
        <time>2010-04-05T13:52:12Z</time>
      </trkpt>
      <trkpt lat="43.91847" lon="7.05348">
        <ele>1391.65</ele>
        <time>2010-04-05T13:52:22Z</time>
      </trkpt>
      <trkpt lat="43.91845" lon="7.05357">
        <ele>1393.09</ele>
        <time>2010-04-05T13:52:41Z</time>
      </trkpt>
      <trkpt lat="43.91843" lon="7.05355">
        <ele>1392.61</ele>
        <time>2010-04-05T13:52:49Z</time>
      </trkpt>
      <trkpt lat="43.91829" lon="7.05346">
        <ele>1391.65</ele>
        <time>2010-04-05T13:53:03Z</time>
      </trkpt>
      <trkpt lat="43.91827" lon="7.05346">
        <ele>1391.17</ele>
        <time>2010-04-05T13:53:05Z</time>
      </trkpt>
      <trkpt lat="43.91822" lon="7.05345">
        <ele>1391.17</ele>
        <time>2010-04-05T13:53:11Z</time>
      </trkpt>
      <trkpt lat="43.91816" lon="7.05358">
        <ele>1392.61</ele>
        <time>2010-04-05T13:53:20Z</time>
      </trkpt>
      <trkpt lat="43.91811" lon="7.05366">
        <ele>1393.57</ele>
        <time>2010-04-05T13:53:33Z</time>
      </trkpt>
      <trkpt lat="43.91811" lon="7.05373">
        <ele>1395.49</ele>
        <time>2010-04-05T13:53:39Z</time>
      </trkpt>
      <trkpt lat="43.9181" lon="7.05376">
        <ele>1395.97</ele>
        <time>2010-04-05T13:53:41Z</time>
      </trkpt>
      <trkpt lat="43.91796" lon="7.05413">
        <ele>1397.89</ele>
        <time>2010-04-05T13:54:01Z</time>
      </trkpt>
      <trkpt lat="43.91791" lon="7.05433">
        <ele>1398.37</ele>
        <time>2010-04-05T13:54:17Z</time>
      </trkpt>
      <trkpt lat="43.9179" lon="7.05435">
        <ele>1398.37</ele>
        <time>2010-04-05T13:54:19Z</time>
      </trkpt>
      <trkpt lat="43.91789" lon="7.05437">
        <ele>1398.86</ele>
        <time>2010-04-05T13:54:21Z</time>
      </trkpt>
      <trkpt lat="43.91788" lon="7.05448">
        <ele>1401.26</ele>
        <time>2010-04-05T13:54:37Z</time>
      </trkpt>
      <trkpt lat="43.91786" lon="7.05461">
        <ele>1404.14</ele>
        <time>2010-04-05T13:54:50Z</time>
      </trkpt>
      <trkpt lat="43.91784" lon="7.0547">
        <ele>1406.07</ele>
        <time>2010-04-05T13:55:03Z</time>
      </trkpt>
      <trkpt lat="43.91778" lon="7.05479">
        <ele>1406.07</ele>
        <time>2010-04-05T13:55:10Z</time>
      </trkpt>
      <trkpt lat="43.91778" lon="7.05487">
        <ele>1407.51</ele>
        <time>2010-04-05T13:55:15Z</time>
      </trkpt>
      <trkpt lat="43.91774" lon="7.05506">
        <ele>1410.39</ele>
        <time>2010-04-05T13:55:28Z</time>
      </trkpt>
      <trkpt lat="43.91774" lon="7.0552">
        <ele>1413.28</ele>
        <time>2010-04-05T13:55:40Z</time>
      </trkpt>
      <trkpt lat="43.91768" lon="7.05538">
        <ele>1415.2</ele>
        <time>2010-04-05T13:55:54Z</time>
      </trkpt>
      <trkpt lat="43.91766" lon="7.05552">
        <ele>1417.12</ele>
        <time>2010-04-05T13:56:03Z</time>
      </trkpt>
      <trkpt lat="43.91765" lon="7.05555">
        <ele>1417.12</ele>
        <time>2010-04-05T13:56:05Z</time>
      </trkpt>
      <trkpt lat="43.91761" lon="7.05572">
        <ele>1420</ele>
        <time>2010-04-05T13:56:17Z</time>
      </trkpt>
      <trkpt lat="43.91758" lon="7.05579">
        <ele>1421.45</ele>
        <time>2010-04-05T13:56:21Z</time>
      </trkpt>
      <trkpt lat="43.91758" lon="7.05581">
        <ele>1421.45</ele>
        <time>2010-04-05T13:56:23Z</time>
      </trkpt>
      <trkpt lat="43.91756" lon="7.05584">
        <ele>1422.41</ele>
        <time>2010-04-05T13:56:25Z</time>
      </trkpt>
      <trkpt lat="43.91753" lon="7.05593">
        <ele>1424.81</ele>
        <time>2010-04-05T13:56:42Z</time>
      </trkpt>
      <trkpt lat="43.91748" lon="7.05608">
        <ele>1427.21</ele>
        <time>2010-04-05T13:56:58Z</time>
      </trkpt>
      <trkpt lat="43.91748" lon="7.05621">
        <ele>1430.1</ele>
        <time>2010-04-05T13:57:15Z</time>
      </trkpt>
      <trkpt lat="43.91748" lon="7.05624">
        <ele>1429.14</ele>
        <time>2010-04-05T13:57:38Z</time>
      </trkpt>
      <trkpt lat="43.91743" lon="7.05633">
        <ele>1432.02</ele>
        <time>2010-04-05T13:59:55Z</time>
      </trkpt>
      <trkpt lat="43.91743" lon="7.05646">
        <ele>1435.39</ele>
        <time>2010-04-05T14:00:06Z</time>
      </trkpt>
      <trkpt lat="43.91743" lon="7.05648">
        <ele>1435.39</ele>
        <time>2010-04-05T14:00:07Z</time>
      </trkpt>
      <trkpt lat="43.91745" lon="7.05651">
        <ele>1435.87</ele>
        <time>2010-04-05T14:00:10Z</time>
      </trkpt>
      <trkpt lat="43.91743" lon="7.05658">
        <ele>1436.83</ele>
        <time>2010-04-05T14:00:16Z</time>
      </trkpt>
      <trkpt lat="43.91743" lon="7.05663">
        <ele>1437.79</ele>
        <time>2010-04-05T14:00:19Z</time>
      </trkpt>
      <trkpt lat="43.91738" lon="7.05686">
        <ele>1439.23</ele>
        <time>2010-04-05T14:00:45Z</time>
      </trkpt>
      <trkpt lat="43.91738" lon="7.0569">
        <ele>1439.71</ele>
        <time>2010-04-05T14:01:04Z</time>
      </trkpt>
      <trkpt lat="43.91746" lon="7.05695">
        <ele>1438.75</ele>
        <time>2010-04-05T14:01:09Z</time>
      </trkpt>
      <trkpt lat="43.91748" lon="7.05702">
        <ele>1438.75</ele>
        <time>2010-04-05T14:01:13Z</time>
      </trkpt>
      <trkpt lat="43.91748" lon="7.05711">
        <ele>1439.71</ele>
        <time>2010-04-05T14:01:19Z</time>
      </trkpt>
      <trkpt lat="43.9175" lon="7.05725">
        <ele>1440.67</ele>
        <time>2010-04-05T14:01:34Z</time>
      </trkpt>
      <trkpt lat="43.91754" lon="7.05732">
        <ele>1441.63</ele>
        <time>2010-04-05T14:01:41Z</time>
      </trkpt>
      <trkpt lat="43.91755" lon="7.05736">
        <ele>1442.11</ele>
        <time>2010-04-05T14:01:44Z</time>
      </trkpt>
      <trkpt lat="43.91753" lon="7.05742">
        <ele>1443.08</ele>
        <time>2010-04-05T14:01:48Z</time>
      </trkpt>
      <trkpt lat="43.91751" lon="7.05752">
        <ele>1443.56</ele>
        <time>2010-04-05T14:01:54Z</time>
      </trkpt>
      <trkpt lat="43.91751" lon="7.05757">
        <ele>1444.04</ele>
        <time>2010-04-05T14:01:58Z</time>
      </trkpt>
      <trkpt lat="43.91749" lon="7.05763">
        <ele>1445</ele>
        <time>2010-04-05T14:02:03Z</time>
      </trkpt>
      <trkpt lat="43.9174" lon="7.05768">
        <ele>1445.96</ele>
        <time>2010-04-05T14:02:12Z</time>
      </trkpt>
      <trkpt lat="43.9174" lon="7.05774">
        <ele>1446.44</ele>
        <time>2010-04-05T14:02:16Z</time>
      </trkpt>
      <trkpt lat="43.91744" lon="7.05784">
        <ele>1446.92</ele>
        <time>2010-04-05T14:02:23Z</time>
      </trkpt>
      <trkpt lat="43.91748" lon="7.05797">
        <ele>1448.84</ele>
        <time>2010-04-05T14:02:32Z</time>
      </trkpt>
      <trkpt lat="43.91752" lon="7.05808">
        <ele>1450.77</ele>
        <time>2010-04-05T14:02:46Z</time>
      </trkpt>
      <trkpt lat="43.91755" lon="7.05811">
        <ele>1451.25</ele>
        <time>2010-04-05T14:02:52Z</time>
      </trkpt>
      <trkpt lat="43.91756" lon="7.05824">
        <ele>1453.17</ele>
        <time>2010-04-05T14:03:10Z</time>
      </trkpt>
      <trkpt lat="43.91755" lon="7.05825">
        <ele>1453.65</ele>
        <time>2010-04-05T14:03:11Z</time>
      </trkpt>
      <trkpt lat="43.91751" lon="7.05831">
        <ele>1455.57</ele>
        <time>2010-04-05T14:03:20Z</time>
      </trkpt>
      <trkpt lat="43.91752" lon="7.05854">
        <ele>1456.53</ele>
        <time>2010-04-05T14:03:37Z</time>
      </trkpt>
      <trkpt lat="43.91749" lon="7.05868">
        <ele>1458.94</ele>
        <time>2010-04-05T14:03:54Z</time>
      </trkpt>
      <trkpt lat="43.91747" lon="7.05883">
        <ele>1462.3</ele>
        <time>2010-04-05T14:04:08Z</time>
      </trkpt>
      <trkpt lat="43.91744" lon="7.05885">
        <ele>1463.26</ele>
        <time>2010-04-05T14:04:11Z</time>
      </trkpt>
      <trkpt lat="43.91744" lon="7.05895">
        <ele>1464.71</ele>
        <time>2010-04-05T14:04:21Z</time>
      </trkpt>
      <trkpt lat="43.91743" lon="7.05907">
        <ele>1467.59</ele>
        <time>2010-04-05T14:04:36Z</time>
      </trkpt>
      <trkpt lat="43.91742" lon="7.05908">
        <ele>1467.11</ele>
        <time>2010-04-05T14:04:38Z</time>
      </trkpt>
      <trkpt lat="43.91742" lon="7.05924">
        <ele>1471.44</ele>
        <time>2010-04-05T14:04:53Z</time>
      </trkpt>
      <trkpt lat="43.91742" lon="7.05928">
        <ele>1471.92</ele>
        <time>2010-04-05T14:04:57Z</time>
      </trkpt>
      <trkpt lat="43.91741" lon="7.0594">
        <ele>1473.36</ele>
        <time>2010-04-05T14:05:17Z</time>
      </trkpt>
      <trkpt lat="43.9174" lon="7.05943">
        <ele>1472.4</ele>
        <time>2010-04-05T14:05:48Z</time>
      </trkpt>
      <trkpt lat="43.9174" lon="7.05943">
        <ele>1472.88</ele>
        <time>2010-04-05T14:06:58Z</time>
      </trkpt>
      <trkpt lat="43.91742" lon="7.05949">
        <ele>1473.84</ele>
        <time>2010-04-05T14:07:02Z</time>
      </trkpt>
      <trkpt lat="43.91736" lon="7.05972">
        <ele>1476.24</ele>
        <time>2010-04-05T14:07:22Z</time>
      </trkpt>
      <trkpt lat="43.91741" lon="7.05988">
        <ele>1475.28</ele>
        <time>2010-04-05T14:09:20Z</time>
      </trkpt>
      <trkpt lat="43.91743" lon="7.06004">
        <ele>1476.24</ele>
        <time>2010-04-05T14:09:28Z</time>
      </trkpt>
      <trkpt lat="43.91745" lon="7.06011">
        <ele>1476.24</ele>
        <time>2010-04-05T14:09:32Z</time>
      </trkpt>
      <trkpt lat="43.91746" lon="7.06014">
        <ele>1476.24</ele>
        <time>2010-04-05T14:09:34Z</time>
      </trkpt>
      <trkpt lat="43.91744" lon="7.06018">
        <ele>1476.72</ele>
        <time>2010-04-05T14:09:37Z</time>
      </trkpt>
      <trkpt lat="43.91742" lon="7.06037">
        <ele>1476.72</ele>
        <time>2010-04-05T14:09:54Z</time>
      </trkpt>
      <trkpt lat="43.91745" lon="7.06044">
        <ele>1475.28</ele>
        <time>2010-04-05T14:10:14Z</time>
      </trkpt>
      <trkpt lat="43.91746" lon="7.06061">
        <ele>1474.8</ele>
        <time>2010-04-05T14:10:31Z</time>
      </trkpt>
      <trkpt lat="43.91745" lon="7.06071">
        <ele>1473.36</ele>
        <time>2010-04-05T14:10:41Z</time>
      </trkpt>
      <trkpt lat="43.91744" lon="7.06076">
        <ele>1472.88</ele>
        <time>2010-04-05T14:10:46Z</time>
      </trkpt>
      <trkpt lat="43.91744" lon="7.06079">
        <ele>1472.4</ele>
        <time>2010-04-05T14:10:49Z</time>
      </trkpt>
      <trkpt lat="43.91743" lon="7.06087">
        <ele>1471.92</ele>
        <time>2010-04-05T14:11:10Z</time>
      </trkpt>
      <trkpt lat="43.91741" lon="7.06096">
        <ele>1470.95</ele>
        <time>2010-04-05T14:11:29Z</time>
      </trkpt>
      <trkpt lat="43.91742" lon="7.06102">
        <ele>1470.47</ele>
        <time>2010-04-05T14:11:34Z</time>
      </trkpt>
      <trkpt lat="43.91741" lon="7.0613">
        <ele>1469.03</ele>
        <time>2010-04-05T14:11:50Z</time>
      </trkpt>
      <trkpt lat="43.91738" lon="7.06144">
        <ele>1469.51</ele>
        <time>2010-04-05T14:11:57Z</time>
      </trkpt>
      <trkpt lat="43.91736" lon="7.06153">
        <ele>1470.95</ele>
        <time>2010-04-05T14:12:02Z</time>
      </trkpt>
      <trkpt lat="43.91733" lon="7.06161">
        <ele>1471.92</ele>
        <time>2010-04-05T14:12:06Z</time>
      </trkpt>
      <trkpt lat="43.91732" lon="7.06169">
        <ele>1472.88</ele>
        <time>2010-04-05T14:12:11Z</time>
      </trkpt>
      <trkpt lat="43.91721" lon="7.06186">
        <ele>1476.72</ele>
        <time>2010-04-05T14:12:24Z</time>
      </trkpt>
      <trkpt lat="43.91711" lon="7.06208">
        <ele>1479.61</ele>
        <time>2010-04-05T14:12:40Z</time>
      </trkpt>
      <trkpt lat="43.91704" lon="7.06226">
        <ele>1480.57</ele>
        <time>2010-04-05T14:12:52Z</time>
      </trkpt>
      <trkpt lat="43.91708" lon="7.06249">
        <ele>1479.61</ele>
        <time>2010-04-05T14:13:04Z</time>
      </trkpt>
      <trkpt lat="43.91708" lon="7.06258">
        <ele>1480.09</ele>
        <time>2010-04-05T14:13:14Z</time>
      </trkpt>
      <trkpt lat="43.9171" lon="7.06272">
        <ele>1479.13</ele>
        <time>2010-04-05T14:13:21Z</time>
      </trkpt>
      <trkpt lat="43.91711" lon="7.06278">
        <ele>1478.65</ele>
        <time>2010-04-05T14:13:24Z</time>
      </trkpt>
      <trkpt lat="43.91712" lon="7.06286">
        <ele>1478.16</ele>
        <time>2010-04-05T14:13:42Z</time>
      </trkpt>
      <trkpt lat="43.91711" lon="7.06295">
        <ele>1479.61</ele>
        <time>2010-04-05T14:13:59Z</time>
      </trkpt>
      <trkpt lat="43.91706" lon="7.063">
        <ele>1481.53</ele>
        <time>2010-04-05T14:14:08Z</time>
      </trkpt>
      <trkpt lat="43.91705" lon="7.06304">
        <ele>1482.97</ele>
        <time>2010-04-05T14:14:12Z</time>
      </trkpt>
      <trkpt lat="43.91705" lon="7.06309">
        <ele>1483.45</ele>
        <time>2010-04-05T14:14:16Z</time>
      </trkpt>
      <trkpt lat="43.91704" lon="7.06321">
        <ele>1484.89</ele>
        <time>2010-04-05T14:14:27Z</time>
      </trkpt>
      <trkpt lat="43.91701" lon="7.06345">
        <ele>1486.82</ele>
        <time>2010-04-05T14:14:45Z</time>
      </trkpt>
      <trkpt lat="43.91696" lon="7.06366">
        <ele>1489.7</ele>
        <time>2010-04-05T14:16:03Z</time>
      </trkpt>
      <trkpt lat="43.91696" lon="7.06373">
        <ele>1489.7</ele>
        <time>2010-04-05T14:16:08Z</time>
      </trkpt>
      <trkpt lat="43.91692" lon="7.06389">
        <ele>1492.58</ele>
        <time>2010-04-05T14:16:23Z</time>
      </trkpt>
      <trkpt lat="43.91691" lon="7.06397">
        <ele>1494.51</ele>
        <time>2010-04-05T14:16:39Z</time>
      </trkpt>
      <trkpt lat="43.91687" lon="7.06409">
        <ele>1497.87</ele>
        <time>2010-04-05T14:16:55Z</time>
      </trkpt>
      <trkpt lat="43.91686" lon="7.06411">
        <ele>1497.87</ele>
        <time>2010-04-05T14:17:14Z</time>
      </trkpt>
      <trkpt lat="43.91685" lon="7.06409">
        <ele>1498.35</ele>
        <time>2010-04-05T14:17:38Z</time>
      </trkpt>
      <trkpt lat="43.91686" lon="7.0641">
        <ele>1498.35</ele>
        <time>2010-04-05T14:18:19Z</time>
      </trkpt>
      <trkpt lat="43.91685" lon="7.06417">
        <ele>1499.31</ele>
        <time>2010-04-05T14:19:24Z</time>
      </trkpt>
      <trkpt lat="43.91682" lon="7.0643">
        <ele>1502.2</ele>
        <time>2010-04-05T14:19:39Z</time>
      </trkpt>
      <trkpt lat="43.91679" lon="7.06442">
        <ele>1504.6</ele>
        <time>2010-04-05T14:19:55Z</time>
      </trkpt>
      <trkpt lat="43.91675" lon="7.06452">
        <ele>1507</ele>
        <time>2010-04-05T14:20:14Z</time>
      </trkpt>
      <trkpt lat="43.91675" lon="7.06457">
        <ele>1507.48</ele>
        <time>2010-04-05T14:20:41Z</time>
      </trkpt>
      <trkpt lat="43.91673" lon="7.06467">
        <ele>1506.52</ele>
        <time>2010-04-05T14:20:59Z</time>
      </trkpt>
      <trkpt lat="43.91673" lon="7.06467">
        <ele>1505.56</ele>
        <time>2010-04-05T14:21:27Z</time>
      </trkpt>
      <trkpt lat="43.91671" lon="7.06474">
        <ele>1506.04</ele>
        <time>2010-04-05T14:23:48Z</time>
      </trkpt>
      <trkpt lat="43.91657" lon="7.06495">
        <ele>1506.04</ele>
        <time>2010-04-05T14:24:03Z</time>
      </trkpt>
      <trkpt lat="43.91655" lon="7.06496">
        <ele>1507.48</ele>
        <time>2010-04-05T14:24:06Z</time>
      </trkpt>
      <trkpt lat="43.9165" lon="7.06499">
        <ele>1508.93</ele>
        <time>2010-04-05T14:24:26Z</time>
      </trkpt>
      <trkpt lat="43.9165" lon="7.065">
        <ele>1508.45</ele>
        <time>2010-04-05T14:24:49Z</time>
      </trkpt>
      <trkpt lat="43.91642" lon="7.0652">
        <ele>1505.56</ele>
        <time>2010-04-05T14:24:56Z</time>
      </trkpt>
      <trkpt lat="43.9164" lon="7.0653">
        <ele>1504.12</ele>
        <time>2010-04-05T14:25:00Z</time>
      </trkpt>
      <trkpt lat="43.91638" lon="7.06537">
        <ele>1503.64</ele>
        <time>2010-04-05T14:25:02Z</time>
      </trkpt>
      <trkpt lat="43.91639" lon="7.06542">
        <ele>1502.68</ele>
        <time>2010-04-05T14:25:05Z</time>
      </trkpt>
      <trkpt lat="43.91639" lon="7.06546">
        <ele>1501.72</ele>
        <time>2010-04-05T14:25:09Z</time>
      </trkpt>
      <trkpt lat="43.9163" lon="7.06559">
        <ele>1502.2</ele>
        <time>2010-04-05T14:25:24Z</time>
      </trkpt>
      <trkpt lat="43.91619" lon="7.06585">
        <ele>1502.2</ele>
        <time>2010-04-05T14:25:39Z</time>
      </trkpt>
      <trkpt lat="43.91618" lon="7.06586">
        <ele>1501.72</ele>
        <time>2010-04-05T14:25:41Z</time>
      </trkpt>
      <trkpt lat="43.91617" lon="7.06591">
        <ele>1500.76</ele>
        <time>2010-04-05T14:25:43Z</time>
      </trkpt>
      <trkpt lat="43.91608" lon="7.06597">
        <ele>1502.2</ele>
        <time>2010-04-05T14:25:58Z</time>
      </trkpt>
      <trkpt lat="43.91588" lon="7.06608">
        <ele>1500.76</ele>
        <time>2010-04-05T14:26:09Z</time>
      </trkpt>
      <trkpt lat="43.91583" lon="7.0661">
        <ele>1502.2</ele>
        <time>2010-04-05T14:26:25Z</time>
      </trkpt>
      <trkpt lat="43.91579" lon="7.0661">
        <ele>1503.16</ele>
        <time>2010-04-05T14:26:30Z</time>
      </trkpt>
      <trkpt lat="43.91576" lon="7.06612">
        <ele>1503.16</ele>
        <time>2010-04-05T14:26:33Z</time>
      </trkpt>
      <trkpt lat="43.9157" lon="7.0663">
        <ele>1502.2</ele>
        <time>2010-04-05T14:26:49Z</time>
      </trkpt>
      <trkpt lat="43.91557" lon="7.06654">
        <ele>1502.68</ele>
        <time>2010-04-05T14:27:08Z</time>
      </trkpt>
      <trkpt lat="43.91551" lon="7.06665">
        <ele>1502.2</ele>
        <time>2010-04-05T14:27:16Z</time>
      </trkpt>
      <trkpt lat="43.91544" lon="7.06686">
        <ele>1500.76</ele>
        <time>2010-04-05T14:27:34Z</time>
      </trkpt>
      <trkpt lat="43.91543" lon="7.06688">
        <ele>1500.76</ele>
        <time>2010-04-05T14:27:36Z</time>
      </trkpt>
      <trkpt lat="43.91538" lon="7.06697">
        <ele>1501.24</ele>
        <time>2010-04-05T14:27:44Z</time>
      </trkpt>
      <trkpt lat="43.91531" lon="7.06707">
        <ele>1501.72</ele>
        <time>2010-04-05T14:27:56Z</time>
      </trkpt>
      <trkpt lat="43.91524" lon="7.06723">
        <ele>1502.68</ele>
        <time>2010-04-05T14:28:15Z</time>
      </trkpt>
      <trkpt lat="43.91515" lon="7.06738">
        <ele>1504.12</ele>
        <time>2010-04-05T14:28:31Z</time>
      </trkpt>
      <trkpt lat="43.91511" lon="7.06744">
        <ele>1505.56</ele>
        <time>2010-04-05T14:28:40Z</time>
      </trkpt>
      <trkpt lat="43.9151" lon="7.06747">
        <ele>1506.52</ele>
        <time>2010-04-05T14:28:44Z</time>
      </trkpt>
      <trkpt lat="43.91506" lon="7.06756">
        <ele>1507.97</ele>
        <time>2010-04-05T14:28:58Z</time>
      </trkpt>
      <trkpt lat="43.91506" lon="7.06759">
        <ele>1507.97</ele>
        <time>2010-04-05T14:29:01Z</time>
      </trkpt>
      <trkpt lat="43.91501" lon="7.0677">
        <ele>1509.41</ele>
        <time>2010-04-05T14:29:13Z</time>
      </trkpt>
      <trkpt lat="43.91499" lon="7.06774">
        <ele>1511.33</ele>
        <time>2010-04-05T14:29:16Z</time>
      </trkpt>
      <trkpt lat="43.91494" lon="7.06781">
        <ele>1511.81</ele>
        <time>2010-04-05T14:29:24Z</time>
      </trkpt>
      <trkpt lat="43.91491" lon="7.06789">
        <ele>1512.77</ele>
        <time>2010-04-05T14:29:30Z</time>
      </trkpt>
      <trkpt lat="43.91484" lon="7.06798">
        <ele>1515.18</ele>
        <time>2010-04-05T14:29:42Z</time>
      </trkpt>
      <trkpt lat="43.91477" lon="7.06807">
        <ele>1516.14</ele>
        <time>2010-04-05T14:30:00Z</time>
      </trkpt>
      <trkpt lat="43.91478" lon="7.06809">
        <ele>1517.58</ele>
        <time>2010-04-05T14:31:09Z</time>
      </trkpt>
      <trkpt lat="43.91477" lon="7.06817">
        <ele>1515.66</ele>
        <time>2010-04-05T14:31:13Z</time>
      </trkpt>
      <trkpt lat="43.91476" lon="7.06821">
        <ele>1515.66</ele>
        <time>2010-04-05T14:31:15Z</time>
      </trkpt>
      <trkpt lat="43.91471" lon="7.0683">
        <ele>1516.62</ele>
        <time>2010-04-05T14:31:23Z</time>
      </trkpt>
      <trkpt lat="43.9147" lon="7.06836">
        <ele>1516.14</ele>
        <time>2010-04-05T14:31:31Z</time>
      </trkpt>
      <trkpt lat="43.91469" lon="7.06836">
        <ele>1516.14</ele>
        <time>2010-04-05T14:31:53Z</time>
      </trkpt>
      <trkpt lat="43.91469" lon="7.06837">
        <ele>1512.77</ele>
        <time>2010-04-05T14:41:25Z</time>
      </trkpt>
      <trkpt lat="43.9147" lon="7.06837">
        <ele>1513.25</ele>
        <time>2010-04-05T14:51:38Z</time>
      </trkpt>
      <trkpt lat="43.91471" lon="7.06844">
        <ele>1513.25</ele>
        <time>2010-04-05T14:51:45Z</time>
      </trkpt>
      <trkpt lat="43.91473" lon="7.06856">
        <ele>1512.77</ele>
        <time>2010-04-05T14:51:50Z</time>
      </trkpt>
      <trkpt lat="43.91466" lon="7.06873">
        <ele>1512.29</ele>
        <time>2010-04-05T14:52:00Z</time>
      </trkpt>
      <trkpt lat="43.91467" lon="7.06876">
        <ele>1511.81</ele>
        <time>2010-04-05T14:52:21Z</time>
      </trkpt>
      <trkpt lat="43.9147" lon="7.06877">
        <ele>1511.33</ele>
        <time>2010-04-05T14:52:43Z</time>
      </trkpt>
      <trkpt lat="43.9147" lon="7.06882">
        <ele>1509.41</ele>
        <time>2010-04-05T14:53:36Z</time>
      </trkpt>
      <trkpt lat="43.91473" lon="7.06892">
        <ele>1506.52</ele>
        <time>2010-04-05T14:53:53Z</time>
      </trkpt>
      <trkpt lat="43.91475" lon="7.06897">
        <ele>1504.12</ele>
        <time>2010-04-05T14:54:07Z</time>
      </trkpt>
      <trkpt lat="43.91476" lon="7.06904">
        <ele>1501.72</ele>
        <time>2010-04-05T14:54:24Z</time>
      </trkpt>
      <trkpt lat="43.91478" lon="7.06916">
        <ele>1498.83</ele>
        <time>2010-04-05T14:54:41Z</time>
      </trkpt>
      <trkpt lat="43.91479" lon="7.06923">
        <ele>1495.95</ele>
        <time>2010-04-05T14:54:56Z</time>
      </trkpt>
      <trkpt lat="43.9148" lon="7.06925">
        <ele>1494.51</ele>
        <time>2010-04-05T14:55:01Z</time>
      </trkpt>
      <trkpt lat="43.9148" lon="7.06931">
        <ele>1492.1</ele>
        <time>2010-04-05T14:55:08Z</time>
      </trkpt>
      <trkpt lat="43.91482" lon="7.06937">
        <ele>1490.66</ele>
        <time>2010-04-05T14:55:14Z</time>
      </trkpt>
      <trkpt lat="43.91485" lon="7.06941">
        <ele>1488.74</ele>
        <time>2010-04-05T14:55:30Z</time>
      </trkpt>
      <trkpt lat="43.91486" lon="7.06946">
        <ele>1487.3</ele>
        <time>2010-04-05T14:55:54Z</time>
      </trkpt>
      <trkpt lat="43.91487" lon="7.06955">
        <ele>1484.41</ele>
        <time>2010-04-05T14:56:05Z</time>
      </trkpt>
      <trkpt lat="43.91489" lon="7.06956">
        <ele>1484.41</ele>
        <time>2010-04-05T14:56:11Z</time>
      </trkpt>
      <trkpt lat="43.9149" lon="7.06965">
        <ele>1481.53</ele>
        <time>2010-04-05T14:56:21Z</time>
      </trkpt>
      <trkpt lat="43.9149" lon="7.06974">
        <ele>1478.65</ele>
        <time>2010-04-05T14:56:32Z</time>
      </trkpt>
      <trkpt lat="43.9149" lon="7.06976">
        <ele>1478.16</ele>
        <time>2010-04-05T14:56:50Z</time>
      </trkpt>
      <trkpt lat="43.91487" lon="7.06976">
        <ele>1475.28</ele>
        <time>2010-04-05T14:57:06Z</time>
      </trkpt>
      <trkpt lat="43.91485" lon="7.06975">
        <ele>1474.32</ele>
        <time>2010-04-05T14:57:12Z</time>
      </trkpt>
      <trkpt lat="43.91482" lon="7.06973">
        <ele>1472.88</ele>
        <time>2010-04-05T14:57:15Z</time>
      </trkpt>
      <trkpt lat="43.91478" lon="7.06971">
        <ele>1470.47</ele>
        <time>2010-04-05T14:57:33Z</time>
      </trkpt>
      <trkpt lat="43.91478" lon="7.06971">
        <ele>1468.07</ele>
        <time>2010-04-05T14:57:48Z</time>
      </trkpt>
      <trkpt lat="43.91474" lon="7.06972">
        <ele>1464.71</ele>
        <time>2010-04-05T14:58:01Z</time>
      </trkpt>
      <trkpt lat="43.9146" lon="7.06973">
        <ele>1462.78</ele>
        <time>2010-04-05T14:58:15Z</time>
      </trkpt>
      <trkpt lat="43.91448" lon="7.06969">
        <ele>1458.94</ele>
        <time>2010-04-05T14:58:29Z</time>
      </trkpt>
      <trkpt lat="43.91446" lon="7.06971">
        <ele>1457.02</ele>
        <time>2010-04-05T14:58:46Z</time>
      </trkpt>
      <trkpt lat="43.91439" lon="7.06974">
        <ele>1454.13</ele>
        <time>2010-04-05T14:58:58Z</time>
      </trkpt>
      <trkpt lat="43.91436" lon="7.06974">
        <ele>1451.25</ele>
        <time>2010-04-05T14:59:09Z</time>
      </trkpt>
      <trkpt lat="43.91434" lon="7.06973">
        <ele>1449.32</ele>
        <time>2010-04-05T14:59:21Z</time>
      </trkpt>
      <trkpt lat="43.91428" lon="7.06973">
        <ele>1447.4</ele>
        <time>2010-04-05T14:59:27Z</time>
      </trkpt>
      <trkpt lat="43.91423" lon="7.0697">
        <ele>1447.4</ele>
        <time>2010-04-05T14:59:31Z</time>
      </trkpt>
      <trkpt lat="43.91419" lon="7.06972">
        <ele>1445.96</ele>
        <time>2010-04-05T14:59:34Z</time>
      </trkpt>
      <trkpt lat="43.91409" lon="7.06967">
        <ele>1443.08</ele>
        <time>2010-04-05T14:59:53Z</time>
      </trkpt>
      <trkpt lat="43.91398" lon="7.06964">
        <ele>1442.11</ele>
        <time>2010-04-05T15:00:12Z</time>
      </trkpt>
      <trkpt lat="43.91373" lon="7.06963">
        <ele>1437.79</ele>
        <time>2010-04-05T15:00:23Z</time>
      </trkpt>
      <trkpt lat="43.91368" lon="7.06962">
        <ele>1434.91</ele>
        <time>2010-04-05T15:00:30Z</time>
      </trkpt>
      <trkpt lat="43.91365" lon="7.06963">
        <ele>1432.98</ele>
        <time>2010-04-05T15:00:53Z</time>
      </trkpt>
      <trkpt lat="43.91357" lon="7.06964">
        <ele>1429.62</ele>
        <time>2010-04-05T15:01:06Z</time>
      </trkpt>
      <trkpt lat="43.91344" lon="7.06962">
        <ele>1426.25</ele>
        <time>2010-04-05T15:01:10Z</time>
      </trkpt>
      <trkpt lat="43.91331" lon="7.06958">
        <ele>1422.89</ele>
        <time>2010-04-05T15:01:15Z</time>
      </trkpt>
      <trkpt lat="43.9132" lon="7.0695">
        <ele>1419.04</ele>
        <time>2010-04-05T15:01:19Z</time>
      </trkpt>
      <trkpt lat="43.91315" lon="7.0695">
        <ele>1417.6</ele>
        <time>2010-04-05T15:01:22Z</time>
      </trkpt>
      <trkpt lat="43.91315" lon="7.06952">
        <ele>1416.64</ele>
        <time>2010-04-05T15:01:23Z</time>
      </trkpt>
      <trkpt lat="43.91315" lon="7.06958">
        <ele>1415.2</ele>
        <time>2010-04-05T15:01:26Z</time>
      </trkpt>
      <trkpt lat="43.91315" lon="7.06965">
        <ele>1413.28</ele>
        <time>2010-04-05T15:01:29Z</time>
      </trkpt>
      <trkpt lat="43.91314" lon="7.06967">
        <ele>1413.28</ele>
        <time>2010-04-05T15:01:31Z</time>
      </trkpt>
      <trkpt lat="43.91304" lon="7.06962">
        <ele>1409.43</ele>
        <time>2010-04-05T15:01:36Z</time>
      </trkpt>
      <trkpt lat="43.91298" lon="7.06957">
        <ele>1408.47</ele>
        <time>2010-04-05T15:01:38Z</time>
      </trkpt>
      <trkpt lat="43.91278" lon="7.06943">
        <ele>1405.1</ele>
        <time>2010-04-05T15:01:47Z</time>
      </trkpt>
      <trkpt lat="43.91273" lon="7.0694">
        <ele>1403.66</ele>
        <time>2010-04-05T15:01:48Z</time>
      </trkpt>
      <trkpt lat="43.91266" lon="7.06936">
        <ele>1403.66</ele>
        <time>2010-04-05T15:01:49Z</time>
      </trkpt>
      <trkpt lat="43.91256" lon="7.06931">
        <ele>1402.7</ele>
        <time>2010-04-05T15:01:51Z</time>
      </trkpt>
      <trkpt lat="43.91248" lon="7.06925">
        <ele>1400.78</ele>
        <time>2010-04-05T15:01:54Z</time>
      </trkpt>
      <trkpt lat="43.91239" lon="7.06921">
        <ele>1398.37</ele>
        <time>2010-04-05T15:02:06Z</time>
      </trkpt>
      <trkpt lat="43.91239" lon="7.06925">
        <ele>1398.37</ele>
        <time>2010-04-05T15:02:08Z</time>
      </trkpt>
      <trkpt lat="43.91238" lon="7.06929">
        <ele>1397.89</ele>
        <time>2010-04-05T15:02:09Z</time>
      </trkpt>
      <trkpt lat="43.91237" lon="7.06934">
        <ele>1395.49</ele>
        <time>2010-04-05T15:02:10Z</time>
      </trkpt>
      <trkpt lat="43.91233" lon="7.06938">
        <ele>1395.01</ele>
        <time>2010-04-05T15:02:11Z</time>
      </trkpt>
      <trkpt lat="43.91229" lon="7.0694">
        <ele>1395.01</ele>
        <time>2010-04-05T15:02:12Z</time>
      </trkpt>
      <trkpt lat="43.91227" lon="7.06941">
        <ele>1394.53</ele>
        <time>2010-04-05T15:02:25Z</time>
      </trkpt>
      <trkpt lat="43.91227" lon="7.06942">
        <ele>1396.45</ele>
        <time>2010-04-05T15:07:38Z</time>
      </trkpt>
      <trkpt lat="43.91225" lon="7.06944">
        <ele>1398.86</ele>
        <time>2010-04-05T15:14:48Z</time>
      </trkpt>
      <trkpt lat="43.91225" lon="7.06941">
        <ele>1399.82</ele>
        <time>2010-04-05T15:18:36Z</time>
      </trkpt>
      <trkpt lat="43.91227" lon="7.06941">
        <ele>1399.82</ele>
        <time>2010-04-05T15:18:43Z</time>
      </trkpt>
      <trkpt lat="43.91228" lon="7.06943">
        <ele>1399.82</ele>
        <time>2010-04-05T15:18:44Z</time>
      </trkpt>
      <trkpt lat="43.91228" lon="7.06945">
        <ele>1399.34</ele>
        <time>2010-04-05T15:18:45Z</time>
      </trkpt>
      <trkpt lat="43.91226" lon="7.06947">
        <ele>1399.34</ele>
        <time>2010-04-05T15:18:46Z</time>
      </trkpt>
      <trkpt lat="43.91224" lon="7.06948">
        <ele>1398.37</ele>
        <time>2010-04-05T15:18:47Z</time>
      </trkpt>
      <trkpt lat="43.91221" lon="7.0695">
        <ele>1397.41</ele>
        <time>2010-04-05T15:18:48Z</time>
      </trkpt>
      <trkpt lat="43.9122" lon="7.06952">
        <ele>1395.97</ele>
        <time>2010-04-05T15:18:49Z</time>
      </trkpt>
      <trkpt lat="43.91218" lon="7.06955">
        <ele>1395.01</ele>
        <time>2010-04-05T15:18:50Z</time>
      </trkpt>
      <trkpt lat="43.91215" lon="7.06956">
        <ele>1394.53</ele>
        <time>2010-04-05T15:18:51Z</time>
      </trkpt>
      <trkpt lat="43.91213" lon="7.06959">
        <ele>1393.57</ele>
        <time>2010-04-05T15:18:52Z</time>
      </trkpt>
      <trkpt lat="43.91213" lon="7.06962">
        <ele>1393.09</ele>
        <time>2010-04-05T15:18:53Z</time>
      </trkpt>
      <trkpt lat="43.91213" lon="7.06965">
        <ele>1392.61</ele>
        <time>2010-04-05T15:18:54Z</time>
      </trkpt>
      <trkpt lat="43.91214" lon="7.06967">
        <ele>1391.65</ele>
        <time>2010-04-05T15:18:55Z</time>
      </trkpt>
      <trkpt lat="43.91215" lon="7.06968">
        <ele>1390.68</ele>
        <time>2010-04-05T15:18:56Z</time>
      </trkpt>
      <trkpt lat="43.91216" lon="7.06971">
        <ele>1390.2</ele>
        <time>2010-04-05T15:18:57Z</time>
      </trkpt>
      <trkpt lat="43.91217" lon="7.06973">
        <ele>1389.72</ele>
        <time>2010-04-05T15:18:58Z</time>
      </trkpt>
      <trkpt lat="43.91217" lon="7.06974">
        <ele>1389.24</ele>
        <time>2010-04-05T15:18:59Z</time>
      </trkpt>
      <trkpt lat="43.91217" lon="7.06976">
        <ele>1388.76</ele>
        <time>2010-04-05T15:19:00Z</time>
      </trkpt>
      <trkpt lat="43.91216" lon="7.06978">
        <ele>1388.76</ele>
        <time>2010-04-05T15:19:01Z</time>
      </trkpt>
      <trkpt lat="43.91216" lon="7.06983">
        <ele>1386.84</ele>
        <time>2010-04-05T15:19:17Z</time>
      </trkpt>
      <trkpt lat="43.91216" lon="7.06992">
        <ele>1382.99</ele>
        <time>2010-04-05T15:19:30Z</time>
      </trkpt>
      <trkpt lat="43.91209" lon="7.07009">
        <ele>1379.63</ele>
        <time>2010-04-05T15:19:34Z</time>
      </trkpt>
      <trkpt lat="43.91208" lon="7.07013">
        <ele>1379.15</ele>
        <time>2010-04-05T15:19:35Z</time>
      </trkpt>
      <trkpt lat="43.91207" lon="7.07035">
        <ele>1373.86</ele>
        <time>2010-04-05T15:19:40Z</time>
      </trkpt>
      <trkpt lat="43.91206" lon="7.0704">
        <ele>1373.86</ele>
        <time>2010-04-05T15:19:41Z</time>
      </trkpt>
      <trkpt lat="43.91205" lon="7.07042">
        <ele>1373.38</ele>
        <time>2010-04-05T15:19:42Z</time>
      </trkpt>
      <trkpt lat="43.91201" lon="7.07057">
        <ele>1370.5</ele>
        <time>2010-04-05T15:19:48Z</time>
      </trkpt>
      <trkpt lat="43.91192" lon="7.07074">
        <ele>1367.61</ele>
        <time>2010-04-05T15:19:52Z</time>
      </trkpt>
      <trkpt lat="43.91178" lon="7.0709">
        <ele>1369.05</ele>
        <time>2010-04-05T15:20:07Z</time>
      </trkpt>
      <trkpt lat="43.91169" lon="7.07106">
        <ele>1368.09</ele>
        <time>2010-04-05T15:20:23Z</time>
      </trkpt>
      <trkpt lat="43.91168" lon="7.0711">
        <ele>1367.13</ele>
        <time>2010-04-05T15:20:41Z</time>
      </trkpt>
      <trkpt lat="43.91165" lon="7.0712">
        <ele>1366.17</ele>
        <time>2010-04-05T15:20:45Z</time>
      </trkpt>
      <trkpt lat="43.91152" lon="7.0716">
        <ele>1361.36</ele>
        <time>2010-04-05T15:20:57Z</time>
      </trkpt>
      <trkpt lat="43.91148" lon="7.07168">
        <ele>1360.88</ele>
        <time>2010-04-05T15:20:59Z</time>
      </trkpt>
      <trkpt lat="43.91144" lon="7.07176">
        <ele>1359.92</ele>
        <time>2010-04-05T15:21:03Z</time>
      </trkpt>
      <trkpt lat="43.91138" lon="7.07198">
        <ele>1356.08</ele>
        <time>2010-04-05T15:21:11Z</time>
      </trkpt>
      <trkpt lat="43.91136" lon="7.072">
        <ele>1356.08</ele>
        <time>2010-04-05T15:21:12Z</time>
      </trkpt>
      <trkpt lat="43.91133" lon="7.0721">
        <ele>1354.63</ele>
        <time>2010-04-05T15:21:15Z</time>
      </trkpt>
      <trkpt lat="43.91132" lon="7.07213">
        <ele>1353.67</ele>
        <time>2010-04-05T15:21:16Z</time>
      </trkpt>
      <trkpt lat="43.91128" lon="7.07217">
        <ele>1354.15</ele>
        <time>2010-04-05T15:21:21Z</time>
      </trkpt>
      <trkpt lat="43.91125" lon="7.07229">
        <ele>1352.71</ele>
        <time>2010-04-05T15:21:27Z</time>
      </trkpt>
      <trkpt lat="43.9112" lon="7.07241">
        <ele>1351.27</ele>
        <time>2010-04-05T15:21:41Z</time>
      </trkpt>
      <trkpt lat="43.91115" lon="7.07248">
        <ele>1351.27</ele>
        <time>2010-04-05T15:22:05Z</time>
      </trkpt>
      <trkpt lat="43.91112" lon="7.07253">
        <ele>1349.35</ele>
        <time>2010-04-05T15:22:21Z</time>
      </trkpt>
      <trkpt lat="43.9111" lon="7.07252">
        <ele>1348.87</ele>
        <time>2010-04-05T15:22:59Z</time>
      </trkpt>
      <trkpt lat="43.91107" lon="7.07255">
        <ele>1348.87</ele>
        <time>2010-04-05T15:23:37Z</time>
      </trkpt>
      <trkpt lat="43.91101" lon="7.07263">
        <ele>1349.35</ele>
        <time>2010-04-05T15:23:48Z</time>
      </trkpt>
      <trkpt lat="43.91097" lon="7.0727">
        <ele>1348.39</ele>
        <time>2010-04-05T15:23:53Z</time>
      </trkpt>
      <trkpt lat="43.91083" lon="7.07283">
        <ele>1346.46</ele>
        <time>2010-04-05T15:24:05Z</time>
      </trkpt>
      <trkpt lat="43.91077" lon="7.07295">
        <ele>1342.62</ele>
        <time>2010-04-05T15:24:16Z</time>
      </trkpt>
      <trkpt lat="43.91074" lon="7.07305">
        <ele>1340.7</ele>
        <time>2010-04-05T15:24:27Z</time>
      </trkpt>
      <trkpt lat="43.91072" lon="7.07321">
        <ele>1336.85</ele>
        <time>2010-04-05T15:24:32Z</time>
      </trkpt>
      <trkpt lat="43.91069" lon="7.07335">
        <ele>1334.45</ele>
        <time>2010-04-05T15:24:35Z</time>
      </trkpt>
      <trkpt lat="43.91067" lon="7.07346">
        <ele>1332.52</ele>
        <time>2010-04-05T15:24:38Z</time>
      </trkpt>
      <trkpt lat="43.91065" lon="7.07355">
        <ele>1329.64</ele>
        <time>2010-04-05T15:24:49Z</time>
      </trkpt>
      <trkpt lat="43.91061" lon="7.07366">
        <ele>1327.24</ele>
        <time>2010-04-05T15:24:53Z</time>
      </trkpt>
      <trkpt lat="43.9106" lon="7.07371">
        <ele>1326.28</ele>
        <time>2010-04-05T15:24:55Z</time>
      </trkpt>
      <trkpt lat="43.9106" lon="7.07375">
        <ele>1326.28</ele>
        <time>2010-04-05T15:25:23Z</time>
      </trkpt>
      <trkpt lat="43.91058" lon="7.07381">
        <ele>1324.83</ele>
        <time>2010-04-05T15:25:50Z</time>
      </trkpt>
      <trkpt lat="43.91051" lon="7.07394">
        <ele>1322.43</ele>
        <time>2010-04-05T15:25:55Z</time>
      </trkpt>
      <trkpt lat="43.91048" lon="7.07408">
        <ele>1320.51</ele>
        <time>2010-04-05T15:25:58Z</time>
      </trkpt>
      <trkpt lat="43.91047" lon="7.07416">
        <ele>1320.03</ele>
        <time>2010-04-05T15:26:05Z</time>
      </trkpt>
      <trkpt lat="43.91048" lon="7.07425">
        <ele>1319.07</ele>
        <time>2010-04-05T15:26:12Z</time>
      </trkpt>
      <trkpt lat="43.91043" lon="7.0746">
        <ele>1318.1</ele>
        <time>2010-04-05T15:26:22Z</time>
      </trkpt>
      <trkpt lat="43.91041" lon="7.0749">
        <ele>1313.78</ele>
        <time>2010-04-05T15:26:29Z</time>
      </trkpt>
      <trkpt lat="43.91038" lon="7.07507">
        <ele>1310.41</ele>
        <time>2010-04-05T15:26:33Z</time>
      </trkpt>
      <trkpt lat="43.91035" lon="7.07527">
        <ele>1309.45</ele>
        <time>2010-04-05T15:26:42Z</time>
      </trkpt>
      <trkpt lat="43.91036" lon="7.07555">
        <ele>1306.57</ele>
        <time>2010-04-05T15:26:56Z</time>
      </trkpt>
      <trkpt lat="43.91037" lon="7.07565">
        <ele>1305.61</ele>
        <time>2010-04-05T15:27:19Z</time>
      </trkpt>
      <trkpt lat="43.91043" lon="7.07599">
        <ele>1302.72</ele>
        <time>2010-04-05T15:30:42Z</time>
      </trkpt>
      <trkpt lat="43.91046" lon="7.07613">
        <ele>1300.8</ele>
        <time>2010-04-05T15:30:44Z</time>
      </trkpt>
      <trkpt lat="43.91046" lon="7.0762">
        <ele>1300.8</ele>
        <time>2010-04-05T15:30:45Z</time>
      </trkpt>
      <trkpt lat="43.9104" lon="7.07653">
        <ele>1300.32</ele>
        <time>2010-04-05T15:30:52Z</time>
      </trkpt>
      <trkpt lat="43.91039" lon="7.07657">
        <ele>1298.88</ele>
        <time>2010-04-05T15:30:53Z</time>
      </trkpt>
      <trkpt lat="43.91026" lon="7.07693">
        <ele>1295.99</ele>
        <time>2010-04-05T15:31:01Z</time>
      </trkpt>
      <trkpt lat="43.91021" lon="7.07712">
        <ele>1293.11</ele>
        <time>2010-04-05T15:31:05Z</time>
      </trkpt>
      <trkpt lat="43.91019" lon="7.07717">
        <ele>1291.19</ele>
        <time>2010-04-05T15:31:06Z</time>
      </trkpt>
      <trkpt lat="43.91018" lon="7.07722">
        <ele>1291.67</ele>
        <time>2010-04-05T15:31:07Z</time>
      </trkpt>
      <trkpt lat="43.91016" lon="7.07728">
        <ele>1291.67</ele>
        <time>2010-04-05T15:31:08Z</time>
      </trkpt>
      <trkpt lat="43.91015" lon="7.07733">
        <ele>1290.71</ele>
        <time>2010-04-05T15:31:09Z</time>
      </trkpt>
      <trkpt lat="43.91013" lon="7.07738">
        <ele>1290.71</ele>
        <time>2010-04-05T15:31:10Z</time>
      </trkpt>
      <trkpt lat="43.91012" lon="7.07743">
        <ele>1290.23</ele>
        <time>2010-04-05T15:31:11Z</time>
      </trkpt>
      <trkpt lat="43.91011" lon="7.07747">
        <ele>1289.75</ele>
        <time>2010-04-05T15:31:12Z</time>
      </trkpt>
      <trkpt lat="43.9101" lon="7.07752">
        <ele>1289.27</ele>
        <time>2010-04-05T15:31:13Z</time>
      </trkpt>
      <trkpt lat="43.91009" lon="7.07757">
        <ele>1288.78</ele>
        <time>2010-04-05T15:31:14Z</time>
      </trkpt>
      <trkpt lat="43.91007" lon="7.07761">
        <ele>1288.3</ele>
        <time>2010-04-05T15:31:15Z</time>
      </trkpt>
      <trkpt lat="43.91006" lon="7.07765">
        <ele>1288.3</ele>
        <time>2010-04-05T15:31:16Z</time>
      </trkpt>
      <trkpt lat="43.91004" lon="7.07782">
        <ele>1286.86</ele>
        <time>2010-04-05T15:31:21Z</time>
      </trkpt>
      <trkpt lat="43.90997" lon="7.07788">
        <ele>1286.38</ele>
        <time>2010-04-05T15:31:35Z</time>
      </trkpt>
      <trkpt lat="43.90993" lon="7.07794">
        <ele>1283.98</ele>
        <time>2010-04-05T15:31:44Z</time>
      </trkpt>
      <trkpt lat="43.90986" lon="7.07799">
        <ele>1283.5</ele>
        <time>2010-04-05T15:31:59Z</time>
      </trkpt>
      <trkpt lat="43.90986" lon="7.078">
        <ele>1283.5</ele>
        <time>2010-04-05T15:32:00Z</time>
      </trkpt>
      <trkpt lat="43.90982" lon="7.07806">
        <ele>1283.02</ele>
        <time>2010-04-05T15:32:06Z</time>
      </trkpt>
      <trkpt lat="43.90981" lon="7.07808">
        <ele>1283.02</ele>
        <time>2010-04-05T15:32:07Z</time>
      </trkpt>
      <trkpt lat="43.9098" lon="7.07808">
        <ele>1283.02</ele>
        <time>2010-04-05T15:32:08Z</time>
      </trkpt>
      <trkpt lat="43.90976" lon="7.07809">
        <ele>1282.54</ele>
        <time>2010-04-05T15:32:11Z</time>
      </trkpt>
      <trkpt lat="43.90975" lon="7.0781">
        <ele>1282.54</ele>
        <time>2010-04-05T15:32:12Z</time>
      </trkpt>
      <trkpt lat="43.90974" lon="7.07811">
        <ele>1282.06</ele>
        <time>2010-04-05T15:32:13Z</time>
      </trkpt>
      <trkpt lat="43.90973" lon="7.07812">
        <ele>1283.02</ele>
        <time>2010-04-05T15:32:14Z</time>
      </trkpt>
      <trkpt lat="43.90973" lon="7.07814">
        <ele>1282.54</ele>
        <time>2010-04-05T15:32:15Z</time>
      </trkpt>
      <trkpt lat="43.90972" lon="7.07815">
        <ele>1283.02</ele>
        <time>2010-04-05T15:32:16Z</time>
      </trkpt>
      <trkpt lat="43.90971" lon="7.07817">
        <ele>1282.06</ele>
        <time>2010-04-05T15:32:17Z</time>
      </trkpt>
      <trkpt lat="43.90971" lon="7.07819">
        <ele>1282.06</ele>
        <time>2010-04-05T15:32:18Z</time>
      </trkpt>
      <trkpt lat="43.9097" lon="7.07821">
        <ele>1282.06</ele>
        <time>2010-04-05T15:32:19Z</time>
      </trkpt>
      <trkpt lat="43.90969" lon="7.07822">
        <ele>1281.57</ele>
        <time>2010-04-05T15:32:20Z</time>
      </trkpt>
      <trkpt lat="43.90968" lon="7.07824">
        <ele>1282.06</ele>
        <time>2010-04-05T15:32:21Z</time>
      </trkpt>
      <trkpt lat="43.90968" lon="7.07825">
        <ele>1282.06</ele>
        <time>2010-04-05T15:32:22Z</time>
      </trkpt>
      <trkpt lat="43.90967" lon="7.07826">
        <ele>1282.54</ele>
        <time>2010-04-05T15:32:23Z</time>
      </trkpt>
      <trkpt lat="43.90966" lon="7.07828">
        <ele>1282.54</ele>
        <time>2010-04-05T15:32:24Z</time>
      </trkpt>
      <trkpt lat="43.90965" lon="7.07829">
        <ele>1282.54</ele>
        <time>2010-04-05T15:32:25Z</time>
      </trkpt>
      <trkpt lat="43.90965" lon="7.0783">
        <ele>1282.54</ele>
        <time>2010-04-05T15:32:26Z</time>
      </trkpt>
      <trkpt lat="43.90963" lon="7.07831">
        <ele>1283.02</ele>
        <time>2010-04-05T15:32:27Z</time>
      </trkpt>
      <trkpt lat="43.90962" lon="7.07832">
        <ele>1283.98</ele>
        <time>2010-04-05T15:32:28Z</time>
      </trkpt>
      <trkpt lat="43.90961" lon="7.07848">
        <ele>1286.38</ele>
        <time>2010-04-05T15:32:42Z</time>
      </trkpt>
      <trkpt lat="43.90962" lon="7.07865">
        <ele>1287.82</ele>
        <time>2010-04-05T15:33:00Z</time>
      </trkpt>
      <trkpt lat="43.90961" lon="7.0787">
        <ele>1287.82</ele>
        <time>2010-04-05T15:33:06Z</time>
      </trkpt>
      <trkpt lat="43.90954" lon="7.0788">
        <ele>1289.75</ele>
        <time>2010-04-05T15:33:16Z</time>
      </trkpt>
      <trkpt lat="43.90951" lon="7.07891">
        <ele>1289.75</ele>
        <time>2010-04-05T15:33:27Z</time>
      </trkpt>
      <trkpt lat="43.90951" lon="7.07892">
        <ele>1289.75</ele>
        <time>2010-04-05T15:33:28Z</time>
      </trkpt>
      <trkpt lat="43.90947" lon="7.07898">
        <ele>1288.3</ele>
        <time>2010-04-05T15:33:36Z</time>
      </trkpt>
      <trkpt lat="43.90947" lon="7.07903">
        <ele>1287.34</ele>
        <time>2010-04-05T15:33:47Z</time>
      </trkpt>
      <trkpt lat="43.90945" lon="7.07908">
        <ele>1285.9</ele>
        <time>2010-04-05T15:34:04Z</time>
      </trkpt>
      <trkpt lat="43.90944" lon="7.07908">
        <ele>1286.38</ele>
        <time>2010-04-05T15:34:13Z</time>
      </trkpt>
      <trkpt lat="43.90942" lon="7.0791">
        <ele>1286.86</ele>
        <time>2010-04-05T15:34:14Z</time>
      </trkpt>
      <trkpt lat="43.90941" lon="7.07912">
        <ele>1285.9</ele>
        <time>2010-04-05T15:34:15Z</time>
      </trkpt>
      <trkpt lat="43.9094" lon="7.07914">
        <ele>1284.94</ele>
        <time>2010-04-05T15:34:16Z</time>
      </trkpt>
      <trkpt lat="43.90939" lon="7.07915">
        <ele>1284.94</ele>
        <time>2010-04-05T15:34:17Z</time>
      </trkpt>
      <trkpt lat="43.90939" lon="7.07921">
        <ele>1283.5</ele>
        <time>2010-04-05T15:34:21Z</time>
      </trkpt>
      <trkpt lat="43.90936" lon="7.07929">
        <ele>1282.06</ele>
        <time>2010-04-05T15:34:24Z</time>
      </trkpt>
      <trkpt lat="43.90934" lon="7.07931">
        <ele>1280.61</ele>
        <time>2010-04-05T15:34:48Z</time>
      </trkpt>
      <trkpt lat="43.90932" lon="7.07933">
        <ele>1281.57</ele>
        <time>2010-04-05T15:36:18Z</time>
      </trkpt>
      <trkpt lat="43.90924" lon="7.07942">
        <ele>1280.13</ele>
        <time>2010-04-05T15:36:22Z</time>
      </trkpt>
      <trkpt lat="43.90921" lon="7.07948">
        <ele>1279.65</ele>
        <time>2010-04-05T15:36:31Z</time>
      </trkpt>
      <trkpt lat="43.90926" lon="7.07959">
        <ele>1278.21</ele>
        <time>2010-04-05T15:36:36Z</time>
      </trkpt>
      <trkpt lat="43.90926" lon="7.0797">
        <ele>1276.77</ele>
        <time>2010-04-05T15:36:40Z</time>
      </trkpt>
      <trkpt lat="43.90923" lon="7.07983">
        <ele>1274.85</ele>
        <time>2010-04-05T15:36:44Z</time>
      </trkpt>
      <trkpt lat="43.90914" lon="7.07997">
        <ele>1271</ele>
        <time>2010-04-05T15:36:48Z</time>
      </trkpt>
      <trkpt lat="43.90908" lon="7.08002">
        <ele>1269.08</ele>
        <time>2010-04-05T15:36:51Z</time>
      </trkpt>
      <trkpt lat="43.90909" lon="7.08015">
        <ele>1265.23</ele>
        <time>2010-04-05T15:36:55Z</time>
      </trkpt>
      <trkpt lat="43.9091" lon="7.08031">
        <ele>1263.79</ele>
        <time>2010-04-05T15:36:58Z</time>
      </trkpt>
      <trkpt lat="43.9091" lon="7.08045">
        <ele>1262.83</ele>
        <time>2010-04-05T15:37:00Z</time>
      </trkpt>
      <trkpt lat="43.90911" lon="7.08053">
        <ele>1262.35</ele>
        <time>2010-04-05T15:37:01Z</time>
      </trkpt>
      <trkpt lat="43.90913" lon="7.0806">
        <ele>1261.87</ele>
        <time>2010-04-05T15:37:02Z</time>
      </trkpt>
      <trkpt lat="43.90923" lon="7.08096">
        <ele>1262.35</ele>
        <time>2010-04-05T15:37:09Z</time>
      </trkpt>
      <trkpt lat="43.90929" lon="7.08125">
        <ele>1265.23</ele>
        <time>2010-04-05T15:37:23Z</time>
      </trkpt>
      <trkpt lat="43.90927" lon="7.08134">
        <ele>1268.6</ele>
        <time>2010-04-05T15:37:37Z</time>
      </trkpt>
      <trkpt lat="43.90922" lon="7.08148">
        <ele>1271.48</ele>
        <time>2010-04-05T15:37:52Z</time>
      </trkpt>
      <trkpt lat="43.90922" lon="7.08154">
        <ele>1271.96</ele>
        <time>2010-04-05T15:38:00Z</time>
      </trkpt>
      <trkpt lat="43.90922" lon="7.08156">
        <ele>1271.96</ele>
        <time>2010-04-05T15:38:01Z</time>
      </trkpt>
      <trkpt lat="43.90921" lon="7.08159">
        <ele>1272.44</ele>
        <time>2010-04-05T15:38:03Z</time>
      </trkpt>
      <trkpt lat="43.90921" lon="7.08161">
        <ele>1271.96</ele>
        <time>2010-04-05T15:38:04Z</time>
      </trkpt>
      <trkpt lat="43.90922" lon="7.08168">
        <ele>1273.4</ele>
        <time>2010-04-05T15:38:08Z</time>
      </trkpt>
      <trkpt lat="43.90922" lon="7.0817">
        <ele>1272.92</ele>
        <time>2010-04-05T15:38:09Z</time>
      </trkpt>
      <trkpt lat="43.90921" lon="7.08173">
        <ele>1272.92</ele>
        <time>2010-04-05T15:38:10Z</time>
      </trkpt>
      <trkpt lat="43.90915" lon="7.08219">
        <ele>1274.36</ele>
        <time>2010-04-05T15:38:29Z</time>
      </trkpt>
      <trkpt lat="43.90915" lon="7.08222">
        <ele>1274.36</ele>
        <time>2010-04-05T15:38:30Z</time>
      </trkpt>
      <trkpt lat="43.90916" lon="7.08225">
        <ele>1273.88</ele>
        <time>2010-04-05T15:38:31Z</time>
      </trkpt>
      <trkpt lat="43.90907" lon="7.08277">
        <ele>1277.25</ele>
        <time>2010-04-05T15:38:50Z</time>
      </trkpt>
      <trkpt lat="43.90906" lon="7.08282">
        <ele>1277.73</ele>
        <time>2010-04-05T15:38:53Z</time>
      </trkpt>
      <trkpt lat="43.90906" lon="7.08284">
        <ele>1277.73</ele>
        <time>2010-04-05T15:38:54Z</time>
      </trkpt>
      <trkpt lat="43.90906" lon="7.08285">
        <ele>1277.73</ele>
        <time>2010-04-05T15:38:55Z</time>
      </trkpt>
      <trkpt lat="43.90906" lon="7.08287">
        <ele>1278.21</ele>
        <time>2010-04-05T15:38:56Z</time>
      </trkpt>
      <trkpt lat="43.909" lon="7.08295">
        <ele>1278.69</ele>
        <time>2010-04-05T15:39:03Z</time>
      </trkpt>
      <trkpt lat="43.909" lon="7.08297">
        <ele>1279.65</ele>
        <time>2010-04-05T15:39:04Z</time>
      </trkpt>
      <trkpt lat="43.90898" lon="7.08301">
        <ele>1279.65</ele>
        <time>2010-04-05T15:39:07Z</time>
      </trkpt>
      <trkpt lat="43.90894" lon="7.08315">
        <ele>1282.06</ele>
        <time>2010-04-05T15:39:21Z</time>
      </trkpt>
      <trkpt lat="43.90895" lon="7.08326">
        <ele>1282.06</ele>
        <time>2010-04-05T15:39:28Z</time>
      </trkpt>
      <trkpt lat="43.90892" lon="7.0835">
        <ele>1284.94</ele>
        <time>2010-04-05T15:39:43Z</time>
      </trkpt>
      <trkpt lat="43.90892" lon="7.08368">
        <ele>1286.38</ele>
        <time>2010-04-05T15:39:59Z</time>
      </trkpt>
      <trkpt lat="43.90892" lon="7.08371">
        <ele>1286.38</ele>
        <time>2010-04-05T15:40:00Z</time>
      </trkpt>
      <trkpt lat="43.90891" lon="7.08374">
        <ele>1286.86</ele>
        <time>2010-04-05T15:40:01Z</time>
      </trkpt>
      <trkpt lat="43.9089" lon="7.08378">
        <ele>1286.38</ele>
        <time>2010-04-05T15:40:02Z</time>
      </trkpt>
      <trkpt lat="43.9089" lon="7.0838">
        <ele>1286.38</ele>
        <time>2010-04-05T15:40:03Z</time>
      </trkpt>
      <trkpt lat="43.9089" lon="7.08384">
        <ele>1286.38</ele>
        <time>2010-04-05T15:40:04Z</time>
      </trkpt>
      <trkpt lat="43.9089" lon="7.08387">
        <ele>1286.38</ele>
        <time>2010-04-05T15:40:05Z</time>
      </trkpt>
      <trkpt lat="43.90891" lon="7.0839">
        <ele>1286.38</ele>
        <time>2010-04-05T15:40:06Z</time>
      </trkpt>
      <trkpt lat="43.90891" lon="7.08393">
        <ele>1286.86</ele>
        <time>2010-04-05T15:40:07Z</time>
      </trkpt>
      <trkpt lat="43.90891" lon="7.08397">
        <ele>1286.38</ele>
        <time>2010-04-05T15:40:08Z</time>
      </trkpt>
      <trkpt lat="43.90889" lon="7.08408">
        <ele>1287.82</ele>
        <time>2010-04-05T15:40:12Z</time>
      </trkpt>
      <trkpt lat="43.90888" lon="7.08411">
        <ele>1287.34</ele>
        <time>2010-04-05T15:40:13Z</time>
      </trkpt>
      <trkpt lat="43.90887" lon="7.08413">
        <ele>1285.9</ele>
        <time>2010-04-05T15:40:14Z</time>
      </trkpt>
      <trkpt lat="43.90886" lon="7.08417">
        <ele>1286.38</ele>
        <time>2010-04-05T15:40:15Z</time>
      </trkpt>
      <trkpt lat="43.90885" lon="7.0842">
        <ele>1285.42</ele>
        <time>2010-04-05T15:40:16Z</time>
      </trkpt>
      <trkpt lat="43.90884" lon="7.08423">
        <ele>1285.9</ele>
        <time>2010-04-05T15:40:17Z</time>
      </trkpt>
      <trkpt lat="43.90871" lon="7.0846">
        <ele>1286.38</ele>
        <time>2010-04-05T15:40:34Z</time>
      </trkpt>
      <trkpt lat="43.9087" lon="7.08462">
        <ele>1286.38</ele>
        <time>2010-04-05T15:40:35Z</time>
      </trkpt>
      <trkpt lat="43.90869" lon="7.08465">
        <ele>1286.38</ele>
        <time>2010-04-05T15:40:36Z</time>
      </trkpt>
      <trkpt lat="43.90868" lon="7.08468">
        <ele>1285.9</ele>
        <time>2010-04-05T15:40:37Z</time>
      </trkpt>
      <trkpt lat="43.90867" lon="7.08471">
        <ele>1285.9</ele>
        <time>2010-04-05T15:40:38Z</time>
      </trkpt>
      <trkpt lat="43.90866" lon="7.08474">
        <ele>1285.9</ele>
        <time>2010-04-05T15:40:39Z</time>
      </trkpt>
      <trkpt lat="43.90864" lon="7.08476">
        <ele>1286.86</ele>
        <time>2010-04-05T15:40:40Z</time>
      </trkpt>
      <trkpt lat="43.90863" lon="7.08478">
        <ele>1286.86</ele>
        <time>2010-04-05T15:40:41Z</time>
      </trkpt>
      <trkpt lat="43.90854" lon="7.08497">
        <ele>1287.34</ele>
        <time>2010-04-05T15:40:50Z</time>
      </trkpt>
      <trkpt lat="43.90826" lon="7.08518">
        <ele>1283.98</ele>
        <time>2010-04-05T15:41:05Z</time>
      </trkpt>
      <trkpt lat="43.90826" lon="7.0852">
        <ele>1283.5</ele>
        <time>2010-04-05T15:41:06Z</time>
      </trkpt>
      <trkpt lat="43.90827" lon="7.08524">
        <ele>1281.57</ele>
        <time>2010-04-05T15:41:10Z</time>
      </trkpt>
      <trkpt lat="43.9083" lon="7.0853">
        <ele>1280.61</ele>
        <time>2010-04-05T15:41:19Z</time>
      </trkpt>
      <trkpt lat="43.90831" lon="7.08543">
        <ele>1279.17</ele>
        <time>2010-04-05T15:41:24Z</time>
      </trkpt>
      <trkpt lat="43.90831" lon="7.08553">
        <ele>1278.69</ele>
        <time>2010-04-05T15:41:26Z</time>
      </trkpt>
      <trkpt lat="43.90829" lon="7.08566">
        <ele>1278.69</ele>
        <time>2010-04-05T15:41:34Z</time>
      </trkpt>
      <trkpt lat="43.90827" lon="7.08574">
        <ele>1279.17</ele>
        <time>2010-04-05T15:41:40Z</time>
      </trkpt>
      <trkpt lat="43.9083" lon="7.08599">
        <ele>1282.06</ele>
        <time>2010-04-05T15:41:56Z</time>
      </trkpt>
      <trkpt lat="43.9083" lon="7.08605">
        <ele>1282.06</ele>
        <time>2010-04-05T15:42:03Z</time>
      </trkpt>
      <trkpt lat="43.90827" lon="7.08612">
        <ele>1282.54</ele>
        <time>2010-04-05T15:42:08Z</time>
      </trkpt>
      <trkpt lat="43.9082" lon="7.08632">
        <ele>1281.09</ele>
        <time>2010-04-05T15:42:17Z</time>
      </trkpt>
      <trkpt lat="43.90822" lon="7.08637">
        <ele>1279.65</ele>
        <time>2010-04-05T15:42:19Z</time>
      </trkpt>
      <trkpt lat="43.90822" lon="7.08642">
        <ele>1277.73</ele>
        <time>2010-04-05T15:42:21Z</time>
      </trkpt>
      <trkpt lat="43.90821" lon="7.08648">
        <ele>1277.25</ele>
        <time>2010-04-05T15:42:24Z</time>
      </trkpt>
      <trkpt lat="43.90824" lon="7.08662">
        <ele>1274.36</ele>
        <time>2010-04-05T15:42:29Z</time>
      </trkpt>
      <trkpt lat="43.90825" lon="7.08668">
        <ele>1272.44</ele>
        <time>2010-04-05T15:42:43Z</time>
      </trkpt>
      <trkpt lat="43.90829" lon="7.08672">
        <ele>1272.44</ele>
        <time>2010-04-05T15:42:53Z</time>
      </trkpt>
      <trkpt lat="43.90833" lon="7.08676">
        <ele>1273.4</ele>
        <time>2010-04-05T15:42:56Z</time>
      </trkpt>
      <trkpt lat="43.90837" lon="7.08689">
        <ele>1272.92</ele>
        <time>2010-04-05T15:43:05Z</time>
      </trkpt>
      <trkpt lat="43.90841" lon="7.08692">
        <ele>1272.44</ele>
        <time>2010-04-05T15:43:25Z</time>
      </trkpt>
      <trkpt lat="43.90842" lon="7.08692">
        <ele>1273.4</ele>
        <time>2010-04-05T15:46:10Z</time>
      </trkpt>
      <trkpt lat="43.90849" lon="7.08697">
        <ele>1273.4</ele>
        <time>2010-04-05T15:46:41Z</time>
      </trkpt>
      <trkpt lat="43.9086" lon="7.08702">
        <ele>1271.96</ele>
        <time>2010-04-05T15:46:47Z</time>
      </trkpt>
      <trkpt lat="43.9087" lon="7.08704">
        <ele>1269.56</ele>
        <time>2010-04-05T15:46:51Z</time>
      </trkpt>
      <trkpt lat="43.9088" lon="7.08708">
        <ele>1268.12</ele>
        <time>2010-04-05T15:46:55Z</time>
      </trkpt>
      <trkpt lat="43.90883" lon="7.08707">
        <ele>1267.16</ele>
        <time>2010-04-05T15:47:00Z</time>
      </trkpt>
      <trkpt lat="43.9088" lon="7.08702">
        <ele>1265.23</ele>
        <time>2010-04-05T15:47:04Z</time>
      </trkpt>
      <trkpt lat="43.90882" lon="7.08697">
        <ele>1262.83</ele>
        <time>2010-04-05T15:47:08Z</time>
      </trkpt>
      <trkpt lat="43.90887" lon="7.08697">
        <ele>1261.87</ele>
        <time>2010-04-05T15:47:10Z</time>
      </trkpt>
      <trkpt lat="43.90894" lon="7.08697">
        <ele>1259.94</ele>
        <time>2010-04-05T15:47:13Z</time>
      </trkpt>
      <trkpt lat="43.90928" lon="7.08712">
        <ele>1257.06</ele>
        <time>2010-04-05T15:47:26Z</time>
      </trkpt>
      <trkpt lat="43.90934" lon="7.08712">
        <ele>1255.14</ele>
        <time>2010-04-05T15:47:28Z</time>
      </trkpt>
      <trkpt lat="43.90944" lon="7.08721">
        <ele>1251.77</ele>
        <time>2010-04-05T15:47:33Z</time>
      </trkpt>
      <trkpt lat="43.90948" lon="7.08733">
        <ele>1248.41</ele>
        <time>2010-04-05T15:47:36Z</time>
      </trkpt>
      <trkpt lat="43.90953" lon="7.0874">
        <ele>1247.93</ele>
        <time>2010-04-05T15:47:38Z</time>
      </trkpt>
      <trkpt lat="43.90964" lon="7.08731">
        <ele>1244.56</ele>
        <time>2010-04-05T15:47:49Z</time>
      </trkpt>
      <trkpt lat="43.90964" lon="7.08731">
        <ele>1244.56</ele>
        <time>2010-04-05T15:47:50Z</time>
      </trkpt>
      <trkpt lat="43.90967" lon="7.08726">
        <ele>1246.49</ele>
        <time>2010-04-05T15:48:09Z</time>
      </trkpt>
      <trkpt lat="43.90975" lon="7.08719">
        <ele>1246.01</ele>
        <time>2010-04-05T15:48:59Z</time>
      </trkpt>
      <trkpt lat="43.90975" lon="7.08717">
        <ele>1245.04</ele>
        <time>2010-04-05T15:49:16Z</time>
      </trkpt>
      <trkpt lat="43.90987" lon="7.08709">
        <ele>1241.68</ele>
        <time>2010-04-05T15:49:21Z</time>
      </trkpt>
      <trkpt lat="43.90995" lon="7.08706">
        <ele>1239.28</ele>
        <time>2010-04-05T15:49:23Z</time>
      </trkpt>
      <trkpt lat="43.90999" lon="7.08704">
        <ele>1238.8</ele>
        <time>2010-04-05T15:49:24Z</time>
      </trkpt>
      <trkpt lat="43.91003" lon="7.08702">
        <ele>1238.8</ele>
        <time>2010-04-05T15:49:25Z</time>
      </trkpt>
      <trkpt lat="43.91022" lon="7.0869">
        <ele>1241.2</ele>
        <time>2010-04-05T15:49:41Z</time>
      </trkpt>
      <trkpt lat="43.91043" lon="7.0868">
        <ele>1243.12</ele>
        <time>2010-04-05T15:49:55Z</time>
      </trkpt>
      <trkpt lat="43.91051" lon="7.08683">
        <ele>1242.64</ele>
        <time>2010-04-05T15:49:58Z</time>
      </trkpt>
      <trkpt lat="43.91054" lon="7.08683">
        <ele>1243.12</ele>
        <time>2010-04-05T15:49:59Z</time>
      </trkpt>
      <trkpt lat="43.91055" lon="7.08683">
        <ele>1242.16</ele>
        <time>2010-04-05T15:50:00Z</time>
      </trkpt>
      <trkpt lat="43.91075" lon="7.08688">
        <ele>1239.28</ele>
        <time>2010-04-05T15:50:06Z</time>
      </trkpt>
      <trkpt lat="43.9108" lon="7.08688">
        <ele>1238.32</ele>
        <time>2010-04-05T15:50:07Z</time>
      </trkpt>
      <trkpt lat="43.91097" lon="7.08694">
        <ele>1235.91</ele>
        <time>2010-04-05T15:50:11Z</time>
      </trkpt>
      <trkpt lat="43.91106" lon="7.08694">
        <ele>1232.55</ele>
        <time>2010-04-05T15:50:13Z</time>
      </trkpt>
      <trkpt lat="43.91116" lon="7.08695">
        <ele>1229.18</ele>
        <time>2010-04-05T15:50:15Z</time>
      </trkpt>
      <trkpt lat="43.91131" lon="7.08707">
        <ele>1225.82</ele>
        <time>2010-04-05T15:50:19Z</time>
      </trkpt>
      <trkpt lat="43.91139" lon="7.08714">
        <ele>1223.9</ele>
        <time>2010-04-05T15:50:21Z</time>
      </trkpt>
      <trkpt lat="43.91143" lon="7.08716">
        <ele>1222.45</ele>
        <time>2010-04-05T15:50:22Z</time>
      </trkpt>
      <trkpt lat="43.91147" lon="7.08715">
        <ele>1221.97</ele>
        <time>2010-04-05T15:50:23Z</time>
      </trkpt>
      <trkpt lat="43.91151" lon="7.08713">
        <ele>1221.49</ele>
        <time>2010-04-05T15:50:24Z</time>
      </trkpt>
      <trkpt lat="43.91155" lon="7.08712">
        <ele>1220.05</ele>
        <time>2010-04-05T15:50:25Z</time>
      </trkpt>
      <trkpt lat="43.91158" lon="7.08713">
        <ele>1218.13</ele>
        <time>2010-04-05T15:50:26Z</time>
      </trkpt>
      <trkpt lat="43.91162" lon="7.08714">
        <ele>1217.17</ele>
        <time>2010-04-05T15:50:27Z</time>
      </trkpt>
      <trkpt lat="43.91166" lon="7.08714">
        <ele>1215.72</ele>
        <time>2010-04-05T15:50:28Z</time>
      </trkpt>
      <trkpt lat="43.91169" lon="7.08713">
        <ele>1214.76</ele>
        <time>2010-04-05T15:50:29Z</time>
      </trkpt>
      <trkpt lat="43.91172" lon="7.08712">
        <ele>1213.8</ele>
        <time>2010-04-05T15:50:30Z</time>
      </trkpt>
      <trkpt lat="43.91176" lon="7.08713">
        <ele>1213.32</ele>
        <time>2010-04-05T15:50:31Z</time>
      </trkpt>
      <trkpt lat="43.91181" lon="7.08714">
        <ele>1211.88</ele>
        <time>2010-04-05T15:50:32Z</time>
      </trkpt>
      <trkpt lat="43.91194" lon="7.0872">
        <ele>1209</ele>
        <time>2010-04-05T15:50:35Z</time>
      </trkpt>
      <trkpt lat="43.91199" lon="7.08719">
        <ele>1208.03</ele>
        <time>2010-04-05T15:50:36Z</time>
      </trkpt>
      <trkpt lat="43.91203" lon="7.08719">
        <ele>1207.07</ele>
        <time>2010-04-05T15:50:37Z</time>
      </trkpt>
      <trkpt lat="43.91205" lon="7.08719">
        <ele>1206.11</ele>
        <time>2010-04-05T15:50:38Z</time>
      </trkpt>
      <trkpt lat="43.91208" lon="7.08721">
        <ele>1206.59</ele>
        <time>2010-04-05T15:50:39Z</time>
      </trkpt>
      <trkpt lat="43.91219" lon="7.08729">
        <ele>1205.63</ele>
        <time>2010-04-05T15:50:44Z</time>
      </trkpt>
      <trkpt lat="43.91225" lon="7.08728">
        <ele>1206.59</ele>
        <time>2010-04-05T15:51:06Z</time>
      </trkpt>
      <trkpt lat="43.9124" lon="7.08732">
        <ele>1204.19</ele>
        <time>2010-04-05T15:52:02Z</time>
      </trkpt>
      <trkpt lat="43.91276" lon="7.08724">
        <ele>1200.82</ele>
        <time>2010-04-05T15:52:12Z</time>
      </trkpt>
      <trkpt lat="43.9128" lon="7.08724">
        <ele>1200.34</ele>
        <time>2010-04-05T15:52:13Z</time>
      </trkpt>
      <trkpt lat="43.91293" lon="7.08726">
        <ele>1199.86</ele>
        <time>2010-04-05T15:52:16Z</time>
      </trkpt>
      <trkpt lat="43.91298" lon="7.08728">
        <ele>1199.38</ele>
        <time>2010-04-05T15:52:17Z</time>
      </trkpt>
      <trkpt lat="43.91306" lon="7.08731">
        <ele>1198.42</ele>
        <time>2010-04-05T15:52:19Z</time>
      </trkpt>
      <trkpt lat="43.91311" lon="7.08733">
        <ele>1196.98</ele>
        <time>2010-04-05T15:52:20Z</time>
      </trkpt>
      <trkpt lat="43.91315" lon="7.08735">
        <ele>1196.98</ele>
        <time>2010-04-05T15:52:21Z</time>
      </trkpt>
      <trkpt lat="43.91319" lon="7.08737">
        <ele>1196.5</ele>
        <time>2010-04-05T15:52:22Z</time>
      </trkpt>
      <trkpt lat="43.91324" lon="7.0874">
        <ele>1195.54</ele>
        <time>2010-04-05T15:52:23Z</time>
      </trkpt>
      <trkpt lat="43.91329" lon="7.08744">
        <ele>1195.06</ele>
        <time>2010-04-05T15:52:24Z</time>
      </trkpt>
      <trkpt lat="43.91335" lon="7.08748">
        <ele>1194.58</ele>
        <time>2010-04-05T15:52:25Z</time>
      </trkpt>
      <trkpt lat="43.91341" lon="7.08751">
        <ele>1194.09</ele>
        <time>2010-04-05T15:52:26Z</time>
      </trkpt>
      <trkpt lat="43.91347" lon="7.08754">
        <ele>1193.13</ele>
        <time>2010-04-05T15:52:27Z</time>
      </trkpt>
      <trkpt lat="43.91354" lon="7.08756">
        <ele>1191.69</ele>
        <time>2010-04-05T15:52:28Z</time>
      </trkpt>
      <trkpt lat="43.9136" lon="7.08757">
        <ele>1190.73</ele>
        <time>2010-04-05T15:52:29Z</time>
      </trkpt>
      <trkpt lat="43.91366" lon="7.08759">
        <ele>1188.33</ele>
        <time>2010-04-05T15:52:30Z</time>
      </trkpt>
      <trkpt lat="43.91371" lon="7.08761">
        <ele>1186.88</ele>
        <time>2010-04-05T15:52:31Z</time>
      </trkpt>
      <trkpt lat="43.91376" lon="7.08764">
        <ele>1185.92</ele>
        <time>2010-04-05T15:52:32Z</time>
      </trkpt>
      <trkpt lat="43.9138" lon="7.0877">
        <ele>1185.44</ele>
        <time>2010-04-05T15:52:33Z</time>
      </trkpt>
      <trkpt lat="43.91385" lon="7.08777">
        <ele>1185.44</ele>
        <time>2010-04-05T15:52:34Z</time>
      </trkpt>
      <trkpt lat="43.91388" lon="7.08782">
        <ele>1184</ele>
        <time>2010-04-05T15:52:35Z</time>
      </trkpt>
      <trkpt lat="43.91407" lon="7.08827">
        <ele>1183.52</ele>
        <time>2010-04-05T15:52:47Z</time>
      </trkpt>
      <trkpt lat="43.91412" lon="7.08852">
        <ele>1182.56</ele>
        <time>2010-04-05T15:52:54Z</time>
      </trkpt>
      <trkpt lat="43.91413" lon="7.08863">
        <ele>1181.6</ele>
        <time>2010-04-05T15:52:56Z</time>
      </trkpt>
      <trkpt lat="43.91416" lon="7.08877">
        <ele>1178.23</ele>
        <time>2010-04-05T15:53:00Z</time>
      </trkpt>
      <trkpt lat="43.91422" lon="7.08889">
        <ele>1173.91</ele>
        <time>2010-04-05T15:53:05Z</time>
      </trkpt>
      <trkpt lat="43.91424" lon="7.08891">
        <ele>1172.95</ele>
        <time>2010-04-05T15:53:06Z</time>
      </trkpt>
      <trkpt lat="43.91426" lon="7.08893">
        <ele>1171.98</ele>
        <time>2010-04-05T15:53:07Z</time>
      </trkpt>
      <trkpt lat="43.91428" lon="7.08896">
        <ele>1171.02</ele>
        <time>2010-04-05T15:53:08Z</time>
      </trkpt>
      <trkpt lat="43.91431" lon="7.08899">
        <ele>1170.54</ele>
        <time>2010-04-05T15:53:09Z</time>
      </trkpt>
      <trkpt lat="43.91433" lon="7.08901">
        <ele>1170.06</ele>
        <time>2010-04-05T15:53:10Z</time>
      </trkpt>
      <trkpt lat="43.91434" lon="7.08903">
        <ele>1169.58</ele>
        <time>2010-04-05T15:53:11Z</time>
      </trkpt>
      <trkpt lat="43.91437" lon="7.08906">
        <ele>1169.1</ele>
        <time>2010-04-05T15:53:12Z</time>
      </trkpt>
      <trkpt lat="43.9144" lon="7.08908">
        <ele>1169.1</ele>
        <time>2010-04-05T15:53:13Z</time>
      </trkpt>
      <trkpt lat="43.91457" lon="7.08912">
        <ele>1165.26</ele>
        <time>2010-04-05T15:53:20Z</time>
      </trkpt>
      <trkpt lat="43.91461" lon="7.08909">
        <ele>1163.81</ele>
        <time>2010-04-05T15:53:21Z</time>
      </trkpt>
      <trkpt lat="43.91465" lon="7.08906">
        <ele>1162.85</ele>
        <time>2010-04-05T15:53:22Z</time>
      </trkpt>
      <trkpt lat="43.91469" lon="7.08904">
        <ele>1161.89</ele>
        <time>2010-04-05T15:53:23Z</time>
      </trkpt>
      <trkpt lat="43.91474" lon="7.08902">
        <ele>1160.93</ele>
        <time>2010-04-05T15:53:24Z</time>
      </trkpt>
      <trkpt lat="43.91478" lon="7.08899">
        <ele>1159.97</ele>
        <time>2010-04-05T15:53:25Z</time>
      </trkpt>
      <trkpt lat="43.91482" lon="7.08897">
        <ele>1159.49</ele>
        <time>2010-04-05T15:53:26Z</time>
      </trkpt>
      <trkpt lat="43.91486" lon="7.08896">
        <ele>1158.05</ele>
        <time>2010-04-05T15:53:27Z</time>
      </trkpt>
      <trkpt lat="43.91489" lon="7.08896">
        <ele>1158.05</ele>
        <time>2010-04-05T15:53:28Z</time>
      </trkpt>
      <trkpt lat="43.91493" lon="7.08896">
        <ele>1158.05</ele>
        <time>2010-04-05T15:53:29Z</time>
      </trkpt>
      <trkpt lat="43.91498" lon="7.08895">
        <ele>1157.08</ele>
        <time>2010-04-05T15:53:30Z</time>
      </trkpt>
      <trkpt lat="43.91502" lon="7.08895">
        <ele>1157.08</ele>
        <time>2010-04-05T15:53:31Z</time>
      </trkpt>
      <trkpt lat="43.91506" lon="7.08894">
        <ele>1157.08</ele>
        <time>2010-04-05T15:53:32Z</time>
      </trkpt>
      <trkpt lat="43.91509" lon="7.08894">
        <ele>1157.56</ele>
        <time>2010-04-05T15:53:33Z</time>
      </trkpt>
      <trkpt lat="43.91513" lon="7.08893">
        <ele>1157.08</ele>
        <time>2010-04-05T15:53:34Z</time>
      </trkpt>
      <trkpt lat="43.91517" lon="7.08894">
        <ele>1156.12</ele>
        <time>2010-04-05T15:53:35Z</time>
      </trkpt>
      <trkpt lat="43.91526" lon="7.08893">
        <ele>1155.64</ele>
        <time>2010-04-05T15:53:37Z</time>
      </trkpt>
      <trkpt lat="43.91534" lon="7.08893">
        <ele>1155.64</ele>
        <time>2010-04-05T15:53:41Z</time>
      </trkpt>
      <trkpt lat="43.91536" lon="7.08894">
        <ele>1156.12</ele>
        <time>2010-04-05T15:53:42Z</time>
      </trkpt>
      <trkpt lat="43.9154" lon="7.08899">
        <ele>1157.08</ele>
        <time>2010-04-05T15:53:54Z</time>
      </trkpt>
      <trkpt lat="43.91546" lon="7.08906">
        <ele>1154.68</ele>
        <time>2010-04-05T15:54:14Z</time>
      </trkpt>
      <trkpt lat="43.91548" lon="7.08907">
        <ele>1154.68</ele>
        <time>2010-04-05T15:54:15Z</time>
      </trkpt>
      <trkpt lat="43.9155" lon="7.08908">
        <ele>1153.24</ele>
        <time>2010-04-05T15:54:16Z</time>
      </trkpt>
      <trkpt lat="43.91554" lon="7.08909">
        <ele>1152.76</ele>
        <time>2010-04-05T15:54:18Z</time>
      </trkpt>
      <trkpt lat="43.91558" lon="7.0891">
        <ele>1152.28</ele>
        <time>2010-04-05T15:55:30Z</time>
      </trkpt>
      <trkpt lat="43.91581" lon="7.08904">
        <ele>1147.95</ele>
        <time>2010-04-05T15:55:36Z</time>
      </trkpt>
      <trkpt lat="43.91584" lon="7.08903">
        <ele>1147.95</ele>
        <time>2010-04-05T15:55:37Z</time>
      </trkpt>
      <trkpt lat="43.9159" lon="7.08903">
        <ele>1146.99</ele>
        <time>2010-04-05T15:55:39Z</time>
      </trkpt>
      <trkpt lat="43.91592" lon="7.08903">
        <ele>1146.99</ele>
        <time>2010-04-05T15:55:40Z</time>
      </trkpt>
      <trkpt lat="43.91595" lon="7.08904">
        <ele>1146.99</ele>
        <time>2010-04-05T15:55:41Z</time>
      </trkpt>
      <trkpt lat="43.91598" lon="7.08905">
        <ele>1146.99</ele>
        <time>2010-04-05T15:55:42Z</time>
      </trkpt>
      <trkpt lat="43.91601" lon="7.08907">
        <ele>1147.47</ele>
        <time>2010-04-05T15:55:43Z</time>
      </trkpt>
      <trkpt lat="43.91615" lon="7.08913">
        <ele>1145.55</ele>
        <time>2010-04-05T15:55:49Z</time>
      </trkpt>
      <trkpt lat="43.91617" lon="7.08917">
        <ele>1145.55</ele>
        <time>2010-04-05T15:55:50Z</time>
      </trkpt>
      <trkpt lat="43.91618" lon="7.08921">
        <ele>1145.55</ele>
        <time>2010-04-05T15:55:51Z</time>
      </trkpt>
      <trkpt lat="43.91619" lon="7.08925">
        <ele>1145.55</ele>
        <time>2010-04-05T15:55:52Z</time>
      </trkpt>
      <trkpt lat="43.91619" lon="7.08929">
        <ele>1145.55</ele>
        <time>2010-04-05T15:55:53Z</time>
      </trkpt>
      <trkpt lat="43.91621" lon="7.08941">
        <ele>1144.59</ele>
        <time>2010-04-05T15:55:57Z</time>
      </trkpt>
      <trkpt lat="43.91628" lon="7.08961">
        <ele>1141.7</ele>
        <time>2010-04-05T15:56:02Z</time>
      </trkpt>
      <trkpt lat="43.91632" lon="7.0897">
        <ele>1140.74</ele>
        <time>2010-04-05T15:56:04Z</time>
      </trkpt>
      <trkpt lat="43.91641" lon="7.08988">
        <ele>1139.3</ele>
        <time>2010-04-05T15:56:17Z</time>
      </trkpt>
      <trkpt lat="43.91642" lon="7.08993">
        <ele>1137.38</ele>
        <time>2010-04-05T15:56:56Z</time>
      </trkpt>
      <trkpt lat="43.91645" lon="7.09006">
        <ele>1134.97</ele>
        <time>2010-04-05T15:57:11Z</time>
      </trkpt>
      <trkpt lat="43.91646" lon="7.0901">
        <ele>1131.61</ele>
        <time>2010-04-05T15:57:24Z</time>
      </trkpt>
      <trkpt lat="43.91648" lon="7.09012">
        <ele>1131.13</ele>
        <time>2010-04-05T15:57:31Z</time>
      </trkpt>
      <trkpt lat="43.91654" lon="7.0902">
        <ele>1128.24</ele>
        <time>2010-04-05T15:57:35Z</time>
      </trkpt>
      <trkpt lat="43.91659" lon="7.09025">
        <ele>1126.8</ele>
        <time>2010-04-05T15:57:38Z</time>
      </trkpt>
      <trkpt lat="43.91673" lon="7.09035">
        <ele>1122.48</ele>
        <time>2010-04-05T15:57:44Z</time>
      </trkpt>
      <trkpt lat="43.91678" lon="7.09039">
        <ele>1122.48</ele>
        <time>2010-04-05T15:58:02Z</time>
      </trkpt>
      <trkpt lat="43.91685" lon="7.09045">
        <ele>1120.55</ele>
        <time>2010-04-05T15:58:26Z</time>
      </trkpt>
      <trkpt lat="43.91693" lon="7.09066">
        <ele>1119.11</ele>
        <time>2010-04-05T15:58:38Z</time>
      </trkpt>
      <trkpt lat="43.91693" lon="7.09069">
        <ele>1118.63</ele>
        <time>2010-04-05T15:58:39Z</time>
      </trkpt>
      <trkpt lat="43.91703" lon="7.09093">
        <ele>1115.27</ele>
        <time>2010-04-05T15:58:46Z</time>
      </trkpt>
      <trkpt lat="43.9172" lon="7.09124">
        <ele>1111.42</ele>
        <time>2010-04-05T15:58:55Z</time>
      </trkpt>
      <trkpt lat="43.91722" lon="7.09127">
        <ele>1111.42</ele>
        <time>2010-04-05T15:58:56Z</time>
      </trkpt>
      <trkpt lat="43.9173" lon="7.09138">
        <ele>1107.58</ele>
        <time>2010-04-05T16:00:18Z</time>
      </trkpt>
      <trkpt lat="43.91729" lon="7.09119">
        <ele>1104.21</ele>
        <time>2010-04-05T16:00:54Z</time>
      </trkpt>
      <trkpt lat="43.91727" lon="7.09105">
        <ele>1101.81</ele>
        <time>2010-04-05T16:00:58Z</time>
      </trkpt>
      <trkpt lat="43.91718" lon="7.09082">
        <ele>1099.89</ele>
        <time>2010-04-05T16:01:07Z</time>
      </trkpt>
      <trkpt lat="43.91715" lon="7.09075">
        <ele>1099.4</ele>
        <time>2010-04-05T16:01:10Z</time>
      </trkpt>
      <trkpt lat="43.91712" lon="7.09057">
        <ele>1099.4</ele>
        <time>2010-04-05T16:01:26Z</time>
      </trkpt>
      <trkpt lat="43.91712" lon="7.09057">
        <ele>1099.89</ele>
        <time>2010-04-05T16:01:31Z</time>
      </trkpt>
      <trkpt lat="43.91706" lon="7.09041">
        <ele>1101.33</ele>
        <time>2010-04-05T16:01:46Z</time>
      </trkpt>
      <trkpt lat="43.91696" lon="7.09016">
        <ele>1097.96</ele>
        <time>2010-04-05T16:01:57Z</time>
      </trkpt>
      <trkpt lat="43.91691" lon="7.09003">
        <ele>1096.52</ele>
        <time>2010-04-05T16:02:00Z</time>
      </trkpt>
      <trkpt lat="43.91691" lon="7.08985">
        <ele>1093.16</ele>
        <time>2010-04-05T16:02:09Z</time>
      </trkpt>
      <trkpt lat="43.91692" lon="7.08976">
        <ele>1091.71</ele>
        <time>2010-04-05T16:02:12Z</time>
      </trkpt>
      <trkpt lat="43.91693" lon="7.08961">
        <ele>1089.79</ele>
        <time>2010-04-05T16:02:29Z</time>
      </trkpt>
      <trkpt lat="43.91693" lon="7.08955">
        <ele>1088.35</ele>
        <time>2010-04-05T16:02:32Z</time>
      </trkpt>
      <trkpt lat="43.91692" lon="7.08945">
        <ele>1087.87</ele>
        <time>2010-04-05T16:02:40Z</time>
      </trkpt>
      <trkpt lat="43.91696" lon="7.08926">
        <ele>1084.99</ele>
        <time>2010-04-05T16:02:48Z</time>
      </trkpt>
      <trkpt lat="43.91697" lon="7.08915">
        <ele>1082.58</ele>
        <time>2010-04-05T16:02:52Z</time>
      </trkpt>
      <trkpt lat="43.91698" lon="7.08908">
        <ele>1080.66</ele>
        <time>2010-04-05T16:02:56Z</time>
      </trkpt>
      <trkpt lat="43.91699" lon="7.08906">
        <ele>1079.7</ele>
        <time>2010-04-05T16:03:03Z</time>
      </trkpt>
      <trkpt lat="43.91703" lon="7.08913">
        <ele>1077.78</ele>
        <time>2010-04-05T16:03:14Z</time>
      </trkpt>
      <trkpt lat="43.91709" lon="7.08932">
        <ele>1075.37</ele>
        <time>2010-04-05T16:03:25Z</time>
      </trkpt>
      <trkpt lat="43.91709" lon="7.08932">
        <ele>1074.89</ele>
        <time>2010-04-05T16:03:33Z</time>
      </trkpt>
      <trkpt lat="43.9171" lon="7.08943">
        <ele>1073.93</ele>
        <time>2010-04-05T16:03:39Z</time>
      </trkpt>
      <trkpt lat="43.91713" lon="7.08964">
        <ele>1071.53</ele>
        <time>2010-04-05T16:03:55Z</time>
      </trkpt>
      <trkpt lat="43.91712" lon="7.08967">
        <ele>1071.53</ele>
        <time>2010-04-05T16:04:00Z</time>
      </trkpt>
      <trkpt lat="43.91724" lon="7.08983">
        <ele>1068.64</ele>
        <time>2010-04-05T16:04:09Z</time>
      </trkpt>
      <trkpt lat="43.91739" lon="7.08994">
        <ele>1065.28</ele>
        <time>2010-04-05T16:04:16Z</time>
      </trkpt>
      <trkpt lat="43.91761" lon="7.09024">
        <ele>1061.43</ele>
        <time>2010-04-05T16:04:27Z</time>
      </trkpt>
      <trkpt lat="43.91763" lon="7.09027">
        <ele>1060.95</ele>
        <time>2010-04-05T16:04:28Z</time>
      </trkpt>
      <trkpt lat="43.91765" lon="7.09028">
        <ele>1059.99</ele>
        <time>2010-04-05T16:04:31Z</time>
      </trkpt>
      <trkpt lat="43.91764" lon="7.09011">
        <ele>1056.15</ele>
        <time>2010-04-05T16:04:36Z</time>
      </trkpt>
      <trkpt lat="43.91763" lon="7.09006">
        <ele>1056.15</ele>
        <time>2010-04-05T16:04:37Z</time>
      </trkpt>
      <trkpt lat="43.91762" lon="7.09">
        <ele>1055.18</ele>
        <time>2010-04-05T16:04:38Z</time>
      </trkpt>
      <trkpt lat="43.91758" lon="7.08986">
        <ele>1051.82</ele>
        <time>2010-04-05T16:04:41Z</time>
      </trkpt>
      <trkpt lat="43.91755" lon="7.08977">
        <ele>1050.38</ele>
        <time>2010-04-05T16:04:43Z</time>
      </trkpt>
      <trkpt lat="43.91752" lon="7.08961">
        <ele>1047.01</ele>
        <time>2010-04-05T16:04:47Z</time>
      </trkpt>
      <trkpt lat="43.91746" lon="7.0895">
        <ele>1047.49</ele>
        <time>2010-04-05T16:04:51Z</time>
      </trkpt>
      <trkpt lat="43.91743" lon="7.0894">
        <ele>1046.53</ele>
        <time>2010-04-05T16:04:59Z</time>
      </trkpt>
      <trkpt lat="43.91743" lon="7.08938">
        <ele>1046.53</ele>
        <time>2010-04-05T16:05:00Z</time>
      </trkpt>
      <trkpt lat="43.91743" lon="7.08936">
        <ele>1045.57</ele>
        <time>2010-04-05T16:05:01Z</time>
      </trkpt>
      <trkpt lat="43.91744" lon="7.08933">
        <ele>1044.61</ele>
        <time>2010-04-05T16:05:02Z</time>
      </trkpt>
      <trkpt lat="43.91745" lon="7.08931">
        <ele>1043.65</ele>
        <time>2010-04-05T16:05:03Z</time>
      </trkpt>
      <trkpt lat="43.91746" lon="7.08929">
        <ele>1043.17</ele>
        <time>2010-04-05T16:05:04Z</time>
      </trkpt>
      <trkpt lat="43.91747" lon="7.08925">
        <ele>1042.69</ele>
        <time>2010-04-05T16:05:05Z</time>
      </trkpt>
      <trkpt lat="43.91747" lon="7.08923">
        <ele>1042.69</ele>
        <time>2010-04-05T16:05:06Z</time>
      </trkpt>
      <trkpt lat="43.91748" lon="7.0892">
        <ele>1042.69</ele>
        <time>2010-04-05T16:05:07Z</time>
      </trkpt>
      <trkpt lat="43.91748" lon="7.08917">
        <ele>1042.69</ele>
        <time>2010-04-05T16:05:08Z</time>
      </trkpt>
      <trkpt lat="43.91749" lon="7.08915">
        <ele>1042.21</ele>
        <time>2010-04-05T16:05:09Z</time>
      </trkpt>
      <trkpt lat="43.91749" lon="7.08913">
        <ele>1041.25</ele>
        <time>2010-04-05T16:05:11Z</time>
      </trkpt>
      <trkpt lat="43.91751" lon="7.08912">
        <ele>1039.8</ele>
        <time>2010-04-05T16:05:24Z</time>
      </trkpt>
      <trkpt lat="43.91751" lon="7.08913">
        <ele>1039.32</ele>
        <time>2010-04-05T16:05:25Z</time>
      </trkpt>
      <trkpt lat="43.91754" lon="7.08927">
        <ele>1036.92</ele>
        <time>2010-04-05T16:05:43Z</time>
      </trkpt>
      <trkpt lat="43.91758" lon="7.08938">
        <ele>1035.48</ele>
        <time>2010-04-05T16:05:46Z</time>
      </trkpt>
      <trkpt lat="43.91759" lon="7.08939">
        <ele>1035.48</ele>
        <time>2010-04-05T16:05:47Z</time>
      </trkpt>
      <trkpt lat="43.91761" lon="7.08936">
        <ele>1033.07</ele>
        <time>2010-04-05T16:06:04Z</time>
      </trkpt>
      <trkpt lat="43.91761" lon="7.08933">
        <ele>1032.59</ele>
        <time>2010-04-05T16:06:05Z</time>
      </trkpt>
      <trkpt lat="43.91762" lon="7.08931">
        <ele>1031.63</ele>
        <time>2010-04-05T16:06:06Z</time>
      </trkpt>
      <trkpt lat="43.91762" lon="7.08929">
        <ele>1031.15</ele>
        <time>2010-04-05T16:06:13Z</time>
      </trkpt>
      <trkpt lat="43.91766" lon="7.08934">
        <ele>1029.71</ele>
        <time>2010-04-05T16:06:16Z</time>
      </trkpt>
      <trkpt lat="43.91771" lon="7.08944">
        <ele>1026.83</ele>
        <time>2010-04-05T16:06:20Z</time>
      </trkpt>
      <trkpt lat="43.91772" lon="7.08946">
        <ele>1026.83</ele>
        <time>2010-04-05T16:06:21Z</time>
      </trkpt>
      <trkpt lat="43.91776" lon="7.08951">
        <ele>1024.42</ele>
        <time>2010-04-05T16:06:40Z</time>
      </trkpt>
      <trkpt lat="43.91777" lon="7.08953">
        <ele>1024.42</ele>
        <time>2010-04-05T16:06:41Z</time>
      </trkpt>
      <trkpt lat="43.91782" lon="7.08956">
        <ele>1023.46</ele>
        <time>2010-04-05T16:07:07Z</time>
      </trkpt>
      <trkpt lat="43.9179" lon="7.08963">
        <ele>1020.58</ele>
        <time>2010-04-05T16:09:52Z</time>
      </trkpt>
      <trkpt lat="43.91806" lon="7.08979">
        <ele>1018.17</ele>
        <time>2010-04-05T16:10:32Z</time>
      </trkpt>
      <trkpt lat="43.91822" lon="7.09001">
        <ele>1014.33</ele>
        <time>2010-04-05T16:10:37Z</time>
      </trkpt>
      <trkpt lat="43.91835" lon="7.09015">
        <ele>1012.41</ele>
        <time>2010-04-05T16:10:40Z</time>
      </trkpt>
      <trkpt lat="43.9185" lon="7.09029">
        <ele>1009.52</ele>
        <time>2010-04-05T16:10:43Z</time>
      </trkpt>
      <trkpt lat="43.91859" lon="7.09039">
        <ele>1007.6</ele>
        <time>2010-04-05T16:10:51Z</time>
      </trkpt>
      <trkpt lat="43.91859" lon="7.09038">
        <ele>1006.64</ele>
        <time>2010-04-05T16:10:52Z</time>
      </trkpt>
      <trkpt lat="43.91856" lon="7.09025">
        <ele>1005.2</ele>
        <time>2010-04-05T16:10:57Z</time>
      </trkpt>
      <trkpt lat="43.91848" lon="7.09">
        <ele>1001.83</ele>
        <time>2010-04-05T16:11:01Z</time>
      </trkpt>
      <trkpt lat="43.91836" lon="7.08973">
        <ele>1000.39</ele>
        <time>2010-04-05T16:11:13Z</time>
      </trkpt>
      <trkpt lat="43.9183" lon="7.08957">
        <ele>997.99</ele>
        <time>2010-04-05T16:11:28Z</time>
      </trkpt>
      <trkpt lat="43.91824" lon="7.08937">
        <ele>996.06</ele>
        <time>2010-04-05T16:11:39Z</time>
      </trkpt>
      <trkpt lat="43.91821" lon="7.08932">
        <ele>995.58</ele>
        <time>2010-04-05T16:11:40Z</time>
      </trkpt>
      <trkpt lat="43.91819" lon="7.08927">
        <ele>995.1</ele>
        <time>2010-04-05T16:11:41Z</time>
      </trkpt>
      <trkpt lat="43.91818" lon="7.08924">
        <ele>994.62</ele>
        <time>2010-04-05T16:11:42Z</time>
      </trkpt>
      <trkpt lat="43.91818" lon="7.08921">
        <ele>994.62</ele>
        <time>2010-04-05T16:11:43Z</time>
      </trkpt>
      <trkpt lat="43.91819" lon="7.08918">
        <ele>994.14</ele>
        <time>2010-04-05T16:11:44Z</time>
      </trkpt>
      <trkpt lat="43.91819" lon="7.08887">
        <ele>991.74</ele>
        <time>2010-04-05T16:11:51Z</time>
      </trkpt>
      <trkpt lat="43.91812" lon="7.08867">
        <ele>990.3</ele>
        <time>2010-04-05T16:11:55Z</time>
      </trkpt>
      <trkpt lat="43.91808" lon="7.08855">
        <ele>988.85</ele>
        <time>2010-04-05T16:11:58Z</time>
      </trkpt>
      <trkpt lat="43.91804" lon="7.08843">
        <ele>987.41</ele>
        <time>2010-04-05T16:12:01Z</time>
      </trkpt>
      <trkpt lat="43.91805" lon="7.08831">
        <ele>985.97</ele>
        <time>2010-04-05T16:12:03Z</time>
      </trkpt>
      <trkpt lat="43.91806" lon="7.08825">
        <ele>985.97</ele>
        <time>2010-04-05T16:12:04Z</time>
      </trkpt>
      <trkpt lat="43.91807" lon="7.0881">
        <ele>984.05</ele>
        <time>2010-04-05T16:12:07Z</time>
      </trkpt>
      <trkpt lat="43.91805" lon="7.08795">
        <ele>982.6</ele>
        <time>2010-04-05T16:12:10Z</time>
      </trkpt>
      <trkpt lat="43.91805" lon="7.0879">
        <ele>982.12</ele>
        <time>2010-04-05T16:12:11Z</time>
      </trkpt>
      <trkpt lat="43.91804" lon="7.08785">
        <ele>981.64</ele>
        <time>2010-04-05T16:12:12Z</time>
      </trkpt>
      <trkpt lat="43.91804" lon="7.0878">
        <ele>981.64</ele>
        <time>2010-04-05T16:12:13Z</time>
      </trkpt>
      <trkpt lat="43.91803" lon="7.08774">
        <ele>981.16</ele>
        <time>2010-04-05T16:12:14Z</time>
      </trkpt>
      <trkpt lat="43.91803" lon="7.08768">
        <ele>980.2</ele>
        <time>2010-04-05T16:12:15Z</time>
      </trkpt>
      <trkpt lat="43.91803" lon="7.08761">
        <ele>979.24</ele>
        <time>2010-04-05T16:12:16Z</time>
      </trkpt>
      <trkpt lat="43.91803" lon="7.08755">
        <ele>978.76</ele>
        <time>2010-04-05T16:12:17Z</time>
      </trkpt>
      <trkpt lat="43.91802" lon="7.08749">
        <ele>978.28</ele>
        <time>2010-04-05T16:12:18Z</time>
      </trkpt>
      <trkpt lat="43.91802" lon="7.08742">
        <ele>977.8</ele>
        <time>2010-04-05T16:12:19Z</time>
      </trkpt>
      <trkpt lat="43.91801" lon="7.08707">
        <ele>974.91</ele>
        <time>2010-04-05T16:12:24Z</time>
      </trkpt>
      <trkpt lat="43.918" lon="7.08701">
        <ele>973.47</ele>
        <time>2010-04-05T16:12:25Z</time>
      </trkpt>
      <trkpt lat="43.918" lon="7.08695">
        <ele>972.99</ele>
        <time>2010-04-05T16:12:26Z</time>
      </trkpt>
      <trkpt lat="43.91798" lon="7.08682">
        <ele>972.03</ele>
        <time>2010-04-05T16:12:28Z</time>
      </trkpt>
      <trkpt lat="43.91797" lon="7.08671">
        <ele>971.07</ele>
        <time>2010-04-05T16:12:30Z</time>
      </trkpt>
      <trkpt lat="43.91793" lon="7.08657">
        <ele>970.11</ele>
        <time>2010-04-05T16:12:33Z</time>
      </trkpt>
      <trkpt lat="43.91788" lon="7.08651">
        <ele>969.15</ele>
        <time>2010-04-05T16:12:47Z</time>
      </trkpt>
      <trkpt lat="43.9179" lon="7.0865">
        <ele>968.18</ele>
        <time>2010-04-05T16:12:52Z</time>
      </trkpt>
      <trkpt lat="43.91797" lon="7.08659">
        <ele>966.74</ele>
        <time>2010-04-05T16:12:57Z</time>
      </trkpt>
      <trkpt lat="43.91802" lon="7.08674">
        <ele>964.34</ele>
        <time>2010-04-05T16:13:26Z</time>
      </trkpt>
      <trkpt lat="43.91813" lon="7.0871">
        <ele>960.01</ele>
        <time>2010-04-05T16:13:33Z</time>
      </trkpt>
      <trkpt lat="43.91815" lon="7.08716">
        <ele>960.49</ele>
        <time>2010-04-05T16:13:34Z</time>
      </trkpt>
      <trkpt lat="43.91825" lon="7.08741">
        <ele>957.13</ele>
        <time>2010-04-05T16:13:39Z</time>
      </trkpt>
      <trkpt lat="43.91827" lon="7.08745">
        <ele>956.65</ele>
        <time>2010-04-05T16:13:40Z</time>
      </trkpt>
      <trkpt lat="43.91836" lon="7.08774">
        <ele>953.77</ele>
        <time>2010-04-05T16:13:46Z</time>
      </trkpt>
      <trkpt lat="43.91837" lon="7.0878">
        <ele>953.28</ele>
        <time>2010-04-05T16:13:47Z</time>
      </trkpt>
      <trkpt lat="43.91839" lon="7.08786">
        <ele>952.32</ele>
        <time>2010-04-05T16:13:48Z</time>
      </trkpt>
      <trkpt lat="43.9184" lon="7.08791">
        <ele>952.32</ele>
        <time>2010-04-05T16:13:49Z</time>
      </trkpt>
      <trkpt lat="43.91842" lon="7.08796">
        <ele>951.84</ele>
        <time>2010-04-05T16:13:50Z</time>
      </trkpt>
      <trkpt lat="43.91844" lon="7.08801">
        <ele>950.88</ele>
        <time>2010-04-05T16:13:51Z</time>
      </trkpt>
      <trkpt lat="43.91845" lon="7.08806">
        <ele>951.36</ele>
        <time>2010-04-05T16:13:52Z</time>
      </trkpt>
      <trkpt lat="43.91848" lon="7.08819">
        <ele>949.44</ele>
        <time>2010-04-05T16:13:54Z</time>
      </trkpt>
      <trkpt lat="43.9185" lon="7.08826">
        <ele>948.48</ele>
        <time>2010-04-05T16:13:55Z</time>
      </trkpt>
      <trkpt lat="43.91854" lon="7.08831">
        <ele>948</ele>
        <time>2010-04-05T16:13:56Z</time>
      </trkpt>
      <trkpt lat="43.91857" lon="7.08836">
        <ele>947.52</ele>
        <time>2010-04-05T16:13:57Z</time>
      </trkpt>
      <trkpt lat="43.91861" lon="7.08841">
        <ele>947.04</ele>
        <time>2010-04-05T16:13:58Z</time>
      </trkpt>
      <trkpt lat="43.91867" lon="7.08858">
        <ele>944.15</ele>
        <time>2010-04-05T16:14:02Z</time>
      </trkpt>
      <trkpt lat="43.9187" lon="7.08862">
        <ele>943.67</ele>
        <time>2010-04-05T16:14:03Z</time>
      </trkpt>
      <trkpt lat="43.91873" lon="7.08865">
        <ele>943.19</ele>
        <time>2010-04-05T16:14:04Z</time>
      </trkpt>
      <trkpt lat="43.91882" lon="7.08872">
        <ele>941.75</ele>
        <time>2010-04-05T16:14:07Z</time>
      </trkpt>
      <trkpt lat="43.91905" lon="7.08881">
        <ele>937.9</ele>
        <time>2010-04-05T16:14:13Z</time>
      </trkpt>
      <trkpt lat="43.91915" lon="7.08889">
        <ele>936.94</ele>
        <time>2010-04-05T16:14:15Z</time>
      </trkpt>
      <trkpt lat="43.91934" lon="7.08916">
        <ele>934.06</ele>
        <time>2010-04-05T16:14:24Z</time>
      </trkpt>
      <trkpt lat="43.91934" lon="7.08913">
        <ele>933.58</ele>
        <time>2010-04-05T16:14:26Z</time>
      </trkpt>
      <trkpt lat="43.91925" lon="7.08888">
        <ele>931.17</ele>
        <time>2010-04-05T16:14:31Z</time>
      </trkpt>
      <trkpt lat="43.91917" lon="7.08873">
        <ele>929.25</ele>
        <time>2010-04-05T16:14:34Z</time>
      </trkpt>
      <trkpt lat="43.91914" lon="7.08868">
        <ele>928.29</ele>
        <time>2010-04-05T16:14:35Z</time>
      </trkpt>
      <trkpt lat="43.91911" lon="7.08864">
        <ele>928.29</ele>
        <time>2010-04-05T16:14:36Z</time>
      </trkpt>
      <trkpt lat="43.91908" lon="7.08859">
        <ele>926.85</ele>
        <time>2010-04-05T16:14:37Z</time>
      </trkpt>
      <trkpt lat="43.91904" lon="7.08855">
        <ele>926.85</ele>
        <time>2010-04-05T16:14:38Z</time>
      </trkpt>
      <trkpt lat="43.91889" lon="7.08837">
        <ele>923.48</ele>
        <time>2010-04-05T16:14:42Z</time>
      </trkpt>
      <trkpt lat="43.91882" lon="7.08826">
        <ele>922.52</ele>
        <time>2010-04-05T16:14:44Z</time>
      </trkpt>
      <trkpt lat="43.91881" lon="7.08819">
        <ele>922.52</ele>
        <time>2010-04-05T16:14:45Z</time>
      </trkpt>
      <trkpt lat="43.91883" lon="7.08802">
        <ele>922.04</ele>
        <time>2010-04-05T16:14:48Z</time>
      </trkpt>
      <trkpt lat="43.91883" lon="7.0877">
        <ele>918.2</ele>
        <time>2010-04-05T16:14:53Z</time>
      </trkpt>
      <trkpt lat="43.91882" lon="7.08763">
        <ele>917.24</ele>
        <time>2010-04-05T16:14:54Z</time>
      </trkpt>
      <trkpt lat="43.91883" lon="7.08749">
        <ele>915.79</ele>
        <time>2010-04-05T16:14:56Z</time>
      </trkpt>
      <trkpt lat="43.91883" lon="7.08742">
        <ele>915.31</ele>
        <time>2010-04-05T16:14:57Z</time>
      </trkpt>
      <trkpt lat="43.91883" lon="7.08736">
        <ele>915.31</ele>
        <time>2010-04-05T16:14:58Z</time>
      </trkpt>
      <trkpt lat="43.91881" lon="7.08729">
        <ele>913.87</ele>
        <time>2010-04-05T16:14:59Z</time>
      </trkpt>
      <trkpt lat="43.91879" lon="7.08723">
        <ele>912.91</ele>
        <time>2010-04-05T16:15:00Z</time>
      </trkpt>
      <trkpt lat="43.91878" lon="7.08718">
        <ele>913.39</ele>
        <time>2010-04-05T16:15:01Z</time>
      </trkpt>
      <trkpt lat="43.91877" lon="7.08712">
        <ele>913.39</ele>
        <time>2010-04-05T16:15:02Z</time>
      </trkpt>
      <trkpt lat="43.91877" lon="7.08706">
        <ele>912.43</ele>
        <time>2010-04-05T16:15:03Z</time>
      </trkpt>
      <trkpt lat="43.91875" lon="7.08693">
        <ele>911.47</ele>
        <time>2010-04-05T16:15:05Z</time>
      </trkpt>
      <trkpt lat="43.91874" lon="7.08686">
        <ele>910.99</ele>
        <time>2010-04-05T16:15:06Z</time>
      </trkpt>
      <trkpt lat="43.91873" lon="7.08678">
        <ele>910.51</ele>
        <time>2010-04-05T16:15:07Z</time>
      </trkpt>
      <trkpt lat="43.91873" lon="7.0867">
        <ele>909.54</ele>
        <time>2010-04-05T16:15:08Z</time>
      </trkpt>
      <trkpt lat="43.91874" lon="7.08643">
        <ele>906.66</ele>
        <time>2010-04-05T16:15:12Z</time>
      </trkpt>
      <trkpt lat="43.91874" lon="7.08636">
        <ele>905.7</ele>
        <time>2010-04-05T16:15:13Z</time>
      </trkpt>
      <trkpt lat="43.91872" lon="7.0862">
        <ele>903.78</ele>
        <time>2010-04-05T16:15:15Z</time>
      </trkpt>
      <trkpt lat="43.91872" lon="7.08612">
        <ele>902.82</ele>
        <time>2010-04-05T16:15:16Z</time>
      </trkpt>
      <trkpt lat="43.91869" lon="7.08594">
        <ele>900.89</ele>
        <time>2010-04-05T16:15:18Z</time>
      </trkpt>
      <trkpt lat="43.91868" lon="7.08587">
        <ele>900.89</ele>
        <time>2010-04-05T16:15:19Z</time>
      </trkpt>
      <trkpt lat="43.91866" lon="7.0858">
        <ele>899.93</ele>
        <time>2010-04-05T16:15:20Z</time>
      </trkpt>
      <trkpt lat="43.91864" lon="7.08576">
        <ele>898.97</ele>
        <time>2010-04-05T16:15:21Z</time>
      </trkpt>
      <trkpt lat="43.91862" lon="7.08574">
        <ele>898.49</ele>
        <time>2010-04-05T16:15:22Z</time>
      </trkpt>
      <trkpt lat="43.91861" lon="7.08573">
        <ele>898.01</ele>
        <time>2010-04-05T16:15:23Z</time>
      </trkpt>
      <trkpt lat="43.9186" lon="7.08572">
        <ele>898.01</ele>
        <time>2010-04-05T16:15:24Z</time>
      </trkpt>
      <trkpt lat="43.91861" lon="7.08569">
        <ele>896.09</ele>
        <time>2010-04-05T16:15:31Z</time>
      </trkpt>
      <trkpt lat="43.91863" lon="7.0857">
        <ele>896.09</ele>
        <time>2010-04-05T16:15:32Z</time>
      </trkpt>
      <trkpt lat="43.91865" lon="7.08573">
        <ele>896.09</ele>
        <time>2010-04-05T16:15:33Z</time>
      </trkpt>
      <trkpt lat="43.91868" lon="7.08576">
        <ele>895.61</ele>
        <time>2010-04-05T16:15:34Z</time>
      </trkpt>
      <trkpt lat="43.91872" lon="7.0858">
        <ele>894.64</ele>
        <time>2010-04-05T16:15:35Z</time>
      </trkpt>
      <trkpt lat="43.91878" lon="7.0859">
        <ele>892.24</ele>
        <time>2010-04-05T16:15:37Z</time>
      </trkpt>
      <trkpt lat="43.91881" lon="7.08596">
        <ele>892.24</ele>
        <time>2010-04-05T16:15:38Z</time>
      </trkpt>
      <trkpt lat="43.91884" lon="7.08602">
        <ele>891.28</ele>
        <time>2010-04-05T16:15:39Z</time>
      </trkpt>
      <trkpt lat="43.91887" lon="7.08608">
        <ele>890.32</ele>
        <time>2010-04-05T16:15:40Z</time>
      </trkpt>
      <trkpt lat="43.91889" lon="7.08616">
        <ele>889.84</ele>
        <time>2010-04-05T16:15:41Z</time>
      </trkpt>
      <trkpt lat="43.91896" lon="7.0864">
        <ele>886.47</ele>
        <time>2010-04-05T16:15:44Z</time>
      </trkpt>
      <trkpt lat="43.91899" lon="7.08648">
        <ele>885.03</ele>
        <time>2010-04-05T16:15:45Z</time>
      </trkpt>
      <trkpt lat="43.91901" lon="7.08655">
        <ele>884.07</ele>
        <time>2010-04-05T16:15:46Z</time>
      </trkpt>
      <trkpt lat="43.91903" lon="7.08662">
        <ele>883.11</ele>
        <time>2010-04-05T16:15:47Z</time>
      </trkpt>
      <trkpt lat="43.91905" lon="7.08669">
        <ele>883.59</ele>
        <time>2010-04-05T16:15:48Z</time>
      </trkpt>
      <trkpt lat="43.91907" lon="7.08676">
        <ele>881.67</ele>
        <time>2010-04-05T16:15:49Z</time>
      </trkpt>
      <trkpt lat="43.9191" lon="7.08682">
        <ele>880.22</ele>
        <time>2010-04-05T16:15:50Z</time>
      </trkpt>
      <trkpt lat="43.91913" lon="7.08687">
        <ele>879.26</ele>
        <time>2010-04-05T16:15:51Z</time>
      </trkpt>
      <trkpt lat="43.91917" lon="7.08691">
        <ele>878.3</ele>
        <time>2010-04-05T16:15:52Z</time>
      </trkpt>
      <trkpt lat="43.91921" lon="7.08694">
        <ele>877.82</ele>
        <time>2010-04-05T16:15:53Z</time>
      </trkpt>
      <trkpt lat="43.91925" lon="7.08697">
        <ele>877.82</ele>
        <time>2010-04-05T16:15:54Z</time>
      </trkpt>
      <trkpt lat="43.91934" lon="7.08701">
        <ele>875.9</ele>
        <time>2010-04-05T16:15:56Z</time>
      </trkpt>
      <trkpt lat="43.91938" lon="7.08706">
        <ele>874.94</ele>
        <time>2010-04-05T16:15:57Z</time>
      </trkpt>
      <trkpt lat="43.9194" lon="7.08712">
        <ele>874.46</ele>
        <time>2010-04-05T16:15:58Z</time>
      </trkpt>
      <trkpt lat="43.91942" lon="7.0872">
        <ele>873.01</ele>
        <time>2010-04-05T16:15:59Z</time>
      </trkpt>
      <trkpt lat="43.91945" lon="7.08729">
        <ele>873.5</ele>
        <time>2010-04-05T16:16:00Z</time>
      </trkpt>
      <trkpt lat="43.9195" lon="7.08744">
        <ele>871.09</ele>
        <time>2010-04-05T16:16:02Z</time>
      </trkpt>
      <trkpt lat="43.91953" lon="7.08749">
        <ele>870.13</ele>
        <time>2010-04-05T16:16:03Z</time>
      </trkpt>
      <trkpt lat="43.91958" lon="7.08752">
        <ele>869.65</ele>
        <time>2010-04-05T16:16:04Z</time>
      </trkpt>
      <trkpt lat="43.9198" lon="7.08763">
        <ele>866.77</ele>
        <time>2010-04-05T16:16:08Z</time>
      </trkpt>
      <trkpt lat="43.91986" lon="7.08767">
        <ele>865.8</ele>
        <time>2010-04-05T16:16:09Z</time>
      </trkpt>
      <trkpt lat="43.91991" lon="7.08771">
        <ele>864.84</ele>
        <time>2010-04-05T16:16:10Z</time>
      </trkpt>
      <trkpt lat="43.92001" lon="7.08771">
        <ele>862.44</ele>
        <time>2010-04-05T16:16:21Z</time>
      </trkpt>
      <trkpt lat="43.92" lon="7.08769">
        <ele>862.44</ele>
        <time>2010-04-05T16:16:22Z</time>
      </trkpt>
      <trkpt lat="43.91988" lon="7.08741">
        <ele>858.59</ele>
        <time>2010-04-05T16:16:31Z</time>
      </trkpt>
      <trkpt lat="43.91981" lon="7.08736">
        <ele>856.67</ele>
        <time>2010-04-05T16:16:33Z</time>
      </trkpt>
      <trkpt lat="43.91978" lon="7.08728">
        <ele>855.71</ele>
        <time>2010-04-05T16:16:35Z</time>
      </trkpt>
      <trkpt lat="43.91978" lon="7.08725">
        <ele>854.27</ele>
        <time>2010-04-05T16:16:36Z</time>
      </trkpt>
      <trkpt lat="43.91979" lon="7.08714">
        <ele>852.35</ele>
        <time>2010-04-05T16:16:39Z</time>
      </trkpt>
      <trkpt lat="43.91977" lon="7.08703">
        <ele>849.94</ele>
        <time>2010-04-05T16:16:42Z</time>
      </trkpt>
      <trkpt lat="43.91963" lon="7.0867">
        <ele>847.54</ele>
        <time>2010-04-05T16:16:46Z</time>
      </trkpt>
      <trkpt lat="43.9196" lon="7.08661">
        <ele>846.58</ele>
        <time>2010-04-05T16:16:47Z</time>
      </trkpt>
      <trkpt lat="43.91957" lon="7.08637">
        <ele>844.66</ele>
        <time>2010-04-05T16:16:49Z</time>
      </trkpt>
      <trkpt lat="43.91956" lon="7.08625">
        <ele>843.21</ele>
        <time>2010-04-05T16:16:50Z</time>
      </trkpt>
      <trkpt lat="43.91957" lon="7.08582">
        <ele>840.81</ele>
        <time>2010-04-05T16:16:54Z</time>
      </trkpt>
      <trkpt lat="43.91955" lon="7.08573">
        <ele>839.37</ele>
        <time>2010-04-05T16:16:55Z</time>
      </trkpt>
      <trkpt lat="43.91953" lon="7.08563">
        <ele>838.89</ele>
        <time>2010-04-05T16:16:56Z</time>
      </trkpt>
      <trkpt lat="43.91951" lon="7.08554">
        <ele>837.45</ele>
        <time>2010-04-05T16:16:57Z</time>
      </trkpt>
      <trkpt lat="43.91948" lon="7.08546">
        <ele>836.96</ele>
        <time>2010-04-05T16:16:58Z</time>
      </trkpt>
      <trkpt lat="43.91945" lon="7.08536">
        <ele>836</ele>
        <time>2010-04-05T16:16:59Z</time>
      </trkpt>
      <trkpt lat="43.91932" lon="7.08496">
        <ele>831.68</ele>
        <time>2010-04-05T16:17:04Z</time>
      </trkpt>
      <trkpt lat="43.91925" lon="7.08482">
        <ele>828.79</ele>
        <time>2010-04-05T16:17:09Z</time>
      </trkpt>
      <trkpt lat="43.91926" lon="7.08483">
        <ele>828.79</ele>
        <time>2010-04-05T16:17:10Z</time>
      </trkpt>
      <trkpt lat="43.91928" lon="7.08484">
        <ele>828.79</ele>
        <time>2010-04-05T16:17:11Z</time>
      </trkpt>
      <trkpt lat="43.9193" lon="7.08488">
        <ele>828.31</ele>
        <time>2010-04-05T16:17:12Z</time>
      </trkpt>
      <trkpt lat="43.91933" lon="7.08491">
        <ele>827.35</ele>
        <time>2010-04-05T16:17:13Z</time>
      </trkpt>
      <trkpt lat="43.91936" lon="7.08495">
        <ele>826.87</ele>
        <time>2010-04-05T16:17:14Z</time>
      </trkpt>
      <trkpt lat="43.91939" lon="7.08501">
        <ele>826.39</ele>
        <time>2010-04-05T16:17:15Z</time>
      </trkpt>
      <trkpt lat="43.91943" lon="7.08507">
        <ele>825.43</ele>
        <time>2010-04-05T16:17:16Z</time>
      </trkpt>
      <trkpt lat="43.91946" lon="7.08513">
        <ele>824.47</ele>
        <time>2010-04-05T16:17:17Z</time>
      </trkpt>
      <trkpt lat="43.91951" lon="7.08519">
        <ele>823.51</ele>
        <time>2010-04-05T16:17:18Z</time>
      </trkpt>
      <trkpt lat="43.91955" lon="7.08524">
        <ele>822.55</ele>
        <time>2010-04-05T16:17:19Z</time>
      </trkpt>
      <trkpt lat="43.9196" lon="7.08528">
        <ele>821.58</ele>
        <time>2010-04-05T16:17:20Z</time>
      </trkpt>
      <trkpt lat="43.91964" lon="7.08533">
        <ele>821.58</ele>
        <time>2010-04-05T16:17:21Z</time>
      </trkpt>
      <trkpt lat="43.91968" lon="7.08538">
        <ele>820.62</ele>
        <time>2010-04-05T16:17:22Z</time>
      </trkpt>
      <trkpt lat="43.91971" lon="7.08544">
        <ele>819.66</ele>
        <time>2010-04-05T16:17:23Z</time>
      </trkpt>
      <trkpt lat="43.91974" lon="7.0855">
        <ele>818.22</ele>
        <time>2010-04-05T16:17:24Z</time>
      </trkpt>
      <trkpt lat="43.91975" lon="7.08558">
        <ele>817.74</ele>
        <time>2010-04-05T16:17:25Z</time>
      </trkpt>
      <trkpt lat="43.91977" lon="7.08566">
        <ele>816.78</ele>
        <time>2010-04-05T16:17:26Z</time>
      </trkpt>
      <trkpt lat="43.91978" lon="7.08574">
        <ele>816.3</ele>
        <time>2010-04-05T16:17:27Z</time>
      </trkpt>
      <trkpt lat="43.91979" lon="7.08582">
        <ele>815.34</ele>
        <time>2010-04-05T16:17:28Z</time>
      </trkpt>
      <trkpt lat="43.91981" lon="7.0859">
        <ele>813.89</ele>
        <time>2010-04-05T16:17:29Z</time>
      </trkpt>
      <trkpt lat="43.91983" lon="7.08597">
        <ele>812.93</ele>
        <time>2010-04-05T16:17:30Z</time>
      </trkpt>
      <trkpt lat="43.91985" lon="7.08604">
        <ele>812.45</ele>
        <time>2010-04-05T16:17:31Z</time>
      </trkpt>
      <trkpt lat="43.91988" lon="7.0861">
        <ele>811.49</ele>
        <time>2010-04-05T16:17:32Z</time>
      </trkpt>
      <trkpt lat="43.91992" lon="7.08616">
        <ele>811.49</ele>
        <time>2010-04-05T16:17:33Z</time>
      </trkpt>
      <trkpt lat="43.91997" lon="7.0862">
        <ele>810.53</ele>
        <time>2010-04-05T16:17:34Z</time>
      </trkpt>
      <trkpt lat="43.92002" lon="7.08623">
        <ele>809.57</ele>
        <time>2010-04-05T16:17:35Z</time>
      </trkpt>
      <trkpt lat="43.92027" lon="7.08629">
        <ele>806.2</ele>
        <time>2010-04-05T16:17:39Z</time>
      </trkpt>
      <trkpt lat="43.92033" lon="7.08631">
        <ele>805.24</ele>
        <time>2010-04-05T16:17:40Z</time>
      </trkpt>
      <trkpt lat="43.92037" lon="7.08632">
        <ele>804.76</ele>
        <time>2010-04-05T16:17:41Z</time>
      </trkpt>
      <trkpt lat="43.9204" lon="7.08631">
        <ele>804.28</ele>
        <time>2010-04-05T16:17:42Z</time>
      </trkpt>
      <trkpt lat="43.92041" lon="7.0863">
        <ele>803.8</ele>
        <time>2010-04-05T16:17:43Z</time>
      </trkpt>
      <trkpt lat="43.92043" lon="7.08625">
        <ele>802.84</ele>
        <time>2010-04-05T16:17:46Z</time>
      </trkpt>
      <trkpt lat="43.92042" lon="7.08622">
        <ele>800.92</ele>
        <time>2010-04-05T16:17:48Z</time>
      </trkpt>
      <trkpt lat="43.92032" lon="7.086">
        <ele>797.55</ele>
        <time>2010-04-05T16:17:53Z</time>
      </trkpt>
      <trkpt lat="43.92019" lon="7.08584">
        <ele>794.67</ele>
        <time>2010-04-05T16:17:56Z</time>
      </trkpt>
      <trkpt lat="43.92017" lon="7.08577">
        <ele>794.19</ele>
        <time>2010-04-05T16:17:57Z</time>
      </trkpt>
      <trkpt lat="43.92017" lon="7.08567">
        <ele>792.74</ele>
        <time>2010-04-05T16:17:58Z</time>
      </trkpt>
      <trkpt lat="43.92019" lon="7.08558">
        <ele>791.78</ele>
        <time>2010-04-05T16:17:59Z</time>
      </trkpt>
      <trkpt lat="43.9202" lon="7.08548">
        <ele>790.82</ele>
        <time>2010-04-05T16:18:00Z</time>
      </trkpt>
      <trkpt lat="43.9202" lon="7.08538">
        <ele>789.38</ele>
        <time>2010-04-05T16:18:01Z</time>
      </trkpt>
      <trkpt lat="43.9202" lon="7.08529">
        <ele>789.86</ele>
        <time>2010-04-05T16:18:02Z</time>
      </trkpt>
      <trkpt lat="43.92017" lon="7.0852">
        <ele>788.42</ele>
        <time>2010-04-05T16:18:03Z</time>
      </trkpt>
      <trkpt lat="43.92014" lon="7.08513">
        <ele>786.5</ele>
        <time>2010-04-05T16:18:04Z</time>
      </trkpt>
      <trkpt lat="43.9201" lon="7.08508">
        <ele>786.5</ele>
        <time>2010-04-05T16:18:05Z</time>
      </trkpt>
      <trkpt lat="43.92007" lon="7.08503">
        <ele>786.02</ele>
        <time>2010-04-05T16:18:06Z</time>
      </trkpt>
      <trkpt lat="43.92003" lon="7.08496">
        <ele>785.05</ele>
        <time>2010-04-05T16:18:10Z</time>
      </trkpt>
      <trkpt lat="43.92027" lon="7.08502">
        <ele>780.73</ele>
        <time>2010-04-05T16:18:17Z</time>
      </trkpt>
      <trkpt lat="43.92031" lon="7.08505">
        <ele>779.77</ele>
        <time>2010-04-05T16:18:18Z</time>
      </trkpt>
      <trkpt lat="43.92034" lon="7.08508">
        <ele>779.29</ele>
        <time>2010-04-05T16:18:19Z</time>
      </trkpt>
      <trkpt lat="43.92036" lon="7.08509">
        <ele>779.29</ele>
        <time>2010-04-05T16:18:20Z</time>
      </trkpt>
      <trkpt lat="43.92037" lon="7.08507">
        <ele>777.84</ele>
        <time>2010-04-05T16:18:23Z</time>
      </trkpt>
      <trkpt lat="43.92035" lon="7.08505">
        <ele>777.84</ele>
        <time>2010-04-05T16:18:26Z</time>
      </trkpt>
      <trkpt lat="43.92034" lon="7.08503">
        <ele>777.36</ele>
        <time>2010-04-05T16:18:27Z</time>
      </trkpt>
      <trkpt lat="43.92033" lon="7.08499">
        <ele>777.84</ele>
        <time>2010-04-05T16:18:45Z</time>
      </trkpt>
      <trkpt lat="43.92025" lon="7.08482">
        <ele>777.36</ele>
        <time>2010-04-05T16:19:49Z</time>
      </trkpt>
      <trkpt lat="43.9203" lon="7.08478">
        <ele>774.96</ele>
        <time>2010-04-05T16:19:53Z</time>
      </trkpt>
      <trkpt lat="43.92033" lon="7.0848">
        <ele>774</ele>
        <time>2010-04-05T16:19:54Z</time>
      </trkpt>
      <trkpt lat="43.92037" lon="7.08484">
        <ele>773.52</ele>
        <time>2010-04-05T16:19:55Z</time>
      </trkpt>
      <trkpt lat="43.92041" lon="7.08487">
        <ele>773.04</ele>
        <time>2010-04-05T16:19:56Z</time>
      </trkpt>
      <trkpt lat="43.92054" lon="7.08506">
        <ele>770.15</ele>
        <time>2010-04-05T16:20:02Z</time>
      </trkpt>
      <trkpt lat="43.92055" lon="7.0851">
        <ele>770.15</ele>
        <time>2010-04-05T16:20:03Z</time>
      </trkpt>
      <trkpt lat="43.92055" lon="7.08526">
        <ele>767.75</ele>
        <time>2010-04-05T16:20:07Z</time>
      </trkpt>
      <trkpt lat="43.92071" lon="7.0854">
        <ele>765.35</ele>
        <time>2010-04-05T16:20:18Z</time>
      </trkpt>
      <trkpt lat="43.92069" lon="7.08538">
        <ele>764.39</ele>
        <time>2010-04-05T16:20:19Z</time>
      </trkpt>
      <trkpt lat="43.92066" lon="7.08534">
        <ele>763.9</ele>
        <time>2010-04-05T16:20:20Z</time>
      </trkpt>
      <trkpt lat="43.92064" lon="7.08529">
        <ele>763.9</ele>
        <time>2010-04-05T16:20:21Z</time>
      </trkpt>
      <trkpt lat="43.9207" lon="7.085">
        <ele>762.46</ele>
        <time>2010-04-05T16:20:33Z</time>
      </trkpt>
      <trkpt lat="43.92071" lon="7.08499">
        <ele>762.46</ele>
        <time>2010-04-05T16:20:35Z</time>
      </trkpt>
      <trkpt lat="43.9207" lon="7.0849">
        <ele>761.5</ele>
        <time>2010-04-05T16:20:39Z</time>
      </trkpt>
      <trkpt lat="43.92067" lon="7.08473">
        <ele>759.58</ele>
        <time>2010-04-05T16:20:45Z</time>
      </trkpt>
      <trkpt lat="43.92061" lon="7.08448">
        <ele>757.66</ele>
        <time>2010-04-05T16:20:49Z</time>
      </trkpt>
      <trkpt lat="43.92061" lon="7.08444">
        <ele>757.66</ele>
        <time>2010-04-05T16:20:50Z</time>
      </trkpt>
      <trkpt lat="43.92063" lon="7.08444">
        <ele>756.21</ele>
        <time>2010-04-05T16:20:53Z</time>
      </trkpt>
      <trkpt lat="43.92071" lon="7.08461">
        <ele>754.29</ele>
        <time>2010-04-05T16:20:57Z</time>
      </trkpt>
      <trkpt lat="43.92079" lon="7.08476">
        <ele>753.33</ele>
        <time>2010-04-05T16:21:00Z</time>
      </trkpt>
      <trkpt lat="43.92081" lon="7.08482">
        <ele>752.85</ele>
        <time>2010-04-05T16:21:01Z</time>
      </trkpt>
      <trkpt lat="43.92082" lon="7.08488">
        <ele>752.85</ele>
        <time>2010-04-05T16:21:02Z</time>
      </trkpt>
      <trkpt lat="43.92082" lon="7.08494">
        <ele>751.41</ele>
        <time>2010-04-05T16:21:03Z</time>
      </trkpt>
      <trkpt lat="43.92083" lon="7.08498">
        <ele>751.41</ele>
        <time>2010-04-05T16:21:04Z</time>
      </trkpt>
      <trkpt lat="43.92085" lon="7.0852">
        <ele>749.97</ele>
        <time>2010-04-05T16:21:10Z</time>
      </trkpt>
      <trkpt lat="43.92089" lon="7.08525">
        <ele>749.97</ele>
        <time>2010-04-05T16:21:12Z</time>
      </trkpt>
      <trkpt lat="43.92092" lon="7.08533">
        <ele>748.52</ele>
        <time>2010-04-05T16:21:14Z</time>
      </trkpt>
      <trkpt lat="43.92094" lon="7.08541">
        <ele>748.04</ele>
        <time>2010-04-05T16:21:16Z</time>
      </trkpt>
      <trkpt lat="43.92097" lon="7.08544">
        <ele>747.08</ele>
        <time>2010-04-05T16:21:17Z</time>
      </trkpt>
      <trkpt lat="43.92113" lon="7.08529">
        <ele>746.12</ele>
        <time>2010-04-05T16:21:24Z</time>
      </trkpt>
      <trkpt lat="43.92125" lon="7.08526">
        <ele>743.72</ele>
        <time>2010-04-05T16:21:27Z</time>
      </trkpt>
      <trkpt lat="43.9213" lon="7.08526">
        <ele>743.24</ele>
        <time>2010-04-05T16:21:28Z</time>
      </trkpt>
      <trkpt lat="43.92133" lon="7.08527">
        <ele>742.28</ele>
        <time>2010-04-05T16:21:29Z</time>
      </trkpt>
      <trkpt lat="43.92135" lon="7.08529">
        <ele>741.31</ele>
        <time>2010-04-05T16:21:52Z</time>
      </trkpt>
      <trkpt lat="43.92135" lon="7.08529">
        <ele>740.83</ele>
        <time>2010-04-05T16:21:53Z</time>
      </trkpt>
      <trkpt lat="43.92141" lon="7.08524">
        <ele>740.83</ele>
        <time>2010-04-05T16:21:55Z</time>
      </trkpt>
      <trkpt lat="43.92146" lon="7.08523">
        <ele>740.83</ele>
        <time>2010-04-05T16:21:56Z</time>
      </trkpt>
      <trkpt lat="43.92151" lon="7.08524">
        <ele>740.83</ele>
        <time>2010-04-05T16:21:57Z</time>
      </trkpt>
      <trkpt lat="43.92156" lon="7.08527">
        <ele>739.87</ele>
        <time>2010-04-05T16:21:58Z</time>
      </trkpt>
      <trkpt lat="43.92159" lon="7.08531">
        <ele>738.91</ele>
        <time>2010-04-05T16:21:59Z</time>
      </trkpt>
      <trkpt lat="43.92163" lon="7.08538">
        <ele>737.95</ele>
        <time>2010-04-05T16:22:00Z</time>
      </trkpt>
      <trkpt lat="43.92166" lon="7.08545">
        <ele>736.99</ele>
        <time>2010-04-05T16:22:01Z</time>
      </trkpt>
      <trkpt lat="43.9217" lon="7.08551">
        <ele>736.03</ele>
        <time>2010-04-05T16:22:02Z</time>
      </trkpt>
      <trkpt lat="43.92174" lon="7.08557">
        <ele>735.07</ele>
        <time>2010-04-05T16:22:03Z</time>
      </trkpt>
      <trkpt lat="43.92177" lon="7.08564">
        <ele>732.66</ele>
        <time>2010-04-05T16:22:04Z</time>
      </trkpt>
      <trkpt lat="43.92181" lon="7.0857">
        <ele>731.22</ele>
        <time>2010-04-05T16:22:05Z</time>
      </trkpt>
      <trkpt lat="43.92189" lon="7.08576">
        <ele>731.22</ele>
        <time>2010-04-05T16:22:15Z</time>
      </trkpt>
      <trkpt lat="43.92193" lon="7.08578">
        <ele>733.14</ele>
        <time>2010-04-05T16:22:43Z</time>
      </trkpt>
      <trkpt lat="43.92194" lon="7.0858">
        <ele>732.66</ele>
        <time>2010-04-05T16:23:10Z</time>
      </trkpt>
      <trkpt lat="43.92196" lon="7.0858">
        <ele>732.66</ele>
        <time>2010-04-05T16:23:16Z</time>
      </trkpt>
      <trkpt lat="43.92197" lon="7.0858">
        <ele>732.66</ele>
        <time>2010-04-05T16:23:17Z</time>
      </trkpt>
      <trkpt lat="43.92199" lon="7.0858">
        <ele>732.18</ele>
        <time>2010-04-05T16:23:18Z</time>
      </trkpt>
      <trkpt lat="43.922" lon="7.08581">
        <ele>732.18</ele>
        <time>2010-04-05T16:23:19Z</time>
      </trkpt>
      <trkpt lat="43.92202" lon="7.08582">
        <ele>731.7</ele>
        <time>2010-04-05T16:23:20Z</time>
      </trkpt>
      <trkpt lat="43.92203" lon="7.08584">
        <ele>731.7</ele>
        <time>2010-04-05T16:23:21Z</time>
      </trkpt>
      <trkpt lat="43.92205" lon="7.08587">
        <ele>730.74</ele>
        <time>2010-04-05T16:23:22Z</time>
      </trkpt>
      <trkpt lat="43.92207" lon="7.08591">
        <ele>729.78</ele>
        <time>2010-04-05T16:23:37Z</time>
      </trkpt>
      <trkpt lat="43.92214" lon="7.08603">
        <ele>726.41</ele>
        <time>2010-04-05T16:23:43Z</time>
      </trkpt>
      <trkpt lat="43.92217" lon="7.08606">
        <ele>726.41</ele>
        <time>2010-04-05T16:23:44Z</time>
      </trkpt>
      <trkpt lat="43.9222" lon="7.08609">
        <ele>725.45</ele>
        <time>2010-04-05T16:23:47Z</time>
      </trkpt>
      <trkpt lat="43.92222" lon="7.08614">
        <ele>725.45</ele>
        <time>2010-04-05T16:24:27Z</time>
      </trkpt>
      <trkpt lat="43.92223" lon="7.08616">
        <ele>724.97</ele>
        <time>2010-04-05T16:24:28Z</time>
      </trkpt>
      <trkpt lat="43.92233" lon="7.08637">
        <ele>723.05</ele>
        <time>2010-04-05T16:24:32Z</time>
      </trkpt>
      <trkpt lat="43.92238" lon="7.08654">
        <ele>722.09</ele>
        <time>2010-04-05T16:24:35Z</time>
      </trkpt>
      <trkpt lat="43.92234" lon="7.08683">
        <ele>719.2</ele>
        <time>2010-04-05T16:24:40Z</time>
      </trkpt>
      <trkpt lat="43.92233" lon="7.08689">
        <ele>719.2</ele>
        <time>2010-04-05T16:24:41Z</time>
      </trkpt>
      <trkpt lat="43.92232" lon="7.08696">
        <ele>717.76</ele>
        <time>2010-04-05T16:24:42Z</time>
      </trkpt>
      <trkpt lat="43.92232" lon="7.08702">
        <ele>717.28</ele>
        <time>2010-04-05T16:24:43Z</time>
      </trkpt>
      <trkpt lat="43.92232" lon="7.0872">
        <ele>714.4</ele>
        <time>2010-04-05T16:24:49Z</time>
      </trkpt>
      <trkpt lat="43.92233" lon="7.08721">
        <ele>713.92</ele>
        <time>2010-04-05T16:24:50Z</time>
      </trkpt>
      <trkpt lat="43.92234" lon="7.08719">
        <ele>713.44</ele>
        <time>2010-04-05T16:24:51Z</time>
      </trkpt>
      <trkpt lat="43.92248" lon="7.08686">
        <ele>710.55</ele>
        <time>2010-04-05T16:24:58Z</time>
      </trkpt>
      <trkpt lat="43.92251" lon="7.08681">
        <ele>710.07</ele>
        <time>2010-04-05T16:24:59Z</time>
      </trkpt>
      <trkpt lat="43.92254" lon="7.08676">
        <ele>709.11</ele>
        <time>2010-04-05T16:25:00Z</time>
      </trkpt>
      <trkpt lat="43.92257" lon="7.08671">
        <ele>708.15</ele>
        <time>2010-04-05T16:25:01Z</time>
      </trkpt>
      <trkpt lat="43.9226" lon="7.08666">
        <ele>707.67</ele>
        <time>2010-04-05T16:25:02Z</time>
      </trkpt>
      <trkpt lat="43.92262" lon="7.08661">
        <ele>707.19</ele>
        <time>2010-04-05T16:25:03Z</time>
      </trkpt>
      <trkpt lat="43.92267" lon="7.08654">
        <ele>705.26</ele>
        <time>2010-04-05T16:25:08Z</time>
      </trkpt>
      <trkpt lat="43.92266" lon="7.08664">
        <ele>703.82</ele>
        <time>2010-04-05T16:25:11Z</time>
      </trkpt>
      <trkpt lat="43.92259" lon="7.0869">
        <ele>701.42</ele>
        <time>2010-04-05T16:25:16Z</time>
      </trkpt>
      <trkpt lat="43.92256" lon="7.08703">
        <ele>699.98</ele>
        <time>2010-04-05T16:25:18Z</time>
      </trkpt>
      <trkpt lat="43.92255" lon="7.08709">
        <ele>699.5</ele>
        <time>2010-04-05T16:25:19Z</time>
      </trkpt>
      <trkpt lat="43.92254" lon="7.08722">
        <ele>698.53</ele>
        <time>2010-04-05T16:25:21Z</time>
      </trkpt>
      <trkpt lat="43.9225" lon="7.08742">
        <ele>696.61</ele>
        <time>2010-04-05T16:25:24Z</time>
      </trkpt>
      <trkpt lat="43.92249" lon="7.08747">
        <ele>696.13</ele>
        <time>2010-04-05T16:25:25Z</time>
      </trkpt>
      <trkpt lat="43.92248" lon="7.0875">
        <ele>695.65</ele>
        <time>2010-04-05T16:25:26Z</time>
      </trkpt>
      <trkpt lat="43.92245" lon="7.0878">
        <ele>693.73</ele>
        <time>2010-04-05T16:25:39Z</time>
      </trkpt>
      <trkpt lat="43.92245" lon="7.08783">
        <ele>693.73</ele>
        <time>2010-04-05T16:25:40Z</time>
      </trkpt>
      <trkpt lat="43.92244" lon="7.08788">
        <ele>693.25</ele>
        <time>2010-04-05T16:25:43Z</time>
      </trkpt>
      <trkpt lat="43.92245" lon="7.08787">
        <ele>691.81</ele>
        <time>2010-04-05T16:25:45Z</time>
      </trkpt>
      <trkpt lat="43.92246" lon="7.08777">
        <ele>690.36</ele>
        <time>2010-04-05T16:25:49Z</time>
      </trkpt>
      <trkpt lat="43.92246" lon="7.08765">
        <ele>688.92</ele>
        <time>2010-04-05T16:25:53Z</time>
      </trkpt>
      <trkpt lat="43.92265" lon="7.08731">
        <ele>685.08</ele>
        <time>2010-04-05T16:26:05Z</time>
      </trkpt>
      <trkpt lat="43.9228" lon="7.08705">
        <ele>681.23</ele>
        <time>2010-04-05T16:26:10Z</time>
      </trkpt>
      <trkpt lat="43.92282" lon="7.08703">
        <ele>681.23</ele>
        <time>2010-04-05T16:26:11Z</time>
      </trkpt>
      <trkpt lat="43.92283" lon="7.087">
        <ele>680.75</ele>
        <time>2010-04-05T16:26:15Z</time>
      </trkpt>
      <trkpt lat="43.92283" lon="7.08696">
        <ele>680.27</ele>
        <time>2010-04-05T16:26:18Z</time>
      </trkpt>
      <trkpt lat="43.92286" lon="7.08682">
        <ele>678.83</ele>
        <time>2010-04-05T16:26:27Z</time>
      </trkpt>
      <trkpt lat="43.92287" lon="7.08683">
        <ele>677.87</ele>
        <time>2010-04-05T16:26:31Z</time>
      </trkpt>
      <trkpt lat="43.92287" lon="7.08686">
        <ele>677.87</ele>
        <time>2010-04-05T16:26:32Z</time>
      </trkpt>
      <trkpt lat="43.92285" lon="7.08711">
        <ele>674.98</ele>
        <time>2010-04-05T16:26:38Z</time>
      </trkpt>
      <trkpt lat="43.92281" lon="7.08733">
        <ele>671.62</ele>
        <time>2010-04-05T16:26:43Z</time>
      </trkpt>
      <trkpt lat="43.92281" lon="7.08738">
        <ele>671.62</ele>
        <time>2010-04-05T16:26:44Z</time>
      </trkpt>
      <trkpt lat="43.92281" lon="7.08743">
        <ele>670.66</ele>
        <time>2010-04-05T16:26:45Z</time>
      </trkpt>
      <trkpt lat="43.92281" lon="7.08747">
        <ele>671.14</ele>
        <time>2010-04-05T16:26:46Z</time>
      </trkpt>
      <trkpt lat="43.92281" lon="7.08755">
        <ele>670.66</ele>
        <time>2010-04-05T16:26:52Z</time>
      </trkpt>
      <trkpt lat="43.92281" lon="7.08757">
        <ele>670.66</ele>
        <time>2010-04-05T16:26:53Z</time>
      </trkpt>
      <trkpt lat="43.9228" lon="7.08763">
        <ele>670.18</ele>
        <time>2010-04-05T16:27:04Z</time>
      </trkpt>
      <trkpt lat="43.92278" lon="7.08765">
        <ele>669.7</ele>
        <time>2010-04-05T16:27:05Z</time>
      </trkpt>
      <trkpt lat="43.92277" lon="7.08768">
        <ele>669.22</ele>
        <time>2010-04-05T16:27:06Z</time>
      </trkpt>
      <trkpt lat="43.92275" lon="7.08771">
        <ele>669.22</ele>
        <time>2010-04-05T16:27:07Z</time>
      </trkpt>
      <trkpt lat="43.92274" lon="7.08775">
        <ele>668.25</ele>
        <time>2010-04-05T16:27:08Z</time>
      </trkpt>
      <trkpt lat="43.92273" lon="7.0878">
        <ele>667.77</ele>
        <time>2010-04-05T16:27:09Z</time>
      </trkpt>
      <trkpt lat="43.92273" lon="7.08786">
        <ele>667.77</ele>
        <time>2010-04-05T16:27:10Z</time>
      </trkpt>
      <trkpt lat="43.92272" lon="7.08796">
        <ele>667.29</ele>
        <time>2010-04-05T16:27:23Z</time>
      </trkpt>
      <trkpt lat="43.92272" lon="7.08806">
        <ele>666.33</ele>
        <time>2010-04-05T16:27:38Z</time>
      </trkpt>
      <trkpt lat="43.92273" lon="7.08806">
        <ele>665.85</ele>
        <time>2010-04-05T16:27:39Z</time>
      </trkpt>
      <trkpt lat="43.92273" lon="7.08805">
        <ele>665.85</ele>
        <time>2010-04-05T16:27:40Z</time>
      </trkpt>
      <trkpt lat="43.92279" lon="7.08784">
        <ele>662.01</ele>
        <time>2010-04-05T16:27:46Z</time>
      </trkpt>
      <trkpt lat="43.92282" lon="7.08779">
        <ele>661.52</ele>
        <time>2010-04-05T16:27:47Z</time>
      </trkpt>
      <trkpt lat="43.92285" lon="7.08774">
        <ele>661.52</ele>
        <time>2010-04-05T16:27:48Z</time>
      </trkpt>
      <trkpt lat="43.92294" lon="7.0875">
        <ele>658.64</ele>
        <time>2010-04-05T16:27:54Z</time>
      </trkpt>
      <trkpt lat="43.92296" lon="7.08751">
        <ele>657.68</ele>
        <time>2010-04-05T16:27:56Z</time>
      </trkpt>
      <trkpt lat="43.92296" lon="7.08766">
        <ele>654.8</ele>
        <time>2010-04-05T16:28:01Z</time>
      </trkpt>
      <trkpt lat="43.92296" lon="7.0877">
        <ele>652.87</ele>
        <time>2010-04-05T16:28:11Z</time>
      </trkpt>
      <trkpt lat="43.92301" lon="7.08773">
        <ele>650.47</ele>
        <time>2010-04-05T16:28:17Z</time>
      </trkpt>
      <trkpt lat="43.92302" lon="7.08774">
        <ele>649.03</ele>
        <time>2010-04-05T16:28:20Z</time>
      </trkpt>
      <trkpt lat="43.92305" lon="7.08773">
        <ele>647.59</ele>
        <time>2010-04-05T16:28:24Z</time>
      </trkpt>
      <trkpt lat="43.92306" lon="7.08778">
        <ele>645.66</ele>
        <time>2010-04-05T16:28:26Z</time>
      </trkpt>
      <trkpt lat="43.92307" lon="7.08793">
        <ele>641.34</ele>
        <time>2010-04-05T16:28:30Z</time>
      </trkpt>
      <trkpt lat="43.92308" lon="7.08798">
        <ele>639.89</ele>
        <time>2010-04-05T16:28:31Z</time>
      </trkpt>
      <trkpt lat="43.92309" lon="7.08805">
        <ele>637.97</ele>
        <time>2010-04-05T16:28:33Z</time>
      </trkpt>
      <trkpt lat="43.92311" lon="7.08821">
        <ele>634.13</ele>
        <time>2010-04-05T16:28:38Z</time>
      </trkpt>
      <trkpt lat="43.92312" lon="7.08828">
        <ele>632.68</ele>
        <time>2010-04-05T16:28:40Z</time>
      </trkpt>
      <trkpt lat="43.92313" lon="7.08837">
        <ele>630.76</ele>
        <time>2010-04-05T16:28:43Z</time>
      </trkpt>
      <trkpt lat="43.9232" lon="7.08857">
        <ele>625.47</ele>
        <time>2010-04-05T16:28:48Z</time>
      </trkpt>
      <trkpt lat="43.92321" lon="7.08858">
        <ele>624.99</ele>
        <time>2010-04-05T16:28:49Z</time>
      </trkpt>
      <trkpt lat="43.92321" lon="7.08868">
        <ele>624.51</ele>
        <time>2010-04-05T16:29:04Z</time>
      </trkpt>
      <trkpt lat="43.92322" lon="7.0887">
        <ele>623.07</ele>
        <time>2010-04-05T16:29:20Z</time>
      </trkpt>
      <trkpt lat="43.92323" lon="7.0887">
        <ele>622.11</ele>
        <time>2010-04-05T16:29:24Z</time>
      </trkpt>
      <trkpt lat="43.92325" lon="7.08866">
        <ele>620.67</ele>
        <time>2010-04-05T16:29:33Z</time>
      </trkpt>
      <trkpt lat="43.92324" lon="7.08865">
        <ele>620.19</ele>
        <time>2010-04-05T16:30:05Z</time>
      </trkpt>
      <trkpt lat="43.9232" lon="7.08843">
        <ele>620.19</ele>
        <time>2010-04-05T16:31:11Z</time>
      </trkpt>
      <trkpt lat="43.9233" lon="7.08833">
        <ele>616.34</ele>
        <time>2010-04-05T16:31:16Z</time>
      </trkpt>
      <trkpt lat="43.9234" lon="7.08835">
        <ele>615.86</ele>
        <time>2010-04-05T16:31:18Z</time>
      </trkpt>
      <trkpt lat="43.92342" lon="7.08837">
        <ele>615.38</ele>
        <time>2010-04-05T16:31:19Z</time>
      </trkpt>
      <trkpt lat="43.92361" lon="7.08873">
        <ele>614.9</ele>
        <time>2010-04-05T16:31:31Z</time>
      </trkpt>
      <trkpt lat="43.9237" lon="7.08894">
        <ele>613.46</ele>
        <time>2010-04-05T16:31:37Z</time>
      </trkpt>
      <trkpt lat="43.92372" lon="7.08895">
        <ele>612.98</ele>
        <time>2010-04-05T16:31:38Z</time>
      </trkpt>
      <trkpt lat="43.92375" lon="7.08897">
        <ele>612.02</ele>
        <time>2010-04-05T16:31:39Z</time>
      </trkpt>
      <trkpt lat="43.92378" lon="7.089">
        <ele>612.02</ele>
        <time>2010-04-05T16:31:40Z</time>
      </trkpt>
      <trkpt lat="43.92383" lon="7.08902">
        <ele>610.57</ele>
        <time>2010-04-05T16:31:41Z</time>
      </trkpt>
      <trkpt lat="43.92388" lon="7.08903">
        <ele>609.61</ele>
        <time>2010-04-05T16:31:42Z</time>
      </trkpt>
      <trkpt lat="43.92393" lon="7.08904">
        <ele>609.61</ele>
        <time>2010-04-05T16:31:43Z</time>
      </trkpt>
      <trkpt lat="43.92416" lon="7.08941">
        <ele>607.21</ele>
        <time>2010-04-05T16:31:55Z</time>
      </trkpt>
      <trkpt lat="43.92425" lon="7.08975">
        <ele>603.85</ele>
        <time>2010-04-05T16:32:00Z</time>
      </trkpt>
      <trkpt lat="43.92442" lon="7.09009">
        <ele>603.36</ele>
        <time>2010-04-05T16:32:15Z</time>
      </trkpt>
      <trkpt lat="43.92442" lon="7.09012">
        <ele>603.36</ele>
        <time>2010-04-05T16:32:16Z</time>
      </trkpt>
      <trkpt lat="43.92443" lon="7.09015">
        <ele>602.88</ele>
        <time>2010-04-05T16:32:18Z</time>
      </trkpt>
      <trkpt lat="43.92444" lon="7.09018">
        <ele>602.88</ele>
        <time>2010-04-05T16:32:19Z</time>
      </trkpt>
      <trkpt lat="43.92444" lon="7.09022">
        <ele>602.4</ele>
        <time>2010-04-05T16:32:20Z</time>
      </trkpt>
      <trkpt lat="43.92446" lon="7.0903">
        <ele>601.92</ele>
        <time>2010-04-05T16:32:40Z</time>
      </trkpt>
      <trkpt lat="43.92455" lon="7.09049">
        <ele>600.48</ele>
        <time>2010-04-05T16:32:56Z</time>
      </trkpt>
      <trkpt lat="43.92463" lon="7.09065">
        <ele>597.12</ele>
        <time>2010-04-05T16:33:04Z</time>
      </trkpt>
      <trkpt lat="43.92462" lon="7.09062">
        <ele>597.6</ele>
        <time>2010-04-05T16:33:06Z</time>
      </trkpt>
      <trkpt lat="43.92461" lon="7.09058">
        <ele>597.12</ele>
        <time>2010-04-05T16:33:08Z</time>
      </trkpt>
      <trkpt lat="43.9246" lon="7.09056">
        <ele>597.12</ele>
        <time>2010-04-05T16:33:09Z</time>
      </trkpt>
      <trkpt lat="43.92459" lon="7.09054">
        <ele>596.64</ele>
        <time>2010-04-05T16:33:10Z</time>
      </trkpt>
      <trkpt lat="43.92452" lon="7.09027">
        <ele>595.19</ele>
        <time>2010-04-05T16:33:22Z</time>
      </trkpt>
      <trkpt lat="43.92449" lon="7.09011">
        <ele>594.23</ele>
        <time>2010-04-05T16:33:34Z</time>
      </trkpt>
      <trkpt lat="43.92448" lon="7.09009">
        <ele>594.23</ele>
        <time>2010-04-05T16:33:35Z</time>
      </trkpt>
      <trkpt lat="43.92447" lon="7.09006">
        <ele>594.23</ele>
        <time>2010-04-05T16:33:36Z</time>
      </trkpt>
      <trkpt lat="43.92446" lon="7.09002">
        <ele>593.27</ele>
        <time>2010-04-05T16:33:37Z</time>
      </trkpt>
      <trkpt lat="43.92445" lon="7.08998">
        <ele>593.75</ele>
        <time>2010-04-05T16:33:38Z</time>
      </trkpt>
      <trkpt lat="43.92446" lon="7.08993">
        <ele>593.27</ele>
        <time>2010-04-05T16:33:39Z</time>
      </trkpt>
      <trkpt lat="43.92446" lon="7.08989">
        <ele>592.31</ele>
        <time>2010-04-05T16:33:40Z</time>
      </trkpt>
      <trkpt lat="43.92447" lon="7.08985">
        <ele>592.31</ele>
        <time>2010-04-05T16:33:41Z</time>
      </trkpt>
      <trkpt lat="43.9245" lon="7.08941">
        <ele>588.95</ele>
        <time>2010-04-05T16:33:54Z</time>
      </trkpt>
      <trkpt lat="43.92443" lon="7.08927">
        <ele>587.98</ele>
        <time>2010-04-05T16:33:58Z</time>
      </trkpt>
      <trkpt lat="43.92434" lon="7.08912">
        <ele>585.58</ele>
        <time>2010-04-05T16:34:02Z</time>
      </trkpt>
      <trkpt lat="43.92428" lon="7.08906">
        <ele>584.14</ele>
        <time>2010-04-05T16:34:12Z</time>
      </trkpt>
      <trkpt lat="43.92441" lon="7.08916">
        <ele>581.73</ele>
        <time>2010-04-05T16:34:17Z</time>
      </trkpt>
      <trkpt lat="43.92452" lon="7.0893">
        <ele>580.29</ele>
        <time>2010-04-05T16:34:34Z</time>
      </trkpt>
      <trkpt lat="43.92454" lon="7.08938">
        <ele>579.33</ele>
        <time>2010-04-05T16:34:47Z</time>
      </trkpt>
      <trkpt lat="43.92455" lon="7.0894">
        <ele>579.33</ele>
        <time>2010-04-05T16:34:48Z</time>
      </trkpt>
      <trkpt lat="43.92455" lon="7.08948">
        <ele>578.37</ele>
        <time>2010-04-05T16:34:50Z</time>
      </trkpt>
      <trkpt lat="43.92457" lon="7.08957">
        <ele>577.41</ele>
        <time>2010-04-05T16:34:52Z</time>
      </trkpt>
      <trkpt lat="43.92459" lon="7.08977">
        <ele>575.49</ele>
        <time>2010-04-05T16:34:56Z</time>
      </trkpt>
      <trkpt lat="43.92461" lon="7.08983">
        <ele>575.49</ele>
        <time>2010-04-05T16:34:57Z</time>
      </trkpt>
      <trkpt lat="43.92477" lon="7.09005">
        <ele>572.6</ele>
        <time>2010-04-05T16:35:04Z</time>
      </trkpt>
      <trkpt lat="43.92488" lon="7.09025">
        <ele>570.68</ele>
        <time>2010-04-05T16:35:36Z</time>
      </trkpt>
      <trkpt lat="43.92499" lon="7.09065">
        <ele>566.83</ele>
        <time>2010-04-05T16:35:43Z</time>
      </trkpt>
      <trkpt lat="43.92499" lon="7.09072">
        <ele>566.35</ele>
        <time>2010-04-05T16:35:44Z</time>
      </trkpt>
      <trkpt lat="43.92498" lon="7.09078">
        <ele>565.87</ele>
        <time>2010-04-05T16:35:45Z</time>
      </trkpt>
      <trkpt lat="43.92497" lon="7.09084">
        <ele>565.39</ele>
        <time>2010-04-05T16:35:46Z</time>
      </trkpt>
      <trkpt lat="43.92496" lon="7.09089">
        <ele>564.91</ele>
        <time>2010-04-05T16:35:47Z</time>
      </trkpt>
      <trkpt lat="43.92491" lon="7.09119">
        <ele>562.03</ele>
        <time>2010-04-05T16:35:54Z</time>
      </trkpt>
      <trkpt lat="43.92491" lon="7.09123">
        <ele>561.55</ele>
        <time>2010-04-05T16:36:16Z</time>
      </trkpt>
      <trkpt lat="43.9249" lon="7.09124">
        <ele>561.07</ele>
        <time>2010-04-05T16:36:31Z</time>
      </trkpt>
      <trkpt lat="43.92491" lon="7.09125">
        <ele>560.59</ele>
        <time>2010-04-05T16:36:33Z</time>
      </trkpt>
      <trkpt lat="43.92492" lon="7.09125">
        <ele>560.11</ele>
        <time>2010-04-05T16:36:34Z</time>
      </trkpt>
      <trkpt lat="43.92501" lon="7.09093">
        <ele>557.22</ele>
        <time>2010-04-05T16:36:42Z</time>
      </trkpt>
      <trkpt lat="43.92503" lon="7.09089">
        <ele>557.22</ele>
        <time>2010-04-05T16:36:43Z</time>
      </trkpt>
      <trkpt lat="43.92513" lon="7.09069">
        <ele>554.34</ele>
        <time>2010-04-05T16:36:47Z</time>
      </trkpt>
      <trkpt lat="43.92515" lon="7.09063">
        <ele>553.86</ele>
        <time>2010-04-05T16:36:48Z</time>
      </trkpt>
      <trkpt lat="43.92516" lon="7.09057">
        <ele>553.86</ele>
        <time>2010-04-05T16:36:49Z</time>
      </trkpt>
      <trkpt lat="43.92518" lon="7.09045">
        <ele>552.41</ele>
        <time>2010-04-05T16:36:51Z</time>
      </trkpt>
      <trkpt lat="43.92519" lon="7.09039">
        <ele>551.45</ele>
        <time>2010-04-05T16:36:52Z</time>
      </trkpt>
      <trkpt lat="43.92518" lon="7.09034">
        <ele>551.93</ele>
        <time>2010-04-05T16:36:53Z</time>
      </trkpt>
      <trkpt lat="43.92518" lon="7.09029">
        <ele>550.97</ele>
        <time>2010-04-05T16:36:54Z</time>
      </trkpt>
      <trkpt lat="43.92517" lon="7.09025">
        <ele>550.49</ele>
        <time>2010-04-05T16:36:55Z</time>
      </trkpt>
      <trkpt lat="43.92515" lon="7.0902">
        <ele>550.01</ele>
        <time>2010-04-05T16:36:56Z</time>
      </trkpt>
      <trkpt lat="43.92513" lon="7.09018">
        <ele>550.01</ele>
        <time>2010-04-05T16:36:57Z</time>
      </trkpt>
      <trkpt lat="43.92512" lon="7.0901">
        <ele>548.57</ele>
        <time>2010-04-05T16:37:08Z</time>
      </trkpt>
      <trkpt lat="43.92512" lon="7.09011">
        <ele>548.09</ele>
        <time>2010-04-05T16:37:11Z</time>
      </trkpt>
      <trkpt lat="43.92513" lon="7.09012">
        <ele>548.09</ele>
        <time>2010-04-05T16:37:12Z</time>
      </trkpt>
      <trkpt lat="43.92525" lon="7.09032">
        <ele>545.69</ele>
        <time>2010-04-05T16:37:17Z</time>
      </trkpt>
      <trkpt lat="43.92531" lon="7.09046">
        <ele>543.28</ele>
        <time>2010-04-05T16:37:20Z</time>
      </trkpt>
      <trkpt lat="43.92532" lon="7.09052">
        <ele>541.84</ele>
        <time>2010-04-05T16:37:21Z</time>
      </trkpt>
      <trkpt lat="43.92533" lon="7.09058">
        <ele>540.88</ele>
        <time>2010-04-05T16:37:22Z</time>
      </trkpt>
      <trkpt lat="43.92533" lon="7.09065">
        <ele>539.92</ele>
        <time>2010-04-05T16:37:23Z</time>
      </trkpt>
      <trkpt lat="43.92532" lon="7.09072">
        <ele>537.51</ele>
        <time>2010-04-05T16:37:24Z</time>
      </trkpt>
      <trkpt lat="43.92531" lon="7.09079">
        <ele>537.51</ele>
        <time>2010-04-05T16:37:25Z</time>
      </trkpt>
      <trkpt lat="43.92532" lon="7.09094">
        <ele>534.15</ele>
        <time>2010-04-05T16:37:28Z</time>
      </trkpt>
      <trkpt lat="43.92532" lon="7.091">
        <ele>533.19</ele>
        <time>2010-04-05T16:37:29Z</time>
      </trkpt>
      <trkpt lat="43.92532" lon="7.09106">
        <ele>531.27</ele>
        <time>2010-04-05T16:37:30Z</time>
      </trkpt>
      <trkpt lat="43.92533" lon="7.09113">
        <ele>531.27</ele>
        <time>2010-04-05T16:37:31Z</time>
      </trkpt>
      <trkpt lat="43.92535" lon="7.09118">
        <ele>530.3</ele>
        <time>2010-04-05T16:37:32Z</time>
      </trkpt>
      <trkpt lat="43.92535" lon="7.09121">
        <ele>529.34</ele>
        <time>2010-04-05T16:37:33Z</time>
      </trkpt>
      <trkpt lat="43.92535" lon="7.09124">
        <ele>528.38</ele>
        <time>2010-04-05T16:37:45Z</time>
      </trkpt>
      <trkpt lat="43.92534" lon="7.09126">
        <ele>528.86</ele>
        <time>2010-04-05T16:37:46Z</time>
      </trkpt>
      <trkpt lat="43.92534" lon="7.09126">
        <ele>526.94</ele>
        <time>2010-04-05T16:37:50Z</time>
      </trkpt>
      <trkpt lat="43.92535" lon="7.09122">
        <ele>526.46</ele>
        <time>2010-04-05T16:37:51Z</time>
      </trkpt>
      <trkpt lat="43.92536" lon="7.09117">
        <ele>525.98</ele>
        <time>2010-04-05T16:37:52Z</time>
      </trkpt>
      <trkpt lat="43.92537" lon="7.09112">
        <ele>525.02</ele>
        <time>2010-04-05T16:37:53Z</time>
      </trkpt>
      <trkpt lat="43.92538" lon="7.09108">
        <ele>523.58</ele>
        <time>2010-04-05T16:37:54Z</time>
      </trkpt>
      <trkpt lat="43.9254" lon="7.09103">
        <ele>523.58</ele>
        <time>2010-04-05T16:37:55Z</time>
      </trkpt>
      <trkpt lat="43.92541" lon="7.09098">
        <ele>522.61</ele>
        <time>2010-04-05T16:37:56Z</time>
      </trkpt>
      <trkpt lat="43.92543" lon="7.09094">
        <ele>521.65</ele>
        <time>2010-04-05T16:37:57Z</time>
      </trkpt>
      <trkpt lat="43.92545" lon="7.09089">
        <ele>521.17</ele>
        <time>2010-04-05T16:37:58Z</time>
      </trkpt>
      <trkpt lat="43.92551" lon="7.09079">
        <ele>519.73</ele>
        <time>2010-04-05T16:38:00Z</time>
      </trkpt>
      <trkpt lat="43.92562" lon="7.09064">
        <ele>516.37</ele>
        <time>2010-04-05T16:38:04Z</time>
      </trkpt>
      <trkpt lat="43.9257" lon="7.09059">
        <ele>514.44</ele>
        <time>2010-04-05T16:38:09Z</time>
      </trkpt>
      <trkpt lat="43.9257" lon="7.09059">
        <ele>512.04</ele>
        <time>2010-04-05T16:48:55Z</time>
      </trkpt>
      <trkpt lat="43.92572" lon="7.09058">
        <ele>511.56</ele>
        <time>2010-04-05T16:49:41Z</time>
      </trkpt>
      <trkpt lat="43.92571" lon="7.09054">
        <ele>512.52</ele>
        <time>2010-04-05T16:53:26Z</time>
      </trkpt>
      <trkpt lat="43.9258" lon="7.09052">
        <ele>509.16</ele>
        <time>2010-04-05T16:53:32Z</time>
      </trkpt>
      <trkpt lat="43.92584" lon="7.09046">
        <ele>506.27</ele>
        <time>2010-04-05T16:53:46Z</time>
      </trkpt>
      <trkpt lat="43.92582" lon="7.09042">
        <ele>504.83</ele>
        <time>2010-04-05T16:54:10Z</time>
      </trkpt>
      <trkpt lat="43.92579" lon="7.09039">
        <ele>502.91</ele>
        <time>2010-04-05T16:54:22Z</time>
      </trkpt>
      <trkpt lat="43.92589" lon="7.09031">
        <ele>499.54</ele>
        <time>2010-04-05T16:54:27Z</time>
      </trkpt>
      <trkpt lat="43.9259" lon="7.09031">
        <ele>499.54</ele>
        <time>2010-04-05T16:54:28Z</time>
      </trkpt>
      <trkpt lat="43.92592" lon="7.09031">
        <ele>499.54</ele>
        <time>2010-04-05T16:54:29Z</time>
      </trkpt>
      <trkpt lat="43.92599" lon="7.09024">
        <ele>495.22</ele>
        <time>2010-04-05T16:54:36Z</time>
      </trkpt>
      <trkpt lat="43.926" lon="7.09024">
        <ele>494.74</ele>
        <time>2010-04-05T16:54:37Z</time>
      </trkpt>
      <trkpt lat="43.926" lon="7.09024">
        <ele>494.26</ele>
        <time>2010-04-05T16:54:38Z</time>
      </trkpt>
      <trkpt lat="43.92601" lon="7.09041">
        <ele>489.93</ele>
        <time>2010-04-05T16:54:45Z</time>
      </trkpt>
      <trkpt lat="43.92602" lon="7.09054">
        <ele>486.56</ele>
        <time>2010-04-05T16:54:48Z</time>
      </trkpt>
      <trkpt lat="43.92601" lon="7.0906">
        <ele>484.64</ele>
        <time>2010-04-05T16:54:51Z</time>
      </trkpt>
      <trkpt lat="43.92601" lon="7.0906">
        <ele>484.16</ele>
        <time>2010-04-05T16:54:52Z</time>
      </trkpt>
      <trkpt lat="43.92605" lon="7.09056">
        <ele>482.24</ele>
        <time>2010-04-05T16:54:55Z</time>
      </trkpt>
      <trkpt lat="43.92608" lon="7.0907">
        <ele>477.43</ele>
        <time>2010-04-05T16:55:02Z</time>
      </trkpt>
      <trkpt lat="43.92612" lon="7.09079">
        <ele>474.07</ele>
        <time>2010-04-05T16:55:11Z</time>
      </trkpt>
      <trkpt lat="43.92612" lon="7.09082">
        <ele>473.11</ele>
        <time>2010-04-05T16:55:13Z</time>
      </trkpt>
      <trkpt lat="43.92613" lon="7.09082">
        <ele>472.14</ele>
        <time>2010-04-05T16:55:15Z</time>
      </trkpt>
      <trkpt lat="43.92614" lon="7.09076">
        <ele>470.7</ele>
        <time>2010-04-05T16:55:19Z</time>
      </trkpt>
      <trkpt lat="43.92617" lon="7.0908">
        <ele>466.86</ele>
        <time>2010-04-05T16:55:30Z</time>
      </trkpt>
      <trkpt lat="43.92617" lon="7.0908">
        <ele>466.86</ele>
        <time>2010-04-05T16:55:31Z</time>
      </trkpt>
      <trkpt lat="43.92624" lon="7.0908">
        <ele>463.49</ele>
        <time>2010-04-05T16:55:40Z</time>
      </trkpt>
      <trkpt lat="43.92627" lon="7.09087">
        <ele>460.61</ele>
        <time>2010-04-05T16:55:45Z</time>
      </trkpt>
      <trkpt lat="43.92628" lon="7.0909">
        <ele>458.21</ele>
        <time>2010-04-05T16:55:58Z</time>
      </trkpt>
      <trkpt lat="43.9263" lon="7.09086">
        <ele>456.76</ele>
        <time>2010-04-05T16:56:00Z</time>
      </trkpt>
      <trkpt lat="43.92633" lon="7.09083">
        <ele>455.8</ele>
        <time>2010-04-05T16:56:03Z</time>
      </trkpt>
      <trkpt lat="43.92637" lon="7.09093">
        <ele>452.92</ele>
        <time>2010-04-05T16:56:08Z</time>
      </trkpt>
      <trkpt lat="43.92637" lon="7.091">
        <ele>450.03</ele>
        <time>2010-04-05T16:56:14Z</time>
      </trkpt>
      <trkpt lat="43.92637" lon="7.09101">
        <ele>449.07</ele>
        <time>2010-04-05T16:56:16Z</time>
      </trkpt>
      <trkpt lat="43.92642" lon="7.09093">
        <ele>447.15</ele>
        <time>2010-04-05T16:56:20Z</time>
      </trkpt>
      <trkpt lat="43.92647" lon="7.09099">
        <ele>443.79</ele>
        <time>2010-04-05T16:56:24Z</time>
      </trkpt>
      <trkpt lat="43.92648" lon="7.09106">
        <ele>441.86</ele>
        <time>2010-04-05T16:56:26Z</time>
      </trkpt>
      <trkpt lat="43.92653" lon="7.09105">
        <ele>438.98</ele>
        <time>2010-04-05T16:56:29Z</time>
      </trkpt>
      <trkpt lat="43.92659" lon="7.09101">
        <ele>437.06</ele>
        <time>2010-04-05T16:56:38Z</time>
      </trkpt>
      <trkpt lat="43.92662" lon="7.09101">
        <ele>435.13</ele>
        <time>2010-04-05T16:56:42Z</time>
      </trkpt>
      <trkpt lat="43.92662" lon="7.09101">
        <ele>435.13</ele>
        <time>2010-04-05T16:56:44Z</time>
      </trkpt>
      <trkpt lat="43.92667" lon="7.09089">
        <ele>431.77</ele>
        <time>2010-04-05T16:56:50Z</time>
      </trkpt>
      <trkpt lat="43.92672" lon="7.09089">
        <ele>428.89</ele>
        <time>2010-04-05T16:56:54Z</time>
      </trkpt>
      <trkpt lat="43.92673" lon="7.09097">
        <ele>427.44</ele>
        <time>2010-04-05T16:56:57Z</time>
      </trkpt>
      <trkpt lat="43.92675" lon="7.091">
        <ele>426</ele>
        <time>2010-04-05T16:57:00Z</time>
      </trkpt>
      <trkpt lat="43.92683" lon="7.09091">
        <ele>422.64</ele>
        <time>2010-04-05T16:57:04Z</time>
      </trkpt>
      <trkpt lat="43.92686" lon="7.09088">
        <ele>421.68</ele>
        <time>2010-04-05T16:57:06Z</time>
      </trkpt>
      <trkpt lat="43.92688" lon="7.09087">
        <ele>420.23</ele>
        <time>2010-04-05T16:57:08Z</time>
      </trkpt>
      <trkpt lat="43.9269" lon="7.09102">
        <ele>416.39</ele>
        <time>2010-04-05T16:57:13Z</time>
      </trkpt>
      <trkpt lat="43.92692" lon="7.09112">
        <ele>413.5</ele>
        <time>2010-04-05T16:57:15Z</time>
      </trkpt>
      <trkpt lat="43.92698" lon="7.09134">
        <ele>408.7</ele>
        <time>2010-04-05T16:57:19Z</time>
      </trkpt>
      <trkpt lat="43.92701" lon="7.09129">
        <ele>405.81</ele>
        <time>2010-04-05T16:57:22Z</time>
      </trkpt>
      <trkpt lat="43.92702" lon="7.09126">
        <ele>405.33</ele>
        <time>2010-04-05T16:57:25Z</time>
      </trkpt>
      <trkpt lat="43.92703" lon="7.09128">
        <ele>404.37</ele>
        <time>2010-04-05T16:57:27Z</time>
      </trkpt>
      <trkpt lat="43.92703" lon="7.09136">
        <ele>402.45</ele>
        <time>2010-04-05T16:57:30Z</time>
      </trkpt>
      <trkpt lat="43.92704" lon="7.09136">
        <ele>401.49</ele>
        <time>2010-04-05T16:57:32Z</time>
      </trkpt>
      <trkpt lat="43.92705" lon="7.09135">
        <ele>400.53</ele>
        <time>2010-04-05T16:57:48Z</time>
      </trkpt>
      <trkpt lat="43.92706" lon="7.0913">
        <ele>399.08</ele>
        <time>2010-04-05T16:57:53Z</time>
      </trkpt>
      <trkpt lat="43.92706" lon="7.0913">
        <ele>399.57</ele>
        <time>2010-04-05T16:57:54Z</time>
      </trkpt>
      <trkpt lat="43.92708" lon="7.09137">
        <ele>397.16</ele>
        <time>2010-04-05T16:57:59Z</time>
      </trkpt>
      <trkpt lat="43.92707" lon="7.09139">
        <ele>396.2</ele>
        <time>2010-04-05T16:58:01Z</time>
      </trkpt>
      <trkpt lat="43.92703" lon="7.0914">
        <ele>396.2</ele>
        <time>2010-04-05T16:58:31Z</time>
      </trkpt>
      <trkpt lat="43.92703" lon="7.09141">
        <ele>395.72</ele>
        <time>2010-04-05T16:58:37Z</time>
      </trkpt>
      <trkpt lat="43.92704" lon="7.0914">
        <ele>394.28</ele>
        <time>2010-04-05T16:58:40Z</time>
      </trkpt>
      <trkpt lat="43.92704" lon="7.0914">
        <ele>394.76</ele>
        <time>2010-04-05T16:58:42Z</time>
      </trkpt>
      <trkpt lat="43.92709" lon="7.0914">
        <ele>392.36</ele>
        <time>2010-04-05T16:58:48Z</time>
      </trkpt>
      <trkpt lat="43.92713" lon="7.09133">
        <ele>390.43</ele>
        <time>2010-04-05T16:58:51Z</time>
      </trkpt>
      <trkpt lat="43.92714" lon="7.09131">
        <ele>390.43</ele>
        <time>2010-04-05T16:59:15Z</time>
      </trkpt>
      <trkpt lat="43.92714" lon="7.09129">
        <ele>388.51</ele>
        <time>2010-04-05T16:59:41Z</time>
      </trkpt>
      <trkpt lat="43.92714" lon="7.09143">
        <ele>384.66</ele>
        <time>2010-04-05T16:59:47Z</time>
      </trkpt>
      <trkpt lat="43.92715" lon="7.09143">
        <ele>383.7</ele>
        <time>2010-04-05T16:59:50Z</time>
      </trkpt>
      <trkpt lat="43.92722" lon="7.0913">
        <ele>380.34</ele>
        <time>2010-04-05T16:59:55Z</time>
      </trkpt>
      <trkpt lat="43.92725" lon="7.09126">
        <ele>380.34</ele>
        <time>2010-04-05T16:59:56Z</time>
      </trkpt>
      <trkpt lat="43.92734" lon="7.09119">
        <ele>377.45</ele>
        <time>2010-04-05T16:59:59Z</time>
      </trkpt>
      <trkpt lat="43.92742" lon="7.09127">
        <ele>374.09</ele>
        <time>2010-04-05T17:00:03Z</time>
      </trkpt>
      <trkpt lat="43.9275" lon="7.09128">
        <ele>370.73</ele>
        <time>2010-04-05T17:00:09Z</time>
      </trkpt>
      <trkpt lat="43.92748" lon="7.09139">
        <ele>367.36</ele>
        <time>2010-04-05T17:00:13Z</time>
      </trkpt>
      <trkpt lat="43.9275" lon="7.09151">
        <ele>364</ele>
        <time>2010-04-05T17:00:16Z</time>
      </trkpt>
      <trkpt lat="43.9275" lon="7.09167">
        <ele>360.15</ele>
        <time>2010-04-05T17:00:19Z</time>
      </trkpt>
      <trkpt lat="43.9275" lon="7.09172">
        <ele>359.67</ele>
        <time>2010-04-05T17:00:20Z</time>
      </trkpt>
      <trkpt lat="43.92754" lon="7.09174">
        <ele>355.83</ele>
        <time>2010-04-05T17:00:23Z</time>
      </trkpt>
      <trkpt lat="43.92765" lon="7.09161">
        <ele>352.46</ele>
        <time>2010-04-05T17:00:28Z</time>
      </trkpt>
      <trkpt lat="43.92774" lon="7.0915">
        <ele>350.06</ele>
        <time>2010-04-05T17:00:31Z</time>
      </trkpt>
      <trkpt lat="43.92787" lon="7.09144">
        <ele>345.73</ele>
        <time>2010-04-05T17:00:35Z</time>
      </trkpt>
      <trkpt lat="43.92791" lon="7.09143">
        <ele>344.77</ele>
        <time>2010-04-05T17:00:36Z</time>
      </trkpt>
      <trkpt lat="43.92796" lon="7.09147">
        <ele>343.33</ele>
        <time>2010-04-05T17:00:38Z</time>
      </trkpt>
      <trkpt lat="43.92799" lon="7.09155">
        <ele>340.44</ele>
        <time>2010-04-05T17:00:40Z</time>
      </trkpt>
      <trkpt lat="43.92798" lon="7.09166">
        <ele>339</ele>
        <time>2010-04-05T17:00:42Z</time>
      </trkpt>
      <trkpt lat="43.928" lon="7.09182">
        <ele>336.6</ele>
        <time>2010-04-05T17:00:45Z</time>
      </trkpt>
      <trkpt lat="43.92801" lon="7.09188">
        <ele>335.16</ele>
        <time>2010-04-05T17:00:46Z</time>
      </trkpt>
      <trkpt lat="43.92801" lon="7.09194">
        <ele>334.2</ele>
        <time>2010-04-05T17:00:47Z</time>
      </trkpt>
      <trkpt lat="43.92801" lon="7.092">
        <ele>332.75</ele>
        <time>2010-04-05T17:00:48Z</time>
      </trkpt>
      <trkpt lat="43.92803" lon="7.09213">
        <ele>329.39</ele>
        <time>2010-04-05T17:00:52Z</time>
      </trkpt>
      <trkpt lat="43.92808" lon="7.0922">
        <ele>327.95</ele>
        <time>2010-04-05T17:00:55Z</time>
      </trkpt>
      <trkpt lat="43.92811" lon="7.09218">
        <ele>326.5</ele>
        <time>2010-04-05T17:00:57Z</time>
      </trkpt>
      <trkpt lat="43.92813" lon="7.09216">
        <ele>326.02</ele>
        <time>2010-04-05T17:00:58Z</time>
      </trkpt>
      <trkpt lat="43.92814" lon="7.09214">
        <ele>325.06</ele>
        <time>2010-04-05T17:00:59Z</time>
      </trkpt>
      <trkpt lat="43.92817" lon="7.09214">
        <ele>323.62</ele>
        <time>2010-04-05T17:01:01Z</time>
      </trkpt>
      <trkpt lat="43.9282" lon="7.0922">
        <ele>322.66</ele>
        <time>2010-04-05T17:01:03Z</time>
      </trkpt>
      <trkpt lat="43.92822" lon="7.09229">
        <ele>319.3</ele>
        <time>2010-04-05T17:01:05Z</time>
      </trkpt>
      <trkpt lat="43.92822" lon="7.09235">
        <ele>319.3</ele>
        <time>2010-04-05T17:01:06Z</time>
      </trkpt>
      <trkpt lat="43.92819" lon="7.09262">
        <ele>316.89</ele>
        <time>2010-04-05T17:01:11Z</time>
      </trkpt>
      <trkpt lat="43.9282" lon="7.09264">
        <ele>315.93</ele>
        <time>2010-04-05T17:01:12Z</time>
      </trkpt>
      <trkpt lat="43.92818" lon="7.09262">
        <ele>315.45</ele>
        <time>2010-04-05T17:01:14Z</time>
      </trkpt>
      <trkpt lat="43.92818" lon="7.09259">
        <ele>314.97</ele>
        <time>2010-04-05T17:01:15Z</time>
      </trkpt>
      <trkpt lat="43.92818" lon="7.09255">
        <ele>314.01</ele>
        <time>2010-04-05T17:01:16Z</time>
      </trkpt>
      <trkpt lat="43.92818" lon="7.09251">
        <ele>313.05</ele>
        <time>2010-04-05T17:01:17Z</time>
      </trkpt>
      <trkpt lat="43.92819" lon="7.0925">
        <ele>312.57</ele>
        <time>2010-04-05T17:01:18Z</time>
      </trkpt>
      <trkpt lat="43.92818" lon="7.09251">
        <ele>312.57</ele>
        <time>2010-04-05T17:01:19Z</time>
      </trkpt>
      <trkpt lat="43.92818" lon="7.09254">
        <ele>312.09</ele>
        <time>2010-04-05T17:01:20Z</time>
      </trkpt>
      <trkpt lat="43.92818" lon="7.09259">
        <ele>310.64</ele>
        <time>2010-04-05T17:01:21Z</time>
      </trkpt>
      <trkpt lat="43.92817" lon="7.09265">
        <ele>309.2</ele>
        <time>2010-04-05T17:01:22Z</time>
      </trkpt>
      <trkpt lat="43.92816" lon="7.09271">
        <ele>307.28</ele>
        <time>2010-04-05T17:01:23Z</time>
      </trkpt>
      <trkpt lat="43.92815" lon="7.09276">
        <ele>305.84</ele>
        <time>2010-04-05T17:01:24Z</time>
      </trkpt>
      <trkpt lat="43.92813" lon="7.09281">
        <ele>305.36</ele>
        <time>2010-04-05T17:01:25Z</time>
      </trkpt>
      <trkpt lat="43.92811" lon="7.09284">
        <ele>304.88</ele>
        <time>2010-04-05T17:01:26Z</time>
      </trkpt>
      <trkpt lat="43.9281" lon="7.09287">
        <ele>303.91</ele>
        <time>2010-04-05T17:01:27Z</time>
      </trkpt>
      <trkpt lat="43.92807" lon="7.09286">
        <ele>302.47</ele>
        <time>2010-04-05T17:01:29Z</time>
      </trkpt>
      <trkpt lat="43.92806" lon="7.09284">
        <ele>301.99</ele>
        <time>2010-04-05T17:01:30Z</time>
      </trkpt>
      <trkpt lat="43.92807" lon="7.09282">
        <ele>301.03</ele>
        <time>2010-04-05T17:01:31Z</time>
      </trkpt>
      <trkpt lat="43.92808" lon="7.09278">
        <ele>299.11</ele>
        <time>2010-04-05T17:01:32Z</time>
      </trkpt>
      <trkpt lat="43.92809" lon="7.09274">
        <ele>297.18</ele>
        <time>2010-04-05T17:01:33Z</time>
      </trkpt>
      <trkpt lat="43.92813" lon="7.09265">
        <ele>293.82</ele>
        <time>2010-04-05T17:01:35Z</time>
      </trkpt>
      <trkpt lat="43.92818" lon="7.09253">
        <ele>290.46</ele>
        <time>2010-04-05T17:01:37Z</time>
      </trkpt>
      <trkpt lat="43.9282" lon="7.09248">
        <ele>289.49</ele>
        <time>2010-04-05T17:01:38Z</time>
      </trkpt>
      <trkpt lat="43.92824" lon="7.09242">
        <ele>288.05</ele>
        <time>2010-04-05T17:01:39Z</time>
      </trkpt>
      <trkpt lat="43.92834" lon="7.09228">
        <ele>285.17</ele>
        <time>2010-04-05T17:01:42Z</time>
      </trkpt>
      <trkpt lat="43.9284" lon="7.09234">
        <ele>284.69</ele>
        <time>2010-04-05T17:02:02Z</time>
      </trkpt>
      <trkpt lat="43.92843" lon="7.09234">
        <ele>288.05</ele>
        <time>2010-04-05T17:03:52Z</time>
      </trkpt>
      <trkpt lat="43.92843" lon="7.09235">
        <ele>288.53</ele>
        <time>2010-04-05T17:04:44Z</time>
      </trkpt>
      <trkpt lat="43.92843" lon="7.09239">
        <ele>288.05</ele>
        <time>2010-04-05T17:04:45Z</time>
      </trkpt>
      <trkpt lat="43.92841" lon="7.09241">
        <ele>287.57</ele>
        <time>2010-04-05T17:04:46Z</time>
      </trkpt>
      <trkpt lat="43.92839" lon="7.09243">
        <ele>286.61</ele>
        <time>2010-04-05T17:04:47Z</time>
      </trkpt>
      <trkpt lat="43.92838" lon="7.09244">
        <ele>286.13</ele>
        <time>2010-04-05T17:04:48Z</time>
      </trkpt>
      <trkpt lat="43.92823" lon="7.09255">
        <ele>285.65</ele>
        <time>2010-04-05T17:05:01Z</time>
      </trkpt>
      <trkpt lat="43.92825" lon="7.09256">
        <ele>285.17</ele>
        <time>2010-04-05T17:05:02Z</time>
      </trkpt>
      <trkpt lat="43.92837" lon="7.09267">
        <ele>281.8</ele>
        <time>2010-04-05T17:05:09Z</time>
      </trkpt>
      <trkpt lat="43.92841" lon="7.09271">
        <ele>278.92</ele>
        <time>2010-04-05T17:05:14Z</time>
      </trkpt>
      <trkpt lat="43.92833" lon="7.0927">
        <ele>280.36</ele>
        <time>2010-04-05T17:05:51Z</time>
      </trkpt>
      <trkpt lat="43.92833" lon="7.0927">
        <ele>280.36</ele>
        <time>2010-04-05T17:06:05Z</time>
      </trkpt>
      <trkpt lat="43.92829" lon="7.09271">
        <ele>280.84</ele>
        <time>2010-04-05T17:06:06Z</time>
      </trkpt>
      <trkpt lat="43.92827" lon="7.09275">
        <ele>280.36</ele>
        <time>2010-04-05T17:06:07Z</time>
      </trkpt>
      <trkpt lat="43.9282" lon="7.09304">
        <ele>277</ele>
        <time>2010-04-05T17:06:12Z</time>
      </trkpt>
      <trkpt lat="43.92818" lon="7.09312">
        <ele>277</ele>
        <time>2010-04-05T17:06:13Z</time>
      </trkpt>
      <trkpt lat="43.92813" lon="7.09329">
        <ele>274.59</ele>
        <time>2010-04-05T17:06:15Z</time>
      </trkpt>
      <trkpt lat="43.92806" lon="7.09357">
        <ele>272.67</ele>
        <time>2010-04-05T17:06:18Z</time>
      </trkpt>
      <trkpt lat="43.92798" lon="7.09384">
        <ele>269.31</ele>
        <time>2010-04-05T17:06:21Z</time>
      </trkpt>
      <trkpt lat="43.92797" lon="7.09396">
        <ele>267.86</ele>
        <time>2010-04-05T17:06:22Z</time>
      </trkpt>
      <trkpt lat="43.92797" lon="7.09409">
        <ele>267.86</ele>
        <time>2010-04-05T17:06:23Z</time>
      </trkpt>
      <trkpt lat="43.92792" lon="7.0944">
        <ele>267.86</ele>
        <time>2010-04-05T17:06:26Z</time>
      </trkpt>
      <trkpt lat="43.92785" lon="7.09487">
        <ele>267.38</ele>
        <time>2010-04-05T17:06:31Z</time>
      </trkpt>
      <trkpt lat="43.92781" lon="7.09501">
        <ele>267.86</ele>
        <time>2010-04-05T17:06:33Z</time>
      </trkpt>
      <trkpt lat="43.92765" lon="7.09528">
        <ele>267.38</ele>
        <time>2010-04-05T17:06:38Z</time>
      </trkpt>
      <trkpt lat="43.92764" lon="7.09533">
        <ele>267.38</ele>
        <time>2010-04-05T17:06:39Z</time>
      </trkpt>
      <trkpt lat="43.92763" lon="7.09539">
        <ele>267.86</ele>
        <time>2010-04-05T17:06:40Z</time>
      </trkpt>
      <trkpt lat="43.92754" lon="7.09629">
        <ele>265.46</ele>
        <time>2010-04-05T17:06:57Z</time>
      </trkpt>
      <trkpt lat="43.92753" lon="7.09635">
        <ele>265.94</ele>
        <time>2010-04-05T17:06:58Z</time>
      </trkpt>
      <trkpt lat="43.92753" lon="7.09641">
        <ele>265.94</ele>
        <time>2010-04-05T17:06:59Z</time>
      </trkpt>
      <trkpt lat="43.92752" lon="7.09653">
        <ele>265.94</ele>
        <time>2010-04-05T17:07:01Z</time>
      </trkpt>
      <trkpt lat="43.92748" lon="7.09679">
        <ele>264.98</ele>
        <time>2010-04-05T17:07:05Z</time>
      </trkpt>
      <trkpt lat="43.92747" lon="7.09715">
        <ele>264.02</ele>
        <time>2010-04-05T17:07:10Z</time>
      </trkpt>
      <trkpt lat="43.92748" lon="7.09735">
        <ele>263.54</ele>
        <time>2010-04-05T17:07:13Z</time>
      </trkpt>
      <trkpt lat="43.9275" lon="7.09766">
        <ele>263.54</ele>
        <time>2010-04-05T17:07:18Z</time>
      </trkpt>
      <trkpt lat="43.92751" lon="7.09773">
        <ele>263.06</ele>
        <time>2010-04-05T17:07:19Z</time>
      </trkpt>
      <trkpt lat="43.92757" lon="7.09793">
        <ele>262.58</ele>
        <time>2010-04-05T17:07:22Z</time>
      </trkpt>
      <trkpt lat="43.92762" lon="7.09804">
        <ele>262.58</ele>
        <time>2010-04-05T17:07:24Z</time>
      </trkpt>
      <trkpt lat="43.92764" lon="7.09809">
        <ele>262.58</ele>
        <time>2010-04-05T17:07:25Z</time>
      </trkpt>
      <trkpt lat="43.92766" lon="7.09814">
        <ele>262.58</ele>
        <time>2010-04-05T17:07:26Z</time>
      </trkpt>
      <trkpt lat="43.92768" lon="7.09819">
        <ele>262.58</ele>
        <time>2010-04-05T17:07:27Z</time>
      </trkpt>
      <trkpt lat="43.9277" lon="7.09824">
        <ele>262.58</ele>
        <time>2010-04-05T17:07:28Z</time>
      </trkpt>
      <trkpt lat="43.92772" lon="7.09829">
        <ele>262.1</ele>
        <time>2010-04-05T17:07:29Z</time>
      </trkpt>
      <trkpt lat="43.92774" lon="7.09833">
        <ele>262.1</ele>
        <time>2010-04-05T17:07:30Z</time>
      </trkpt>
      <trkpt lat="43.92807" lon="7.09918">
        <ele>259.69</ele>
        <time>2010-04-05T17:07:44Z</time>
      </trkpt>
      <trkpt lat="43.92809" lon="7.09923">
        <ele>259.69</ele>
        <time>2010-04-05T17:07:45Z</time>
      </trkpt>
      <trkpt lat="43.92809" lon="7.09926">
        <ele>259.69</ele>
        <time>2010-04-05T17:07:46Z</time>
      </trkpt>
      <trkpt lat="43.92808" lon="7.09928">
        <ele>259.69</ele>
        <time>2010-04-05T17:07:47Z</time>
      </trkpt>
      <trkpt lat="43.92802" lon="7.09925">
        <ele>262.1</ele>
        <time>2010-04-05T17:08:15Z</time>
      </trkpt>
      <trkpt lat="43.92794" lon="7.09921">
        <ele>264.98</ele>
        <time>2010-04-05T17:08:24Z</time>
      </trkpt>
      <trkpt lat="43.92792" lon="7.09921">
        <ele>264.5</ele>
        <time>2010-04-05T17:08:40Z</time>
      </trkpt>
      <trkpt lat="43.92794" lon="7.09919">
        <ele>264.5</ele>
        <time>2010-04-05T17:08:57Z</time>
      </trkpt>
      <trkpt lat="43.92793" lon="7.09918">
        <ele>264.02</ele>
        <time>2010-04-05T17:09:35Z</time>
      </trkpt>
      <trkpt lat="43.92793" lon="7.09918">
        <ele>263.54</ele>
        <time>2010-04-05T17:10:39Z</time>
      </trkpt>
      <trkpt lat="43.92796" lon="7.09908">
        <ele>263.54</ele>
        <time>2010-04-05T17:10:43Z</time>
      </trkpt>
      <trkpt lat="43.92823" lon="7.0981">
        <ele>264.98</ele>
        <time>2010-04-05T17:11:02Z</time>
      </trkpt>
      <trkpt lat="43.92827" lon="7.09793">
        <ele>265.46</ele>
        <time>2010-04-05T17:11:05Z</time>
      </trkpt>
      <trkpt lat="43.92829" lon="7.09787">
        <ele>264.98</ele>
        <time>2010-04-05T17:11:06Z</time>
      </trkpt>
      <trkpt lat="43.92841" lon="7.09749">
        <ele>265.94</ele>
        <time>2010-04-05T17:11:22Z</time>
      </trkpt>
      <trkpt lat="43.9284" lon="7.09738">
        <ele>265.94</ele>
        <time>2010-04-05T17:11:49Z</time>
      </trkpt>
      <trkpt lat="43.9284" lon="7.09736">
        <ele>265.46</ele>
        <time>2010-04-05T17:11:50Z</time>
      </trkpt>
      <trkpt lat="43.92841" lon="7.09733">
        <ele>266.42</ele>
        <time>2010-04-05T17:11:51Z</time>
      </trkpt>
      <trkpt lat="43.92841" lon="7.0973">
        <ele>265.94</ele>
        <time>2010-04-05T17:11:52Z</time>
      </trkpt>
      <trkpt lat="43.92841" lon="7.09727">
        <ele>265.94</ele>
        <time>2010-04-05T17:11:53Z</time>
      </trkpt>
      <trkpt lat="43.92842" lon="7.09723">
        <ele>265.46</ele>
        <time>2010-04-05T17:11:54Z</time>
      </trkpt>
      <trkpt lat="43.92843" lon="7.0972">
        <ele>266.42</ele>
        <time>2010-04-05T17:11:55Z</time>
      </trkpt>
      <trkpt lat="43.92854" lon="7.09609">
        <ele>266.42</ele>
        <time>2010-04-05T17:12:14Z</time>
      </trkpt>
      <trkpt lat="43.92859" lon="7.09575">
        <ele>265.94</ele>
        <time>2010-04-05T17:12:19Z</time>
      </trkpt>
      <trkpt lat="43.9286" lon="7.09568">
        <ele>266.42</ele>
        <time>2010-04-05T17:12:20Z</time>
      </trkpt>
      <trkpt lat="43.92861" lon="7.09562">
        <ele>266.42</ele>
        <time>2010-04-05T17:12:21Z</time>
      </trkpt>
      <trkpt lat="43.92874" lon="7.09516">
        <ele>266.42</ele>
        <time>2010-04-05T17:12:28Z</time>
      </trkpt>
      <trkpt lat="43.92883" lon="7.09472">
        <ele>266.42</ele>
        <time>2010-04-05T17:12:35Z</time>
      </trkpt>
      <trkpt lat="43.9292" lon="7.09374">
        <ele>266.9</ele>
        <time>2010-04-05T17:12:53Z</time>
      </trkpt>
      <trkpt lat="43.92923" lon="7.09369">
        <ele>267.38</ele>
        <time>2010-04-05T17:12:54Z</time>
      </trkpt>
      <trkpt lat="43.9298" lon="7.09249">
        <ele>267.86</ele>
        <time>2010-04-05T17:13:15Z</time>
      </trkpt>
      <trkpt lat="43.9306" lon="7.09105">
        <ele>269.31</ele>
        <time>2010-04-05T17:13:40Z</time>
      </trkpt>
      <trkpt lat="43.93129" lon="7.09022">
        <ele>270.75</ele>
        <time>2010-04-05T17:13:58Z</time>
      </trkpt>
      <trkpt lat="43.93162" lon="7.08989">
        <ele>271.23</ele>
        <time>2010-04-05T17:14:06Z</time>
      </trkpt>
      <trkpt lat="43.93267" lon="7.08933">
        <ele>272.67</ele>
        <time>2010-04-05T17:14:29Z</time>
      </trkpt>
      <trkpt lat="43.93383" lon="7.0887">
        <ele>274.11</ele>
        <time>2010-04-05T17:14:54Z</time>
      </trkpt>
      <trkpt lat="43.93497" lon="7.08806">
        <ele>275.56</ele>
        <time>2010-04-05T17:15:17Z</time>
      </trkpt>
      <trkpt lat="43.936" lon="7.08747">
        <ele>277</ele>
        <time>2010-04-05T17:15:38Z</time>
      </trkpt>
      <trkpt lat="43.93628" lon="7.08718">
        <ele>277</ele>
        <time>2010-04-05T17:15:45Z</time>
      </trkpt>
      <trkpt lat="43.93631" lon="7.08713">
        <ele>277</ele>
        <time>2010-04-05T17:15:46Z</time>
      </trkpt>
      <trkpt lat="43.93651" lon="7.08654">
        <ele>277</ele>
        <time>2010-04-05T17:18:23Z</time>
      </trkpt>
      <trkpt lat="43.93649" lon="7.08654">
        <ele>276.04</ele>
        <time>2010-04-05T17:18:38Z</time>
      </trkpt>
      <trkpt lat="43.93649" lon="7.08654">
        <ele>278.92</ele>
        <time>2010-04-05T17:18:40Z</time>
      </trkpt>
      <trkpt lat="43.9365" lon="7.08656">
        <ele>277.48</ele>
        <time>2010-04-05T17:18:54Z</time>
      </trkpt>
    </trkseg>
  </trk>
</gpx>